<?xml version="1.0" encoding="UTF-8" standalone="no" ?>
<gpx xmlns="http://www.topografix.com/GPX/1/1" xmlns:xsi="http://www.w3.org/2001/XMLSchema-instance" xsi:schemaLocation="http://www.topografix.com/GPX/1/1 http://www.topografix.com/GPX/1/1/gpx.xsd" version="1.1" creator="VisuGPX - https://www.visugpx.com">
  <metadata>
    <name>Trek au Ladakh</name>
    <desc><![CDATA[Trek au Ladakh - Septembre 2015]]></desc>
  </metadata>
  <trk>
    <name><![CDATA[Camp de Lanak (4120m) - Dundunchen La (4620m) - Chilling (3210m)]]></name>
    <trkseg>
      <trkpt lat="34.0959" lon="77.1439">
        <ele>4083.2</ele>
        <time>2015-08-31T02:38:27Z</time>
      </trkpt>
      <trkpt lat="34.09589" lon="77.14393">
        <ele>4083.2</ele>
        <time>2015-08-31T02:38:29Z</time>
      </trkpt>
      <trkpt lat="34.09583" lon="77.144">
        <ele>4083</ele>
        <time>2015-08-31T02:39:28Z</time>
      </trkpt>
      <trkpt lat="34.09588" lon="77.14401">
        <ele>4083.4</ele>
        <time>2015-08-31T02:40:29Z</time>
      </trkpt>
      <trkpt lat="34.09579" lon="77.14404">
        <ele>4084.2</ele>
        <time>2015-08-31T02:41:33Z</time>
      </trkpt>
      <trkpt lat="34.09577" lon="77.14412">
        <ele>4085.4</ele>
        <time>2015-08-31T02:42:31Z</time>
      </trkpt>
      <trkpt lat="34.0958" lon="77.14414">
        <ele>4086.4</ele>
        <time>2015-08-31T02:42:38Z</time>
      </trkpt>
      <trkpt lat="34.09579" lon="77.14424">
        <ele>4087.4</ele>
        <time>2015-08-31T02:42:58Z</time>
      </trkpt>
      <trkpt lat="34.09575" lon="77.14429">
        <ele>4088.4</ele>
        <time>2015-08-31T02:43:14Z</time>
      </trkpt>
      <trkpt lat="34.09573" lon="77.14436">
        <ele>4089</ele>
        <time>2015-08-31T02:43:22Z</time>
      </trkpt>
      <trkpt lat="34.09563" lon="77.14438">
        <ele>4089.4</ele>
        <time>2015-08-31T02:43:32Z</time>
      </trkpt>
      <trkpt lat="34.09562" lon="77.14438">
        <ele>4089.4</ele>
        <time>2015-08-31T02:43:33Z</time>
      </trkpt>
      <trkpt lat="34.09557" lon="77.14437">
        <ele>4089.6</ele>
        <time>2015-08-31T02:43:37Z</time>
      </trkpt>
      <trkpt lat="34.0955" lon="77.14439">
        <ele>4090.6</ele>
        <time>2015-08-31T02:43:48Z</time>
      </trkpt>
      <trkpt lat="34.09546" lon="77.1444">
        <ele>4091.2</ele>
        <time>2015-08-31T02:43:54Z</time>
      </trkpt>
      <trkpt lat="34.09545" lon="77.14441">
        <ele>4091.6</ele>
        <time>2015-08-31T02:43:57Z</time>
      </trkpt>
      <trkpt lat="34.09542" lon="77.1445">
        <ele>4092.6</ele>
        <time>2015-08-31T02:44:12Z</time>
      </trkpt>
      <trkpt lat="34.09544" lon="77.14462">
        <ele>4093.6</ele>
        <time>2015-08-31T02:44:26Z</time>
      </trkpt>
      <trkpt lat="34.09535" lon="77.14469">
        <ele>4094.8</ele>
        <time>2015-08-31T02:44:40Z</time>
      </trkpt>
      <trkpt lat="34.0953" lon="77.14474">
        <ele>4095.2</ele>
        <time>2015-08-31T02:44:46Z</time>
      </trkpt>
      <trkpt lat="34.09527" lon="77.14474">
        <ele>4095.4</ele>
        <time>2015-08-31T02:44:50Z</time>
      </trkpt>
      <trkpt lat="34.09525" lon="77.14476">
        <ele>4095.8</ele>
        <time>2015-08-31T02:44:54Z</time>
      </trkpt>
      <trkpt lat="34.09521" lon="77.14481">
        <ele>4096.8</ele>
        <time>2015-08-31T02:45:08Z</time>
      </trkpt>
      <trkpt lat="34.0952" lon="77.14488">
        <ele>4097.8</ele>
        <time>2015-08-31T02:45:21Z</time>
      </trkpt>
      <trkpt lat="34.09518" lon="77.14495">
        <ele>4098.8</ele>
        <time>2015-08-31T02:45:31Z</time>
      </trkpt>
      <trkpt lat="34.09516" lon="77.14497">
        <ele>4100</ele>
        <time>2015-08-31T02:45:39Z</time>
      </trkpt>
      <trkpt lat="34.09511" lon="77.14498">
        <ele>4101</ele>
        <time>2015-08-31T02:45:48Z</time>
      </trkpt>
      <trkpt lat="34.09508" lon="77.14496">
        <ele>4102</ele>
        <time>2015-08-31T02:45:59Z</time>
      </trkpt>
      <trkpt lat="34.09512" lon="77.14503">
        <ele>4103</ele>
        <time>2015-08-31T02:46:13Z</time>
      </trkpt>
      <trkpt lat="34.0951" lon="77.14507">
        <ele>4104.2</ele>
        <time>2015-08-31T02:46:22Z</time>
      </trkpt>
      <trkpt lat="34.0951" lon="77.14513">
        <ele>4105.2</ele>
        <time>2015-08-31T02:46:29Z</time>
      </trkpt>
      <trkpt lat="34.0951" lon="77.14519">
        <ele>4106</ele>
        <time>2015-08-31T02:46:35Z</time>
      </trkpt>
      <trkpt lat="34.0951" lon="77.14521">
        <ele>4106.2</ele>
        <time>2015-08-31T02:46:38Z</time>
      </trkpt>
      <trkpt lat="34.09505" lon="77.14526">
        <ele>4107.4</ele>
        <time>2015-08-31T02:46:51Z</time>
      </trkpt>
      <trkpt lat="34.09502" lon="77.1453">
        <ele>4108.4</ele>
        <time>2015-08-31T02:47:01Z</time>
      </trkpt>
      <trkpt lat="34.09496" lon="77.14534">
        <ele>4109.4</ele>
        <time>2015-08-31T02:47:10Z</time>
      </trkpt>
      <trkpt lat="34.09497" lon="77.14542">
        <ele>4110.4</ele>
        <time>2015-08-31T02:47:25Z</time>
      </trkpt>
      <trkpt lat="34.095" lon="77.14546">
        <ele>4111.4</ele>
        <time>2015-08-31T02:47:41Z</time>
      </trkpt>
      <trkpt lat="34.09509" lon="77.14544">
        <ele>4112.4</ele>
        <time>2015-08-31T02:48:00Z</time>
      </trkpt>
      <trkpt lat="34.09511" lon="77.14547">
        <ele>4113.6</ele>
        <time>2015-08-31T02:48:13Z</time>
      </trkpt>
      <trkpt lat="34.09507" lon="77.14553">
        <ele>4114.6</ele>
        <time>2015-08-31T02:48:24Z</time>
      </trkpt>
      <trkpt lat="34.09507" lon="77.14557">
        <ele>4115.6</ele>
        <time>2015-08-31T02:48:37Z</time>
      </trkpt>
      <trkpt lat="34.09509" lon="77.14563">
        <ele>4116.8</ele>
        <time>2015-08-31T02:48:47Z</time>
      </trkpt>
      <trkpt lat="34.09508" lon="77.14566">
        <ele>4117.8</ele>
        <time>2015-08-31T02:49:01Z</time>
      </trkpt>
      <trkpt lat="34.09506" lon="77.14571">
        <ele>4119</ele>
        <time>2015-08-31T02:49:13Z</time>
      </trkpt>
      <trkpt lat="34.09508" lon="77.14575">
        <ele>4120</ele>
        <time>2015-08-31T02:49:22Z</time>
      </trkpt>
      <trkpt lat="34.09505" lon="77.1458">
        <ele>4121</ele>
        <time>2015-08-31T02:49:33Z</time>
      </trkpt>
      <trkpt lat="34.09502" lon="77.14583">
        <ele>4122.2</ele>
        <time>2015-08-31T02:49:49Z</time>
      </trkpt>
      <trkpt lat="34.09502" lon="77.14589">
        <ele>4123.2</ele>
        <time>2015-08-31T02:50:03Z</time>
      </trkpt>
      <trkpt lat="34.095" lon="77.14593">
        <ele>4124.2</ele>
        <time>2015-08-31T02:50:12Z</time>
      </trkpt>
      <trkpt lat="34.09499" lon="77.14595">
        <ele>4125.2</ele>
        <time>2015-08-31T02:50:20Z</time>
      </trkpt>
      <trkpt lat="34.09498" lon="77.14599">
        <ele>4126.4</ele>
        <time>2015-08-31T02:50:32Z</time>
      </trkpt>
      <trkpt lat="34.09498" lon="77.14603">
        <ele>4127.4</ele>
        <time>2015-08-31T02:50:42Z</time>
      </trkpt>
      <trkpt lat="34.09494" lon="77.14608">
        <ele>4128.4</ele>
        <time>2015-08-31T02:50:52Z</time>
      </trkpt>
      <trkpt lat="34.09491" lon="77.14615">
        <ele>4129.6</ele>
        <time>2015-08-31T02:51:06Z</time>
      </trkpt>
      <trkpt lat="34.09488" lon="77.14618">
        <ele>4130.6</ele>
        <time>2015-08-31T02:51:18Z</time>
      </trkpt>
      <trkpt lat="34.09488" lon="77.14624">
        <ele>4131.6</ele>
        <time>2015-08-31T02:51:33Z</time>
      </trkpt>
      <trkpt lat="34.09484" lon="77.14633">
        <ele>4132.6</ele>
        <time>2015-08-31T02:51:48Z</time>
      </trkpt>
      <trkpt lat="34.09482" lon="77.14637">
        <ele>4133.6</ele>
        <time>2015-08-31T02:51:58Z</time>
      </trkpt>
      <trkpt lat="34.0948" lon="77.14643">
        <ele>4134.8</ele>
        <time>2015-08-31T02:52:12Z</time>
      </trkpt>
      <trkpt lat="34.09475" lon="77.14646">
        <ele>4136</ele>
        <time>2015-08-31T02:52:28Z</time>
      </trkpt>
      <trkpt lat="34.09472" lon="77.14653">
        <ele>4137</ele>
        <time>2015-08-31T02:52:42Z</time>
      </trkpt>
      <trkpt lat="34.0947" lon="77.1466">
        <ele>4138</ele>
        <time>2015-08-31T02:52:56Z</time>
      </trkpt>
      <trkpt lat="34.09469" lon="77.14665">
        <ele>4139</ele>
        <time>2015-08-31T02:53:07Z</time>
      </trkpt>
      <trkpt lat="34.09461" lon="77.14669">
        <ele>4140.2</ele>
        <time>2015-08-31T02:53:22Z</time>
      </trkpt>
      <trkpt lat="34.09457" lon="77.14672">
        <ele>4141.2</ele>
        <time>2015-08-31T02:53:35Z</time>
      </trkpt>
      <trkpt lat="34.09454" lon="77.14677">
        <ele>4142</ele>
        <time>2015-08-31T02:53:45Z</time>
      </trkpt>
      <trkpt lat="34.09454" lon="77.14681">
        <ele>4142.4</ele>
        <time>2015-08-31T02:53:50Z</time>
      </trkpt>
      <trkpt lat="34.09452" lon="77.14684">
        <ele>4143.4</ele>
        <time>2015-08-31T02:54:00Z</time>
      </trkpt>
      <trkpt lat="34.09453" lon="77.14689">
        <ele>4144.4</ele>
        <time>2015-08-31T02:54:14Z</time>
      </trkpt>
      <trkpt lat="34.09452" lon="77.14696">
        <ele>4145.4</ele>
        <time>2015-08-31T02:54:27Z</time>
      </trkpt>
      <trkpt lat="34.09448" lon="77.14702">
        <ele>4146.4</ele>
        <time>2015-08-31T02:54:40Z</time>
      </trkpt>
      <trkpt lat="34.09442" lon="77.14704">
        <ele>4147.4</ele>
        <time>2015-08-31T02:54:53Z</time>
      </trkpt>
      <trkpt lat="34.09442" lon="77.14712">
        <ele>4148.6</ele>
        <time>2015-08-31T02:55:08Z</time>
      </trkpt>
      <trkpt lat="34.09438" lon="77.14713">
        <ele>4149.6</ele>
        <time>2015-08-31T02:55:21Z</time>
      </trkpt>
      <trkpt lat="34.09429" lon="77.14718">
        <ele>4150.6</ele>
        <time>2015-08-31T02:55:36Z</time>
      </trkpt>
      <trkpt lat="34.09424" lon="77.1472">
        <ele>4151.6</ele>
        <time>2015-08-31T02:55:48Z</time>
      </trkpt>
      <trkpt lat="34.09423" lon="77.14725">
        <ele>4152.8</ele>
        <time>2015-08-31T02:55:59Z</time>
      </trkpt>
      <trkpt lat="34.0942" lon="77.14729">
        <ele>4153.8</ele>
        <time>2015-08-31T02:56:11Z</time>
      </trkpt>
      <trkpt lat="34.09416" lon="77.1473">
        <ele>4154.8</ele>
        <time>2015-08-31T02:56:24Z</time>
      </trkpt>
      <trkpt lat="34.09413" lon="77.1474">
        <ele>4155.8</ele>
        <time>2015-08-31T02:56:38Z</time>
      </trkpt>
      <trkpt lat="34.09415" lon="77.14746">
        <ele>4157</ele>
        <time>2015-08-31T02:56:50Z</time>
      </trkpt>
      <trkpt lat="34.0941" lon="77.14748">
        <ele>4158</ele>
        <time>2015-08-31T02:57:01Z</time>
      </trkpt>
      <trkpt lat="34.09408" lon="77.14747">
        <ele>4159.2</ele>
        <time>2015-08-31T02:57:10Z</time>
      </trkpt>
      <trkpt lat="34.09406" lon="77.14751">
        <ele>4160.2</ele>
        <time>2015-08-31T02:57:20Z</time>
      </trkpt>
      <trkpt lat="34.09405" lon="77.14756">
        <ele>4161.2</ele>
        <time>2015-08-31T02:57:31Z</time>
      </trkpt>
      <trkpt lat="34.09403" lon="77.14762">
        <ele>4162.4</ele>
        <time>2015-08-31T02:57:44Z</time>
      </trkpt>
      <trkpt lat="34.094" lon="77.1477">
        <ele>4163.4</ele>
        <time>2015-08-31T02:57:54Z</time>
      </trkpt>
      <trkpt lat="34.09393" lon="77.14783">
        <ele>4164.6</ele>
        <time>2015-08-31T02:58:16Z</time>
      </trkpt>
      <trkpt lat="34.09392" lon="77.14798">
        <ele>4165.6</ele>
        <time>2015-08-31T02:58:35Z</time>
      </trkpt>
      <trkpt lat="34.09387" lon="77.14816">
        <ele>4166.8</ele>
        <time>2015-08-31T02:59:01Z</time>
      </trkpt>
      <trkpt lat="34.09377" lon="77.14833">
        <ele>4167</ele>
        <time>2015-08-31T02:59:27Z</time>
      </trkpt>
      <trkpt lat="34.09371" lon="77.14839">
        <ele>4167.8</ele>
        <time>2015-08-31T02:59:41Z</time>
      </trkpt>
      <trkpt lat="34.09368" lon="77.1485">
        <ele>4168.8</ele>
        <time>2015-08-31T02:59:58Z</time>
      </trkpt>
      <trkpt lat="34.09355" lon="77.14863">
        <ele>4169.8</ele>
        <time>2015-08-31T03:00:28Z</time>
      </trkpt>
      <trkpt lat="34.09354" lon="77.14864">
        <ele>4169.8</ele>
        <time>2015-08-31T03:00:29Z</time>
      </trkpt>
      <trkpt lat="34.09352" lon="77.1487">
        <ele>4170.8</ele>
        <time>2015-08-31T03:00:42Z</time>
      </trkpt>
      <trkpt lat="34.09354" lon="77.1488">
        <ele>4171.8</ele>
        <time>2015-08-31T03:00:55Z</time>
      </trkpt>
      <trkpt lat="34.09353" lon="77.14886">
        <ele>4172.8</ele>
        <time>2015-08-31T03:01:02Z</time>
      </trkpt>
      <trkpt lat="34.09345" lon="77.14892">
        <ele>4174</ele>
        <time>2015-08-31T03:01:19Z</time>
      </trkpt>
      <trkpt lat="34.09346" lon="77.14898">
        <ele>4175</ele>
        <time>2015-08-31T03:01:32Z</time>
      </trkpt>
      <trkpt lat="34.0934" lon="77.14899">
        <ele>4176.2</ele>
        <time>2015-08-31T03:01:46Z</time>
      </trkpt>
      <trkpt lat="34.09337" lon="77.14903">
        <ele>4177.2</ele>
        <time>2015-08-31T03:01:56Z</time>
      </trkpt>
      <trkpt lat="34.09335" lon="77.14908">
        <ele>4178.2</ele>
        <time>2015-08-31T03:02:06Z</time>
      </trkpt>
      <trkpt lat="34.09336" lon="77.14915">
        <ele>4179.2</ele>
        <time>2015-08-31T03:02:20Z</time>
      </trkpt>
      <trkpt lat="34.09336" lon="77.14919">
        <ele>4180.2</ele>
        <time>2015-08-31T03:02:31Z</time>
      </trkpt>
      <trkpt lat="34.09332" lon="77.14923">
        <ele>4181.2</ele>
        <time>2015-08-31T03:02:45Z</time>
      </trkpt>
      <trkpt lat="34.09333" lon="77.14926">
        <ele>4182.4</ele>
        <time>2015-08-31T03:02:55Z</time>
      </trkpt>
      <trkpt lat="34.09337" lon="77.14929">
        <ele>4183.4</ele>
        <time>2015-08-31T03:03:05Z</time>
      </trkpt>
      <trkpt lat="34.09339" lon="77.14934">
        <ele>4184.4</ele>
        <time>2015-08-31T03:03:15Z</time>
      </trkpt>
      <trkpt lat="34.09338" lon="77.14937">
        <ele>4185.4</ele>
        <time>2015-08-31T03:03:24Z</time>
      </trkpt>
      <trkpt lat="34.09333" lon="77.14939">
        <ele>4185.6</ele>
        <time>2015-08-31T03:03:31Z</time>
      </trkpt>
      <trkpt lat="34.09329" lon="77.14937">
        <ele>4186.6</ele>
        <time>2015-08-31T03:03:41Z</time>
      </trkpt>
      <trkpt lat="34.09327" lon="77.14939">
        <ele>4187.6</ele>
        <time>2015-08-31T03:03:50Z</time>
      </trkpt>
      <trkpt lat="34.09325" lon="77.14944">
        <ele>4188.8</ele>
        <time>2015-08-31T03:04:03Z</time>
      </trkpt>
      <trkpt lat="34.09323" lon="77.14946">
        <ele>4190</ele>
        <time>2015-08-31T03:04:14Z</time>
      </trkpt>
      <trkpt lat="34.09318" lon="77.14945">
        <ele>4191</ele>
        <time>2015-08-31T03:04:21Z</time>
      </trkpt>
      <trkpt lat="34.09318" lon="77.14949">
        <ele>4192</ele>
        <time>2015-08-31T03:04:34Z</time>
      </trkpt>
      <trkpt lat="34.09315" lon="77.1495">
        <ele>4193</ele>
        <time>2015-08-31T03:04:47Z</time>
      </trkpt>
      <trkpt lat="34.09312" lon="77.14951">
        <ele>4194.2</ele>
        <time>2015-08-31T03:04:56Z</time>
      </trkpt>
      <trkpt lat="34.0931" lon="77.14957">
        <ele>4195.2</ele>
        <time>2015-08-31T03:05:05Z</time>
      </trkpt>
      <trkpt lat="34.09313" lon="77.14963">
        <ele>4196.2</ele>
        <time>2015-08-31T03:05:19Z</time>
      </trkpt>
      <trkpt lat="34.09307" lon="77.14963">
        <ele>4197.2</ele>
        <time>2015-08-31T03:05:28Z</time>
      </trkpt>
      <trkpt lat="34.09305" lon="77.14965">
        <ele>4198.4</ele>
        <time>2015-08-31T03:05:38Z</time>
      </trkpt>
      <trkpt lat="34.09302" lon="77.14966">
        <ele>4199.4</ele>
        <time>2015-08-31T03:05:51Z</time>
      </trkpt>
      <trkpt lat="34.09297" lon="77.14964">
        <ele>4200.6</ele>
        <time>2015-08-31T03:06:04Z</time>
      </trkpt>
      <trkpt lat="34.09295" lon="77.14965">
        <ele>4201.6</ele>
        <time>2015-08-31T03:06:14Z</time>
      </trkpt>
      <trkpt lat="34.09292" lon="77.14962">
        <ele>4202.6</ele>
        <time>2015-08-31T03:06:24Z</time>
      </trkpt>
      <trkpt lat="34.09287" lon="77.14961">
        <ele>4203.8</ele>
        <time>2015-08-31T03:06:37Z</time>
      </trkpt>
      <trkpt lat="34.0928" lon="77.14965">
        <ele>4205</ele>
        <time>2015-08-31T03:06:48Z</time>
      </trkpt>
      <trkpt lat="34.09277" lon="77.14967">
        <ele>4206</ele>
        <time>2015-08-31T03:06:58Z</time>
      </trkpt>
      <trkpt lat="34.09276" lon="77.14966">
        <ele>4206.2</ele>
        <time>2015-08-31T03:07:02Z</time>
      </trkpt>
      <trkpt lat="34.09275" lon="77.14975">
        <ele>4207</ele>
        <time>2015-08-31T03:07:11Z</time>
      </trkpt>
      <trkpt lat="34.09274" lon="77.14979">
        <ele>4208</ele>
        <time>2015-08-31T03:07:21Z</time>
      </trkpt>
      <trkpt lat="34.09269" lon="77.14979">
        <ele>4209</ele>
        <time>2015-08-31T03:07:31Z</time>
      </trkpt>
      <trkpt lat="34.09263" lon="77.14978">
        <ele>4210.2</ele>
        <time>2015-08-31T03:07:45Z</time>
      </trkpt>
      <trkpt lat="34.09258" lon="77.14976">
        <ele>4211.4</ele>
        <time>2015-08-31T03:08:00Z</time>
      </trkpt>
      <trkpt lat="34.09255" lon="77.14981">
        <ele>4212.4</ele>
        <time>2015-08-31T03:08:12Z</time>
      </trkpt>
      <trkpt lat="34.09249" lon="77.14985">
        <ele>4213.4</ele>
        <time>2015-08-31T03:08:24Z</time>
      </trkpt>
      <trkpt lat="34.09241" lon="77.14981">
        <ele>4214.4</ele>
        <time>2015-08-31T03:08:41Z</time>
      </trkpt>
      <trkpt lat="34.09236" lon="77.14982">
        <ele>4215.4</ele>
        <time>2015-08-31T03:08:51Z</time>
      </trkpt>
      <trkpt lat="34.09232" lon="77.14988">
        <ele>4216.6</ele>
        <time>2015-08-31T03:09:04Z</time>
      </trkpt>
      <trkpt lat="34.09223" lon="77.15006">
        <ele>4217</ele>
        <time>2015-08-31T03:09:31Z</time>
      </trkpt>
      <trkpt lat="34.09223" lon="77.15009">
        <ele>4217.6</ele>
        <time>2015-08-31T03:09:36Z</time>
      </trkpt>
      <trkpt lat="34.09216" lon="77.15018">
        <ele>4218.6</ele>
        <time>2015-08-31T03:09:55Z</time>
      </trkpt>
      <trkpt lat="34.09216" lon="77.1502">
        <ele>4219.8</ele>
        <time>2015-08-31T03:10:07Z</time>
      </trkpt>
      <trkpt lat="34.09213" lon="77.15025">
        <ele>4220.8</ele>
        <time>2015-08-31T03:10:22Z</time>
      </trkpt>
      <trkpt lat="34.09211" lon="77.15024">
        <ele>4221.8</ele>
        <time>2015-08-31T03:10:30Z</time>
      </trkpt>
      <trkpt lat="34.09206" lon="77.15034">
        <ele>4222.8</ele>
        <time>2015-08-31T03:10:47Z</time>
      </trkpt>
      <trkpt lat="34.09205" lon="77.15037">
        <ele>4223.4</ele>
        <time>2015-08-31T03:10:51Z</time>
      </trkpt>
      <trkpt lat="34.09203" lon="77.15037">
        <ele>4223.8</ele>
        <time>2015-08-31T03:10:57Z</time>
      </trkpt>
      <trkpt lat="34.09199" lon="77.15033">
        <ele>4225</ele>
        <time>2015-08-31T03:11:11Z</time>
      </trkpt>
      <trkpt lat="34.09195" lon="77.15033">
        <ele>4226</ele>
        <time>2015-08-31T03:11:24Z</time>
      </trkpt>
      <trkpt lat="34.09192" lon="77.1503">
        <ele>4227</ele>
        <time>2015-08-31T03:11:35Z</time>
      </trkpt>
      <trkpt lat="34.09192" lon="77.15033">
        <ele>4228.2</ele>
        <time>2015-08-31T03:11:46Z</time>
      </trkpt>
      <trkpt lat="34.09195" lon="77.15038">
        <ele>4229.2</ele>
        <time>2015-08-31T03:11:57Z</time>
      </trkpt>
      <trkpt lat="34.09198" lon="77.15042">
        <ele>4230.4</ele>
        <time>2015-08-31T03:12:07Z</time>
      </trkpt>
      <trkpt lat="34.09198" lon="77.15046">
        <ele>4231.4</ele>
        <time>2015-08-31T03:12:16Z</time>
      </trkpt>
      <trkpt lat="34.0919" lon="77.15043">
        <ele>4232.4</ele>
        <time>2015-08-31T03:12:27Z</time>
      </trkpt>
      <trkpt lat="34.09187" lon="77.15047">
        <ele>4233.4</ele>
        <time>2015-08-31T03:12:37Z</time>
      </trkpt>
      <trkpt lat="34.09185" lon="77.15052">
        <ele>4234.4</ele>
        <time>2015-08-31T03:12:49Z</time>
      </trkpt>
      <trkpt lat="34.09185" lon="77.15058">
        <ele>4235.6</ele>
        <time>2015-08-31T03:13:03Z</time>
      </trkpt>
      <trkpt lat="34.09184" lon="77.1506">
        <ele>4236.6</ele>
        <time>2015-08-31T03:13:10Z</time>
      </trkpt>
      <trkpt lat="34.09186" lon="77.15067">
        <ele>4237.8</ele>
        <time>2015-08-31T03:13:25Z</time>
      </trkpt>
      <trkpt lat="34.09186" lon="77.1507">
        <ele>4238.8</ele>
        <time>2015-08-31T03:13:33Z</time>
      </trkpt>
      <trkpt lat="34.0919" lon="77.15076">
        <ele>4239.8</ele>
        <time>2015-08-31T03:13:47Z</time>
      </trkpt>
      <trkpt lat="34.09187" lon="77.15081">
        <ele>4241</ele>
        <time>2015-08-31T03:14:00Z</time>
      </trkpt>
      <trkpt lat="34.09188" lon="77.15085">
        <ele>4242</ele>
        <time>2015-08-31T03:14:11Z</time>
      </trkpt>
      <trkpt lat="34.09187" lon="77.15092">
        <ele>4243.2</ele>
        <time>2015-08-31T03:14:22Z</time>
      </trkpt>
      <trkpt lat="34.09186" lon="77.15097">
        <ele>4244.2</ele>
        <time>2015-08-31T03:14:32Z</time>
      </trkpt>
      <trkpt lat="34.09182" lon="77.151">
        <ele>4245.2</ele>
        <time>2015-08-31T03:14:42Z</time>
      </trkpt>
      <trkpt lat="34.09178" lon="77.15096">
        <ele>4246.2</ele>
        <time>2015-08-31T03:14:51Z</time>
      </trkpt>
      <trkpt lat="34.09173" lon="77.15094">
        <ele>4247.2</ele>
        <time>2015-08-31T03:15:02Z</time>
      </trkpt>
      <trkpt lat="34.09175" lon="77.15097">
        <ele>4248</ele>
        <time>2015-08-31T03:15:23Z</time>
      </trkpt>
      <trkpt lat="34.09179" lon="77.15094">
        <ele>4248.2</ele>
        <time>2015-08-31T03:15:39Z</time>
      </trkpt>
      <trkpt lat="34.09178" lon="77.15094">
        <ele>4248.2</ele>
        <time>2015-08-31T03:15:43Z</time>
      </trkpt>
      <trkpt lat="34.09177" lon="77.15088">
        <ele>4249</ele>
        <time>2015-08-31T03:16:38Z</time>
      </trkpt>
      <trkpt lat="34.09174" lon="77.15092">
        <ele>4249.2</ele>
        <time>2015-08-31T03:16:41Z</time>
      </trkpt>
      <trkpt lat="34.09174" lon="77.15096">
        <ele>4249.2</ele>
        <time>2015-08-31T03:16:43Z</time>
      </trkpt>
      <trkpt lat="34.09179" lon="77.15096">
        <ele>4249.4</ele>
        <time>2015-08-31T03:17:05Z</time>
      </trkpt>
      <trkpt lat="34.0918" lon="77.15091">
        <ele>4249.6</ele>
        <time>2015-08-31T03:17:44Z</time>
      </trkpt>
      <trkpt lat="34.09176" lon="77.1509">
        <ele>4249.4</ele>
        <time>2015-08-31T03:18:07Z</time>
      </trkpt>
      <trkpt lat="34.09173" lon="77.15091">
        <ele>4249.2</ele>
        <time>2015-08-31T03:18:09Z</time>
      </trkpt>
      <trkpt lat="34.09176" lon="77.15094">
        <ele>4249.4</ele>
        <time>2015-08-31T03:18:18Z</time>
      </trkpt>
      <trkpt lat="34.09173" lon="77.15092">
        <ele>4249.2</ele>
        <time>2015-08-31T03:18:22Z</time>
      </trkpt>
      <trkpt lat="34.09172" lon="77.15093">
        <ele>4250.4</ele>
        <time>2015-08-31T03:19:00Z</time>
      </trkpt>
      <trkpt lat="34.0917" lon="77.15096">
        <ele>4251.4</ele>
        <time>2015-08-31T03:19:13Z</time>
      </trkpt>
      <trkpt lat="34.0917" lon="77.151">
        <ele>4252.4</ele>
        <time>2015-08-31T03:19:22Z</time>
      </trkpt>
      <trkpt lat="34.09169" lon="77.15107">
        <ele>4253.6</ele>
        <time>2015-08-31T03:19:31Z</time>
      </trkpt>
      <trkpt lat="34.09171" lon="77.15111">
        <ele>4254.8</ele>
        <time>2015-08-31T03:19:40Z</time>
      </trkpt>
      <trkpt lat="34.09171" lon="77.15112">
        <ele>4255.8</ele>
        <time>2015-08-31T03:19:50Z</time>
      </trkpt>
      <trkpt lat="34.09171" lon="77.15115">
        <ele>4256.8</ele>
        <time>2015-08-31T03:19:59Z</time>
      </trkpt>
      <trkpt lat="34.09168" lon="77.15122">
        <ele>4257.8</ele>
        <time>2015-08-31T03:20:12Z</time>
      </trkpt>
      <trkpt lat="34.09165" lon="77.15127">
        <ele>4258.6</ele>
        <time>2015-08-31T03:20:20Z</time>
      </trkpt>
      <trkpt lat="34.09162" lon="77.15128">
        <ele>4259</ele>
        <time>2015-08-31T03:20:24Z</time>
      </trkpt>
      <trkpt lat="34.09158" lon="77.15122">
        <ele>4260</ele>
        <time>2015-08-31T03:20:36Z</time>
      </trkpt>
      <trkpt lat="34.09154" lon="77.15116">
        <ele>4261</ele>
        <time>2015-08-31T03:20:52Z</time>
      </trkpt>
      <trkpt lat="34.09152" lon="77.15118">
        <ele>4262.2</ele>
        <time>2015-08-31T03:21:02Z</time>
      </trkpt>
      <trkpt lat="34.09157" lon="77.15123">
        <ele>4263.2</ele>
        <time>2015-08-31T03:21:16Z</time>
      </trkpt>
      <trkpt lat="34.09157" lon="77.15124">
        <ele>4263.6</ele>
        <time>2015-08-31T03:21:20Z</time>
      </trkpt>
      <trkpt lat="34.09158" lon="77.15126">
        <ele>4264.2</ele>
        <time>2015-08-31T03:21:30Z</time>
      </trkpt>
      <trkpt lat="34.09156" lon="77.15131">
        <ele>4265.4</ele>
        <time>2015-08-31T03:21:40Z</time>
      </trkpt>
      <trkpt lat="34.09156" lon="77.15136">
        <ele>4266.4</ele>
        <time>2015-08-31T03:21:54Z</time>
      </trkpt>
      <trkpt lat="34.09155" lon="77.15139">
        <ele>4267.4</ele>
        <time>2015-08-31T03:22:03Z</time>
      </trkpt>
      <trkpt lat="34.09153" lon="77.15143">
        <ele>4268.6</ele>
        <time>2015-08-31T03:22:12Z</time>
      </trkpt>
      <trkpt lat="34.09152" lon="77.15148">
        <ele>4269.6</ele>
        <time>2015-08-31T03:22:22Z</time>
      </trkpt>
      <trkpt lat="34.09152" lon="77.15151">
        <ele>4270.6</ele>
        <time>2015-08-31T03:22:32Z</time>
      </trkpt>
      <trkpt lat="34.0915" lon="77.15154">
        <ele>4271.6</ele>
        <time>2015-08-31T03:22:42Z</time>
      </trkpt>
      <trkpt lat="34.09143" lon="77.15155">
        <ele>4272.6</ele>
        <time>2015-08-31T03:22:52Z</time>
      </trkpt>
      <trkpt lat="34.0914" lon="77.15153">
        <ele>4273</ele>
        <time>2015-08-31T03:22:55Z</time>
      </trkpt>
      <trkpt lat="34.09138" lon="77.1515">
        <ele>4273.8</ele>
        <time>2015-08-31T03:23:03Z</time>
      </trkpt>
      <trkpt lat="34.09136" lon="77.15148">
        <ele>4274.8</ele>
        <time>2015-08-31T03:23:12Z</time>
      </trkpt>
      <trkpt lat="34.09133" lon="77.15149">
        <ele>4275.8</ele>
        <time>2015-08-31T03:23:22Z</time>
      </trkpt>
      <trkpt lat="34.09133" lon="77.15146">
        <ele>4277</ele>
        <time>2015-08-31T03:23:33Z</time>
      </trkpt>
      <trkpt lat="34.09134" lon="77.15146">
        <ele>4278</ele>
        <time>2015-08-31T03:23:42Z</time>
      </trkpt>
      <trkpt lat="34.09135" lon="77.15149">
        <ele>4279</ele>
        <time>2015-08-31T03:23:52Z</time>
      </trkpt>
      <trkpt lat="34.09135" lon="77.15153">
        <ele>4280.2</ele>
        <time>2015-08-31T03:24:03Z</time>
      </trkpt>
      <trkpt lat="34.09135" lon="77.1516">
        <ele>4281.4</ele>
        <time>2015-08-31T03:24:13Z</time>
      </trkpt>
      <trkpt lat="34.09132" lon="77.15156">
        <ele>4282.4</ele>
        <time>2015-08-31T03:24:25Z</time>
      </trkpt>
      <trkpt lat="34.0913" lon="77.15156">
        <ele>4283.4</ele>
        <time>2015-08-31T03:24:32Z</time>
      </trkpt>
      <trkpt lat="34.0913" lon="77.15157">
        <ele>4284.6</ele>
        <time>2015-08-31T03:24:44Z</time>
      </trkpt>
      <trkpt lat="34.09131" lon="77.1516">
        <ele>4285.6</ele>
        <time>2015-08-31T03:24:53Z</time>
      </trkpt>
      <trkpt lat="34.0913" lon="77.15164">
        <ele>4286.6</ele>
        <time>2015-08-31T03:25:01Z</time>
      </trkpt>
      <trkpt lat="34.09128" lon="77.15166">
        <ele>4287.6</ele>
        <time>2015-08-31T03:25:10Z</time>
      </trkpt>
      <trkpt lat="34.09126" lon="77.15172">
        <ele>4288.8</ele>
        <time>2015-08-31T03:25:20Z</time>
      </trkpt>
      <trkpt lat="34.09126" lon="77.15176">
        <ele>4290</ele>
        <time>2015-08-31T03:25:30Z</time>
      </trkpt>
      <trkpt lat="34.09124" lon="77.1518">
        <ele>4291</ele>
        <time>2015-08-31T03:25:41Z</time>
      </trkpt>
      <trkpt lat="34.0912" lon="77.1518">
        <ele>4292</ele>
        <time>2015-08-31T03:25:53Z</time>
      </trkpt>
      <trkpt lat="34.09118" lon="77.15182">
        <ele>4293.2</ele>
        <time>2015-08-31T03:26:03Z</time>
      </trkpt>
      <trkpt lat="34.09115" lon="77.15185">
        <ele>4294.2</ele>
        <time>2015-08-31T03:26:13Z</time>
      </trkpt>
      <trkpt lat="34.09115" lon="77.15186">
        <ele>4295.2</ele>
        <time>2015-08-31T03:26:22Z</time>
      </trkpt>
      <trkpt lat="34.09113" lon="77.15189">
        <ele>4296.2</ele>
        <time>2015-08-31T03:26:32Z</time>
      </trkpt>
      <trkpt lat="34.0911" lon="77.15194">
        <ele>4297.4</ele>
        <time>2015-08-31T03:26:43Z</time>
      </trkpt>
      <trkpt lat="34.09107" lon="77.15196">
        <ele>4298.4</ele>
        <time>2015-08-31T03:26:54Z</time>
      </trkpt>
      <trkpt lat="34.09105" lon="77.15198">
        <ele>4299.4</ele>
        <time>2015-08-31T03:27:02Z</time>
      </trkpt>
      <trkpt lat="34.09105" lon="77.15198">
        <ele>4299.6</ele>
        <time>2015-08-31T03:27:03Z</time>
      </trkpt>
      <trkpt lat="34.09102" lon="77.15198">
        <ele>4300.6</ele>
        <time>2015-08-31T03:27:14Z</time>
      </trkpt>
      <trkpt lat="34.09102" lon="77.15198">
        <ele>4301.6</ele>
        <time>2015-08-31T03:27:26Z</time>
      </trkpt>
      <trkpt lat="34.09101" lon="77.15202">
        <ele>4302.6</ele>
        <time>2015-08-31T03:27:34Z</time>
      </trkpt>
      <trkpt lat="34.09097" lon="77.15208">
        <ele>4303.8</ele>
        <time>2015-08-31T03:27:45Z</time>
      </trkpt>
      <trkpt lat="34.09094" lon="77.15206">
        <ele>4304.8</ele>
        <time>2015-08-31T03:27:54Z</time>
      </trkpt>
      <trkpt lat="34.09092" lon="77.15204">
        <ele>4305.8</ele>
        <time>2015-08-31T03:28:03Z</time>
      </trkpt>
      <trkpt lat="34.09091" lon="77.152">
        <ele>4307</ele>
        <time>2015-08-31T03:28:13Z</time>
      </trkpt>
      <trkpt lat="34.09088" lon="77.15199">
        <ele>4308.2</ele>
        <time>2015-08-31T03:28:22Z</time>
      </trkpt>
      <trkpt lat="34.09089" lon="77.15202">
        <ele>4309.2</ele>
        <time>2015-08-31T03:28:58Z</time>
      </trkpt>
      <trkpt lat="34.0909" lon="77.15203">
        <ele>4309.2</ele>
        <time>2015-08-31T03:29:58Z</time>
      </trkpt>
      <trkpt lat="34.09084" lon="77.15202">
        <ele>4310.2</ele>
        <time>2015-08-31T03:30:41Z</time>
      </trkpt>
      <trkpt lat="34.09084" lon="77.15212">
        <ele>4311.2</ele>
        <time>2015-08-31T03:30:51Z</time>
      </trkpt>
      <trkpt lat="34.09083" lon="77.15212">
        <ele>4312.4</ele>
        <time>2015-08-31T03:31:01Z</time>
      </trkpt>
      <trkpt lat="34.09081" lon="77.15222">
        <ele>4313.6</ele>
        <time>2015-08-31T03:31:08Z</time>
      </trkpt>
      <trkpt lat="34.09078" lon="77.15224">
        <ele>4314.6</ele>
        <time>2015-08-31T03:31:18Z</time>
      </trkpt>
      <trkpt lat="34.09078" lon="77.15227">
        <ele>4315.8</ele>
        <time>2015-08-31T03:31:24Z</time>
      </trkpt>
      <trkpt lat="34.0908" lon="77.15234">
        <ele>4316.8</ele>
        <time>2015-08-31T03:31:32Z</time>
      </trkpt>
      <trkpt lat="34.0908" lon="77.15238">
        <ele>4318</ele>
        <time>2015-08-31T03:31:41Z</time>
      </trkpt>
      <trkpt lat="34.09076" lon="77.15242">
        <ele>4319</ele>
        <time>2015-08-31T03:31:50Z</time>
      </trkpt>
      <trkpt lat="34.09077" lon="77.15246">
        <ele>4320</ele>
        <time>2015-08-31T03:31:58Z</time>
      </trkpt>
      <trkpt lat="34.09075" lon="77.15251">
        <ele>4321.2</ele>
        <time>2015-08-31T03:32:06Z</time>
      </trkpt>
      <trkpt lat="34.0907" lon="77.15254">
        <ele>4322</ele>
        <time>2015-08-31T03:32:12Z</time>
      </trkpt>
      <trkpt lat="34.0907" lon="77.15255">
        <ele>4322.2</ele>
        <time>2015-08-31T03:32:13Z</time>
      </trkpt>
      <trkpt lat="34.09066" lon="77.15253">
        <ele>4323.2</ele>
        <time>2015-08-31T03:32:24Z</time>
      </trkpt>
      <trkpt lat="34.09064" lon="77.15255">
        <ele>4324.4</ele>
        <time>2015-08-31T03:32:33Z</time>
      </trkpt>
      <trkpt lat="34.09063" lon="77.15264">
        <ele>4325.4</ele>
        <time>2015-08-31T03:32:41Z</time>
      </trkpt>
      <trkpt lat="34.09068" lon="77.15266">
        <ele>4326.6</ele>
        <time>2015-08-31T03:32:50Z</time>
      </trkpt>
      <trkpt lat="34.09071" lon="77.15269">
        <ele>4327.6</ele>
        <time>2015-08-31T03:32:59Z</time>
      </trkpt>
      <trkpt lat="34.09068" lon="77.15271">
        <ele>4328.8</ele>
        <time>2015-08-31T03:33:07Z</time>
      </trkpt>
      <trkpt lat="34.09066" lon="77.15274">
        <ele>4329.8</ele>
        <time>2015-08-31T03:33:16Z</time>
      </trkpt>
      <trkpt lat="34.09065" lon="77.15278">
        <ele>4331</ele>
        <time>2015-08-31T03:33:24Z</time>
      </trkpt>
      <trkpt lat="34.09063" lon="77.15282">
        <ele>4332</ele>
        <time>2015-08-31T03:33:33Z</time>
      </trkpt>
      <trkpt lat="34.09062" lon="77.15287">
        <ele>4333</ele>
        <time>2015-08-31T03:33:44Z</time>
      </trkpt>
      <trkpt lat="34.09061" lon="77.15293">
        <ele>4334.2</ele>
        <time>2015-08-31T03:33:54Z</time>
      </trkpt>
      <trkpt lat="34.09056" lon="77.15298">
        <ele>4335</ele>
        <time>2015-08-31T03:34:03Z</time>
      </trkpt>
      <trkpt lat="34.09055" lon="77.15298">
        <ele>4335.2</ele>
        <time>2015-08-31T03:34:04Z</time>
      </trkpt>
      <trkpt lat="34.09054" lon="77.15298">
        <ele>4335.4</ele>
        <time>2015-08-31T03:34:06Z</time>
      </trkpt>
      <trkpt lat="34.09053" lon="77.15301">
        <ele>4336.2</ele>
        <time>2015-08-31T03:34:12Z</time>
      </trkpt>
      <trkpt lat="34.09052" lon="77.15305">
        <ele>4337.4</ele>
        <time>2015-08-31T03:34:22Z</time>
      </trkpt>
      <trkpt lat="34.09051" lon="77.15308">
        <ele>4338.4</ele>
        <time>2015-08-31T03:34:33Z</time>
      </trkpt>
      <trkpt lat="34.09048" lon="77.15313">
        <ele>4339.4</ele>
        <time>2015-08-31T03:34:42Z</time>
      </trkpt>
      <trkpt lat="34.09048" lon="77.15317">
        <ele>4339.8</ele>
        <time>2015-08-31T03:34:46Z</time>
      </trkpt>
      <trkpt lat="34.09047" lon="77.15322">
        <ele>4340.6</ele>
        <time>2015-08-31T03:34:54Z</time>
      </trkpt>
      <trkpt lat="34.09048" lon="77.15328">
        <ele>4341.6</ele>
        <time>2015-08-31T03:35:05Z</time>
      </trkpt>
      <trkpt lat="34.09047" lon="77.15334">
        <ele>4342.8</ele>
        <time>2015-08-31T03:35:14Z</time>
      </trkpt>
      <trkpt lat="34.09043" lon="77.15339">
        <ele>4344</ele>
        <time>2015-08-31T03:35:25Z</time>
      </trkpt>
      <trkpt lat="34.09037" lon="77.1534">
        <ele>4345</ele>
        <time>2015-08-31T03:35:35Z</time>
      </trkpt>
      <trkpt lat="34.09036" lon="77.15342">
        <ele>4346</ele>
        <time>2015-08-31T03:35:44Z</time>
      </trkpt>
      <trkpt lat="34.09036" lon="77.15347">
        <ele>4347</ele>
        <time>2015-08-31T03:35:52Z</time>
      </trkpt>
      <trkpt lat="34.09039" lon="77.15353">
        <ele>4348.2</ele>
        <time>2015-08-31T03:36:02Z</time>
      </trkpt>
      <trkpt lat="34.09034" lon="77.1536">
        <ele>4349.2</ele>
        <time>2015-08-31T03:36:12Z</time>
      </trkpt>
      <trkpt lat="34.09033" lon="77.15363">
        <ele>4350</ele>
        <time>2015-08-31T03:36:17Z</time>
      </trkpt>
      <trkpt lat="34.09032" lon="77.15365">
        <ele>4350.4</ele>
        <time>2015-08-31T03:36:20Z</time>
      </trkpt>
      <trkpt lat="34.09035" lon="77.15368">
        <ele>4351.4</ele>
        <time>2015-08-31T03:36:28Z</time>
      </trkpt>
      <trkpt lat="34.09036" lon="77.15372">
        <ele>4352.4</ele>
        <time>2015-08-31T03:36:36Z</time>
      </trkpt>
      <trkpt lat="34.09035" lon="77.15375">
        <ele>4353.6</ele>
        <time>2015-08-31T03:36:44Z</time>
      </trkpt>
      <trkpt lat="34.09033" lon="77.15378">
        <ele>4354.6</ele>
        <time>2015-08-31T03:36:52Z</time>
      </trkpt>
      <trkpt lat="34.0903" lon="77.15377">
        <ele>4355.6</ele>
        <time>2015-08-31T03:37:00Z</time>
      </trkpt>
      <trkpt lat="34.09028" lon="77.15375">
        <ele>4356.6</ele>
        <time>2015-08-31T03:37:08Z</time>
      </trkpt>
      <trkpt lat="34.09026" lon="77.15374">
        <ele>4357.8</ele>
        <time>2015-08-31T03:37:16Z</time>
      </trkpt>
      <trkpt lat="34.09021" lon="77.15376">
        <ele>4358.8</ele>
        <time>2015-08-31T03:37:27Z</time>
      </trkpt>
      <trkpt lat="34.0902" lon="77.15376">
        <ele>4359</ele>
        <time>2015-08-31T03:37:29Z</time>
      </trkpt>
      <trkpt lat="34.09017" lon="77.15375">
        <ele>4359.8</ele>
        <time>2015-08-31T03:37:35Z</time>
      </trkpt>
      <trkpt lat="34.09014" lon="77.15377">
        <ele>4360.8</ele>
        <time>2015-08-31T03:37:44Z</time>
      </trkpt>
      <trkpt lat="34.0901" lon="77.15379">
        <ele>4361.8</ele>
        <time>2015-08-31T03:37:53Z</time>
      </trkpt>
      <trkpt lat="34.09007" lon="77.15382">
        <ele>4363</ele>
        <time>2015-08-31T03:38:02Z</time>
      </trkpt>
      <trkpt lat="34.09005" lon="77.15382">
        <ele>4364</ele>
        <time>2015-08-31T03:38:11Z</time>
      </trkpt>
      <trkpt lat="34.09001" lon="77.15386">
        <ele>4365.2</ele>
        <time>2015-08-31T03:38:20Z</time>
      </trkpt>
      <trkpt lat="34.08997" lon="77.15386">
        <ele>4366.2</ele>
        <time>2015-08-31T03:38:30Z</time>
      </trkpt>
      <trkpt lat="34.08993" lon="77.15386">
        <ele>4367.4</ele>
        <time>2015-08-31T03:38:37Z</time>
      </trkpt>
      <trkpt lat="34.08989" lon="77.1539">
        <ele>4368.4</ele>
        <time>2015-08-31T03:38:48Z</time>
      </trkpt>
      <trkpt lat="34.08992" lon="77.15397">
        <ele>4369.6</ele>
        <time>2015-08-31T03:38:59Z</time>
      </trkpt>
      <trkpt lat="34.08991" lon="77.15402">
        <ele>4370.6</ele>
        <time>2015-08-31T03:39:09Z</time>
      </trkpt>
      <trkpt lat="34.0899" lon="77.15406">
        <ele>4371.8</ele>
        <time>2015-08-31T03:39:19Z</time>
      </trkpt>
      <trkpt lat="34.08991" lon="77.1541">
        <ele>4372.8</ele>
        <time>2015-08-31T03:39:26Z</time>
      </trkpt>
      <trkpt lat="34.08996" lon="77.15413">
        <ele>4374</ele>
        <time>2015-08-31T03:39:35Z</time>
      </trkpt>
      <trkpt lat="34.09" lon="77.15415">
        <ele>4375</ele>
        <time>2015-08-31T03:39:43Z</time>
      </trkpt>
      <trkpt lat="34.09002" lon="77.15421">
        <ele>4376</ele>
        <time>2015-08-31T03:39:54Z</time>
      </trkpt>
      <trkpt lat="34.09001" lon="77.15422">
        <ele>4377.2</ele>
        <time>2015-08-31T03:40:01Z</time>
      </trkpt>
      <trkpt lat="34.08996" lon="77.15421">
        <ele>4378.2</ele>
        <time>2015-08-31T03:40:12Z</time>
      </trkpt>
      <trkpt lat="34.08993" lon="77.15419">
        <ele>4379.4</ele>
        <time>2015-08-31T03:40:21Z</time>
      </trkpt>
      <trkpt lat="34.08988" lon="77.1542">
        <ele>4380.4</ele>
        <time>2015-08-31T03:40:30Z</time>
      </trkpt>
      <trkpt lat="34.08984" lon="77.15423">
        <ele>4381.4</ele>
        <time>2015-08-31T03:40:38Z</time>
      </trkpt>
      <trkpt lat="34.08979" lon="77.15418">
        <ele>4382.6</ele>
        <time>2015-08-31T03:40:49Z</time>
      </trkpt>
      <trkpt lat="34.08976" lon="77.15419">
        <ele>4383.6</ele>
        <time>2015-08-31T03:40:57Z</time>
      </trkpt>
      <trkpt lat="34.08969" lon="77.15421">
        <ele>4384.8</ele>
        <time>2015-08-31T03:41:07Z</time>
      </trkpt>
      <trkpt lat="34.08974" lon="77.15428">
        <ele>4385.6</ele>
        <time>2015-08-31T03:41:13Z</time>
      </trkpt>
      <trkpt lat="34.08977" lon="77.15429">
        <ele>4385.8</ele>
        <time>2015-08-31T03:41:15Z</time>
      </trkpt>
      <trkpt lat="34.08979" lon="77.1543">
        <ele>4386.2</ele>
        <time>2015-08-31T03:41:18Z</time>
      </trkpt>
      <trkpt lat="34.08981" lon="77.15431">
        <ele>4386.6</ele>
        <time>2015-08-31T03:41:21Z</time>
      </trkpt>
      <trkpt lat="34.08981" lon="77.15432">
        <ele>4386.8</ele>
        <time>2015-08-31T03:41:23Z</time>
      </trkpt>
      <trkpt lat="34.08981" lon="77.15435">
        <ele>4388</ele>
        <time>2015-08-31T03:41:33Z</time>
      </trkpt>
      <trkpt lat="34.08981" lon="77.15437">
        <ele>4389</ele>
        <time>2015-08-31T03:41:40Z</time>
      </trkpt>
      <trkpt lat="34.08975" lon="77.15443">
        <ele>4390.2</ele>
        <time>2015-08-31T03:41:50Z</time>
      </trkpt>
      <trkpt lat="34.08973" lon="77.15442">
        <ele>4391.2</ele>
        <time>2015-08-31T03:41:59Z</time>
      </trkpt>
      <trkpt lat="34.08971" lon="77.15441">
        <ele>4392.4</ele>
        <time>2015-08-31T03:42:10Z</time>
      </trkpt>
      <trkpt lat="34.08969" lon="77.15442">
        <ele>4393.6</ele>
        <time>2015-08-31T03:42:17Z</time>
      </trkpt>
      <trkpt lat="34.08964" lon="77.15443">
        <ele>4394.6</ele>
        <time>2015-08-31T03:42:27Z</time>
      </trkpt>
      <trkpt lat="34.0896" lon="77.15444">
        <ele>4395.6</ele>
        <time>2015-08-31T03:42:34Z</time>
      </trkpt>
      <trkpt lat="34.08958" lon="77.15447">
        <ele>4396.6</ele>
        <time>2015-08-31T03:42:43Z</time>
      </trkpt>
      <trkpt lat="34.08956" lon="77.1545">
        <ele>4397.2</ele>
        <time>2015-08-31T03:42:47Z</time>
      </trkpt>
      <trkpt lat="34.08956" lon="77.15452">
        <ele>4397.6</ele>
        <time>2015-08-31T03:42:51Z</time>
      </trkpt>
      <trkpt lat="34.08958" lon="77.15455">
        <ele>4398.8</ele>
        <time>2015-08-31T03:43:01Z</time>
      </trkpt>
      <trkpt lat="34.0896" lon="77.15457">
        <ele>4399.8</ele>
        <time>2015-08-31T03:43:09Z</time>
      </trkpt>
      <trkpt lat="34.08964" lon="77.1546">
        <ele>4400.8</ele>
        <time>2015-08-31T03:43:18Z</time>
      </trkpt>
      <trkpt lat="34.08966" lon="77.15462">
        <ele>4402</ele>
        <time>2015-08-31T03:43:27Z</time>
      </trkpt>
      <trkpt lat="34.08966" lon="77.15464">
        <ele>4403</ele>
        <time>2015-08-31T03:43:33Z</time>
      </trkpt>
      <trkpt lat="34.08968" lon="77.15468">
        <ele>4404</ele>
        <time>2015-08-31T03:43:41Z</time>
      </trkpt>
      <trkpt lat="34.08972" lon="77.1547">
        <ele>4405</ele>
        <time>2015-08-31T03:43:50Z</time>
      </trkpt>
      <trkpt lat="34.08974" lon="77.15474">
        <ele>4406</ele>
        <time>2015-08-31T03:43:58Z</time>
      </trkpt>
      <trkpt lat="34.08977" lon="77.15479">
        <ele>4407.2</ele>
        <time>2015-08-31T03:44:10Z</time>
      </trkpt>
      <trkpt lat="34.08973" lon="77.15482">
        <ele>4408.4</ele>
        <time>2015-08-31T03:44:17Z</time>
      </trkpt>
      <trkpt lat="34.08971" lon="77.15479">
        <ele>4409.4</ele>
        <time>2015-08-31T03:44:25Z</time>
      </trkpt>
      <trkpt lat="34.08968" lon="77.15478">
        <ele>4410.6</ele>
        <time>2015-08-31T03:44:32Z</time>
      </trkpt>
      <trkpt lat="34.08966" lon="77.15481">
        <ele>4411.8</ele>
        <time>2015-08-31T03:44:43Z</time>
      </trkpt>
      <trkpt lat="34.08963" lon="77.15485">
        <ele>4412.8</ele>
        <time>2015-08-31T03:44:50Z</time>
      </trkpt>
      <trkpt lat="34.08961" lon="77.15486">
        <ele>4413.8</ele>
        <time>2015-08-31T03:44:57Z</time>
      </trkpt>
      <trkpt lat="34.08957" lon="77.15488">
        <ele>4415</ele>
        <time>2015-08-31T03:45:06Z</time>
      </trkpt>
      <trkpt lat="34.08953" lon="77.15491">
        <ele>4416</ele>
        <time>2015-08-31T03:45:15Z</time>
      </trkpt>
      <trkpt lat="34.08952" lon="77.15492">
        <ele>4417</ele>
        <time>2015-08-31T03:45:24Z</time>
      </trkpt>
      <trkpt lat="34.08948" lon="77.15499">
        <ele>4418.2</ele>
        <time>2015-08-31T03:45:38Z</time>
      </trkpt>
      <trkpt lat="34.08948" lon="77.15501">
        <ele>4419.2</ele>
        <time>2015-08-31T03:45:46Z</time>
      </trkpt>
      <trkpt lat="34.08958" lon="77.155">
        <ele>4420.2</ele>
        <time>2015-08-31T03:45:56Z</time>
      </trkpt>
      <trkpt lat="34.08959" lon="77.155">
        <ele>4420.4</ele>
        <time>2015-08-31T03:45:57Z</time>
      </trkpt>
      <trkpt lat="34.08958" lon="77.15504">
        <ele>4421.4</ele>
        <time>2015-08-31T03:46:28Z</time>
      </trkpt>
      <trkpt lat="34.0895" lon="77.1551">
        <ele>4422.4</ele>
        <time>2015-08-31T03:46:48Z</time>
      </trkpt>
      <trkpt lat="34.08961" lon="77.15512">
        <ele>4423.6</ele>
        <time>2015-08-31T03:47:05Z</time>
      </trkpt>
      <trkpt lat="34.08962" lon="77.15512">
        <ele>4424</ele>
        <time>2015-08-31T03:47:09Z</time>
      </trkpt>
      <trkpt lat="34.08966" lon="77.15512">
        <ele>4424.6</ele>
        <time>2015-08-31T03:47:16Z</time>
      </trkpt>
      <trkpt lat="34.08968" lon="77.15514">
        <ele>4425.6</ele>
        <time>2015-08-31T03:47:22Z</time>
      </trkpt>
      <trkpt lat="34.08969" lon="77.15515">
        <ele>4426.8</ele>
        <time>2015-08-31T03:47:28Z</time>
      </trkpt>
      <trkpt lat="34.08974" lon="77.15515">
        <ele>4427.8</ele>
        <time>2015-08-31T03:47:37Z</time>
      </trkpt>
      <trkpt lat="34.08977" lon="77.15515">
        <ele>4428.2</ele>
        <time>2015-08-31T03:47:40Z</time>
      </trkpt>
      <trkpt lat="34.08978" lon="77.15516">
        <ele>4429</ele>
        <time>2015-08-31T03:47:46Z</time>
      </trkpt>
      <trkpt lat="34.0898" lon="77.15517">
        <ele>4430</ele>
        <time>2015-08-31T03:47:50Z</time>
      </trkpt>
      <trkpt lat="34.08978" lon="77.1552">
        <ele>4431</ele>
        <time>2015-08-31T03:48:05Z</time>
      </trkpt>
      <trkpt lat="34.08978" lon="77.15518">
        <ele>4431.2</ele>
        <time>2015-08-31T03:49:29Z</time>
      </trkpt>
      <trkpt lat="34.08978" lon="77.15521">
        <ele>4431.4</ele>
        <time>2015-08-31T03:50:13Z</time>
      </trkpt>
      <trkpt lat="34.08979" lon="77.15516">
        <ele>4432</ele>
        <time>2015-08-31T03:50:52Z</time>
      </trkpt>
      <trkpt lat="34.08972" lon="77.15524">
        <ele>4432.6</ele>
        <time>2015-08-31T03:52:13Z</time>
      </trkpt>
      <trkpt lat="34.08971" lon="77.15526">
        <ele>4433.2</ele>
        <time>2015-08-31T03:52:19Z</time>
      </trkpt>
      <trkpt lat="34.08969" lon="77.15529">
        <ele>4434.2</ele>
        <time>2015-08-31T03:52:31Z</time>
      </trkpt>
      <trkpt lat="34.08967" lon="77.1553">
        <ele>4435.2</ele>
        <time>2015-08-31T03:52:44Z</time>
      </trkpt>
      <trkpt lat="34.08969" lon="77.15533">
        <ele>4436.2</ele>
        <time>2015-08-31T03:52:56Z</time>
      </trkpt>
      <trkpt lat="34.08969" lon="77.15537">
        <ele>4437.4</ele>
        <time>2015-08-31T03:53:12Z</time>
      </trkpt>
      <trkpt lat="34.08969" lon="77.15537">
        <ele>4438.4</ele>
        <time>2015-08-31T03:53:17Z</time>
      </trkpt>
      <trkpt lat="34.0897" lon="77.15537">
        <ele>4439.6</ele>
        <time>2015-08-31T03:53:33Z</time>
      </trkpt>
      <trkpt lat="34.08968" lon="77.1554">
        <ele>4440.6</ele>
        <time>2015-08-31T03:53:42Z</time>
      </trkpt>
      <trkpt lat="34.08968" lon="77.15542">
        <ele>4441.6</ele>
        <time>2015-08-31T03:53:52Z</time>
      </trkpt>
      <trkpt lat="34.08967" lon="77.15543">
        <ele>4442.6</ele>
        <time>2015-08-31T03:54:01Z</time>
      </trkpt>
      <trkpt lat="34.08965" lon="77.15548">
        <ele>4443.8</ele>
        <time>2015-08-31T03:54:13Z</time>
      </trkpt>
      <trkpt lat="34.08963" lon="77.15552">
        <ele>4444.8</ele>
        <time>2015-08-31T03:54:25Z</time>
      </trkpt>
      <trkpt lat="34.08965" lon="77.15552">
        <ele>4445.8</ele>
        <time>2015-08-31T03:54:39Z</time>
      </trkpt>
      <trkpt lat="34.08962" lon="77.15554">
        <ele>4447</ele>
        <time>2015-08-31T03:54:52Z</time>
      </trkpt>
      <trkpt lat="34.0896" lon="77.15554">
        <ele>4448</ele>
        <time>2015-08-31T03:55:01Z</time>
      </trkpt>
      <trkpt lat="34.08958" lon="77.15561">
        <ele>4449.2</ele>
        <time>2015-08-31T03:55:13Z</time>
      </trkpt>
      <trkpt lat="34.08956" lon="77.15564">
        <ele>4450.2</ele>
        <time>2015-08-31T03:55:23Z</time>
      </trkpt>
      <trkpt lat="34.08956" lon="77.15565">
        <ele>4450.2</ele>
        <time>2015-08-31T03:55:24Z</time>
      </trkpt>
      <trkpt lat="34.08957" lon="77.15566">
        <ele>4451.2</ele>
        <time>2015-08-31T03:55:34Z</time>
      </trkpt>
      <trkpt lat="34.08955" lon="77.1557">
        <ele>4452.2</ele>
        <time>2015-08-31T03:55:46Z</time>
      </trkpt>
      <trkpt lat="34.08953" lon="77.15572">
        <ele>4453.2</ele>
        <time>2015-08-31T03:56:00Z</time>
      </trkpt>
      <trkpt lat="34.08951" lon="77.15575">
        <ele>4454.4</ele>
        <time>2015-08-31T03:56:08Z</time>
      </trkpt>
      <trkpt lat="34.08953" lon="77.15578">
        <ele>4455.4</ele>
        <time>2015-08-31T03:56:23Z</time>
      </trkpt>
      <trkpt lat="34.08952" lon="77.15582">
        <ele>4456.6</ele>
        <time>2015-08-31T03:56:31Z</time>
      </trkpt>
      <trkpt lat="34.08951" lon="77.15585">
        <ele>4457.6</ele>
        <time>2015-08-31T03:56:43Z</time>
      </trkpt>
      <trkpt lat="34.08949" lon="77.15587">
        <ele>4458.6</ele>
        <time>2015-08-31T03:56:54Z</time>
      </trkpt>
      <trkpt lat="34.08946" lon="77.15589">
        <ele>4459.8</ele>
        <time>2015-08-31T03:57:07Z</time>
      </trkpt>
      <trkpt lat="34.08947" lon="77.15594">
        <ele>4460.8</ele>
        <time>2015-08-31T03:57:15Z</time>
      </trkpt>
      <trkpt lat="34.08945" lon="77.15599">
        <ele>4461.8</ele>
        <time>2015-08-31T03:57:27Z</time>
      </trkpt>
      <trkpt lat="34.0894" lon="77.15599">
        <ele>4462.8</ele>
        <time>2015-08-31T03:57:39Z</time>
      </trkpt>
      <trkpt lat="34.08938" lon="77.15603">
        <ele>4463.6</ele>
        <time>2015-08-31T03:57:49Z</time>
      </trkpt>
      <trkpt lat="34.08936" lon="77.15604">
        <ele>4463.8</ele>
        <time>2015-08-31T03:57:53Z</time>
      </trkpt>
      <trkpt lat="34.08933" lon="77.15608">
        <ele>4465</ele>
        <time>2015-08-31T03:58:05Z</time>
      </trkpt>
      <trkpt lat="34.0893" lon="77.15612">
        <ele>4466</ele>
        <time>2015-08-31T03:58:14Z</time>
      </trkpt>
      <trkpt lat="34.08928" lon="77.15614">
        <ele>4466.4</ele>
        <time>2015-08-31T03:58:18Z</time>
      </trkpt>
      <trkpt lat="34.08925" lon="77.15617">
        <ele>4467</ele>
        <time>2015-08-31T03:58:26Z</time>
      </trkpt>
      <trkpt lat="34.08926" lon="77.15619">
        <ele>4468</ele>
        <time>2015-08-31T03:58:33Z</time>
      </trkpt>
      <trkpt lat="34.08929" lon="77.15618">
        <ele>4469</ele>
        <time>2015-08-31T03:58:49Z</time>
      </trkpt>
      <trkpt lat="34.08933" lon="77.15621">
        <ele>4470</ele>
        <time>2015-08-31T03:59:02Z</time>
      </trkpt>
      <trkpt lat="34.0893" lon="77.15622">
        <ele>4471.2</ele>
        <time>2015-08-31T03:59:07Z</time>
      </trkpt>
      <trkpt lat="34.08925" lon="77.15625">
        <ele>4472.2</ele>
        <time>2015-08-31T03:59:18Z</time>
      </trkpt>
      <trkpt lat="34.08927" lon="77.15632">
        <ele>4473.2</ele>
        <time>2015-08-31T03:59:32Z</time>
      </trkpt>
      <trkpt lat="34.08923" lon="77.15637">
        <ele>4474.4</ele>
        <time>2015-08-31T03:59:44Z</time>
      </trkpt>
      <trkpt lat="34.08923" lon="77.1564">
        <ele>4475.4</ele>
        <time>2015-08-31T03:59:55Z</time>
      </trkpt>
      <trkpt lat="34.08923" lon="77.15646">
        <ele>4476.6</ele>
        <time>2015-08-31T04:00:08Z</time>
      </trkpt>
      <trkpt lat="34.08923" lon="77.15647">
        <ele>4477.6</ele>
        <time>2015-08-31T04:00:20Z</time>
      </trkpt>
      <trkpt lat="34.08921" lon="77.1565">
        <ele>4478.6</ele>
        <time>2015-08-31T04:00:32Z</time>
      </trkpt>
      <trkpt lat="34.08919" lon="77.15655">
        <ele>4479.6</ele>
        <time>2015-08-31T04:00:45Z</time>
      </trkpt>
      <trkpt lat="34.08919" lon="77.15656">
        <ele>4480.8</ele>
        <time>2015-08-31T04:00:54Z</time>
      </trkpt>
      <trkpt lat="34.08918" lon="77.15659">
        <ele>4481.8</ele>
        <time>2015-08-31T04:01:08Z</time>
      </trkpt>
      <trkpt lat="34.08914" lon="77.1567">
        <ele>4482.8</ele>
        <time>2015-08-31T04:01:28Z</time>
      </trkpt>
      <trkpt lat="34.0891" lon="77.15669">
        <ele>4483.8</ele>
        <time>2015-08-31T04:01:46Z</time>
      </trkpt>
      <trkpt lat="34.08911" lon="77.15673">
        <ele>4484.8</ele>
        <time>2015-08-31T04:01:55Z</time>
      </trkpt>
      <trkpt lat="34.0891" lon="77.15675">
        <ele>4485.2</ele>
        <time>2015-08-31T04:02:00Z</time>
      </trkpt>
      <trkpt lat="34.08911" lon="77.15676">
        <ele>4486</ele>
        <time>2015-08-31T04:02:04Z</time>
      </trkpt>
      <trkpt lat="34.0891" lon="77.15677">
        <ele>4487.2</ele>
        <time>2015-08-31T04:02:10Z</time>
      </trkpt>
      <trkpt lat="34.0891" lon="77.15678">
        <ele>4487.2</ele>
        <time>2015-08-31T04:02:11Z</time>
      </trkpt>
      <trkpt lat="34.08908" lon="77.15681">
        <ele>4488.2</ele>
        <time>2015-08-31T04:02:24Z</time>
      </trkpt>
      <trkpt lat="34.08905" lon="77.15687">
        <ele>4489.2</ele>
        <time>2015-08-31T04:02:39Z</time>
      </trkpt>
      <trkpt lat="34.08906" lon="77.15687">
        <ele>4490.4</ele>
        <time>2015-08-31T04:02:50Z</time>
      </trkpt>
      <trkpt lat="34.08905" lon="77.15687">
        <ele>4491.4</ele>
        <time>2015-08-31T04:02:58Z</time>
      </trkpt>
      <trkpt lat="34.08903" lon="77.15694">
        <ele>4492</ele>
        <time>2015-08-31T04:03:07Z</time>
      </trkpt>
      <trkpt lat="34.08902" lon="77.15696">
        <ele>4492.6</ele>
        <time>2015-08-31T04:03:17Z</time>
      </trkpt>
      <trkpt lat="34.08897" lon="77.15697">
        <ele>4493.6</ele>
        <time>2015-08-31T04:03:30Z</time>
      </trkpt>
      <trkpt lat="34.08895" lon="77.15699">
        <ele>4494.8</ele>
        <time>2015-08-31T04:03:42Z</time>
      </trkpt>
      <trkpt lat="34.08897" lon="77.15701">
        <ele>4495.8</ele>
        <time>2015-08-31T04:03:55Z</time>
      </trkpt>
      <trkpt lat="34.08896" lon="77.15703">
        <ele>4496.8</ele>
        <time>2015-08-31T04:04:03Z</time>
      </trkpt>
      <trkpt lat="34.08895" lon="77.15707">
        <ele>4498</ele>
        <time>2015-08-31T04:04:16Z</time>
      </trkpt>
      <trkpt lat="34.08891" lon="77.15711">
        <ele>4499</ele>
        <time>2015-08-31T04:04:28Z</time>
      </trkpt>
      <trkpt lat="34.08886" lon="77.15708">
        <ele>4500</ele>
        <time>2015-08-31T04:04:40Z</time>
      </trkpt>
      <trkpt lat="34.08885" lon="77.15715">
        <ele>4501.2</ele>
        <time>2015-08-31T04:04:51Z</time>
      </trkpt>
      <trkpt lat="34.08885" lon="77.15719">
        <ele>4502.2</ele>
        <time>2015-08-31T04:05:03Z</time>
      </trkpt>
      <trkpt lat="34.08882" lon="77.1572">
        <ele>4503.2</ele>
        <time>2015-08-31T04:05:16Z</time>
      </trkpt>
      <trkpt lat="34.08881" lon="77.15725">
        <ele>4504.4</ele>
        <time>2015-08-31T04:05:27Z</time>
      </trkpt>
      <trkpt lat="34.08881" lon="77.15725">
        <ele>4505.4</ele>
        <time>2015-08-31T04:05:40Z</time>
      </trkpt>
      <trkpt lat="34.08879" lon="77.15727">
        <ele>4506.6</ele>
        <time>2015-08-31T04:05:49Z</time>
      </trkpt>
      <trkpt lat="34.08878" lon="77.15733">
        <ele>4507.6</ele>
        <time>2015-08-31T04:05:59Z</time>
      </trkpt>
      <trkpt lat="34.08876" lon="77.15734">
        <ele>4508.6</ele>
        <time>2015-08-31T04:06:12Z</time>
      </trkpt>
      <trkpt lat="34.08873" lon="77.15736">
        <ele>4509.6</ele>
        <time>2015-08-31T04:06:25Z</time>
      </trkpt>
      <trkpt lat="34.08873" lon="77.15739">
        <ele>4510.8</ele>
        <time>2015-08-31T04:06:40Z</time>
      </trkpt>
      <trkpt lat="34.08875" lon="77.15742">
        <ele>4511.8</ele>
        <time>2015-08-31T04:06:51Z</time>
      </trkpt>
      <trkpt lat="34.08877" lon="77.15743">
        <ele>4512.8</ele>
        <time>2015-08-31T04:07:04Z</time>
      </trkpt>
      <trkpt lat="34.08879" lon="77.15744">
        <ele>4513.8</ele>
        <time>2015-08-31T04:07:12Z</time>
      </trkpt>
      <trkpt lat="34.08877" lon="77.15749">
        <ele>4515</ele>
        <time>2015-08-31T04:07:23Z</time>
      </trkpt>
      <trkpt lat="34.08877" lon="77.15752">
        <ele>4516</ele>
        <time>2015-08-31T04:07:35Z</time>
      </trkpt>
      <trkpt lat="34.08878" lon="77.15757">
        <ele>4517.2</ele>
        <time>2015-08-31T04:07:50Z</time>
      </trkpt>
      <trkpt lat="34.08875" lon="77.15759">
        <ele>4518.2</ele>
        <time>2015-08-31T04:08:01Z</time>
      </trkpt>
      <trkpt lat="34.08872" lon="77.1576">
        <ele>4519.2</ele>
        <time>2015-08-31T04:08:08Z</time>
      </trkpt>
      <trkpt lat="34.08868" lon="77.15757">
        <ele>4520.2</ele>
        <time>2015-08-31T04:08:19Z</time>
      </trkpt>
      <trkpt lat="34.08864" lon="77.15763">
        <ele>4521.2</ele>
        <time>2015-08-31T04:08:32Z</time>
      </trkpt>
      <trkpt lat="34.08863" lon="77.15762">
        <ele>4522.4</ele>
        <time>2015-08-31T04:08:45Z</time>
      </trkpt>
      <trkpt lat="34.08861" lon="77.15767">
        <ele>4523.4</ele>
        <time>2015-08-31T04:08:57Z</time>
      </trkpt>
      <trkpt lat="34.08862" lon="77.1577">
        <ele>4524.6</ele>
        <time>2015-08-31T04:09:04Z</time>
      </trkpt>
      <trkpt lat="34.08865" lon="77.15772">
        <ele>4525.6</ele>
        <time>2015-08-31T04:09:15Z</time>
      </trkpt>
      <trkpt lat="34.08866" lon="77.15775">
        <ele>4526.6</ele>
        <time>2015-08-31T04:09:27Z</time>
      </trkpt>
      <trkpt lat="34.08862" lon="77.1578">
        <ele>4527.6</ele>
        <time>2015-08-31T04:09:40Z</time>
      </trkpt>
      <trkpt lat="34.0886" lon="77.15777">
        <ele>4528.8</ele>
        <time>2015-08-31T04:09:57Z</time>
      </trkpt>
      <trkpt lat="34.08858" lon="77.15781">
        <ele>4529.8</ele>
        <time>2015-08-31T04:10:07Z</time>
      </trkpt>
      <trkpt lat="34.08858" lon="77.15783">
        <ele>4531</ele>
        <time>2015-08-31T04:10:14Z</time>
      </trkpt>
      <trkpt lat="34.08857" lon="77.15785">
        <ele>4532.2</ele>
        <time>2015-08-31T04:10:24Z</time>
      </trkpt>
      <trkpt lat="34.08851" lon="77.15786">
        <ele>4533.2</ele>
        <time>2015-08-31T04:10:40Z</time>
      </trkpt>
      <trkpt lat="34.08851" lon="77.15788">
        <ele>4534.4</ele>
        <time>2015-08-31T04:10:53Z</time>
      </trkpt>
      <trkpt lat="34.08851" lon="77.15786">
        <ele>4535.4</ele>
        <time>2015-08-31T04:11:05Z</time>
      </trkpt>
      <trkpt lat="34.08852" lon="77.15787">
        <ele>4536.4</ele>
        <time>2015-08-31T04:11:18Z</time>
      </trkpt>
      <trkpt lat="34.08855" lon="77.15791">
        <ele>4537.4</ele>
        <time>2015-08-31T04:11:27Z</time>
      </trkpt>
      <trkpt lat="34.08854" lon="77.15794">
        <ele>4538.6</ele>
        <time>2015-08-31T04:11:35Z</time>
      </trkpt>
      <trkpt lat="34.08852" lon="77.15798">
        <ele>4539.6</ele>
        <time>2015-08-31T04:11:44Z</time>
      </trkpt>
      <trkpt lat="34.08852" lon="77.15801">
        <ele>4540.6</ele>
        <time>2015-08-31T04:11:53Z</time>
      </trkpt>
      <trkpt lat="34.08853" lon="77.15804">
        <ele>4541.8</ele>
        <time>2015-08-31T04:12:03Z</time>
      </trkpt>
      <trkpt lat="34.08858" lon="77.15805">
        <ele>4542.8</ele>
        <time>2015-08-31T04:12:22Z</time>
      </trkpt>
      <trkpt lat="34.08858" lon="77.15806">
        <ele>4544</ele>
        <time>2015-08-31T04:12:29Z</time>
      </trkpt>
      <trkpt lat="34.08861" lon="77.15807">
        <ele>4545</ele>
        <time>2015-08-31T04:12:44Z</time>
      </trkpt>
      <trkpt lat="34.08864" lon="77.15806">
        <ele>4546.2</ele>
        <time>2015-08-31T04:12:51Z</time>
      </trkpt>
      <trkpt lat="34.08867" lon="77.15808">
        <ele>4546.8</ele>
        <time>2015-08-31T04:12:58Z</time>
      </trkpt>
      <trkpt lat="34.08869" lon="77.15808">
        <ele>4547.2</ele>
        <time>2015-08-31T04:13:01Z</time>
      </trkpt>
      <trkpt lat="34.08871" lon="77.15813">
        <ele>4548.4</ele>
        <time>2015-08-31T04:13:10Z</time>
      </trkpt>
      <trkpt lat="34.08868" lon="77.15814">
        <ele>4549.4</ele>
        <time>2015-08-31T04:13:18Z</time>
      </trkpt>
      <trkpt lat="34.08863" lon="77.15818">
        <ele>4550.4</ele>
        <time>2015-08-31T04:13:32Z</time>
      </trkpt>
      <trkpt lat="34.08863" lon="77.15821">
        <ele>4551.4</ele>
        <time>2015-08-31T04:13:45Z</time>
      </trkpt>
      <trkpt lat="34.08861" lon="77.15823">
        <ele>4552.4</ele>
        <time>2015-08-31T04:13:53Z</time>
      </trkpt>
      <trkpt lat="34.08856" lon="77.15823">
        <ele>4553.4</ele>
        <time>2015-08-31T04:14:11Z</time>
      </trkpt>
      <trkpt lat="34.08858" lon="77.15819">
        <ele>4554.6</ele>
        <time>2015-08-31T04:15:08Z</time>
      </trkpt>
      <trkpt lat="34.08864" lon="77.15827">
        <ele>4555.6</ele>
        <time>2015-08-31T04:15:29Z</time>
      </trkpt>
      <trkpt lat="34.08866" lon="77.15827">
        <ele>4556.8</ele>
        <time>2015-08-31T04:15:33Z</time>
      </trkpt>
      <trkpt lat="34.08867" lon="77.15827">
        <ele>4557</ele>
        <time>2015-08-31T04:15:35Z</time>
      </trkpt>
      <trkpt lat="34.08868" lon="77.15832">
        <ele>4557.6</ele>
        <time>2015-08-31T04:15:40Z</time>
      </trkpt>
      <trkpt lat="34.08868" lon="77.15832">
        <ele>4557.8</ele>
        <time>2015-08-31T04:15:41Z</time>
      </trkpt>
      <trkpt lat="34.08871" lon="77.15836">
        <ele>4559</ele>
        <time>2015-08-31T04:15:47Z</time>
      </trkpt>
      <trkpt lat="34.08872" lon="77.15838">
        <ele>4560</ele>
        <time>2015-08-31T04:15:55Z</time>
      </trkpt>
      <trkpt lat="34.08869" lon="77.15842">
        <ele>4561.2</ele>
        <time>2015-08-31T04:16:05Z</time>
      </trkpt>
      <trkpt lat="34.08868" lon="77.15843">
        <ele>4562.2</ele>
        <time>2015-08-31T04:16:12Z</time>
      </trkpt>
      <trkpt lat="34.08866" lon="77.15848">
        <ele>4563.2</ele>
        <time>2015-08-31T04:16:20Z</time>
      </trkpt>
      <trkpt lat="34.08865" lon="77.15852">
        <ele>4564.2</ele>
        <time>2015-08-31T04:16:30Z</time>
      </trkpt>
      <trkpt lat="34.08864" lon="77.15854">
        <ele>4565.4</ele>
        <time>2015-08-31T04:16:36Z</time>
      </trkpt>
      <trkpt lat="34.08862" lon="77.15855">
        <ele>4566.4</ele>
        <time>2015-08-31T04:16:44Z</time>
      </trkpt>
      <trkpt lat="34.08859" lon="77.15853">
        <ele>4567.4</ele>
        <time>2015-08-31T04:16:52Z</time>
      </trkpt>
      <trkpt lat="34.08855" lon="77.15858">
        <ele>4568.6</ele>
        <time>2015-08-31T04:17:00Z</time>
      </trkpt>
      <trkpt lat="34.08856" lon="77.15864">
        <ele>4569</ele>
        <time>2015-08-31T04:17:05Z</time>
      </trkpt>
      <trkpt lat="34.08855" lon="77.15865">
        <ele>4569.6</ele>
        <time>2015-08-31T04:17:10Z</time>
      </trkpt>
      <trkpt lat="34.08852" lon="77.15862">
        <ele>4570.6</ele>
        <time>2015-08-31T04:17:23Z</time>
      </trkpt>
      <trkpt lat="34.08854" lon="77.15867">
        <ele>4571.8</ele>
        <time>2015-08-31T04:17:34Z</time>
      </trkpt>
      <trkpt lat="34.08858" lon="77.15871">
        <ele>4572.8</ele>
        <time>2015-08-31T04:17:45Z</time>
      </trkpt>
      <trkpt lat="34.08868" lon="77.15868">
        <ele>4573.8</ele>
        <time>2015-08-31T04:17:54Z</time>
      </trkpt>
      <trkpt lat="34.0887" lon="77.15869">
        <ele>4574</ele>
        <time>2015-08-31T04:17:56Z</time>
      </trkpt>
      <trkpt lat="34.08866" lon="77.15873">
        <ele>4574.8</ele>
        <time>2015-08-31T04:18:04Z</time>
      </trkpt>
      <trkpt lat="34.08864" lon="77.15878">
        <ele>4576</ele>
        <time>2015-08-31T04:18:14Z</time>
      </trkpt>
      <trkpt lat="34.08861" lon="77.15879">
        <ele>4577.2</ele>
        <time>2015-08-31T04:18:22Z</time>
      </trkpt>
      <trkpt lat="34.08857" lon="77.15876">
        <ele>4578.2</ele>
        <time>2015-08-31T04:18:30Z</time>
      </trkpt>
      <trkpt lat="34.08858" lon="77.15875">
        <ele>4579.2</ele>
        <time>2015-08-31T04:18:39Z</time>
      </trkpt>
      <trkpt lat="34.08857" lon="77.15881">
        <ele>4580.2</ele>
        <time>2015-08-31T04:18:49Z</time>
      </trkpt>
      <trkpt lat="34.08858" lon="77.15886">
        <ele>4581.2</ele>
        <time>2015-08-31T04:19:00Z</time>
      </trkpt>
      <trkpt lat="34.0886" lon="77.15889">
        <ele>4582.4</ele>
        <time>2015-08-31T04:19:10Z</time>
      </trkpt>
      <trkpt lat="34.08865" lon="77.15887">
        <ele>4583.4</ele>
        <time>2015-08-31T04:19:22Z</time>
      </trkpt>
      <trkpt lat="34.08867" lon="77.15891">
        <ele>4584.4</ele>
        <time>2015-08-31T04:19:32Z</time>
      </trkpt>
      <trkpt lat="34.08872" lon="77.15894">
        <ele>4585.6</ele>
        <time>2015-08-31T04:19:40Z</time>
      </trkpt>
      <trkpt lat="34.08869" lon="77.15898">
        <ele>4586.6</ele>
        <time>2015-08-31T04:19:49Z</time>
      </trkpt>
      <trkpt lat="34.08864" lon="77.15901">
        <ele>4587.6</ele>
        <time>2015-08-31T04:19:59Z</time>
      </trkpt>
      <trkpt lat="34.08863" lon="77.15903">
        <ele>4588.6</ele>
        <time>2015-08-31T04:20:06Z</time>
      </trkpt>
      <trkpt lat="34.08864" lon="77.15906">
        <ele>4589.6</ele>
        <time>2015-08-31T04:20:17Z</time>
      </trkpt>
      <trkpt lat="34.08866" lon="77.15909">
        <ele>4590.8</ele>
        <time>2015-08-31T04:20:26Z</time>
      </trkpt>
      <trkpt lat="34.08866" lon="77.15911">
        <ele>4592</ele>
        <time>2015-08-31T04:20:33Z</time>
      </trkpt>
      <trkpt lat="34.08864" lon="77.1592">
        <ele>4593</ele>
        <time>2015-08-31T04:20:49Z</time>
      </trkpt>
      <trkpt lat="34.08868" lon="77.15921">
        <ele>4594.2</ele>
        <time>2015-08-31T04:20:55Z</time>
      </trkpt>
      <trkpt lat="34.0887" lon="77.15924">
        <ele>4595.2</ele>
        <time>2015-08-31T04:21:03Z</time>
      </trkpt>
      <trkpt lat="34.08869" lon="77.15927">
        <ele>4596.4</ele>
        <time>2015-08-31T04:21:10Z</time>
      </trkpt>
      <trkpt lat="34.08872" lon="77.15933">
        <ele>4597.4</ele>
        <time>2015-08-31T04:21:31Z</time>
      </trkpt>
      <trkpt lat="34.08878" lon="77.15933">
        <ele>4597.6</ele>
        <time>2015-08-31T04:22:35Z</time>
      </trkpt>
      <trkpt lat="34.08875" lon="77.15929">
        <ele>4598.4</ele>
        <time>2015-08-31T04:22:46Z</time>
      </trkpt>
      <trkpt lat="34.08874" lon="77.1593">
        <ele>4598.6</ele>
        <time>2015-08-31T04:23:48Z</time>
      </trkpt>
      <trkpt lat="34.08873" lon="77.1593">
        <ele>4598.4</ele>
        <time>2015-08-31T04:24:43Z</time>
      </trkpt>
      <trkpt lat="34.08876" lon="77.1593">
        <ele>4599.4</ele>
        <time>2015-08-31T04:26:13Z</time>
      </trkpt>
      <trkpt lat="34.08874" lon="77.1593">
        <ele>4600.4</ele>
        <time>2015-08-31T04:26:37Z</time>
      </trkpt>
      <trkpt lat="34.08874" lon="77.15929">
        <ele>4600.6</ele>
        <time>2015-08-31T04:27:43Z</time>
      </trkpt>
      <trkpt lat="34.08876" lon="77.15931">
        <ele>4601.2</ele>
        <time>2015-08-31T04:28:47Z</time>
      </trkpt>
      <trkpt lat="34.08877" lon="77.15928">
        <ele>4601.6</ele>
        <time>2015-08-31T04:29:01Z</time>
      </trkpt>
      <trkpt lat="34.08874" lon="77.15922">
        <ele>4600.4</ele>
        <time>2015-08-31T04:29:25Z</time>
      </trkpt>
      <trkpt lat="34.08872" lon="77.15923">
        <ele>4599.8</ele>
        <time>2015-08-31T04:29:27Z</time>
      </trkpt>
      <trkpt lat="34.08875" lon="77.15935">
        <ele>4600.8</ele>
        <time>2015-08-31T04:29:56Z</time>
      </trkpt>
      <trkpt lat="34.08876" lon="77.15929">
        <ele>4601.2</ele>
        <time>2015-08-31T04:30:12Z</time>
      </trkpt>
      <trkpt lat="34.08872" lon="77.15927">
        <ele>4600.6</ele>
        <time>2015-08-31T04:30:16Z</time>
      </trkpt>
      <trkpt lat="34.08875" lon="77.15927">
        <ele>4600.6</ele>
        <time>2015-08-31T04:31:03Z</time>
      </trkpt>
      <trkpt lat="34.08868" lon="77.15927">
        <ele>4601.6</ele>
        <time>2015-08-31T04:31:29Z</time>
      </trkpt>
      <trkpt lat="34.08876" lon="77.15931">
        <ele>4601.8</ele>
        <time>2015-08-31T04:32:26Z</time>
      </trkpt>
      <trkpt lat="34.08877" lon="77.1593">
        <ele>4601.2</ele>
        <time>2015-08-31T04:33:44Z</time>
      </trkpt>
      <trkpt lat="34.08874" lon="77.15932">
        <ele>4601.4</ele>
        <time>2015-08-31T04:33:52Z</time>
      </trkpt>
      <trkpt lat="34.08872" lon="77.15934">
        <ele>4602.6</ele>
        <time>2015-08-31T04:34:08Z</time>
      </trkpt>
      <trkpt lat="34.08871" lon="77.15934">
        <ele>4602.2</ele>
        <time>2015-08-31T04:35:38Z</time>
      </trkpt>
      <trkpt lat="34.08874" lon="77.15931">
        <ele>4602.8</ele>
        <time>2015-08-31T04:37:19Z</time>
      </trkpt>
      <trkpt lat="34.08876" lon="77.15934">
        <ele>4603.2</ele>
        <time>2015-08-31T04:38:34Z</time>
      </trkpt>
      <trkpt lat="34.08871" lon="77.15933">
        <ele>4603.6</ele>
        <time>2015-08-31T04:39:06Z</time>
      </trkpt>
      <trkpt lat="34.08872" lon="77.15938">
        <ele>4603.2</ele>
        <time>2015-08-31T04:40:27Z</time>
      </trkpt>
      <trkpt lat="34.08864" lon="77.15947">
        <ele>4603.2</ele>
        <time>2015-08-31T04:41:15Z</time>
      </trkpt>
      <trkpt lat="34.08851" lon="77.15963">
        <ele>4603.6</ele>
        <time>2015-08-31T04:41:40Z</time>
      </trkpt>
      <trkpt lat="34.08842" lon="77.15975">
        <ele>4602.6</ele>
        <time>2015-08-31T04:41:55Z</time>
      </trkpt>
      <trkpt lat="34.08828" lon="77.15985">
        <ele>4601.8</ele>
        <time>2015-08-31T04:42:18Z</time>
      </trkpt>
      <trkpt lat="34.08826" lon="77.15986">
        <ele>4601.4</ele>
        <time>2015-08-31T04:42:21Z</time>
      </trkpt>
      <trkpt lat="34.08819" lon="77.15991">
        <ele>4600.4</ele>
        <time>2015-08-31T04:42:34Z</time>
      </trkpt>
      <trkpt lat="34.08806" lon="77.16006">
        <ele>4600.4</ele>
        <time>2015-08-31T04:42:55Z</time>
      </trkpt>
      <trkpt lat="34.08804" lon="77.16009">
        <ele>4600.2</ele>
        <time>2015-08-31T04:42:58Z</time>
      </trkpt>
      <trkpt lat="34.08792" lon="77.16026">
        <ele>4599.6</ele>
        <time>2015-08-31T04:43:17Z</time>
      </trkpt>
      <trkpt lat="34.08779" lon="77.16037">
        <ele>4599.4</ele>
        <time>2015-08-31T04:43:36Z</time>
      </trkpt>
      <trkpt lat="34.08765" lon="77.16051">
        <ele>4598.4</ele>
        <time>2015-08-31T04:43:55Z</time>
      </trkpt>
      <trkpt lat="34.0876" lon="77.16057">
        <ele>4598.2</ele>
        <time>2015-08-31T04:44:02Z</time>
      </trkpt>
      <trkpt lat="34.08755" lon="77.16063">
        <ele>4597.2</ele>
        <time>2015-08-31T04:44:11Z</time>
      </trkpt>
      <trkpt lat="34.08749" lon="77.1607">
        <ele>4596.2</ele>
        <time>2015-08-31T04:44:20Z</time>
      </trkpt>
      <trkpt lat="34.0874" lon="77.16085">
        <ele>4595.2</ele>
        <time>2015-08-31T04:44:41Z</time>
      </trkpt>
      <trkpt lat="34.08735" lon="77.16093">
        <ele>4594</ele>
        <time>2015-08-31T04:44:51Z</time>
      </trkpt>
      <trkpt lat="34.08722" lon="77.16085">
        <ele>4593.2</ele>
        <time>2015-08-31T04:45:12Z</time>
      </trkpt>
      <trkpt lat="34.08719" lon="77.16083">
        <ele>4593</ele>
        <time>2015-08-31T04:45:18Z</time>
      </trkpt>
      <trkpt lat="34.08712" lon="77.16076">
        <ele>4591.8</ele>
        <time>2015-08-31T04:45:34Z</time>
      </trkpt>
      <trkpt lat="34.0871" lon="77.16077">
        <ele>4590.8</ele>
        <time>2015-08-31T04:45:42Z</time>
      </trkpt>
      <trkpt lat="34.0871" lon="77.16074">
        <ele>4589.6</ele>
        <time>2015-08-31T04:45:56Z</time>
      </trkpt>
      <trkpt lat="34.08705" lon="77.16075">
        <ele>4588.6</ele>
        <time>2015-08-31T04:46:06Z</time>
      </trkpt>
      <trkpt lat="34.08701" lon="77.16079">
        <ele>4587.8</ele>
        <time>2015-08-31T04:46:12Z</time>
      </trkpt>
      <trkpt lat="34.08701" lon="77.16078">
        <ele>4587.4</ele>
        <time>2015-08-31T04:46:13Z</time>
      </trkpt>
      <trkpt lat="34.08697" lon="77.16075">
        <ele>4586.2</ele>
        <time>2015-08-31T04:46:19Z</time>
      </trkpt>
      <trkpt lat="34.08697" lon="77.16071">
        <ele>4585.2</ele>
        <time>2015-08-31T04:46:23Z</time>
      </trkpt>
      <trkpt lat="34.08696" lon="77.16065">
        <ele>4584.2</ele>
        <time>2015-08-31T04:46:31Z</time>
      </trkpt>
      <trkpt lat="34.08693" lon="77.16062">
        <ele>4583</ele>
        <time>2015-08-31T04:46:37Z</time>
      </trkpt>
      <trkpt lat="34.08693" lon="77.16058">
        <ele>4582</ele>
        <time>2015-08-31T04:46:42Z</time>
      </trkpt>
      <trkpt lat="34.08693" lon="77.16052">
        <ele>4581</ele>
        <time>2015-08-31T04:46:48Z</time>
      </trkpt>
      <trkpt lat="34.08693" lon="77.16051">
        <ele>4581</ele>
        <time>2015-08-31T04:46:50Z</time>
      </trkpt>
      <trkpt lat="34.08693" lon="77.16047">
        <ele>4580.8</ele>
        <time>2015-08-31T04:46:58Z</time>
      </trkpt>
      <trkpt lat="34.08688" lon="77.16042">
        <ele>4579.8</ele>
        <time>2015-08-31T04:47:08Z</time>
      </trkpt>
      <trkpt lat="34.08684" lon="77.16041">
        <ele>4578.6</ele>
        <time>2015-08-31T04:47:17Z</time>
      </trkpt>
      <trkpt lat="34.08681" lon="77.16037">
        <ele>4577.6</ele>
        <time>2015-08-31T04:47:24Z</time>
      </trkpt>
      <trkpt lat="34.08678" lon="77.1603">
        <ele>4576.4</ele>
        <time>2015-08-31T04:47:32Z</time>
      </trkpt>
      <trkpt lat="34.08668" lon="77.16022">
        <ele>4575.4</ele>
        <time>2015-08-31T04:47:43Z</time>
      </trkpt>
      <trkpt lat="34.08664" lon="77.16017">
        <ele>4574.4</ele>
        <time>2015-08-31T04:47:51Z</time>
      </trkpt>
      <trkpt lat="34.08659" lon="77.16015">
        <ele>4573.6</ele>
        <time>2015-08-31T04:47:58Z</time>
      </trkpt>
      <trkpt lat="34.08657" lon="77.16014">
        <ele>4573.2</ele>
        <time>2015-08-31T04:48:00Z</time>
      </trkpt>
      <trkpt lat="34.0865" lon="77.16012">
        <ele>4572</ele>
        <time>2015-08-31T04:48:05Z</time>
      </trkpt>
      <trkpt lat="34.08641" lon="77.16007">
        <ele>4571.6</ele>
        <time>2015-08-31T04:48:17Z</time>
      </trkpt>
      <trkpt lat="34.08625" lon="77.15998">
        <ele>4571.8</ele>
        <time>2015-08-31T04:49:06Z</time>
      </trkpt>
      <trkpt lat="34.08621" lon="77.15992">
        <ele>4571</ele>
        <time>2015-08-31T04:49:15Z</time>
      </trkpt>
      <trkpt lat="34.08612" lon="77.15984">
        <ele>4570</ele>
        <time>2015-08-31T04:49:38Z</time>
      </trkpt>
      <trkpt lat="34.08611" lon="77.15984">
        <ele>4569.8</ele>
        <time>2015-08-31T04:49:39Z</time>
      </trkpt>
      <trkpt lat="34.08607" lon="77.15984">
        <ele>4568.8</ele>
        <time>2015-08-31T04:49:42Z</time>
      </trkpt>
      <trkpt lat="34.08606" lon="77.15984">
        <ele>4568.6</ele>
        <time>2015-08-31T04:49:43Z</time>
      </trkpt>
      <trkpt lat="34.08604" lon="77.15983">
        <ele>4567.8</ele>
        <time>2015-08-31T04:49:45Z</time>
      </trkpt>
      <trkpt lat="34.08601" lon="77.15982">
        <ele>4566.8</ele>
        <time>2015-08-31T04:49:49Z</time>
      </trkpt>
      <trkpt lat="34.08597" lon="77.1598">
        <ele>4565.6</ele>
        <time>2015-08-31T04:49:54Z</time>
      </trkpt>
      <trkpt lat="34.08592" lon="77.1598">
        <ele>4564.4</ele>
        <time>2015-08-31T04:50:00Z</time>
      </trkpt>
      <trkpt lat="34.08586" lon="77.15979">
        <ele>4563.2</ele>
        <time>2015-08-31T04:50:05Z</time>
      </trkpt>
      <trkpt lat="34.08581" lon="77.15979">
        <ele>4562.2</ele>
        <time>2015-08-31T04:50:10Z</time>
      </trkpt>
      <trkpt lat="34.08571" lon="77.15982">
        <ele>4561</ele>
        <time>2015-08-31T04:50:21Z</time>
      </trkpt>
      <trkpt lat="34.08565" lon="77.15983">
        <ele>4560</ele>
        <time>2015-08-31T04:50:26Z</time>
      </trkpt>
      <trkpt lat="34.08552" lon="77.15983">
        <ele>4559</ele>
        <time>2015-08-31T04:50:41Z</time>
      </trkpt>
      <trkpt lat="34.08548" lon="77.15987">
        <ele>4557.6</ele>
        <time>2015-08-31T04:50:47Z</time>
      </trkpt>
      <trkpt lat="34.08545" lon="77.15989">
        <ele>4556.4</ele>
        <time>2015-08-31T04:50:52Z</time>
      </trkpt>
      <trkpt lat="34.08538" lon="77.15995">
        <ele>4555.4</ele>
        <time>2015-08-31T04:51:04Z</time>
      </trkpt>
      <trkpt lat="34.08534" lon="77.15996">
        <ele>4554.2</ele>
        <time>2015-08-31T04:51:09Z</time>
      </trkpt>
      <trkpt lat="34.0853" lon="77.15998">
        <ele>4553.2</ele>
        <time>2015-08-31T04:51:14Z</time>
      </trkpt>
      <trkpt lat="34.08523" lon="77.15998">
        <ele>4552</ele>
        <time>2015-08-31T04:51:23Z</time>
      </trkpt>
      <trkpt lat="34.08516" lon="77.15993">
        <ele>4551</ele>
        <time>2015-08-31T04:51:32Z</time>
      </trkpt>
      <trkpt lat="34.0851" lon="77.1599">
        <ele>4550</ele>
        <time>2015-08-31T04:51:41Z</time>
      </trkpt>
      <trkpt lat="34.08505" lon="77.15988">
        <ele>4549</ele>
        <time>2015-08-31T04:51:48Z</time>
      </trkpt>
      <trkpt lat="34.08498" lon="77.15986">
        <ele>4548</ele>
        <time>2015-08-31T04:51:57Z</time>
      </trkpt>
      <trkpt lat="34.08485" lon="77.15995">
        <ele>4546.8</ele>
        <time>2015-08-31T04:52:11Z</time>
      </trkpt>
      <trkpt lat="34.08475" lon="77.16002">
        <ele>4545.8</ele>
        <time>2015-08-31T04:52:23Z</time>
      </trkpt>
      <trkpt lat="34.08457" lon="77.16011">
        <ele>4545.2</ele>
        <time>2015-08-31T04:52:43Z</time>
      </trkpt>
      <trkpt lat="34.08442" lon="77.16014">
        <ele>4544.8</ele>
        <time>2015-08-31T04:53:00Z</time>
      </trkpt>
      <trkpt lat="34.08434" lon="77.16015">
        <ele>4543.8</ele>
        <time>2015-08-31T04:53:10Z</time>
      </trkpt>
      <trkpt lat="34.08422" lon="77.16017">
        <ele>4542.6</ele>
        <time>2015-08-31T04:53:23Z</time>
      </trkpt>
      <trkpt lat="34.0841" lon="77.16025">
        <ele>4541.6</ele>
        <time>2015-08-31T04:53:36Z</time>
      </trkpt>
      <trkpt lat="34.08397" lon="77.16033">
        <ele>4540.6</ele>
        <time>2015-08-31T04:53:52Z</time>
      </trkpt>
      <trkpt lat="34.08393" lon="77.16036">
        <ele>4539.4</ele>
        <time>2015-08-31T04:53:57Z</time>
      </trkpt>
      <trkpt lat="34.08388" lon="77.16039">
        <ele>4539</ele>
        <time>2015-08-31T04:54:01Z</time>
      </trkpt>
      <trkpt lat="34.0838" lon="77.16047">
        <ele>4538.2</ele>
        <time>2015-08-31T04:54:11Z</time>
      </trkpt>
      <trkpt lat="34.08377" lon="77.1605">
        <ele>4537.8</ele>
        <time>2015-08-31T04:54:14Z</time>
      </trkpt>
      <trkpt lat="34.08365" lon="77.16063">
        <ele>4537.4</ele>
        <time>2015-08-31T04:54:32Z</time>
      </trkpt>
      <trkpt lat="34.08363" lon="77.16066">
        <ele>4537</ele>
        <time>2015-08-31T04:54:34Z</time>
      </trkpt>
      <trkpt lat="34.08355" lon="77.16076">
        <ele>4536.4</ele>
        <time>2015-08-31T04:54:44Z</time>
      </trkpt>
      <trkpt lat="34.08343" lon="77.16094">
        <ele>4536.4</ele>
        <time>2015-08-31T04:55:05Z</time>
      </trkpt>
      <trkpt lat="34.08327" lon="77.16105">
        <ele>4536.4</ele>
        <time>2015-08-31T04:55:25Z</time>
      </trkpt>
      <trkpt lat="34.08324" lon="77.1611">
        <ele>4535.8</ele>
        <time>2015-08-31T04:55:29Z</time>
      </trkpt>
      <trkpt lat="34.0832" lon="77.16118">
        <ele>4534.8</ele>
        <time>2015-08-31T04:55:36Z</time>
      </trkpt>
      <trkpt lat="34.08311" lon="77.16128">
        <ele>4533.8</ele>
        <time>2015-08-31T04:55:50Z</time>
      </trkpt>
      <trkpt lat="34.0831" lon="77.16128">
        <ele>4533.6</ele>
        <time>2015-08-31T04:55:52Z</time>
      </trkpt>
      <trkpt lat="34.08306" lon="77.16133">
        <ele>4533.2</ele>
        <time>2015-08-31T04:56:00Z</time>
      </trkpt>
      <trkpt lat="34.08287" lon="77.16136">
        <ele>4533.2</ele>
        <time>2015-08-31T04:56:15Z</time>
      </trkpt>
      <trkpt lat="34.0827" lon="77.16139">
        <ele>4533.6</ele>
        <time>2015-08-31T04:56:33Z</time>
      </trkpt>
      <trkpt lat="34.08255" lon="77.16152">
        <ele>4533.2</ele>
        <time>2015-08-31T04:56:47Z</time>
      </trkpt>
      <trkpt lat="34.0825" lon="77.16155">
        <ele>4532.6</ele>
        <time>2015-08-31T04:56:53Z</time>
      </trkpt>
      <trkpt lat="34.08248" lon="77.16157">
        <ele>4532</ele>
        <time>2015-08-31T04:56:56Z</time>
      </trkpt>
      <trkpt lat="34.08247" lon="77.1616">
        <ele>4531.4</ele>
        <time>2015-08-31T04:56:59Z</time>
      </trkpt>
      <trkpt lat="34.08244" lon="77.16162">
        <ele>4530.4</ele>
        <time>2015-08-31T04:57:02Z</time>
      </trkpt>
      <trkpt lat="34.08243" lon="77.16165">
        <ele>4529</ele>
        <time>2015-08-31T04:57:05Z</time>
      </trkpt>
      <trkpt lat="34.0824" lon="77.16167">
        <ele>4527.8</ele>
        <time>2015-08-31T04:57:08Z</time>
      </trkpt>
      <trkpt lat="34.08237" lon="77.1617">
        <ele>4526.8</ele>
        <time>2015-08-31T04:57:11Z</time>
      </trkpt>
      <trkpt lat="34.08233" lon="77.16172">
        <ele>4526.6</ele>
        <time>2015-08-31T04:57:16Z</time>
      </trkpt>
      <trkpt lat="34.0823" lon="77.16173">
        <ele>4526.8</ele>
        <time>2015-08-31T04:57:19Z</time>
      </trkpt>
      <trkpt lat="34.08228" lon="77.16173">
        <ele>4527.8</ele>
        <time>2015-08-31T04:57:24Z</time>
      </trkpt>
      <trkpt lat="34.08213" lon="77.16185">
        <ele>4527.8</ele>
        <time>2015-08-31T04:57:41Z</time>
      </trkpt>
      <trkpt lat="34.08206" lon="77.16189">
        <ele>4526.8</ele>
        <time>2015-08-31T04:57:47Z</time>
      </trkpt>
      <trkpt lat="34.08199" lon="77.16192">
        <ele>4525.6</ele>
        <time>2015-08-31T04:57:53Z</time>
      </trkpt>
      <trkpt lat="34.08197" lon="77.16192">
        <ele>4525.2</ele>
        <time>2015-08-31T04:57:55Z</time>
      </trkpt>
      <trkpt lat="34.08194" lon="77.16192">
        <ele>4524.6</ele>
        <time>2015-08-31T04:57:58Z</time>
      </trkpt>
      <trkpt lat="34.08186" lon="77.16195">
        <ele>4523.8</ele>
        <time>2015-08-31T04:58:06Z</time>
      </trkpt>
      <trkpt lat="34.08185" lon="77.16196">
        <ele>4523.6</ele>
        <time>2015-08-31T04:58:07Z</time>
      </trkpt>
      <trkpt lat="34.08178" lon="77.16198">
        <ele>4522.4</ele>
        <time>2015-08-31T04:58:13Z</time>
      </trkpt>
      <trkpt lat="34.0816" lon="77.16206">
        <ele>4521.4</ele>
        <time>2015-08-31T04:58:29Z</time>
      </trkpt>
      <trkpt lat="34.08147" lon="77.16216">
        <ele>4520.8</ele>
        <time>2015-08-31T04:58:42Z</time>
      </trkpt>
      <trkpt lat="34.08141" lon="77.16219">
        <ele>4520.4</ele>
        <time>2015-08-31T04:58:48Z</time>
      </trkpt>
      <trkpt lat="34.08128" lon="77.16231">
        <ele>4519.2</ele>
        <time>2015-08-31T04:59:03Z</time>
      </trkpt>
      <trkpt lat="34.08125" lon="77.16236">
        <ele>4518.2</ele>
        <time>2015-08-31T04:59:08Z</time>
      </trkpt>
      <trkpt lat="34.08119" lon="77.16242">
        <ele>4517.2</ele>
        <time>2015-08-31T04:59:14Z</time>
      </trkpt>
      <trkpt lat="34.08105" lon="77.16256">
        <ele>4516.4</ele>
        <time>2015-08-31T04:59:30Z</time>
      </trkpt>
      <trkpt lat="34.08091" lon="77.16272">
        <ele>4516</ele>
        <time>2015-08-31T04:59:46Z</time>
      </trkpt>
      <trkpt lat="34.0808" lon="77.1629">
        <ele>4516.2</ele>
        <time>2015-08-31T05:00:03Z</time>
      </trkpt>
      <trkpt lat="34.08072" lon="77.1631">
        <ele>4516.8</ele>
        <time>2015-08-31T05:00:19Z</time>
      </trkpt>
      <trkpt lat="34.0807" lon="77.16313">
        <ele>4517.2</ele>
        <time>2015-08-31T05:00:23Z</time>
      </trkpt>
      <trkpt lat="34.08057" lon="77.1632">
        <ele>4517.6</ele>
        <time>2015-08-31T05:00:39Z</time>
      </trkpt>
      <trkpt lat="34.08054" lon="77.1632">
        <ele>4517.6</ele>
        <time>2015-08-31T05:00:42Z</time>
      </trkpt>
      <trkpt lat="34.0805" lon="77.16322">
        <ele>4517.8</ele>
        <time>2015-08-31T05:00:47Z</time>
      </trkpt>
      <trkpt lat="34.08039" lon="77.16328">
        <ele>4517</ele>
        <time>2015-08-31T05:00:59Z</time>
      </trkpt>
      <trkpt lat="34.08038" lon="77.16328">
        <ele>4516.6</ele>
        <time>2015-08-31T05:02:09Z</time>
      </trkpt>
      <trkpt lat="34.08037" lon="77.16332">
        <ele>4516</ele>
        <time>2015-08-31T05:03:01Z</time>
      </trkpt>
      <trkpt lat="34.08035" lon="77.16333">
        <ele>4515.8</ele>
        <time>2015-08-31T05:03:03Z</time>
      </trkpt>
      <trkpt lat="34.08028" lon="77.16339">
        <ele>4515</ele>
        <time>2015-08-31T05:03:09Z</time>
      </trkpt>
      <trkpt lat="34.08012" lon="77.1635">
        <ele>4514.8</ele>
        <time>2015-08-31T05:03:28Z</time>
      </trkpt>
      <trkpt lat="34.08004" lon="77.16356">
        <ele>4514.8</ele>
        <time>2015-08-31T05:03:37Z</time>
      </trkpt>
      <trkpt lat="34.07999" lon="77.16357">
        <ele>4515</ele>
        <time>2015-08-31T05:03:47Z</time>
      </trkpt>
      <trkpt lat="34.07994" lon="77.16366">
        <ele>4514.6</ele>
        <time>2015-08-31T05:03:59Z</time>
      </trkpt>
      <trkpt lat="34.07994" lon="77.16368">
        <ele>4514.4</ele>
        <time>2015-08-31T05:04:01Z</time>
      </trkpt>
      <trkpt lat="34.07982" lon="77.16386">
        <ele>4514.4</ele>
        <time>2015-08-31T05:04:21Z</time>
      </trkpt>
      <trkpt lat="34.07975" lon="77.16406">
        <ele>4514</ele>
        <time>2015-08-31T05:04:39Z</time>
      </trkpt>
      <trkpt lat="34.07967" lon="77.16411">
        <ele>4514</ele>
        <time>2015-08-31T05:04:47Z</time>
      </trkpt>
      <trkpt lat="34.07962" lon="77.16429">
        <ele>4514.4</ele>
        <time>2015-08-31T05:05:04Z</time>
      </trkpt>
      <trkpt lat="34.07962" lon="77.16436">
        <ele>4515.2</ele>
        <time>2015-08-31T05:05:10Z</time>
      </trkpt>
      <trkpt lat="34.07962" lon="77.16449">
        <ele>4516</ele>
        <time>2015-08-31T05:05:22Z</time>
      </trkpt>
      <trkpt lat="34.07961" lon="77.1645">
        <ele>4516</ele>
        <time>2015-08-31T05:05:24Z</time>
      </trkpt>
      <trkpt lat="34.07961" lon="77.16452">
        <ele>4516.2</ele>
        <time>2015-08-31T05:05:26Z</time>
      </trkpt>
      <trkpt lat="34.07952" lon="77.16448">
        <ele>4516.2</ele>
        <time>2015-08-31T05:05:31Z</time>
      </trkpt>
      <trkpt lat="34.07948" lon="77.16453">
        <ele>4516.4</ele>
        <time>2015-08-31T05:05:38Z</time>
      </trkpt>
      <trkpt lat="34.07946" lon="77.16459">
        <ele>4516.6</ele>
        <time>2015-08-31T05:05:45Z</time>
      </trkpt>
      <trkpt lat="34.07945" lon="77.16461">
        <ele>4516.2</ele>
        <time>2015-08-31T05:05:47Z</time>
      </trkpt>
      <trkpt lat="34.07944" lon="77.16463">
        <ele>4516</ele>
        <time>2015-08-31T05:05:49Z</time>
      </trkpt>
      <trkpt lat="34.07942" lon="77.16464">
        <ele>4515.8</ele>
        <time>2015-08-31T05:05:51Z</time>
      </trkpt>
      <trkpt lat="34.07939" lon="77.16469">
        <ele>4515</ele>
        <time>2015-08-31T05:05:56Z</time>
      </trkpt>
      <trkpt lat="34.07932" lon="77.1647">
        <ele>4514</ele>
        <time>2015-08-31T05:06:04Z</time>
      </trkpt>
      <trkpt lat="34.07921" lon="77.16473">
        <ele>4513</ele>
        <time>2015-08-31T05:06:16Z</time>
      </trkpt>
      <trkpt lat="34.07918" lon="77.16474">
        <ele>4512.2</ele>
        <time>2015-08-31T05:06:20Z</time>
      </trkpt>
      <trkpt lat="34.07918" lon="77.16474">
        <ele>4512</ele>
        <time>2015-08-31T05:06:21Z</time>
      </trkpt>
      <trkpt lat="34.07913" lon="77.16474">
        <ele>4510.8</ele>
        <time>2015-08-31T05:06:37Z</time>
      </trkpt>
      <trkpt lat="34.07912" lon="77.16475">
        <ele>4510.4</ele>
        <time>2015-08-31T05:06:38Z</time>
      </trkpt>
      <trkpt lat="34.07909" lon="77.16478">
        <ele>4509.6</ele>
        <time>2015-08-31T05:06:42Z</time>
      </trkpt>
      <trkpt lat="34.07908" lon="77.1648">
        <ele>4509.4</ele>
        <time>2015-08-31T05:06:44Z</time>
      </trkpt>
      <trkpt lat="34.07903" lon="77.16485">
        <ele>4508.8</ele>
        <time>2015-08-31T05:06:50Z</time>
      </trkpt>
      <trkpt lat="34.07901" lon="77.16486">
        <ele>4508.6</ele>
        <time>2015-08-31T05:06:52Z</time>
      </trkpt>
      <trkpt lat="34.07899" lon="77.1649">
        <ele>4507.4</ele>
        <time>2015-08-31T05:06:58Z</time>
      </trkpt>
      <trkpt lat="34.07896" lon="77.16491">
        <ele>4506.4</ele>
        <time>2015-08-31T05:07:03Z</time>
      </trkpt>
      <trkpt lat="34.07892" lon="77.16496">
        <ele>4505.4</ele>
        <time>2015-08-31T05:07:12Z</time>
      </trkpt>
      <trkpt lat="34.07888" lon="77.16505">
        <ele>4504.6</ele>
        <time>2015-08-31T05:07:19Z</time>
      </trkpt>
      <trkpt lat="34.07883" lon="77.16511">
        <ele>4504.2</ele>
        <time>2015-08-31T05:07:28Z</time>
      </trkpt>
      <trkpt lat="34.07879" lon="77.16514">
        <ele>4504</ele>
        <time>2015-08-31T05:07:33Z</time>
      </trkpt>
      <trkpt lat="34.07877" lon="77.16517">
        <ele>4503</ele>
        <time>2015-08-31T05:07:36Z</time>
      </trkpt>
      <trkpt lat="34.07875" lon="77.1652">
        <ele>4501.6</ele>
        <time>2015-08-31T05:07:40Z</time>
      </trkpt>
      <trkpt lat="34.07873" lon="77.16522">
        <ele>4500.6</ele>
        <time>2015-08-31T05:07:44Z</time>
      </trkpt>
      <trkpt lat="34.07867" lon="77.16522">
        <ele>4501.6</ele>
        <time>2015-08-31T05:08:40Z</time>
      </trkpt>
      <trkpt lat="34.0787" lon="77.16517">
        <ele>4500.6</ele>
        <time>2015-08-31T05:08:50Z</time>
      </trkpt>
      <trkpt lat="34.07866" lon="77.16516">
        <ele>4500.6</ele>
        <time>2015-08-31T05:09:07Z</time>
      </trkpt>
      <trkpt lat="34.07866" lon="77.16516">
        <ele>4501.6</ele>
        <time>2015-08-31T05:09:11Z</time>
      </trkpt>
      <trkpt lat="34.07866" lon="77.16523">
        <ele>4500.4</ele>
        <time>2015-08-31T05:09:25Z</time>
      </trkpt>
      <trkpt lat="34.07867" lon="77.16528">
        <ele>4499.8</ele>
        <time>2015-08-31T05:09:33Z</time>
      </trkpt>
      <trkpt lat="34.07868" lon="77.16529">
        <ele>4499.8</ele>
        <time>2015-08-31T05:09:35Z</time>
      </trkpt>
      <trkpt lat="34.07869" lon="77.16528">
        <ele>4499.4</ele>
        <time>2015-08-31T05:09:40Z</time>
      </trkpt>
      <trkpt lat="34.07874" lon="77.16529">
        <ele>4498.8</ele>
        <time>2015-08-31T05:10:00Z</time>
      </trkpt>
      <trkpt lat="34.07875" lon="77.16529">
        <ele>4498.4</ele>
        <time>2015-08-31T05:10:01Z</time>
      </trkpt>
      <trkpt lat="34.07875" lon="77.16529">
        <ele>4498</ele>
        <time>2015-08-31T05:10:02Z</time>
      </trkpt>
      <trkpt lat="34.07875" lon="77.1653">
        <ele>4497.2</ele>
        <time>2015-08-31T05:10:03Z</time>
      </trkpt>
      <trkpt lat="34.07876" lon="77.16532">
        <ele>4496</ele>
        <time>2015-08-31T05:10:05Z</time>
      </trkpt>
      <trkpt lat="34.07875" lon="77.16535">
        <ele>4494.8</ele>
        <time>2015-08-31T05:10:09Z</time>
      </trkpt>
      <trkpt lat="34.07872" lon="77.16539">
        <ele>4493.6</ele>
        <time>2015-08-31T05:10:16Z</time>
      </trkpt>
      <trkpt lat="34.07872" lon="77.16544">
        <ele>4492.4</ele>
        <time>2015-08-31T05:10:20Z</time>
      </trkpt>
      <trkpt lat="34.07872" lon="77.16547">
        <ele>4491.4</ele>
        <time>2015-08-31T05:10:23Z</time>
      </trkpt>
      <trkpt lat="34.07872" lon="77.16548">
        <ele>4491.2</ele>
        <time>2015-08-31T05:10:24Z</time>
      </trkpt>
      <trkpt lat="34.07869" lon="77.16553">
        <ele>4490.2</ele>
        <time>2015-08-31T05:10:36Z</time>
      </trkpt>
      <trkpt lat="34.07868" lon="77.16557">
        <ele>4489.2</ele>
        <time>2015-08-31T05:10:42Z</time>
      </trkpt>
      <trkpt lat="34.07865" lon="77.16561">
        <ele>4488.6</ele>
        <time>2015-08-31T05:11:03Z</time>
      </trkpt>
      <trkpt lat="34.07864" lon="77.16564">
        <ele>4488.2</ele>
        <time>2015-08-31T05:11:06Z</time>
      </trkpt>
      <trkpt lat="34.07863" lon="77.16565">
        <ele>4488</ele>
        <time>2015-08-31T05:11:08Z</time>
      </trkpt>
      <trkpt lat="34.07864" lon="77.16573">
        <ele>4487.2</ele>
        <time>2015-08-31T05:11:16Z</time>
      </trkpt>
      <trkpt lat="34.07859" lon="77.16577">
        <ele>4486</ele>
        <time>2015-08-31T05:11:23Z</time>
      </trkpt>
      <trkpt lat="34.07855" lon="77.1658">
        <ele>4485</ele>
        <time>2015-08-31T05:11:28Z</time>
      </trkpt>
      <trkpt lat="34.07852" lon="77.16583">
        <ele>4483.8</ele>
        <time>2015-08-31T05:11:36Z</time>
      </trkpt>
      <trkpt lat="34.07847" lon="77.16585">
        <ele>4482.8</ele>
        <time>2015-08-31T05:11:42Z</time>
      </trkpt>
      <trkpt lat="34.07845" lon="77.16586">
        <ele>4482.2</ele>
        <time>2015-08-31T05:11:45Z</time>
      </trkpt>
      <trkpt lat="34.07844" lon="77.16586">
        <ele>4481.8</ele>
        <time>2015-08-31T05:11:47Z</time>
      </trkpt>
      <trkpt lat="34.07841" lon="77.16589">
        <ele>4481</ele>
        <time>2015-08-31T05:11:51Z</time>
      </trkpt>
      <trkpt lat="34.07839" lon="77.16591">
        <ele>4480.6</ele>
        <time>2015-08-31T05:11:53Z</time>
      </trkpt>
      <trkpt lat="34.07838" lon="77.16593">
        <ele>4480.2</ele>
        <time>2015-08-31T05:11:56Z</time>
      </trkpt>
      <trkpt lat="34.07836" lon="77.16594">
        <ele>4479.6</ele>
        <time>2015-08-31T05:11:58Z</time>
      </trkpt>
      <trkpt lat="34.07833" lon="77.16598">
        <ele>4478.4</ele>
        <time>2015-08-31T05:12:04Z</time>
      </trkpt>
      <trkpt lat="34.07831" lon="77.166">
        <ele>4477.2</ele>
        <time>2015-08-31T05:12:08Z</time>
      </trkpt>
      <trkpt lat="34.07824" lon="77.16605">
        <ele>4476.2</ele>
        <time>2015-08-31T05:12:25Z</time>
      </trkpt>
      <trkpt lat="34.07824" lon="77.16612">
        <ele>4475.4</ele>
        <time>2015-08-31T05:12:33Z</time>
      </trkpt>
      <trkpt lat="34.07825" lon="77.16614">
        <ele>4475.4</ele>
        <time>2015-08-31T05:12:35Z</time>
      </trkpt>
      <trkpt lat="34.07827" lon="77.16617">
        <ele>4474.8</ele>
        <time>2015-08-31T05:12:38Z</time>
      </trkpt>
      <trkpt lat="34.07827" lon="77.1662">
        <ele>4473.8</ele>
        <time>2015-08-31T05:12:41Z</time>
      </trkpt>
      <trkpt lat="34.07825" lon="77.16626">
        <ele>4472.8</ele>
        <time>2015-08-31T05:12:48Z</time>
      </trkpt>
      <trkpt lat="34.07822" lon="77.16632">
        <ele>4471.6</ele>
        <time>2015-08-31T05:12:55Z</time>
      </trkpt>
      <trkpt lat="34.0782" lon="77.16637">
        <ele>4470.4</ele>
        <time>2015-08-31T05:13:01Z</time>
      </trkpt>
      <trkpt lat="34.07817" lon="77.16643">
        <ele>4469.4</ele>
        <time>2015-08-31T05:13:07Z</time>
      </trkpt>
      <trkpt lat="34.07812" lon="77.16651">
        <ele>4468.4</ele>
        <time>2015-08-31T05:13:15Z</time>
      </trkpt>
      <trkpt lat="34.07809" lon="77.16655">
        <ele>4467.2</ele>
        <time>2015-08-31T05:13:21Z</time>
      </trkpt>
      <trkpt lat="34.07808" lon="77.16656">
        <ele>4467</ele>
        <time>2015-08-31T05:13:22Z</time>
      </trkpt>
      <trkpt lat="34.07806" lon="77.16658">
        <ele>4466.8</ele>
        <time>2015-08-31T05:13:25Z</time>
      </trkpt>
      <trkpt lat="34.07805" lon="77.16658">
        <ele>4466.2</ele>
        <time>2015-08-31T05:13:27Z</time>
      </trkpt>
      <trkpt lat="34.07802" lon="77.1666">
        <ele>4465.4</ele>
        <time>2015-08-31T05:13:31Z</time>
      </trkpt>
      <trkpt lat="34.07801" lon="77.16664">
        <ele>4465</ele>
        <time>2015-08-31T05:13:33Z</time>
      </trkpt>
      <trkpt lat="34.078" lon="77.16666">
        <ele>4464.2</ele>
        <time>2015-08-31T05:13:35Z</time>
      </trkpt>
      <trkpt lat="34.078" lon="77.16667">
        <ele>4463.8</ele>
        <time>2015-08-31T05:13:36Z</time>
      </trkpt>
      <trkpt lat="34.07798" lon="77.16671">
        <ele>4462.6</ele>
        <time>2015-08-31T05:13:41Z</time>
      </trkpt>
      <trkpt lat="34.0779" lon="77.16683">
        <ele>4461.4</ele>
        <time>2015-08-31T05:13:53Z</time>
      </trkpt>
      <trkpt lat="34.07785" lon="77.16686">
        <ele>4461</ele>
        <time>2015-08-31T05:13:59Z</time>
      </trkpt>
      <trkpt lat="34.07772" lon="77.167">
        <ele>4461.2</ele>
        <time>2015-08-31T05:14:16Z</time>
      </trkpt>
      <trkpt lat="34.07763" lon="77.16719">
        <ele>4461.4</ele>
        <time>2015-08-31T05:14:31Z</time>
      </trkpt>
      <trkpt lat="34.07757" lon="77.16738">
        <ele>4461</ele>
        <time>2015-08-31T05:14:49Z</time>
      </trkpt>
      <trkpt lat="34.07758" lon="77.16741">
        <ele>4461</ele>
        <time>2015-08-31T05:14:52Z</time>
      </trkpt>
      <trkpt lat="34.07758" lon="77.16745">
        <ele>4461</ele>
        <time>2015-08-31T05:14:55Z</time>
      </trkpt>
      <trkpt lat="34.07753" lon="77.16762">
        <ele>4461.8</ele>
        <time>2015-08-31T05:15:12Z</time>
      </trkpt>
      <trkpt lat="34.07752" lon="77.16764">
        <ele>4462.4</ele>
        <time>2015-08-31T05:15:19Z</time>
      </trkpt>
      <trkpt lat="34.07753" lon="77.1677">
        <ele>4462.4</ele>
        <time>2015-08-31T05:15:24Z</time>
      </trkpt>
      <trkpt lat="34.07752" lon="77.16771">
        <ele>4462.4</ele>
        <time>2015-08-31T05:15:26Z</time>
      </trkpt>
      <trkpt lat="34.07746" lon="77.16776">
        <ele>4463</ele>
        <time>2015-08-31T05:15:36Z</time>
      </trkpt>
      <trkpt lat="34.07745" lon="77.16785">
        <ele>4463.2</ele>
        <time>2015-08-31T05:15:56Z</time>
      </trkpt>
      <trkpt lat="34.07746" lon="77.16786">
        <ele>4463.4</ele>
        <time>2015-08-31T05:15:58Z</time>
      </trkpt>
      <trkpt lat="34.07742" lon="77.16788">
        <ele>4463.6</ele>
        <time>2015-08-31T05:16:03Z</time>
      </trkpt>
      <trkpt lat="34.07741" lon="77.16789">
        <ele>4463.6</ele>
        <time>2015-08-31T05:16:04Z</time>
      </trkpt>
      <trkpt lat="34.07736" lon="77.16797">
        <ele>4464.6</ele>
        <time>2015-08-31T05:16:10Z</time>
      </trkpt>
      <trkpt lat="34.07735" lon="77.16797">
        <ele>4464.8</ele>
        <time>2015-08-31T05:16:14Z</time>
      </trkpt>
      <trkpt lat="34.07731" lon="77.16802">
        <ele>4465.6</ele>
        <time>2015-08-31T05:16:23Z</time>
      </trkpt>
      <trkpt lat="34.07724" lon="77.1681">
        <ele>4466.6</ele>
        <time>2015-08-31T05:16:37Z</time>
      </trkpt>
      <trkpt lat="34.07721" lon="77.16817">
        <ele>4467.8</ele>
        <time>2015-08-31T05:16:45Z</time>
      </trkpt>
      <trkpt lat="34.07719" lon="77.1682">
        <ele>4468.2</ele>
        <time>2015-08-31T05:16:48Z</time>
      </trkpt>
      <trkpt lat="34.07716" lon="77.16824">
        <ele>4468.6</ele>
        <time>2015-08-31T05:16:54Z</time>
      </trkpt>
      <trkpt lat="34.07715" lon="77.16827">
        <ele>4468.8</ele>
        <time>2015-08-31T05:16:59Z</time>
      </trkpt>
      <trkpt lat="34.07713" lon="77.1683">
        <ele>4469</ele>
        <time>2015-08-31T05:17:03Z</time>
      </trkpt>
      <trkpt lat="34.07712" lon="77.16833">
        <ele>4469.2</ele>
        <time>2015-08-31T05:17:06Z</time>
      </trkpt>
      <trkpt lat="34.07706" lon="77.16841">
        <ele>4468.6</ele>
        <time>2015-08-31T05:17:17Z</time>
      </trkpt>
      <trkpt lat="34.07704" lon="77.16844">
        <ele>4468.8</ele>
        <time>2015-08-31T05:17:20Z</time>
      </trkpt>
      <trkpt lat="34.07699" lon="77.16845">
        <ele>4469.8</ele>
        <time>2015-08-31T05:17:35Z</time>
      </trkpt>
      <trkpt lat="34.0769" lon="77.16852">
        <ele>4470.4</ele>
        <time>2015-08-31T05:17:48Z</time>
      </trkpt>
      <trkpt lat="34.07687" lon="77.16859">
        <ele>4470.4</ele>
        <time>2015-08-31T05:17:58Z</time>
      </trkpt>
      <trkpt lat="34.07689" lon="77.1688">
        <ele>4470.2</ele>
        <time>2015-08-31T05:18:19Z</time>
      </trkpt>
      <trkpt lat="34.07694" lon="77.16901">
        <ele>4469</ele>
        <time>2015-08-31T05:18:37Z</time>
      </trkpt>
      <trkpt lat="34.07692" lon="77.16905">
        <ele>4468.8</ele>
        <time>2015-08-31T05:18:44Z</time>
      </trkpt>
      <trkpt lat="34.07687" lon="77.16913">
        <ele>4467.8</ele>
        <time>2015-08-31T05:18:52Z</time>
      </trkpt>
      <trkpt lat="34.07683" lon="77.16923">
        <ele>4467</ele>
        <time>2015-08-31T05:19:02Z</time>
      </trkpt>
      <trkpt lat="34.07683" lon="77.16924">
        <ele>4466.6</ele>
        <time>2015-08-31T05:19:03Z</time>
      </trkpt>
      <trkpt lat="34.07679" lon="77.16937">
        <ele>4465.8</ele>
        <time>2015-08-31T05:19:16Z</time>
      </trkpt>
      <trkpt lat="34.07678" lon="77.1694">
        <ele>4465.8</ele>
        <time>2015-08-31T05:19:19Z</time>
      </trkpt>
      <trkpt lat="34.07675" lon="77.16944">
        <ele>4465.6</ele>
        <time>2015-08-31T05:19:23Z</time>
      </trkpt>
      <trkpt lat="34.07673" lon="77.16946">
        <ele>4465.6</ele>
        <time>2015-08-31T05:19:27Z</time>
      </trkpt>
      <trkpt lat="34.07661" lon="77.16962">
        <ele>4465.2</ele>
        <time>2015-08-31T05:19:45Z</time>
      </trkpt>
      <trkpt lat="34.07653" lon="77.16971">
        <ele>4464.6</ele>
        <time>2015-08-31T05:19:58Z</time>
      </trkpt>
      <trkpt lat="34.07653" lon="77.16972">
        <ele>4464.6</ele>
        <time>2015-08-31T05:19:59Z</time>
      </trkpt>
      <trkpt lat="34.07647" lon="77.16975">
        <ele>4463.8</ele>
        <time>2015-08-31T05:20:05Z</time>
      </trkpt>
      <trkpt lat="34.07646" lon="77.16977">
        <ele>4463.4</ele>
        <time>2015-08-31T05:20:08Z</time>
      </trkpt>
      <trkpt lat="34.07639" lon="77.16991">
        <ele>4462.4</ele>
        <time>2015-08-31T05:20:24Z</time>
      </trkpt>
      <trkpt lat="34.07636" lon="77.16996">
        <ele>4462.2</ele>
        <time>2015-08-31T05:20:28Z</time>
      </trkpt>
      <trkpt lat="34.07631" lon="77.17004">
        <ele>4461.4</ele>
        <time>2015-08-31T05:20:37Z</time>
      </trkpt>
      <trkpt lat="34.07628" lon="77.17007">
        <ele>4461</ele>
        <time>2015-08-31T05:20:42Z</time>
      </trkpt>
      <trkpt lat="34.07625" lon="77.17011">
        <ele>4461</ele>
        <time>2015-08-31T05:20:46Z</time>
      </trkpt>
      <trkpt lat="34.07622" lon="77.17016">
        <ele>4461.4</ele>
        <time>2015-08-31T05:20:51Z</time>
      </trkpt>
      <trkpt lat="34.0762" lon="77.17021">
        <ele>4461.4</ele>
        <time>2015-08-31T05:20:56Z</time>
      </trkpt>
      <trkpt lat="34.0762" lon="77.17023">
        <ele>4461.4</ele>
        <time>2015-08-31T05:20:58Z</time>
      </trkpt>
      <trkpt lat="34.0761" lon="77.17037">
        <ele>4460.4</ele>
        <time>2015-08-31T05:21:13Z</time>
      </trkpt>
      <trkpt lat="34.07604" lon="77.17042">
        <ele>4459.2</ele>
        <time>2015-08-31T05:21:20Z</time>
      </trkpt>
      <trkpt lat="34.07603" lon="77.17044">
        <ele>4459</ele>
        <time>2015-08-31T05:21:22Z</time>
      </trkpt>
      <trkpt lat="34.07601" lon="77.17045">
        <ele>4458.8</ele>
        <time>2015-08-31T05:21:24Z</time>
      </trkpt>
      <trkpt lat="34.07598" lon="77.17047">
        <ele>4458.2</ele>
        <time>2015-08-31T05:21:28Z</time>
      </trkpt>
      <trkpt lat="34.07593" lon="77.1705">
        <ele>4457.2</ele>
        <time>2015-08-31T05:21:34Z</time>
      </trkpt>
      <trkpt lat="34.0759" lon="77.17052">
        <ele>4456.8</ele>
        <time>2015-08-31T05:21:37Z</time>
      </trkpt>
      <trkpt lat="34.07587" lon="77.17054">
        <ele>4456.4</ele>
        <time>2015-08-31T05:21:41Z</time>
      </trkpt>
      <trkpt lat="34.07585" lon="77.17055">
        <ele>4456</ele>
        <time>2015-08-31T05:21:43Z</time>
      </trkpt>
      <trkpt lat="34.0758" lon="77.17059">
        <ele>4455.2</ele>
        <time>2015-08-31T05:21:49Z</time>
      </trkpt>
      <trkpt lat="34.0758" lon="77.17059">
        <ele>4455</ele>
        <time>2015-08-31T05:21:50Z</time>
      </trkpt>
      <trkpt lat="34.07579" lon="77.1706">
        <ele>4454.8</ele>
        <time>2015-08-31T05:21:52Z</time>
      </trkpt>
      <trkpt lat="34.07571" lon="77.17069">
        <ele>4454</ele>
        <time>2015-08-31T05:22:03Z</time>
      </trkpt>
      <trkpt lat="34.07566" lon="77.17077">
        <ele>4453</ele>
        <time>2015-08-31T05:22:12Z</time>
      </trkpt>
      <trkpt lat="34.07564" lon="77.17079">
        <ele>4452.8</ele>
        <time>2015-08-31T05:22:14Z</time>
      </trkpt>
      <trkpt lat="34.07559" lon="77.17085">
        <ele>4451.8</ele>
        <time>2015-08-31T05:22:21Z</time>
      </trkpt>
      <trkpt lat="34.07555" lon="77.1709">
        <ele>4451.2</ele>
        <time>2015-08-31T05:22:27Z</time>
      </trkpt>
      <trkpt lat="34.07554" lon="77.17091">
        <ele>4451.2</ele>
        <time>2015-08-31T05:22:29Z</time>
      </trkpt>
      <trkpt lat="34.07553" lon="77.17094">
        <ele>4450.8</ele>
        <time>2015-08-31T05:22:35Z</time>
      </trkpt>
      <trkpt lat="34.07553" lon="77.17095">
        <ele>4450.8</ele>
        <time>2015-08-31T05:22:36Z</time>
      </trkpt>
      <trkpt lat="34.07552" lon="77.17098">
        <ele>4450.4</ele>
        <time>2015-08-31T05:22:38Z</time>
      </trkpt>
      <trkpt lat="34.07549" lon="77.17102">
        <ele>4449.6</ele>
        <time>2015-08-31T05:22:43Z</time>
      </trkpt>
      <trkpt lat="34.07543" lon="77.17109">
        <ele>4448.8</ele>
        <time>2015-08-31T05:22:51Z</time>
      </trkpt>
      <trkpt lat="34.07543" lon="77.1711">
        <ele>4448.6</ele>
        <time>2015-08-31T05:22:53Z</time>
      </trkpt>
      <trkpt lat="34.07541" lon="77.17115">
        <ele>4448.2</ele>
        <time>2015-08-31T05:22:58Z</time>
      </trkpt>
      <trkpt lat="34.07536" lon="77.17119">
        <ele>4448</ele>
        <time>2015-08-31T05:23:03Z</time>
      </trkpt>
      <trkpt lat="34.07534" lon="77.17119">
        <ele>4447.4</ele>
        <time>2015-08-31T05:23:05Z</time>
      </trkpt>
      <trkpt lat="34.07532" lon="77.17123">
        <ele>4446.6</ele>
        <time>2015-08-31T05:23:09Z</time>
      </trkpt>
      <trkpt lat="34.07531" lon="77.17124">
        <ele>4446.2</ele>
        <time>2015-08-31T05:23:10Z</time>
      </trkpt>
      <trkpt lat="34.07529" lon="77.17127">
        <ele>4446</ele>
        <time>2015-08-31T05:23:12Z</time>
      </trkpt>
      <trkpt lat="34.07528" lon="77.17129">
        <ele>4445.8</ele>
        <time>2015-08-31T05:23:15Z</time>
      </trkpt>
      <trkpt lat="34.07523" lon="77.17136">
        <ele>4445.2</ele>
        <time>2015-08-31T05:23:23Z</time>
      </trkpt>
      <trkpt lat="34.07521" lon="77.17142">
        <ele>4444.2</ele>
        <time>2015-08-31T05:23:27Z</time>
      </trkpt>
      <trkpt lat="34.0752" lon="77.17142">
        <ele>4444</ele>
        <time>2015-08-31T05:23:28Z</time>
      </trkpt>
      <trkpt lat="34.07516" lon="77.17145">
        <ele>4442.8</ele>
        <time>2015-08-31T05:23:33Z</time>
      </trkpt>
      <trkpt lat="34.07513" lon="77.17146">
        <ele>4441.8</ele>
        <time>2015-08-31T05:23:37Z</time>
      </trkpt>
      <trkpt lat="34.07509" lon="77.1715">
        <ele>4440.6</ele>
        <time>2015-08-31T05:23:45Z</time>
      </trkpt>
      <trkpt lat="34.07504" lon="77.17156">
        <ele>4439.6</ele>
        <time>2015-08-31T05:23:52Z</time>
      </trkpt>
      <trkpt lat="34.07501" lon="77.17159">
        <ele>4438.4</ele>
        <time>2015-08-31T05:23:56Z</time>
      </trkpt>
      <trkpt lat="34.07498" lon="77.17162">
        <ele>4438.2</ele>
        <time>2015-08-31T05:24:00Z</time>
      </trkpt>
      <trkpt lat="34.07494" lon="77.17166">
        <ele>4437.2</ele>
        <time>2015-08-31T05:24:08Z</time>
      </trkpt>
      <trkpt lat="34.07489" lon="77.17171">
        <ele>4436.2</ele>
        <time>2015-08-31T05:24:15Z</time>
      </trkpt>
      <trkpt lat="34.07487" lon="77.17172">
        <ele>4435.8</ele>
        <time>2015-08-31T05:24:17Z</time>
      </trkpt>
      <trkpt lat="34.07483" lon="77.17173">
        <ele>4435</ele>
        <time>2015-08-31T05:24:22Z</time>
      </trkpt>
      <trkpt lat="34.07482" lon="77.17172">
        <ele>4434.4</ele>
        <time>2015-08-31T05:24:24Z</time>
      </trkpt>
      <trkpt lat="34.07481" lon="77.17171">
        <ele>4434</ele>
        <time>2015-08-31T05:24:26Z</time>
      </trkpt>
      <trkpt lat="34.07475" lon="77.17177">
        <ele>4433.6</ele>
        <time>2015-08-31T05:24:31Z</time>
      </trkpt>
      <trkpt lat="34.0747" lon="77.17183">
        <ele>4433</ele>
        <time>2015-08-31T05:24:37Z</time>
      </trkpt>
      <trkpt lat="34.07464" lon="77.17191">
        <ele>4432.2</ele>
        <time>2015-08-31T05:24:45Z</time>
      </trkpt>
      <trkpt lat="34.07461" lon="77.17194">
        <ele>4432</ele>
        <time>2015-08-31T05:24:49Z</time>
      </trkpt>
      <trkpt lat="34.07457" lon="77.17198">
        <ele>4430.8</ele>
        <time>2015-08-31T05:24:55Z</time>
      </trkpt>
      <trkpt lat="34.07456" lon="77.17199">
        <ele>4430.6</ele>
        <time>2015-08-31T05:24:57Z</time>
      </trkpt>
      <trkpt lat="34.07451" lon="77.17202">
        <ele>4430.2</ele>
        <time>2015-08-31T05:25:02Z</time>
      </trkpt>
      <trkpt lat="34.0745" lon="77.17204">
        <ele>4429.8</ele>
        <time>2015-08-31T05:25:04Z</time>
      </trkpt>
      <trkpt lat="34.07449" lon="77.17205">
        <ele>4429.6</ele>
        <time>2015-08-31T05:25:06Z</time>
      </trkpt>
      <trkpt lat="34.07445" lon="77.17208">
        <ele>4429.2</ele>
        <time>2015-08-31T05:25:10Z</time>
      </trkpt>
      <trkpt lat="34.07443" lon="77.1721">
        <ele>4428.8</ele>
        <time>2015-08-31T05:25:13Z</time>
      </trkpt>
      <trkpt lat="34.07438" lon="77.17213">
        <ele>4427.6</ele>
        <time>2015-08-31T05:25:18Z</time>
      </trkpt>
      <trkpt lat="34.07434" lon="77.17218">
        <ele>4426.8</ele>
        <time>2015-08-31T05:25:23Z</time>
      </trkpt>
      <trkpt lat="34.07432" lon="77.1722">
        <ele>4426.6</ele>
        <time>2015-08-31T05:25:25Z</time>
      </trkpt>
      <trkpt lat="34.07431" lon="77.17222">
        <ele>4426.4</ele>
        <time>2015-08-31T05:25:27Z</time>
      </trkpt>
      <trkpt lat="34.07429" lon="77.1723">
        <ele>4425.6</ele>
        <time>2015-08-31T05:25:33Z</time>
      </trkpt>
      <trkpt lat="34.07427" lon="77.17235">
        <ele>4424.4</ele>
        <time>2015-08-31T05:25:39Z</time>
      </trkpt>
      <trkpt lat="34.07421" lon="77.17239">
        <ele>4423.2</ele>
        <time>2015-08-31T05:25:46Z</time>
      </trkpt>
      <trkpt lat="34.0742" lon="77.17242">
        <ele>4422.2</ele>
        <time>2015-08-31T05:25:50Z</time>
      </trkpt>
      <trkpt lat="34.07416" lon="77.17248">
        <ele>4421.2</ele>
        <time>2015-08-31T05:25:55Z</time>
      </trkpt>
      <trkpt lat="34.07415" lon="77.17251">
        <ele>4421</ele>
        <time>2015-08-31T05:25:57Z</time>
      </trkpt>
      <trkpt lat="34.07412" lon="77.17254">
        <ele>4420.2</ele>
        <time>2015-08-31T05:26:01Z</time>
      </trkpt>
      <trkpt lat="34.0741" lon="77.17255">
        <ele>4419</ele>
        <time>2015-08-31T05:26:05Z</time>
      </trkpt>
      <trkpt lat="34.07409" lon="77.17257">
        <ele>4418</ele>
        <time>2015-08-31T05:26:08Z</time>
      </trkpt>
      <trkpt lat="34.07407" lon="77.17258">
        <ele>4417.4</ele>
        <time>2015-08-31T05:26:10Z</time>
      </trkpt>
      <trkpt lat="34.07405" lon="77.17263">
        <ele>4416.8</ele>
        <time>2015-08-31T05:26:15Z</time>
      </trkpt>
      <trkpt lat="34.07403" lon="77.17269">
        <ele>4415.6</ele>
        <time>2015-08-31T05:26:22Z</time>
      </trkpt>
      <trkpt lat="34.07401" lon="77.17272">
        <ele>4415</ele>
        <time>2015-08-31T05:26:25Z</time>
      </trkpt>
      <trkpt lat="34.07399" lon="77.17278">
        <ele>4414.6</ele>
        <time>2015-08-31T05:26:30Z</time>
      </trkpt>
      <trkpt lat="34.07392" lon="77.1729">
        <ele>4413.6</ele>
        <time>2015-08-31T05:26:42Z</time>
      </trkpt>
      <trkpt lat="34.07388" lon="77.173">
        <ele>4412.8</ele>
        <time>2015-08-31T05:26:52Z</time>
      </trkpt>
      <trkpt lat="34.07386" lon="77.17304">
        <ele>4412.8</ele>
        <time>2015-08-31T05:26:56Z</time>
      </trkpt>
      <trkpt lat="34.07385" lon="77.17307">
        <ele>4412.8</ele>
        <time>2015-08-31T05:26:59Z</time>
      </trkpt>
      <trkpt lat="34.07381" lon="77.17311">
        <ele>4412.4</ele>
        <time>2015-08-31T05:27:03Z</time>
      </trkpt>
      <trkpt lat="34.0738" lon="77.17311">
        <ele>4412.4</ele>
        <time>2015-08-31T05:27:04Z</time>
      </trkpt>
      <trkpt lat="34.07376" lon="77.17316">
        <ele>4411.4</ele>
        <time>2015-08-31T05:27:09Z</time>
      </trkpt>
      <trkpt lat="34.07375" lon="77.17317">
        <ele>4411</ele>
        <time>2015-08-31T05:27:11Z</time>
      </trkpt>
      <trkpt lat="34.07374" lon="77.17322">
        <ele>4410.4</ele>
        <time>2015-08-31T05:27:15Z</time>
      </trkpt>
      <trkpt lat="34.07373" lon="77.17327">
        <ele>4409.6</ele>
        <time>2015-08-31T05:27:18Z</time>
      </trkpt>
      <trkpt lat="34.0737" lon="77.17329">
        <ele>4409.4</ele>
        <time>2015-08-31T05:27:24Z</time>
      </trkpt>
      <trkpt lat="34.07369" lon="77.17331">
        <ele>4409.2</ele>
        <time>2015-08-31T05:27:26Z</time>
      </trkpt>
      <trkpt lat="34.07363" lon="77.17339">
        <ele>4408.2</ele>
        <time>2015-08-31T05:27:33Z</time>
      </trkpt>
      <trkpt lat="34.07356" lon="77.17347">
        <ele>4406.8</ele>
        <time>2015-08-31T05:27:41Z</time>
      </trkpt>
      <trkpt lat="34.07353" lon="77.17352">
        <ele>4405.8</ele>
        <time>2015-08-31T05:27:46Z</time>
      </trkpt>
      <trkpt lat="34.07352" lon="77.17352">
        <ele>4405.8</ele>
        <time>2015-08-31T05:27:47Z</time>
      </trkpt>
      <trkpt lat="34.0735" lon="77.17357">
        <ele>4404.6</ele>
        <time>2015-08-31T05:27:53Z</time>
      </trkpt>
      <trkpt lat="34.07349" lon="77.17362">
        <ele>4404.2</ele>
        <time>2015-08-31T05:27:56Z</time>
      </trkpt>
      <trkpt lat="34.07348" lon="77.17362">
        <ele>4404</ele>
        <time>2015-08-31T05:27:57Z</time>
      </trkpt>
      <trkpt lat="34.07346" lon="77.17366">
        <ele>4403.6</ele>
        <time>2015-08-31T05:28:00Z</time>
      </trkpt>
      <trkpt lat="34.07342" lon="77.17369">
        <ele>4402.6</ele>
        <time>2015-08-31T05:28:04Z</time>
      </trkpt>
      <trkpt lat="34.07342" lon="77.1737">
        <ele>4402.4</ele>
        <time>2015-08-31T05:28:05Z</time>
      </trkpt>
      <trkpt lat="34.07337" lon="77.17377">
        <ele>4401.2</ele>
        <time>2015-08-31T05:28:11Z</time>
      </trkpt>
      <trkpt lat="34.07333" lon="77.17384">
        <ele>4400.2</ele>
        <time>2015-08-31T05:28:18Z</time>
      </trkpt>
      <trkpt lat="34.07329" lon="77.17387">
        <ele>4399.4</ele>
        <time>2015-08-31T05:28:23Z</time>
      </trkpt>
      <trkpt lat="34.07328" lon="77.17387">
        <ele>4399.2</ele>
        <time>2015-08-31T05:28:25Z</time>
      </trkpt>
      <trkpt lat="34.07325" lon="77.17392">
        <ele>4399</ele>
        <time>2015-08-31T05:28:30Z</time>
      </trkpt>
      <trkpt lat="34.07324" lon="77.17397">
        <ele>4398.6</ele>
        <time>2015-08-31T05:28:34Z</time>
      </trkpt>
      <trkpt lat="34.07323" lon="77.17399">
        <ele>4398.2</ele>
        <time>2015-08-31T05:28:36Z</time>
      </trkpt>
      <trkpt lat="34.07322" lon="77.17399">
        <ele>4398</ele>
        <time>2015-08-31T05:28:37Z</time>
      </trkpt>
      <trkpt lat="34.07317" lon="77.17405">
        <ele>4397</ele>
        <time>2015-08-31T05:28:43Z</time>
      </trkpt>
      <trkpt lat="34.07312" lon="77.17411">
        <ele>4395.8</ele>
        <time>2015-08-31T05:28:48Z</time>
      </trkpt>
      <trkpt lat="34.07308" lon="77.17411">
        <ele>4394.8</ele>
        <time>2015-08-31T05:28:53Z</time>
      </trkpt>
      <trkpt lat="34.07305" lon="77.17417">
        <ele>4393.6</ele>
        <time>2015-08-31T05:29:00Z</time>
      </trkpt>
      <trkpt lat="34.07301" lon="77.17421">
        <ele>4392.6</ele>
        <time>2015-08-31T05:29:06Z</time>
      </trkpt>
      <trkpt lat="34.07297" lon="77.17426">
        <ele>4391.8</ele>
        <time>2015-08-31T05:29:10Z</time>
      </trkpt>
      <trkpt lat="34.07294" lon="77.17429">
        <ele>4391.4</ele>
        <time>2015-08-31T05:29:13Z</time>
      </trkpt>
      <trkpt lat="34.07291" lon="77.17431">
        <ele>4391.4</ele>
        <time>2015-08-31T05:29:17Z</time>
      </trkpt>
      <trkpt lat="34.07285" lon="77.17437">
        <ele>4390.4</ele>
        <time>2015-08-31T05:29:24Z</time>
      </trkpt>
      <trkpt lat="34.07285" lon="77.17438">
        <ele>4390.2</ele>
        <time>2015-08-31T05:29:25Z</time>
      </trkpt>
      <trkpt lat="34.07281" lon="77.17444">
        <ele>4389.4</ele>
        <time>2015-08-31T05:29:30Z</time>
      </trkpt>
      <trkpt lat="34.0728" lon="77.17445">
        <ele>4388.8</ele>
        <time>2015-08-31T05:29:32Z</time>
      </trkpt>
      <trkpt lat="34.07277" lon="77.17452">
        <ele>4388.2</ele>
        <time>2015-08-31T05:29:38Z</time>
      </trkpt>
      <trkpt lat="34.07272" lon="77.17457">
        <ele>4387.2</ele>
        <time>2015-08-31T05:29:45Z</time>
      </trkpt>
      <trkpt lat="34.0726" lon="77.17466">
        <ele>4386.2</ele>
        <time>2015-08-31T05:29:57Z</time>
      </trkpt>
      <trkpt lat="34.07256" lon="77.17469">
        <ele>4385.8</ele>
        <time>2015-08-31T05:30:01Z</time>
      </trkpt>
      <trkpt lat="34.07253" lon="77.17472">
        <ele>4385.2</ele>
        <time>2015-08-31T05:30:04Z</time>
      </trkpt>
      <trkpt lat="34.0725" lon="77.17475">
        <ele>4384.8</ele>
        <time>2015-08-31T05:30:07Z</time>
      </trkpt>
      <trkpt lat="34.07245" lon="77.17478">
        <ele>4384.4</ele>
        <time>2015-08-31T05:30:11Z</time>
      </trkpt>
      <trkpt lat="34.07235" lon="77.17488">
        <ele>4384</ele>
        <time>2015-08-31T05:30:24Z</time>
      </trkpt>
      <trkpt lat="34.07232" lon="77.17489">
        <ele>4383.4</ele>
        <time>2015-08-31T05:30:29Z</time>
      </trkpt>
      <trkpt lat="34.0723" lon="77.17491">
        <ele>4383</ele>
        <time>2015-08-31T05:30:31Z</time>
      </trkpt>
      <trkpt lat="34.07226" lon="77.17493">
        <ele>4382</ele>
        <time>2015-08-31T05:30:39Z</time>
      </trkpt>
      <trkpt lat="34.07222" lon="77.17493">
        <ele>4381.6</ele>
        <time>2015-08-31T05:30:42Z</time>
      </trkpt>
      <trkpt lat="34.0722" lon="77.17495">
        <ele>4380.8</ele>
        <time>2015-08-31T05:30:45Z</time>
      </trkpt>
      <trkpt lat="34.07219" lon="77.17485">
        <ele>4379.6</ele>
        <time>2015-08-31T05:31:04Z</time>
      </trkpt>
      <trkpt lat="34.07212" lon="77.17488">
        <ele>4379</ele>
        <time>2015-08-31T05:31:15Z</time>
      </trkpt>
      <trkpt lat="34.07211" lon="77.1749">
        <ele>4378.6</ele>
        <time>2015-08-31T05:31:22Z</time>
      </trkpt>
      <trkpt lat="34.07211" lon="77.17491">
        <ele>4378.6</ele>
        <time>2015-08-31T05:32:27Z</time>
      </trkpt>
      <trkpt lat="34.07216" lon="77.17491">
        <ele>4379.8</ele>
        <time>2015-08-31T05:32:55Z</time>
      </trkpt>
      <trkpt lat="34.07215" lon="77.17491">
        <ele>4381</ele>
        <time>2015-08-31T05:33:00Z</time>
      </trkpt>
      <trkpt lat="34.07216" lon="77.1749">
        <ele>4380.4</ele>
        <time>2015-08-31T05:33:26Z</time>
      </trkpt>
      <trkpt lat="34.07216" lon="77.1749">
        <ele>4379.8</ele>
        <time>2015-08-31T05:33:30Z</time>
      </trkpt>
      <trkpt lat="34.07214" lon="77.17487">
        <ele>4378.6</ele>
        <time>2015-08-31T05:33:38Z</time>
      </trkpt>
      <trkpt lat="34.07214" lon="77.1749">
        <ele>4377.6</ele>
        <time>2015-08-31T05:34:07Z</time>
      </trkpt>
      <trkpt lat="34.07214" lon="77.17492">
        <ele>4377</ele>
        <time>2015-08-31T05:34:19Z</time>
      </trkpt>
      <trkpt lat="34.07213" lon="77.17487">
        <ele>4376.8</ele>
        <time>2015-08-31T05:34:45Z</time>
      </trkpt>
      <trkpt lat="34.07213" lon="77.17488">
        <ele>4376.6</ele>
        <time>2015-08-31T05:34:54Z</time>
      </trkpt>
      <trkpt lat="34.07215" lon="77.17494">
        <ele>4375.6</ele>
        <time>2015-08-31T05:35:34Z</time>
      </trkpt>
      <trkpt lat="34.07213" lon="77.17488">
        <ele>4374.8</ele>
        <time>2015-08-31T05:36:44Z</time>
      </trkpt>
      <trkpt lat="34.07213" lon="77.17487">
        <ele>4374.8</ele>
        <time>2015-08-31T05:36:45Z</time>
      </trkpt>
      <trkpt lat="34.07212" lon="77.17487">
        <ele>4375</ele>
        <time>2015-08-31T05:37:05Z</time>
      </trkpt>
      <trkpt lat="34.07212" lon="77.17488">
        <ele>4375</ele>
        <time>2015-08-31T05:37:07Z</time>
      </trkpt>
      <trkpt lat="34.07212" lon="77.17489">
        <ele>4375.2</ele>
        <time>2015-08-31T05:37:24Z</time>
      </trkpt>
      <trkpt lat="34.07212" lon="77.17489">
        <ele>4374.6</ele>
        <time>2015-08-31T05:37:34Z</time>
      </trkpt>
      <trkpt lat="34.07212" lon="77.17487">
        <ele>4373.4</ele>
        <time>2015-08-31T05:37:44Z</time>
      </trkpt>
      <trkpt lat="34.07216" lon="77.1748">
        <ele>4374.2</ele>
        <time>2015-08-31T05:38:31Z</time>
      </trkpt>
      <trkpt lat="34.07218" lon="77.17479">
        <ele>4374.2</ele>
        <time>2015-08-31T05:38:33Z</time>
      </trkpt>
      <trkpt lat="34.07219" lon="77.17478">
        <ele>4374.2</ele>
        <time>2015-08-31T05:38:35Z</time>
      </trkpt>
      <trkpt lat="34.07225" lon="77.17463">
        <ele>4372.4</ele>
        <time>2015-08-31T05:39:36Z</time>
      </trkpt>
      <trkpt lat="34.07226" lon="77.17462">
        <ele>4372.2</ele>
        <time>2015-08-31T05:39:39Z</time>
      </trkpt>
      <trkpt lat="34.07223" lon="77.1747">
        <ele>4372.6</ele>
        <time>2015-08-31T05:40:27Z</time>
      </trkpt>
      <trkpt lat="34.07227" lon="77.17466">
        <ele>4371.6</ele>
        <time>2015-08-31T05:40:55Z</time>
      </trkpt>
      <trkpt lat="34.07227" lon="77.17468">
        <ele>4371.6</ele>
        <time>2015-08-31T05:40:58Z</time>
      </trkpt>
      <trkpt lat="34.07229" lon="77.17463">
        <ele>4371.8</ele>
        <time>2015-08-31T05:41:39Z</time>
      </trkpt>
      <trkpt lat="34.07225" lon="77.17462">
        <ele>4371.4</ele>
        <time>2015-08-31T05:42:18Z</time>
      </trkpt>
      <trkpt lat="34.07224" lon="77.17462">
        <ele>4371</ele>
        <time>2015-08-31T05:42:50Z</time>
      </trkpt>
      <trkpt lat="34.0723" lon="77.17462">
        <ele>4370.8</ele>
        <time>2015-08-31T05:43:24Z</time>
      </trkpt>
      <trkpt lat="34.07228" lon="77.17463">
        <ele>4370.8</ele>
        <time>2015-08-31T05:44:18Z</time>
      </trkpt>
      <trkpt lat="34.07227" lon="77.17468">
        <ele>4370</ele>
        <time>2015-08-31T05:44:53Z</time>
      </trkpt>
      <trkpt lat="34.07224" lon="77.17475">
        <ele>4370</ele>
        <time>2015-08-31T05:44:58Z</time>
      </trkpt>
      <trkpt lat="34.07213" lon="77.17492">
        <ele>4370</ele>
        <time>2015-08-31T05:45:11Z</time>
      </trkpt>
      <trkpt lat="34.07226" lon="77.17473">
        <ele>4369.8</ele>
        <time>2015-08-31T05:45:25Z</time>
      </trkpt>
      <trkpt lat="34.07226" lon="77.17465">
        <ele>4369.8</ele>
        <time>2015-08-31T05:45:26Z</time>
      </trkpt>
      <trkpt lat="34.0723" lon="77.17461">
        <ele>4369.8</ele>
        <time>2015-08-31T05:46:27Z</time>
      </trkpt>
      <trkpt lat="34.07227" lon="77.17465">
        <ele>4370</ele>
        <time>2015-08-31T05:47:20Z</time>
      </trkpt>
      <trkpt lat="34.07226" lon="77.1747">
        <ele>4369.6</ele>
        <time>2015-08-31T05:47:26Z</time>
      </trkpt>
      <trkpt lat="34.07224" lon="77.17475">
        <ele>4369.8</ele>
        <time>2015-08-31T05:47:31Z</time>
      </trkpt>
      <trkpt lat="34.07223" lon="77.17477">
        <ele>4369.8</ele>
        <time>2015-08-31T05:47:34Z</time>
      </trkpt>
      <trkpt lat="34.07221" lon="77.17479">
        <ele>4369.8</ele>
        <time>2015-08-31T05:47:38Z</time>
      </trkpt>
      <trkpt lat="34.07223" lon="77.1749">
        <ele>4370.8</ele>
        <time>2015-08-31T05:47:51Z</time>
      </trkpt>
      <trkpt lat="34.07221" lon="77.17492">
        <ele>4371</ele>
        <time>2015-08-31T05:47:55Z</time>
      </trkpt>
      <trkpt lat="34.07213" lon="77.17492">
        <ele>4370</ele>
        <time>2015-08-31T05:48:32Z</time>
      </trkpt>
      <trkpt lat="34.07214" lon="77.17489">
        <ele>4368.8</ele>
        <time>2015-08-31T05:48:54Z</time>
      </trkpt>
      <trkpt lat="34.07213" lon="77.17491">
        <ele>4367.8</ele>
        <time>2015-08-31T05:49:17Z</time>
      </trkpt>
      <trkpt lat="34.07207" lon="77.17499">
        <ele>4366.8</ele>
        <time>2015-08-31T05:49:49Z</time>
      </trkpt>
      <trkpt lat="34.07206" lon="77.17502">
        <ele>4365.6</ele>
        <time>2015-08-31T05:49:54Z</time>
      </trkpt>
      <trkpt lat="34.07207" lon="77.17505">
        <ele>4365.2</ele>
        <time>2015-08-31T05:49:57Z</time>
      </trkpt>
      <trkpt lat="34.07204" lon="77.17506">
        <ele>4364.4</ele>
        <time>2015-08-31T05:50:00Z</time>
      </trkpt>
      <trkpt lat="34.07204" lon="77.17506">
        <ele>4363.2</ele>
        <time>2015-08-31T05:50:02Z</time>
      </trkpt>
      <trkpt lat="34.07204" lon="77.1751">
        <ele>4362.2</ele>
        <time>2015-08-31T05:50:07Z</time>
      </trkpt>
      <trkpt lat="34.07205" lon="77.17515">
        <ele>4361.2</ele>
        <time>2015-08-31T05:50:11Z</time>
      </trkpt>
      <trkpt lat="34.07206" lon="77.1752">
        <ele>4360</ele>
        <time>2015-08-31T05:50:16Z</time>
      </trkpt>
      <trkpt lat="34.07206" lon="77.17523">
        <ele>4359.8</ele>
        <time>2015-08-31T05:50:18Z</time>
      </trkpt>
      <trkpt lat="34.07207" lon="77.17525">
        <ele>4359.4</ele>
        <time>2015-08-31T05:50:21Z</time>
      </trkpt>
      <trkpt lat="34.07206" lon="77.17526">
        <ele>4359</ele>
        <time>2015-08-31T05:50:23Z</time>
      </trkpt>
      <trkpt lat="34.07205" lon="77.1753">
        <ele>4357.8</ele>
        <time>2015-08-31T05:50:28Z</time>
      </trkpt>
      <trkpt lat="34.07202" lon="77.17532">
        <ele>4356.6</ele>
        <time>2015-08-31T05:50:34Z</time>
      </trkpt>
      <trkpt lat="34.07199" lon="77.17534">
        <ele>4355.2</ele>
        <time>2015-08-31T05:50:39Z</time>
      </trkpt>
      <trkpt lat="34.07196" lon="77.17536">
        <ele>4354</ele>
        <time>2015-08-31T05:50:44Z</time>
      </trkpt>
      <trkpt lat="34.07192" lon="77.17539">
        <ele>4353</ele>
        <time>2015-08-31T05:50:49Z</time>
      </trkpt>
      <trkpt lat="34.07192" lon="77.17538">
        <ele>4352.6</ele>
        <time>2015-08-31T05:50:50Z</time>
      </trkpt>
      <trkpt lat="34.07189" lon="77.17537">
        <ele>4351.6</ele>
        <time>2015-08-31T05:50:53Z</time>
      </trkpt>
      <trkpt lat="34.07189" lon="77.17537">
        <ele>4351.2</ele>
        <time>2015-08-31T05:50:54Z</time>
      </trkpt>
      <trkpt lat="34.07187" lon="77.17537">
        <ele>4350.6</ele>
        <time>2015-08-31T05:50:56Z</time>
      </trkpt>
      <trkpt lat="34.07186" lon="77.17539">
        <ele>4350</ele>
        <time>2015-08-31T05:50:58Z</time>
      </trkpt>
      <trkpt lat="34.07184" lon="77.17543">
        <ele>4349.4</ele>
        <time>2015-08-31T05:51:01Z</time>
      </trkpt>
      <trkpt lat="34.07182" lon="77.17546">
        <ele>4348.2</ele>
        <time>2015-08-31T05:51:05Z</time>
      </trkpt>
      <trkpt lat="34.07179" lon="77.17551">
        <ele>4347.2</ele>
        <time>2015-08-31T05:51:09Z</time>
      </trkpt>
      <trkpt lat="34.07178" lon="77.17551">
        <ele>4346.6</ele>
        <time>2015-08-31T05:51:11Z</time>
      </trkpt>
      <trkpt lat="34.07178" lon="77.17552">
        <ele>4346</ele>
        <time>2015-08-31T05:51:14Z</time>
      </trkpt>
      <trkpt lat="34.07176" lon="77.17558">
        <ele>4344.8</ele>
        <time>2015-08-31T05:51:24Z</time>
      </trkpt>
      <trkpt lat="34.07173" lon="77.17568">
        <ele>4344.2</ele>
        <time>2015-08-31T05:51:30Z</time>
      </trkpt>
      <trkpt lat="34.07172" lon="77.17572">
        <ele>4343.6</ele>
        <time>2015-08-31T05:51:34Z</time>
      </trkpt>
      <trkpt lat="34.07171" lon="77.17573">
        <ele>4342.6</ele>
        <time>2015-08-31T05:51:38Z</time>
      </trkpt>
      <trkpt lat="34.07169" lon="77.17577">
        <ele>4341.6</ele>
        <time>2015-08-31T05:51:44Z</time>
      </trkpt>
      <trkpt lat="34.07167" lon="77.1758">
        <ele>4340.6</ele>
        <time>2015-08-31T05:51:49Z</time>
      </trkpt>
      <trkpt lat="34.07165" lon="77.17584">
        <ele>4339.4</ele>
        <time>2015-08-31T05:51:54Z</time>
      </trkpt>
      <trkpt lat="34.07162" lon="77.17588">
        <ele>4338.2</ele>
        <time>2015-08-31T05:52:00Z</time>
      </trkpt>
      <trkpt lat="34.07162" lon="77.17591">
        <ele>4337</ele>
        <time>2015-08-31T05:52:04Z</time>
      </trkpt>
      <trkpt lat="34.07158" lon="77.17594">
        <ele>4336</ele>
        <time>2015-08-31T05:52:09Z</time>
      </trkpt>
      <trkpt lat="34.07157" lon="77.17597">
        <ele>4334.8</ele>
        <time>2015-08-31T05:52:13Z</time>
      </trkpt>
      <trkpt lat="34.07155" lon="77.17598">
        <ele>4334.4</ele>
        <time>2015-08-31T05:52:15Z</time>
      </trkpt>
      <trkpt lat="34.07154" lon="77.17601">
        <ele>4333.8</ele>
        <time>2015-08-31T05:52:18Z</time>
      </trkpt>
      <trkpt lat="34.07152" lon="77.17606">
        <ele>4332.4</ele>
        <time>2015-08-31T05:52:23Z</time>
      </trkpt>
      <trkpt lat="34.0715" lon="77.1761">
        <ele>4331.4</ele>
        <time>2015-08-31T05:52:28Z</time>
      </trkpt>
      <trkpt lat="34.07145" lon="77.17617">
        <ele>4330</ele>
        <time>2015-08-31T05:52:36Z</time>
      </trkpt>
      <trkpt lat="34.07141" lon="77.17617">
        <ele>4329</ele>
        <time>2015-08-31T05:52:41Z</time>
      </trkpt>
      <trkpt lat="34.07137" lon="77.1762">
        <ele>4327.8</ele>
        <time>2015-08-31T05:52:46Z</time>
      </trkpt>
      <trkpt lat="34.07136" lon="77.17621">
        <ele>4327.2</ele>
        <time>2015-08-31T05:52:48Z</time>
      </trkpt>
      <trkpt lat="34.07136" lon="77.17623">
        <ele>4326.8</ele>
        <time>2015-08-31T05:52:50Z</time>
      </trkpt>
      <trkpt lat="34.07135" lon="77.17623">
        <ele>4326.6</ele>
        <time>2015-08-31T05:52:51Z</time>
      </trkpt>
      <trkpt lat="34.07131" lon="77.17623">
        <ele>4325.8</ele>
        <time>2015-08-31T05:52:55Z</time>
      </trkpt>
      <trkpt lat="34.0713" lon="77.17624">
        <ele>4325.4</ele>
        <time>2015-08-31T05:52:56Z</time>
      </trkpt>
      <trkpt lat="34.0713" lon="77.17624">
        <ele>4325.2</ele>
        <time>2015-08-31T05:52:57Z</time>
      </trkpt>
      <trkpt lat="34.07127" lon="77.17626">
        <ele>4324.2</ele>
        <time>2015-08-31T05:53:00Z</time>
      </trkpt>
      <trkpt lat="34.07126" lon="77.17627">
        <ele>4324</ele>
        <time>2015-08-31T05:53:01Z</time>
      </trkpt>
      <trkpt lat="34.07125" lon="77.17632">
        <ele>4323.4</ele>
        <time>2015-08-31T05:53:04Z</time>
      </trkpt>
      <trkpt lat="34.07124" lon="77.17632">
        <ele>4323.2</ele>
        <time>2015-08-31T05:53:05Z</time>
      </trkpt>
      <trkpt lat="34.07118" lon="77.17639">
        <ele>4322.2</ele>
        <time>2015-08-31T05:53:12Z</time>
      </trkpt>
      <trkpt lat="34.07116" lon="77.17645">
        <ele>4321.8</ele>
        <time>2015-08-31T05:53:16Z</time>
      </trkpt>
      <trkpt lat="34.07114" lon="77.17647">
        <ele>4320.8</ele>
        <time>2015-08-31T05:53:20Z</time>
      </trkpt>
      <trkpt lat="34.07112" lon="77.1765">
        <ele>4319.8</ele>
        <time>2015-08-31T05:53:24Z</time>
      </trkpt>
      <trkpt lat="34.07108" lon="77.17655">
        <ele>4318.8</ele>
        <time>2015-08-31T05:53:29Z</time>
      </trkpt>
      <trkpt lat="34.07105" lon="77.17658">
        <ele>4318.4</ele>
        <time>2015-08-31T05:53:32Z</time>
      </trkpt>
      <trkpt lat="34.071" lon="77.17661">
        <ele>4317.6</ele>
        <time>2015-08-31T05:53:37Z</time>
      </trkpt>
      <trkpt lat="34.07099" lon="77.17663">
        <ele>4317</ele>
        <time>2015-08-31T05:53:39Z</time>
      </trkpt>
      <trkpt lat="34.07097" lon="77.17665">
        <ele>4316.4</ele>
        <time>2015-08-31T05:53:41Z</time>
      </trkpt>
      <trkpt lat="34.07093" lon="77.17669">
        <ele>4315.4</ele>
        <time>2015-08-31T05:53:47Z</time>
      </trkpt>
      <trkpt lat="34.07093" lon="77.17669">
        <ele>4315.2</ele>
        <time>2015-08-31T05:53:48Z</time>
      </trkpt>
      <trkpt lat="34.07088" lon="77.17672">
        <ele>4314</ele>
        <time>2015-08-31T05:53:55Z</time>
      </trkpt>
      <trkpt lat="34.07084" lon="77.17675">
        <ele>4313</ele>
        <time>2015-08-31T05:54:01Z</time>
      </trkpt>
      <trkpt lat="34.07081" lon="77.17678">
        <ele>4312.4</ele>
        <time>2015-08-31T05:54:06Z</time>
      </trkpt>
      <trkpt lat="34.07079" lon="77.17679">
        <ele>4311.8</ele>
        <time>2015-08-31T05:54:09Z</time>
      </trkpt>
      <trkpt lat="34.07078" lon="77.1768">
        <ele>4311.6</ele>
        <time>2015-08-31T05:54:10Z</time>
      </trkpt>
      <trkpt lat="34.07078" lon="77.17681">
        <ele>4311.2</ele>
        <time>2015-08-31T05:54:11Z</time>
      </trkpt>
      <trkpt lat="34.07077" lon="77.17683">
        <ele>4310.8</ele>
        <time>2015-08-31T05:54:13Z</time>
      </trkpt>
      <trkpt lat="34.07077" lon="77.17684">
        <ele>4310.6</ele>
        <time>2015-08-31T05:54:14Z</time>
      </trkpt>
      <trkpt lat="34.07073" lon="77.17687">
        <ele>4309.6</ele>
        <time>2015-08-31T05:54:19Z</time>
      </trkpt>
      <trkpt lat="34.07069" lon="77.17689">
        <ele>4308.4</ele>
        <time>2015-08-31T05:54:23Z</time>
      </trkpt>
      <trkpt lat="34.07066" lon="77.17691">
        <ele>4307.4</ele>
        <time>2015-08-31T05:54:28Z</time>
      </trkpt>
      <trkpt lat="34.07057" lon="77.17701">
        <ele>4306.2</ele>
        <time>2015-08-31T05:54:38Z</time>
      </trkpt>
      <trkpt lat="34.07053" lon="77.17704">
        <ele>4305.2</ele>
        <time>2015-08-31T05:54:43Z</time>
      </trkpt>
      <trkpt lat="34.07049" lon="77.17708">
        <ele>4304</ele>
        <time>2015-08-31T05:54:50Z</time>
      </trkpt>
      <trkpt lat="34.07044" lon="77.17717">
        <ele>4303</ele>
        <time>2015-08-31T05:54:58Z</time>
      </trkpt>
      <trkpt lat="34.07043" lon="77.17719">
        <ele>4302.6</ele>
        <time>2015-08-31T05:55:00Z</time>
      </trkpt>
      <trkpt lat="34.07038" lon="77.17724">
        <ele>4301.8</ele>
        <time>2015-08-31T05:55:07Z</time>
      </trkpt>
      <trkpt lat="34.07036" lon="77.17725">
        <ele>4301.4</ele>
        <time>2015-08-31T05:55:09Z</time>
      </trkpt>
      <trkpt lat="34.07033" lon="77.17726">
        <ele>4300.6</ele>
        <time>2015-08-31T05:55:13Z</time>
      </trkpt>
      <trkpt lat="34.07032" lon="77.17726">
        <ele>4300.4</ele>
        <time>2015-08-31T05:55:14Z</time>
      </trkpt>
      <trkpt lat="34.0703" lon="77.17727">
        <ele>4299.4</ele>
        <time>2015-08-31T05:55:18Z</time>
      </trkpt>
      <trkpt lat="34.07027" lon="77.17728">
        <ele>4298.2</ele>
        <time>2015-08-31T05:55:22Z</time>
      </trkpt>
      <trkpt lat="34.07023" lon="77.17726">
        <ele>4297.2</ele>
        <time>2015-08-31T05:55:27Z</time>
      </trkpt>
      <trkpt lat="34.07021" lon="77.17734">
        <ele>4296.4</ele>
        <time>2015-08-31T05:55:31Z</time>
      </trkpt>
      <trkpt lat="34.0702" lon="77.17736">
        <ele>4296</ele>
        <time>2015-08-31T05:55:33Z</time>
      </trkpt>
      <trkpt lat="34.07017" lon="77.17744">
        <ele>4294.8</ele>
        <time>2015-08-31T05:55:38Z</time>
      </trkpt>
      <trkpt lat="34.07015" lon="77.17748">
        <ele>4293.8</ele>
        <time>2015-08-31T05:55:42Z</time>
      </trkpt>
      <trkpt lat="34.07015" lon="77.1775">
        <ele>4293.2</ele>
        <time>2015-08-31T05:55:44Z</time>
      </trkpt>
      <trkpt lat="34.07012" lon="77.17753">
        <ele>4292.6</ele>
        <time>2015-08-31T05:55:47Z</time>
      </trkpt>
      <trkpt lat="34.07008" lon="77.17752">
        <ele>4291.6</ele>
        <time>2015-08-31T05:55:50Z</time>
      </trkpt>
      <trkpt lat="34.07004" lon="77.17753">
        <ele>4290.8</ele>
        <time>2015-08-31T05:55:54Z</time>
      </trkpt>
      <trkpt lat="34.07004" lon="77.17754">
        <ele>4290.6</ele>
        <time>2015-08-31T05:55:55Z</time>
      </trkpt>
      <trkpt lat="34.07002" lon="77.1776">
        <ele>4290.4</ele>
        <time>2015-08-31T05:55:59Z</time>
      </trkpt>
      <trkpt lat="34.07004" lon="77.1777">
        <ele>4289.4</ele>
        <time>2015-08-31T05:56:06Z</time>
      </trkpt>
      <trkpt lat="34.07" lon="77.17775">
        <ele>4288.8</ele>
        <time>2015-08-31T05:56:10Z</time>
      </trkpt>
      <trkpt lat="34.06997" lon="77.17777">
        <ele>4288.4</ele>
        <time>2015-08-31T05:56:13Z</time>
      </trkpt>
      <trkpt lat="34.06995" lon="77.17778">
        <ele>4288</ele>
        <time>2015-08-31T05:56:16Z</time>
      </trkpt>
      <trkpt lat="34.06993" lon="77.17777">
        <ele>4287.4</ele>
        <time>2015-08-31T05:56:18Z</time>
      </trkpt>
      <trkpt lat="34.06988" lon="77.17779">
        <ele>4286.4</ele>
        <time>2015-08-31T05:56:22Z</time>
      </trkpt>
      <trkpt lat="34.06987" lon="77.17779">
        <ele>4286.4</ele>
        <time>2015-08-31T05:56:23Z</time>
      </trkpt>
      <trkpt lat="34.06978" lon="77.17783">
        <ele>4285.2</ele>
        <time>2015-08-31T05:56:31Z</time>
      </trkpt>
      <trkpt lat="34.06966" lon="77.17778">
        <ele>4284.2</ele>
        <time>2015-08-31T05:56:41Z</time>
      </trkpt>
      <trkpt lat="34.06954" lon="77.17774">
        <ele>4283</ele>
        <time>2015-08-31T05:56:52Z</time>
      </trkpt>
      <trkpt lat="34.0695" lon="77.17773">
        <ele>4282</ele>
        <time>2015-08-31T05:56:55Z</time>
      </trkpt>
      <trkpt lat="34.06947" lon="77.17771">
        <ele>4280.4</ele>
        <time>2015-08-31T05:56:59Z</time>
      </trkpt>
      <trkpt lat="34.06944" lon="77.17767">
        <ele>4279.4</ele>
        <time>2015-08-31T05:57:04Z</time>
      </trkpt>
      <trkpt lat="34.0694" lon="77.17764">
        <ele>4278.2</ele>
        <time>2015-08-31T05:57:09Z</time>
      </trkpt>
      <trkpt lat="34.06938" lon="77.17763">
        <ele>4277.8</ele>
        <time>2015-08-31T05:57:11Z</time>
      </trkpt>
      <trkpt lat="34.06932" lon="77.17762">
        <ele>4277.2</ele>
        <time>2015-08-31T05:57:17Z</time>
      </trkpt>
      <trkpt lat="34.06931" lon="77.17762">
        <ele>4277</ele>
        <time>2015-08-31T05:57:18Z</time>
      </trkpt>
      <trkpt lat="34.06923" lon="77.17762">
        <ele>4276</ele>
        <time>2015-08-31T05:57:26Z</time>
      </trkpt>
      <trkpt lat="34.06921" lon="77.17762">
        <ele>4275.8</ele>
        <time>2015-08-31T05:57:27Z</time>
      </trkpt>
      <trkpt lat="34.06917" lon="77.17761">
        <ele>4274.8</ele>
        <time>2015-08-31T05:57:30Z</time>
      </trkpt>
      <trkpt lat="34.06914" lon="77.1776">
        <ele>4273.8</ele>
        <time>2015-08-31T05:57:33Z</time>
      </trkpt>
      <trkpt lat="34.06899" lon="77.17746">
        <ele>4272.8</ele>
        <time>2015-08-31T05:57:47Z</time>
      </trkpt>
      <trkpt lat="34.06899" lon="77.17745">
        <ele>4272.8</ele>
        <time>2015-08-31T05:57:48Z</time>
      </trkpt>
      <trkpt lat="34.06896" lon="77.17724">
        <ele>4272.8</ele>
        <time>2015-08-31T05:58:05Z</time>
      </trkpt>
      <trkpt lat="34.06895" lon="77.17722">
        <ele>4272.6</ele>
        <time>2015-08-31T05:58:06Z</time>
      </trkpt>
      <trkpt lat="34.06891" lon="77.17715">
        <ele>4271.8</ele>
        <time>2015-08-31T05:58:12Z</time>
      </trkpt>
      <trkpt lat="34.0689" lon="77.17711">
        <ele>4271.6</ele>
        <time>2015-08-31T05:58:15Z</time>
      </trkpt>
      <trkpt lat="34.06888" lon="77.17709">
        <ele>4271.2</ele>
        <time>2015-08-31T05:58:18Z</time>
      </trkpt>
      <trkpt lat="34.06886" lon="77.17705">
        <ele>4270.4</ele>
        <time>2015-08-31T05:58:22Z</time>
      </trkpt>
      <trkpt lat="34.06886" lon="77.17703">
        <ele>4270.4</ele>
        <time>2015-08-31T05:58:23Z</time>
      </trkpt>
      <trkpt lat="34.06885" lon="77.177">
        <ele>4270</ele>
        <time>2015-08-31T05:58:26Z</time>
      </trkpt>
      <trkpt lat="34.06882" lon="77.17694">
        <ele>4269.4</ele>
        <time>2015-08-31T05:58:32Z</time>
      </trkpt>
      <trkpt lat="34.06872" lon="77.17679">
        <ele>4268.4</ele>
        <time>2015-08-31T05:58:47Z</time>
      </trkpt>
      <trkpt lat="34.06869" lon="77.17667">
        <ele>4267.4</ele>
        <time>2015-08-31T05:58:57Z</time>
      </trkpt>
      <trkpt lat="34.06869" lon="77.17667">
        <ele>4267.2</ele>
        <time>2015-08-31T05:58:58Z</time>
      </trkpt>
      <trkpt lat="34.06869" lon="77.17665">
        <ele>4266</ele>
        <time>2015-08-31T05:59:00Z</time>
      </trkpt>
      <trkpt lat="34.06868" lon="77.17658">
        <ele>4265</ele>
        <time>2015-08-31T05:59:06Z</time>
      </trkpt>
      <trkpt lat="34.06858" lon="77.17642">
        <ele>4263.8</ele>
        <time>2015-08-31T05:59:20Z</time>
      </trkpt>
      <trkpt lat="34.0685" lon="77.17629">
        <ele>4263.4</ele>
        <time>2015-08-31T05:59:31Z</time>
      </trkpt>
      <trkpt lat="34.06846" lon="77.17624">
        <ele>4263</ele>
        <time>2015-08-31T05:59:38Z</time>
      </trkpt>
      <trkpt lat="34.06849" lon="77.17622">
        <ele>4262.8</ele>
        <time>2015-08-31T05:59:42Z</time>
      </trkpt>
      <trkpt lat="34.06849" lon="77.17618">
        <ele>4261.4</ele>
        <time>2015-08-31T05:59:47Z</time>
      </trkpt>
      <trkpt lat="34.0685" lon="77.17611">
        <ele>4260.6</ele>
        <time>2015-08-31T05:59:53Z</time>
      </trkpt>
      <trkpt lat="34.0685" lon="77.1761">
        <ele>4260.4</ele>
        <time>2015-08-31T05:59:54Z</time>
      </trkpt>
      <trkpt lat="34.0685" lon="77.17606">
        <ele>4259.4</ele>
        <time>2015-08-31T05:59:57Z</time>
      </trkpt>
      <trkpt lat="34.0685" lon="77.17606">
        <ele>4258.8</ele>
        <time>2015-08-31T05:59:59Z</time>
      </trkpt>
      <trkpt lat="34.0685" lon="77.17605">
        <ele>4258.4</ele>
        <time>2015-08-31T06:00:01Z</time>
      </trkpt>
      <trkpt lat="34.06847" lon="77.17603">
        <ele>4257.2</ele>
        <time>2015-08-31T06:00:05Z</time>
      </trkpt>
      <trkpt lat="34.06842" lon="77.17602">
        <ele>4256</ele>
        <time>2015-08-31T06:00:10Z</time>
      </trkpt>
      <trkpt lat="34.0684" lon="77.17601">
        <ele>4255</ele>
        <time>2015-08-31T06:00:13Z</time>
      </trkpt>
      <trkpt lat="34.06834" lon="77.17603">
        <ele>4254</ele>
        <time>2015-08-31T06:00:18Z</time>
      </trkpt>
      <trkpt lat="34.0683" lon="77.17604">
        <ele>4253.6</ele>
        <time>2015-08-31T06:00:22Z</time>
      </trkpt>
      <trkpt lat="34.06829" lon="77.17604">
        <ele>4253.6</ele>
        <time>2015-08-31T06:00:24Z</time>
      </trkpt>
      <trkpt lat="34.06826" lon="77.17611">
        <ele>4252.8</ele>
        <time>2015-08-31T06:00:28Z</time>
      </trkpt>
      <trkpt lat="34.06824" lon="77.17615">
        <ele>4251.8</ele>
        <time>2015-08-31T06:00:31Z</time>
      </trkpt>
      <trkpt lat="34.06823" lon="77.17615">
        <ele>4251.6</ele>
        <time>2015-08-31T06:00:32Z</time>
      </trkpt>
      <trkpt lat="34.0682" lon="77.17618">
        <ele>4250.6</ele>
        <time>2015-08-31T06:00:36Z</time>
      </trkpt>
      <trkpt lat="34.06819" lon="77.17619">
        <ele>4250.4</ele>
        <time>2015-08-31T06:00:37Z</time>
      </trkpt>
      <trkpt lat="34.06818" lon="77.17619">
        <ele>4250.2</ele>
        <time>2015-08-31T06:00:38Z</time>
      </trkpt>
      <trkpt lat="34.06816" lon="77.17625">
        <ele>4249.6</ele>
        <time>2015-08-31T06:00:41Z</time>
      </trkpt>
      <trkpt lat="34.06816" lon="77.17626">
        <ele>4249.4</ele>
        <time>2015-08-31T06:00:42Z</time>
      </trkpt>
      <trkpt lat="34.06813" lon="77.17632">
        <ele>4248.4</ele>
        <time>2015-08-31T06:00:47Z</time>
      </trkpt>
      <trkpt lat="34.06813" lon="77.17633">
        <ele>4248.2</ele>
        <time>2015-08-31T06:00:48Z</time>
      </trkpt>
      <trkpt lat="34.06812" lon="77.17637">
        <ele>4247.4</ele>
        <time>2015-08-31T06:00:52Z</time>
      </trkpt>
      <trkpt lat="34.06811" lon="77.17638">
        <ele>4247.2</ele>
        <time>2015-08-31T06:00:53Z</time>
      </trkpt>
      <trkpt lat="34.06811" lon="77.17639">
        <ele>4247</ele>
        <time>2015-08-31T06:00:54Z</time>
      </trkpt>
      <trkpt lat="34.0681" lon="77.17641">
        <ele>4246.4</ele>
        <time>2015-08-31T06:00:57Z</time>
      </trkpt>
      <trkpt lat="34.06809" lon="77.17642">
        <ele>4246</ele>
        <time>2015-08-31T06:00:58Z</time>
      </trkpt>
      <trkpt lat="34.06807" lon="77.17646">
        <ele>4245</ele>
        <time>2015-08-31T06:01:03Z</time>
      </trkpt>
      <trkpt lat="34.06803" lon="77.17649">
        <ele>4244.4</ele>
        <time>2015-08-31T06:01:08Z</time>
      </trkpt>
      <trkpt lat="34.068" lon="77.1765">
        <ele>4244</ele>
        <time>2015-08-31T06:01:13Z</time>
      </trkpt>
      <trkpt lat="34.06797" lon="77.1765">
        <ele>4243.6</ele>
        <time>2015-08-31T06:01:16Z</time>
      </trkpt>
      <trkpt lat="34.06793" lon="77.17651">
        <ele>4242.6</ele>
        <time>2015-08-31T06:01:20Z</time>
      </trkpt>
      <trkpt lat="34.0679" lon="77.17651">
        <ele>4241.6</ele>
        <time>2015-08-31T06:01:24Z</time>
      </trkpt>
      <trkpt lat="34.06787" lon="77.17654">
        <ele>4241.2</ele>
        <time>2015-08-31T06:01:27Z</time>
      </trkpt>
      <trkpt lat="34.06786" lon="77.17654">
        <ele>4240.8</ele>
        <time>2015-08-31T06:01:29Z</time>
      </trkpt>
      <trkpt lat="34.06784" lon="77.17655">
        <ele>4240.4</ele>
        <time>2015-08-31T06:01:31Z</time>
      </trkpt>
      <trkpt lat="34.06783" lon="77.17654">
        <ele>4240</ele>
        <time>2015-08-31T06:01:33Z</time>
      </trkpt>
      <trkpt lat="34.06782" lon="77.17654">
        <ele>4239.8</ele>
        <time>2015-08-31T06:01:35Z</time>
      </trkpt>
      <trkpt lat="34.06781" lon="77.17654">
        <ele>4239.2</ele>
        <time>2015-08-31T06:01:37Z</time>
      </trkpt>
      <trkpt lat="34.06777" lon="77.17657">
        <ele>4238.2</ele>
        <time>2015-08-31T06:01:43Z</time>
      </trkpt>
      <trkpt lat="34.06775" lon="77.1766">
        <ele>4237.4</ele>
        <time>2015-08-31T06:01:45Z</time>
      </trkpt>
      <trkpt lat="34.06775" lon="77.17662">
        <ele>4237</ele>
        <time>2015-08-31T06:01:47Z</time>
      </trkpt>
      <trkpt lat="34.06771" lon="77.17664">
        <ele>4236.4</ele>
        <time>2015-08-31T06:01:51Z</time>
      </trkpt>
      <trkpt lat="34.06769" lon="77.17665">
        <ele>4236</ele>
        <time>2015-08-31T06:01:54Z</time>
      </trkpt>
      <trkpt lat="34.06769" lon="77.17665">
        <ele>4236</ele>
        <time>2015-08-31T06:01:55Z</time>
      </trkpt>
      <trkpt lat="34.06766" lon="77.17665">
        <ele>4234.8</ele>
        <time>2015-08-31T06:01:59Z</time>
      </trkpt>
      <trkpt lat="34.06758" lon="77.17664">
        <ele>4233.8</ele>
        <time>2015-08-31T06:02:06Z</time>
      </trkpt>
      <trkpt lat="34.06752" lon="77.17656">
        <ele>4232.8</ele>
        <time>2015-08-31T06:02:16Z</time>
      </trkpt>
      <trkpt lat="34.06751" lon="77.17655">
        <ele>4232.6</ele>
        <time>2015-08-31T06:02:17Z</time>
      </trkpt>
      <trkpt lat="34.06749" lon="77.17646">
        <ele>4232.2</ele>
        <time>2015-08-31T06:02:25Z</time>
      </trkpt>
      <trkpt lat="34.0675" lon="77.17643">
        <ele>4231.4</ele>
        <time>2015-08-31T06:02:28Z</time>
      </trkpt>
      <trkpt lat="34.06751" lon="77.17642">
        <ele>4230.6</ele>
        <time>2015-08-31T06:02:32Z</time>
      </trkpt>
      <trkpt lat="34.0675" lon="77.1764">
        <ele>4230.4</ele>
        <time>2015-08-31T06:02:34Z</time>
      </trkpt>
      <trkpt lat="34.06752" lon="77.17637">
        <ele>4229.2</ele>
        <time>2015-08-31T06:02:39Z</time>
      </trkpt>
      <trkpt lat="34.0675" lon="77.17633">
        <ele>4228.2</ele>
        <time>2015-08-31T06:02:48Z</time>
      </trkpt>
      <trkpt lat="34.06746" lon="77.17631">
        <ele>4227.2</ele>
        <time>2015-08-31T06:02:54Z</time>
      </trkpt>
      <trkpt lat="34.06741" lon="77.17628">
        <ele>4226</ele>
        <time>2015-08-31T06:03:00Z</time>
      </trkpt>
      <trkpt lat="34.06738" lon="77.17628">
        <ele>4224.8</ele>
        <time>2015-08-31T06:03:05Z</time>
      </trkpt>
      <trkpt lat="34.06736" lon="77.17625">
        <ele>4223.6</ele>
        <time>2015-08-31T06:03:10Z</time>
      </trkpt>
      <trkpt lat="34.06729" lon="77.17625">
        <ele>4222.4</ele>
        <time>2015-08-31T06:03:15Z</time>
      </trkpt>
      <trkpt lat="34.06725" lon="77.17622">
        <ele>4221.2</ele>
        <time>2015-08-31T06:03:22Z</time>
      </trkpt>
      <trkpt lat="34.06721" lon="77.1762">
        <ele>4220</ele>
        <time>2015-08-31T06:03:26Z</time>
      </trkpt>
      <trkpt lat="34.06721" lon="77.17619">
        <ele>4219.8</ele>
        <time>2015-08-31T06:03:27Z</time>
      </trkpt>
      <trkpt lat="34.0672" lon="77.17618">
        <ele>4219.4</ele>
        <time>2015-08-31T06:03:29Z</time>
      </trkpt>
      <trkpt lat="34.06719" lon="77.17617">
        <ele>4219</ele>
        <time>2015-08-31T06:03:31Z</time>
      </trkpt>
      <trkpt lat="34.06718" lon="77.17615">
        <ele>4217.8</ele>
        <time>2015-08-31T06:03:35Z</time>
      </trkpt>
      <trkpt lat="34.06716" lon="77.1761">
        <ele>4216.8</ele>
        <time>2015-08-31T06:03:46Z</time>
      </trkpt>
      <trkpt lat="34.06711" lon="77.17609">
        <ele>4215.6</ele>
        <time>2015-08-31T06:03:51Z</time>
      </trkpt>
      <trkpt lat="34.0671" lon="77.17609">
        <ele>4215.4</ele>
        <time>2015-08-31T06:03:52Z</time>
      </trkpt>
      <trkpt lat="34.06705" lon="77.1761">
        <ele>4214.4</ele>
        <time>2015-08-31T06:03:56Z</time>
      </trkpt>
      <trkpt lat="34.06703" lon="77.1761">
        <ele>4213.8</ele>
        <time>2015-08-31T06:03:59Z</time>
      </trkpt>
      <trkpt lat="34.06702" lon="77.1761">
        <ele>4213.4</ele>
        <time>2015-08-31T06:04:02Z</time>
      </trkpt>
      <trkpt lat="34.06701" lon="77.1761">
        <ele>4213.2</ele>
        <time>2015-08-31T06:04:03Z</time>
      </trkpt>
      <trkpt lat="34.06698" lon="77.17609">
        <ele>4212.2</ele>
        <time>2015-08-31T06:04:08Z</time>
      </trkpt>
      <trkpt lat="34.06696" lon="77.17608">
        <ele>4211.2</ele>
        <time>2015-08-31T06:04:12Z</time>
      </trkpt>
      <trkpt lat="34.06693" lon="77.17608">
        <ele>4210</ele>
        <time>2015-08-31T06:04:15Z</time>
      </trkpt>
      <trkpt lat="34.0669" lon="77.17608">
        <ele>4209</ele>
        <time>2015-08-31T06:04:18Z</time>
      </trkpt>
      <trkpt lat="34.06688" lon="77.17609">
        <ele>4208.6</ele>
        <time>2015-08-31T06:04:20Z</time>
      </trkpt>
      <trkpt lat="34.06685" lon="77.1761">
        <ele>4207.6</ele>
        <time>2015-08-31T06:04:24Z</time>
      </trkpt>
      <trkpt lat="34.06683" lon="77.17609">
        <ele>4207.2</ele>
        <time>2015-08-31T06:04:26Z</time>
      </trkpt>
      <trkpt lat="34.06679" lon="77.17609">
        <ele>4206.6</ele>
        <time>2015-08-31T06:04:29Z</time>
      </trkpt>
      <trkpt lat="34.06676" lon="77.17611">
        <ele>4205.8</ele>
        <time>2015-08-31T06:04:33Z</time>
      </trkpt>
      <trkpt lat="34.06675" lon="77.1761">
        <ele>4205.4</ele>
        <time>2015-08-31T06:04:35Z</time>
      </trkpt>
      <trkpt lat="34.06669" lon="77.17612">
        <ele>4204.8</ele>
        <time>2015-08-31T06:04:39Z</time>
      </trkpt>
      <trkpt lat="34.06669" lon="77.1761">
        <ele>4204.2</ele>
        <time>2015-08-31T06:04:41Z</time>
      </trkpt>
      <trkpt lat="34.06662" lon="77.17605">
        <ele>4203.2</ele>
        <time>2015-08-31T06:04:50Z</time>
      </trkpt>
      <trkpt lat="34.06655" lon="77.17595">
        <ele>4202</ele>
        <time>2015-08-31T06:05:01Z</time>
      </trkpt>
      <trkpt lat="34.06655" lon="77.17593">
        <ele>4201.8</ele>
        <time>2015-08-31T06:05:02Z</time>
      </trkpt>
      <trkpt lat="34.06655" lon="77.17584">
        <ele>4200.8</ele>
        <time>2015-08-31T06:05:08Z</time>
      </trkpt>
      <trkpt lat="34.06654" lon="77.17583">
        <ele>4200.6</ele>
        <time>2015-08-31T06:05:10Z</time>
      </trkpt>
      <trkpt lat="34.06655" lon="77.17583">
        <ele>4199.8</ele>
        <time>2015-08-31T06:05:12Z</time>
      </trkpt>
      <trkpt lat="34.06656" lon="77.17579">
        <ele>4201</ele>
        <time>2015-08-31T06:05:22Z</time>
      </trkpt>
      <trkpt lat="34.06652" lon="77.17575">
        <ele>4199.8</ele>
        <time>2015-08-31T06:05:28Z</time>
      </trkpt>
      <trkpt lat="34.06652" lon="77.17572">
        <ele>4198.6</ele>
        <time>2015-08-31T06:05:32Z</time>
      </trkpt>
      <trkpt lat="34.06648" lon="77.17568">
        <ele>4197.4</ele>
        <time>2015-08-31T06:05:37Z</time>
      </trkpt>
      <trkpt lat="34.06646" lon="77.17566">
        <ele>4196.4</ele>
        <time>2015-08-31T06:05:41Z</time>
      </trkpt>
      <trkpt lat="34.06641" lon="77.17565">
        <ele>4195.2</ele>
        <time>2015-08-31T06:05:47Z</time>
      </trkpt>
      <trkpt lat="34.06633" lon="77.17566">
        <ele>4194</ele>
        <time>2015-08-31T06:05:55Z</time>
      </trkpt>
      <trkpt lat="34.06633" lon="77.1756">
        <ele>4193</ele>
        <time>2015-08-31T06:06:00Z</time>
      </trkpt>
      <trkpt lat="34.06634" lon="77.17558">
        <ele>4192</ele>
        <time>2015-08-31T06:06:04Z</time>
      </trkpt>
      <trkpt lat="34.06634" lon="77.17557">
        <ele>4191.8</ele>
        <time>2015-08-31T06:06:05Z</time>
      </trkpt>
      <trkpt lat="34.06634" lon="77.17555">
        <ele>4190.6</ele>
        <time>2015-08-31T06:06:09Z</time>
      </trkpt>
      <trkpt lat="34.06635" lon="77.1755">
        <ele>4189.4</ele>
        <time>2015-08-31T06:06:13Z</time>
      </trkpt>
      <trkpt lat="34.06634" lon="77.17547">
        <ele>4188.2</ele>
        <time>2015-08-31T06:06:16Z</time>
      </trkpt>
      <trkpt lat="34.06634" lon="77.17543">
        <ele>4187.2</ele>
        <time>2015-08-31T06:06:20Z</time>
      </trkpt>
      <trkpt lat="34.06633" lon="77.17539">
        <ele>4186.6</ele>
        <time>2015-08-31T06:06:23Z</time>
      </trkpt>
      <trkpt lat="34.06632" lon="77.17535">
        <ele>4186</ele>
        <time>2015-08-31T06:06:28Z</time>
      </trkpt>
      <trkpt lat="34.06632" lon="77.17531">
        <ele>4185</ele>
        <time>2015-08-31T06:06:33Z</time>
      </trkpt>
      <trkpt lat="34.06633" lon="77.17526">
        <ele>4184</ele>
        <time>2015-08-31T06:06:39Z</time>
      </trkpt>
      <trkpt lat="34.06635" lon="77.17522">
        <ele>4182.8</ele>
        <time>2015-08-31T06:06:46Z</time>
      </trkpt>
      <trkpt lat="34.06635" lon="77.17518">
        <ele>4181.6</ele>
        <time>2015-08-31T06:06:51Z</time>
      </trkpt>
      <trkpt lat="34.06636" lon="77.17514">
        <ele>4180.4</ele>
        <time>2015-08-31T06:06:55Z</time>
      </trkpt>
      <trkpt lat="34.06636" lon="77.17509">
        <ele>4179.2</ele>
        <time>2015-08-31T06:07:00Z</time>
      </trkpt>
      <trkpt lat="34.06635" lon="77.17504">
        <ele>4177.8</ele>
        <time>2015-08-31T06:07:06Z</time>
      </trkpt>
      <trkpt lat="34.06634" lon="77.17499">
        <ele>4176.8</ele>
        <time>2015-08-31T06:07:10Z</time>
      </trkpt>
      <trkpt lat="34.06632" lon="77.17491">
        <ele>4175.6</ele>
        <time>2015-08-31T06:07:18Z</time>
      </trkpt>
      <trkpt lat="34.0663" lon="77.17486">
        <ele>4174.4</ele>
        <time>2015-08-31T06:07:23Z</time>
      </trkpt>
      <trkpt lat="34.06629" lon="77.17482">
        <ele>4173.6</ele>
        <time>2015-08-31T06:07:27Z</time>
      </trkpt>
      <trkpt lat="34.06629" lon="77.1748">
        <ele>4173.2</ele>
        <time>2015-08-31T06:07:29Z</time>
      </trkpt>
      <trkpt lat="34.06627" lon="77.17476">
        <ele>4172.2</ele>
        <time>2015-08-31T06:07:35Z</time>
      </trkpt>
      <trkpt lat="34.06627" lon="77.17471">
        <ele>4171.2</ele>
        <time>2015-08-31T06:07:42Z</time>
      </trkpt>
      <trkpt lat="34.06625" lon="77.17466">
        <ele>4170.8</ele>
        <time>2015-08-31T06:07:47Z</time>
      </trkpt>
      <trkpt lat="34.06624" lon="77.17462">
        <ele>4170.2</ele>
        <time>2015-08-31T06:07:51Z</time>
      </trkpt>
      <trkpt lat="34.06624" lon="77.17461">
        <ele>4170</ele>
        <time>2015-08-31T06:07:52Z</time>
      </trkpt>
      <trkpt lat="34.06625" lon="77.17458">
        <ele>4169</ele>
        <time>2015-08-31T06:07:56Z</time>
      </trkpt>
      <trkpt lat="34.06626" lon="77.17456">
        <ele>4168</ele>
        <time>2015-08-31T06:08:01Z</time>
      </trkpt>
      <trkpt lat="34.06628" lon="77.17444">
        <ele>4167</ele>
        <time>2015-08-31T06:08:15Z</time>
      </trkpt>
      <trkpt lat="34.06627" lon="77.17441">
        <ele>4166.8</ele>
        <time>2015-08-31T06:08:17Z</time>
      </trkpt>
      <trkpt lat="34.06626" lon="77.17439">
        <ele>4166.4</ele>
        <time>2015-08-31T06:08:20Z</time>
      </trkpt>
      <trkpt lat="34.06625" lon="77.17438">
        <ele>4165.8</ele>
        <time>2015-08-31T06:08:22Z</time>
      </trkpt>
      <trkpt lat="34.06623" lon="77.17432">
        <ele>4164.8</ele>
        <time>2015-08-31T06:08:31Z</time>
      </trkpt>
      <trkpt lat="34.06621" lon="77.17429">
        <ele>4163.6</ele>
        <time>2015-08-31T06:08:36Z</time>
      </trkpt>
      <trkpt lat="34.06622" lon="77.17426">
        <ele>4163.4</ele>
        <time>2015-08-31T06:08:38Z</time>
      </trkpt>
      <trkpt lat="34.06619" lon="77.17427">
        <ele>4163</ele>
        <time>2015-08-31T06:08:40Z</time>
      </trkpt>
      <trkpt lat="34.0662" lon="77.17426">
        <ele>4162.6</ele>
        <time>2015-08-31T06:08:42Z</time>
      </trkpt>
      <trkpt lat="34.06622" lon="77.17426">
        <ele>4162.4</ele>
        <time>2015-08-31T06:08:43Z</time>
      </trkpt>
      <trkpt lat="34.06619" lon="77.17425">
        <ele>4161.4</ele>
        <time>2015-08-31T06:08:47Z</time>
      </trkpt>
      <trkpt lat="34.06614" lon="77.17428">
        <ele>4160.2</ele>
        <time>2015-08-31T06:08:52Z</time>
      </trkpt>
      <trkpt lat="34.0661" lon="77.17424">
        <ele>4159.2</ele>
        <time>2015-08-31T06:08:58Z</time>
      </trkpt>
      <trkpt lat="34.06609" lon="77.17424">
        <ele>4159</ele>
        <time>2015-08-31T06:08:59Z</time>
      </trkpt>
      <trkpt lat="34.06605" lon="77.17423">
        <ele>4158</ele>
        <time>2015-08-31T06:09:03Z</time>
      </trkpt>
      <trkpt lat="34.06605" lon="77.17423">
        <ele>4157.8</ele>
        <time>2015-08-31T06:09:04Z</time>
      </trkpt>
      <trkpt lat="34.06606" lon="77.1742">
        <ele>4156.8</ele>
        <time>2015-08-31T06:09:12Z</time>
      </trkpt>
      <trkpt lat="34.06607" lon="77.17416">
        <ele>4155.6</ele>
        <time>2015-08-31T06:09:19Z</time>
      </trkpt>
      <trkpt lat="34.06605" lon="77.17413">
        <ele>4154.4</ele>
        <time>2015-08-31T06:09:24Z</time>
      </trkpt>
      <trkpt lat="34.06603" lon="77.17412">
        <ele>4153.4</ele>
        <time>2015-08-31T06:09:28Z</time>
      </trkpt>
      <trkpt lat="34.066" lon="77.17415">
        <ele>4152.2</ele>
        <time>2015-08-31T06:09:33Z</time>
      </trkpt>
      <trkpt lat="34.06598" lon="77.17417">
        <ele>4152</ele>
        <time>2015-08-31T06:09:36Z</time>
      </trkpt>
      <trkpt lat="34.06597" lon="77.17414">
        <ele>4151.8</ele>
        <time>2015-08-31T06:09:38Z</time>
      </trkpt>
      <trkpt lat="34.06595" lon="77.17413">
        <ele>4151.2</ele>
        <time>2015-08-31T06:09:42Z</time>
      </trkpt>
      <trkpt lat="34.06595" lon="77.17412">
        <ele>4150.2</ele>
        <time>2015-08-31T06:09:48Z</time>
      </trkpt>
      <trkpt lat="34.06594" lon="77.17411">
        <ele>4149</ele>
        <time>2015-08-31T06:09:51Z</time>
      </trkpt>
      <trkpt lat="34.06591" lon="77.1741">
        <ele>4148</ele>
        <time>2015-08-31T06:09:55Z</time>
      </trkpt>
      <trkpt lat="34.06587" lon="77.17407">
        <ele>4147</ele>
        <time>2015-08-31T06:10:01Z</time>
      </trkpt>
      <trkpt lat="34.06585" lon="77.17408">
        <ele>4145.6</ele>
        <time>2015-08-31T06:10:04Z</time>
      </trkpt>
      <trkpt lat="34.06581" lon="77.1741">
        <ele>4144.4</ele>
        <time>2015-08-31T06:10:08Z</time>
      </trkpt>
      <trkpt lat="34.0658" lon="77.1741">
        <ele>4144.2</ele>
        <time>2015-08-31T06:10:09Z</time>
      </trkpt>
      <trkpt lat="34.06573" lon="77.1741">
        <ele>4143.4</ele>
        <time>2015-08-31T06:10:16Z</time>
      </trkpt>
      <trkpt lat="34.0657" lon="77.17404">
        <ele>4142.4</ele>
        <time>2015-08-31T06:10:22Z</time>
      </trkpt>
      <trkpt lat="34.0657" lon="77.17401">
        <ele>4142</ele>
        <time>2015-08-31T06:10:24Z</time>
      </trkpt>
      <trkpt lat="34.06567" lon="77.17398">
        <ele>4141.2</ele>
        <time>2015-08-31T06:10:27Z</time>
      </trkpt>
      <trkpt lat="34.06564" lon="77.1739">
        <ele>4140.2</ele>
        <time>2015-08-31T06:10:35Z</time>
      </trkpt>
      <trkpt lat="34.06562" lon="77.17386">
        <ele>4139.6</ele>
        <time>2015-08-31T06:10:39Z</time>
      </trkpt>
      <trkpt lat="34.06561" lon="77.17382">
        <ele>4139</ele>
        <time>2015-08-31T06:10:42Z</time>
      </trkpt>
      <trkpt lat="34.06561" lon="77.17379">
        <ele>4138.2</ele>
        <time>2015-08-31T06:10:46Z</time>
      </trkpt>
      <trkpt lat="34.06561" lon="77.17378">
        <ele>4137.8</ele>
        <time>2015-08-31T06:10:47Z</time>
      </trkpt>
      <trkpt lat="34.06559" lon="77.17375">
        <ele>4136.8</ele>
        <time>2015-08-31T06:10:51Z</time>
      </trkpt>
      <trkpt lat="34.06562" lon="77.17373">
        <ele>4135.6</ele>
        <time>2015-08-31T06:10:56Z</time>
      </trkpt>
      <trkpt lat="34.06565" lon="77.17374">
        <ele>4134.6</ele>
        <time>2015-08-31T06:10:58Z</time>
      </trkpt>
      <trkpt lat="34.06566" lon="77.17374">
        <ele>4134.2</ele>
        <time>2015-08-31T06:10:59Z</time>
      </trkpt>
      <trkpt lat="34.06569" lon="77.17375">
        <ele>4133</ele>
        <time>2015-08-31T06:11:04Z</time>
      </trkpt>
      <trkpt lat="34.0657" lon="77.17375">
        <ele>4132.8</ele>
        <time>2015-08-31T06:11:05Z</time>
      </trkpt>
      <trkpt lat="34.06573" lon="77.17376">
        <ele>4132</ele>
        <time>2015-08-31T06:11:09Z</time>
      </trkpt>
      <trkpt lat="34.06575" lon="77.17373">
        <ele>4130.8</ele>
        <time>2015-08-31T06:11:17Z</time>
      </trkpt>
      <trkpt lat="34.06578" lon="77.17372">
        <ele>4129.6</ele>
        <time>2015-08-31T06:11:23Z</time>
      </trkpt>
      <trkpt lat="34.0658" lon="77.17372">
        <ele>4128.6</ele>
        <time>2015-08-31T06:11:27Z</time>
      </trkpt>
      <trkpt lat="34.06583" lon="77.17367">
        <ele>4127.4</ele>
        <time>2015-08-31T06:11:34Z</time>
      </trkpt>
      <trkpt lat="34.06585" lon="77.17364">
        <ele>4126.2</ele>
        <time>2015-08-31T06:11:38Z</time>
      </trkpt>
      <trkpt lat="34.06589" lon="77.17363">
        <ele>4125.4</ele>
        <time>2015-08-31T06:11:42Z</time>
      </trkpt>
      <trkpt lat="34.0659" lon="77.17363">
        <ele>4125.2</ele>
        <time>2015-08-31T06:11:43Z</time>
      </trkpt>
      <trkpt lat="34.06595" lon="77.17362">
        <ele>4124.2</ele>
        <time>2015-08-31T06:11:51Z</time>
      </trkpt>
      <trkpt lat="34.06601" lon="77.17349">
        <ele>4123</ele>
        <time>2015-08-31T06:12:00Z</time>
      </trkpt>
      <trkpt lat="34.06603" lon="77.17345">
        <ele>4122.6</ele>
        <time>2015-08-31T06:12:03Z</time>
      </trkpt>
      <trkpt lat="34.06604" lon="77.17339">
        <ele>4122</ele>
        <time>2015-08-31T06:12:07Z</time>
      </trkpt>
      <trkpt lat="34.06604" lon="77.17338">
        <ele>4121.8</ele>
        <time>2015-08-31T06:12:08Z</time>
      </trkpt>
      <trkpt lat="34.06603" lon="77.17336">
        <ele>4121.4</ele>
        <time>2015-08-31T06:12:10Z</time>
      </trkpt>
      <trkpt lat="34.06604" lon="77.17332">
        <ele>4120.8</ele>
        <time>2015-08-31T06:12:14Z</time>
      </trkpt>
      <trkpt lat="34.06604" lon="77.17331">
        <ele>4120.6</ele>
        <time>2015-08-31T06:12:15Z</time>
      </trkpt>
      <trkpt lat="34.06606" lon="77.17327">
        <ele>4119.6</ele>
        <time>2015-08-31T06:12:19Z</time>
      </trkpt>
      <trkpt lat="34.06606" lon="77.17327">
        <ele>4119.6</ele>
        <time>2015-08-31T06:12:20Z</time>
      </trkpt>
      <trkpt lat="34.06609" lon="77.17321">
        <ele>4118.6</ele>
        <time>2015-08-31T06:12:27Z</time>
      </trkpt>
      <trkpt lat="34.0661" lon="77.17321">
        <ele>4118.2</ele>
        <time>2015-08-31T06:12:28Z</time>
      </trkpt>
      <trkpt lat="34.06613" lon="77.1732">
        <ele>4117.6</ele>
        <time>2015-08-31T06:12:33Z</time>
      </trkpt>
      <trkpt lat="34.06618" lon="77.17321">
        <ele>4116.6</ele>
        <time>2015-08-31T06:12:38Z</time>
      </trkpt>
      <trkpt lat="34.06622" lon="77.17321">
        <ele>4116.4</ele>
        <time>2015-08-31T06:12:41Z</time>
      </trkpt>
      <trkpt lat="34.06626" lon="77.17321">
        <ele>4115.4</ele>
        <time>2015-08-31T06:12:47Z</time>
      </trkpt>
      <trkpt lat="34.06626" lon="77.17321">
        <ele>4115.2</ele>
        <time>2015-08-31T06:12:48Z</time>
      </trkpt>
      <trkpt lat="34.06628" lon="77.17312">
        <ele>4114</ele>
        <time>2015-08-31T06:12:53Z</time>
      </trkpt>
      <trkpt lat="34.06626" lon="77.17307">
        <ele>4113</ele>
        <time>2015-08-31T06:12:56Z</time>
      </trkpt>
      <trkpt lat="34.06625" lon="77.17304">
        <ele>4112.6</ele>
        <time>2015-08-31T06:12:58Z</time>
      </trkpt>
      <trkpt lat="34.06624" lon="77.17301">
        <ele>4112</ele>
        <time>2015-08-31T06:13:00Z</time>
      </trkpt>
      <trkpt lat="34.06624" lon="77.173">
        <ele>4111.8</ele>
        <time>2015-08-31T06:13:01Z</time>
      </trkpt>
      <trkpt lat="34.06622" lon="77.17298">
        <ele>4111.4</ele>
        <time>2015-08-31T06:13:03Z</time>
      </trkpt>
      <trkpt lat="34.06625" lon="77.17295">
        <ele>4110.8</ele>
        <time>2015-08-31T06:13:05Z</time>
      </trkpt>
      <trkpt lat="34.06627" lon="77.17294">
        <ele>4109.6</ele>
        <time>2015-08-31T06:13:09Z</time>
      </trkpt>
      <trkpt lat="34.06627" lon="77.17291">
        <ele>4108.6</ele>
        <time>2015-08-31T06:13:14Z</time>
      </trkpt>
      <trkpt lat="34.06627" lon="77.17288">
        <ele>4107.4</ele>
        <time>2015-08-31T06:13:19Z</time>
      </trkpt>
      <trkpt lat="34.06628" lon="77.17277">
        <ele>4106.6</ele>
        <time>2015-08-31T06:13:27Z</time>
      </trkpt>
      <trkpt lat="34.06627" lon="77.17277">
        <ele>4106.4</ele>
        <time>2015-08-31T06:13:28Z</time>
      </trkpt>
      <trkpt lat="34.06627" lon="77.17276">
        <ele>4106.2</ele>
        <time>2015-08-31T06:13:29Z</time>
      </trkpt>
      <trkpt lat="34.06625" lon="77.17274">
        <ele>4105.4</ele>
        <time>2015-08-31T06:13:32Z</time>
      </trkpt>
      <trkpt lat="34.06623" lon="77.17272">
        <ele>4104.2</ele>
        <time>2015-08-31T06:13:36Z</time>
      </trkpt>
      <trkpt lat="34.0662" lon="77.17269">
        <ele>4102.8</ele>
        <time>2015-08-31T06:13:42Z</time>
      </trkpt>
      <trkpt lat="34.06616" lon="77.17271">
        <ele>4101.8</ele>
        <time>2015-08-31T06:13:45Z</time>
      </trkpt>
      <trkpt lat="34.06614" lon="77.17267">
        <ele>4100.6</ele>
        <time>2015-08-31T06:13:50Z</time>
      </trkpt>
      <trkpt lat="34.06618" lon="77.17265">
        <ele>4099.4</ele>
        <time>2015-08-31T06:13:54Z</time>
      </trkpt>
      <trkpt lat="34.0662" lon="77.17265">
        <ele>4099.2</ele>
        <time>2015-08-31T06:13:57Z</time>
      </trkpt>
      <trkpt lat="34.06621" lon="77.17258">
        <ele>4098.4</ele>
        <time>2015-08-31T06:14:01Z</time>
      </trkpt>
      <trkpt lat="34.06621" lon="77.17257">
        <ele>4097.2</ele>
        <time>2015-08-31T06:14:04Z</time>
      </trkpt>
      <trkpt lat="34.06619" lon="77.17255">
        <ele>4096</ele>
        <time>2015-08-31T06:14:07Z</time>
      </trkpt>
      <trkpt lat="34.06614" lon="77.17251">
        <ele>4095</ele>
        <time>2015-08-31T06:14:14Z</time>
      </trkpt>
      <trkpt lat="34.06613" lon="77.1725">
        <ele>4095</ele>
        <time>2015-08-31T06:14:16Z</time>
      </trkpt>
      <trkpt lat="34.06613" lon="77.17247">
        <ele>4093.8</ele>
        <time>2015-08-31T06:14:20Z</time>
      </trkpt>
      <trkpt lat="34.0661" lon="77.17245">
        <ele>4092.6</ele>
        <time>2015-08-31T06:14:23Z</time>
      </trkpt>
      <trkpt lat="34.06609" lon="77.17245">
        <ele>4092.2</ele>
        <time>2015-08-31T06:14:24Z</time>
      </trkpt>
      <trkpt lat="34.06608" lon="77.17242">
        <ele>4091.6</ele>
        <time>2015-08-31T06:14:27Z</time>
      </trkpt>
      <trkpt lat="34.06607" lon="77.17242">
        <ele>4091.6</ele>
        <time>2015-08-31T06:14:28Z</time>
      </trkpt>
      <trkpt lat="34.06605" lon="77.17241">
        <ele>4090.4</ele>
        <time>2015-08-31T06:14:32Z</time>
      </trkpt>
      <trkpt lat="34.06603" lon="77.17243">
        <ele>4089.2</ele>
        <time>2015-08-31T06:14:37Z</time>
      </trkpt>
      <trkpt lat="34.06598" lon="77.17244">
        <ele>4088.2</ele>
        <time>2015-08-31T06:14:43Z</time>
      </trkpt>
      <trkpt lat="34.06593" lon="77.17242">
        <ele>4087</ele>
        <time>2015-08-31T06:14:48Z</time>
      </trkpt>
      <trkpt lat="34.06591" lon="77.17236">
        <ele>4086.2</ele>
        <time>2015-08-31T06:14:53Z</time>
      </trkpt>
      <trkpt lat="34.06591" lon="77.17234">
        <ele>4086</ele>
        <time>2015-08-31T06:14:54Z</time>
      </trkpt>
      <trkpt lat="34.0659" lon="77.17229">
        <ele>4084.8</ele>
        <time>2015-08-31T06:14:59Z</time>
      </trkpt>
      <trkpt lat="34.06591" lon="77.17224">
        <ele>4083.8</ele>
        <time>2015-08-31T06:15:04Z</time>
      </trkpt>
      <trkpt lat="34.06596" lon="77.17218">
        <ele>4082.8</ele>
        <time>2015-08-31T06:15:10Z</time>
      </trkpt>
      <trkpt lat="34.06597" lon="77.17214">
        <ele>4081.8</ele>
        <time>2015-08-31T06:15:14Z</time>
      </trkpt>
      <trkpt lat="34.06596" lon="77.17214">
        <ele>4081.6</ele>
        <time>2015-08-31T06:15:15Z</time>
      </trkpt>
      <trkpt lat="34.06597" lon="77.17214">
        <ele>4080.6</ele>
        <time>2015-08-31T06:15:18Z</time>
      </trkpt>
      <trkpt lat="34.06594" lon="77.17211">
        <ele>4079.4</ele>
        <time>2015-08-31T06:15:23Z</time>
      </trkpt>
      <trkpt lat="34.0659" lon="77.17208">
        <ele>4078.2</ele>
        <time>2015-08-31T06:15:29Z</time>
      </trkpt>
      <trkpt lat="34.06589" lon="77.17208">
        <ele>4078</ele>
        <time>2015-08-31T06:15:30Z</time>
      </trkpt>
      <trkpt lat="34.06584" lon="77.17209">
        <ele>4077</ele>
        <time>2015-08-31T06:15:34Z</time>
      </trkpt>
      <trkpt lat="34.06582" lon="77.17203">
        <ele>4075.8</ele>
        <time>2015-08-31T06:15:40Z</time>
      </trkpt>
      <trkpt lat="34.06581" lon="77.17199">
        <ele>4075.4</ele>
        <time>2015-08-31T06:15:44Z</time>
      </trkpt>
      <trkpt lat="34.06579" lon="77.17198">
        <ele>4074.6</ele>
        <time>2015-08-31T06:15:47Z</time>
      </trkpt>
      <trkpt lat="34.06579" lon="77.17197">
        <ele>4074.4</ele>
        <time>2015-08-31T06:15:48Z</time>
      </trkpt>
      <trkpt lat="34.06577" lon="77.17198">
        <ele>4073.6</ele>
        <time>2015-08-31T06:15:52Z</time>
      </trkpt>
      <trkpt lat="34.06576" lon="77.17199">
        <ele>4072.6</ele>
        <time>2015-08-31T06:15:56Z</time>
      </trkpt>
      <trkpt lat="34.06573" lon="77.172">
        <ele>4071.4</ele>
        <time>2015-08-31T06:16:01Z</time>
      </trkpt>
      <trkpt lat="34.0657" lon="77.172">
        <ele>4071</ele>
        <time>2015-08-31T06:16:03Z</time>
      </trkpt>
      <trkpt lat="34.06569" lon="77.17197">
        <ele>4070.2</ele>
        <time>2015-08-31T06:16:06Z</time>
      </trkpt>
      <trkpt lat="34.06567" lon="77.17194">
        <ele>4069.2</ele>
        <time>2015-08-31T06:16:11Z</time>
      </trkpt>
      <trkpt lat="34.06563" lon="77.17187">
        <ele>4068.2</ele>
        <time>2015-08-31T06:16:16Z</time>
      </trkpt>
      <trkpt lat="34.06563" lon="77.17184">
        <ele>4067.6</ele>
        <time>2015-08-31T06:16:19Z</time>
      </trkpt>
      <trkpt lat="34.06563" lon="77.17184">
        <ele>4067.2</ele>
        <time>2015-08-31T06:16:21Z</time>
      </trkpt>
      <trkpt lat="34.06563" lon="77.17184">
        <ele>4067</ele>
        <time>2015-08-31T06:16:22Z</time>
      </trkpt>
      <trkpt lat="34.06562" lon="77.17188">
        <ele>4066</ele>
        <time>2015-08-31T06:16:27Z</time>
      </trkpt>
      <trkpt lat="34.06559" lon="77.1719">
        <ele>4064.6</ele>
        <time>2015-08-31T06:16:32Z</time>
      </trkpt>
      <trkpt lat="34.06556" lon="77.17191">
        <ele>4063.6</ele>
        <time>2015-08-31T06:16:36Z</time>
      </trkpt>
      <trkpt lat="34.06551" lon="77.17191">
        <ele>4062.4</ele>
        <time>2015-08-31T06:16:42Z</time>
      </trkpt>
      <trkpt lat="34.06545" lon="77.17194">
        <ele>4061.4</ele>
        <time>2015-08-31T06:16:48Z</time>
      </trkpt>
      <trkpt lat="34.06545" lon="77.17194">
        <ele>4061.4</ele>
        <time>2015-08-31T06:16:49Z</time>
      </trkpt>
      <trkpt lat="34.06545" lon="77.17191">
        <ele>4060.2</ele>
        <time>2015-08-31T06:16:54Z</time>
      </trkpt>
      <trkpt lat="34.06543" lon="77.17188">
        <ele>4059.2</ele>
        <time>2015-08-31T06:16:59Z</time>
      </trkpt>
      <trkpt lat="34.0654" lon="77.17184">
        <ele>4057.8</ele>
        <time>2015-08-31T06:17:04Z</time>
      </trkpt>
      <trkpt lat="34.06538" lon="77.17179">
        <ele>4056.6</ele>
        <time>2015-08-31T06:17:09Z</time>
      </trkpt>
      <trkpt lat="34.06536" lon="77.17173">
        <ele>4055.4</ele>
        <time>2015-08-31T06:17:15Z</time>
      </trkpt>
      <trkpt lat="34.06535" lon="77.17171">
        <ele>4054.2</ele>
        <time>2015-08-31T06:17:20Z</time>
      </trkpt>
      <trkpt lat="34.06534" lon="77.17169">
        <ele>4053.2</ele>
        <time>2015-08-31T06:17:24Z</time>
      </trkpt>
      <trkpt lat="34.0653" lon="77.17167">
        <ele>4052</ele>
        <time>2015-08-31T06:17:32Z</time>
      </trkpt>
      <trkpt lat="34.06527" lon="77.17165">
        <ele>4051</ele>
        <time>2015-08-31T06:17:36Z</time>
      </trkpt>
      <trkpt lat="34.06526" lon="77.17163">
        <ele>4049.8</ele>
        <time>2015-08-31T06:17:39Z</time>
      </trkpt>
      <trkpt lat="34.06527" lon="77.17162">
        <ele>4049.4</ele>
        <time>2015-08-31T06:17:41Z</time>
      </trkpt>
      <trkpt lat="34.06526" lon="77.17162">
        <ele>4048.6</ele>
        <time>2015-08-31T06:17:45Z</time>
      </trkpt>
      <trkpt lat="34.06522" lon="77.1716">
        <ele>4047.6</ele>
        <time>2015-08-31T06:17:50Z</time>
      </trkpt>
      <trkpt lat="34.06519" lon="77.1716">
        <ele>4047.2</ele>
        <time>2015-08-31T06:17:52Z</time>
      </trkpt>
      <trkpt lat="34.06517" lon="77.17158">
        <ele>4046.6</ele>
        <time>2015-08-31T06:17:55Z</time>
      </trkpt>
      <trkpt lat="34.06516" lon="77.17157">
        <ele>4046.4</ele>
        <time>2015-08-31T06:17:57Z</time>
      </trkpt>
      <trkpt lat="34.06512" lon="77.17153">
        <ele>4045.6</ele>
        <time>2015-08-31T06:18:01Z</time>
      </trkpt>
      <trkpt lat="34.06511" lon="77.17153">
        <ele>4045.4</ele>
        <time>2015-08-31T06:18:02Z</time>
      </trkpt>
      <trkpt lat="34.06507" lon="77.17153">
        <ele>4044.2</ele>
        <time>2015-08-31T06:18:06Z</time>
      </trkpt>
      <trkpt lat="34.06507" lon="77.17152">
        <ele>4044</ele>
        <time>2015-08-31T06:18:07Z</time>
      </trkpt>
      <trkpt lat="34.06502" lon="77.1715">
        <ele>4043.2</ele>
        <time>2015-08-31T06:18:11Z</time>
      </trkpt>
      <trkpt lat="34.065" lon="77.1715">
        <ele>4042.8</ele>
        <time>2015-08-31T06:18:13Z</time>
      </trkpt>
      <trkpt lat="34.06497" lon="77.17151">
        <ele>4042.2</ele>
        <time>2015-08-31T06:18:16Z</time>
      </trkpt>
      <trkpt lat="34.06493" lon="77.17154">
        <ele>4041</ele>
        <time>2015-08-31T06:18:19Z</time>
      </trkpt>
      <trkpt lat="34.06489" lon="77.17155">
        <ele>4040</ele>
        <time>2015-08-31T06:18:22Z</time>
      </trkpt>
      <trkpt lat="34.06488" lon="77.17155">
        <ele>4039.6</ele>
        <time>2015-08-31T06:18:23Z</time>
      </trkpt>
      <trkpt lat="34.06487" lon="77.17154">
        <ele>4039.4</ele>
        <time>2015-08-31T06:18:25Z</time>
      </trkpt>
      <trkpt lat="34.06486" lon="77.1715">
        <ele>4038.8</ele>
        <time>2015-08-31T06:18:30Z</time>
      </trkpt>
      <trkpt lat="34.06483" lon="77.17147">
        <ele>4037.8</ele>
        <time>2015-08-31T06:18:33Z</time>
      </trkpt>
      <trkpt lat="34.06481" lon="77.17145">
        <ele>4036.8</ele>
        <time>2015-08-31T06:18:36Z</time>
      </trkpt>
      <trkpt lat="34.06481" lon="77.17144">
        <ele>4036.6</ele>
        <time>2015-08-31T06:18:37Z</time>
      </trkpt>
      <trkpt lat="34.06478" lon="77.17143">
        <ele>4035.6</ele>
        <time>2015-08-31T06:18:40Z</time>
      </trkpt>
      <trkpt lat="34.06475" lon="77.17142">
        <ele>4034.4</ele>
        <time>2015-08-31T06:18:44Z</time>
      </trkpt>
      <trkpt lat="34.06471" lon="77.17141">
        <ele>4033.4</ele>
        <time>2015-08-31T06:18:48Z</time>
      </trkpt>
      <trkpt lat="34.06466" lon="77.17137">
        <ele>4032.4</ele>
        <time>2015-08-31T06:18:57Z</time>
      </trkpt>
      <trkpt lat="34.06463" lon="77.17134">
        <ele>4031.2</ele>
        <time>2015-08-31T06:19:01Z</time>
      </trkpt>
      <trkpt lat="34.06459" lon="77.17135">
        <ele>4030.2</ele>
        <time>2015-08-31T06:19:06Z</time>
      </trkpt>
      <trkpt lat="34.06456" lon="77.17134">
        <ele>4029</ele>
        <time>2015-08-31T06:19:10Z</time>
      </trkpt>
      <trkpt lat="34.06451" lon="77.17138">
        <ele>4028</ele>
        <time>2015-08-31T06:19:16Z</time>
      </trkpt>
      <trkpt lat="34.06449" lon="77.17141">
        <ele>4027</ele>
        <time>2015-08-31T06:19:20Z</time>
      </trkpt>
      <trkpt lat="34.06448" lon="77.17147">
        <ele>4025.8</ele>
        <time>2015-08-31T06:19:25Z</time>
      </trkpt>
      <trkpt lat="34.06446" lon="77.17154">
        <ele>4024.8</ele>
        <time>2015-08-31T06:19:31Z</time>
      </trkpt>
      <trkpt lat="34.06445" lon="77.17155">
        <ele>4024.4</ele>
        <time>2015-08-31T06:19:32Z</time>
      </trkpt>
      <trkpt lat="34.06443" lon="77.17156">
        <ele>4023.8</ele>
        <time>2015-08-31T06:19:34Z</time>
      </trkpt>
      <trkpt lat="34.06442" lon="77.17155">
        <ele>4023.4</ele>
        <time>2015-08-31T06:19:35Z</time>
      </trkpt>
      <trkpt lat="34.06441" lon="77.17154">
        <ele>4023</ele>
        <time>2015-08-31T06:19:37Z</time>
      </trkpt>
      <trkpt lat="34.06438" lon="77.17151">
        <ele>4022.4</ele>
        <time>2015-08-31T06:19:42Z</time>
      </trkpt>
      <trkpt lat="34.06433" lon="77.17146">
        <ele>4021.4</ele>
        <time>2015-08-31T06:19:48Z</time>
      </trkpt>
      <trkpt lat="34.06433" lon="77.17141">
        <ele>4020.2</ele>
        <time>2015-08-31T06:19:54Z</time>
      </trkpt>
      <trkpt lat="34.0643" lon="77.17141">
        <ele>4019</ele>
        <time>2015-08-31T06:19:59Z</time>
      </trkpt>
      <trkpt lat="34.06423" lon="77.17142">
        <ele>4017.8</ele>
        <time>2015-08-31T06:20:06Z</time>
      </trkpt>
      <trkpt lat="34.06417" lon="77.17142">
        <ele>4016.8</ele>
        <time>2015-08-31T06:20:12Z</time>
      </trkpt>
      <trkpt lat="34.06412" lon="77.17134">
        <ele>4015.8</ele>
        <time>2015-08-31T06:20:22Z</time>
      </trkpt>
      <trkpt lat="34.06411" lon="77.17134">
        <ele>4015.6</ele>
        <time>2015-08-31T06:20:23Z</time>
      </trkpt>
      <trkpt lat="34.06409" lon="77.17133">
        <ele>4014.4</ele>
        <time>2015-08-31T06:20:26Z</time>
      </trkpt>
      <trkpt lat="34.06407" lon="77.17133">
        <ele>4013.2</ele>
        <time>2015-08-31T06:20:29Z</time>
      </trkpt>
      <trkpt lat="34.06396" lon="77.17135">
        <ele>4012</ele>
        <time>2015-08-31T06:20:42Z</time>
      </trkpt>
      <trkpt lat="34.06385" lon="77.17129">
        <ele>4012.8</ele>
        <time>2015-08-31T06:20:56Z</time>
      </trkpt>
      <trkpt lat="34.06384" lon="77.17129">
        <ele>4013</ele>
        <time>2015-08-31T06:20:57Z</time>
      </trkpt>
      <trkpt lat="34.06381" lon="77.17127">
        <ele>4014.2</ele>
        <time>2015-08-31T06:21:04Z</time>
      </trkpt>
      <trkpt lat="34.06376" lon="77.17125">
        <ele>4014</ele>
        <time>2015-08-31T06:21:10Z</time>
      </trkpt>
      <trkpt lat="34.06376" lon="77.17114">
        <ele>4015.4</ele>
        <time>2015-08-31T06:21:48Z</time>
      </trkpt>
      <trkpt lat="34.06373" lon="77.17115">
        <ele>4014.2</ele>
        <time>2015-08-31T06:22:15Z</time>
      </trkpt>
      <trkpt lat="34.06372" lon="77.17114">
        <ele>4013.2</ele>
        <time>2015-08-31T06:23:19Z</time>
      </trkpt>
      <trkpt lat="34.06374" lon="77.17114">
        <ele>4012.2</ele>
        <time>2015-08-31T06:23:50Z</time>
      </trkpt>
      <trkpt lat="34.06373" lon="77.17118">
        <ele>4012</ele>
        <time>2015-08-31T06:24:16Z</time>
      </trkpt>
      <trkpt lat="34.06372" lon="77.17117">
        <ele>4012</ele>
        <time>2015-08-31T06:24:18Z</time>
      </trkpt>
      <trkpt lat="34.06375" lon="77.17118">
        <ele>4013.4</ele>
        <time>2015-08-31T06:24:56Z</time>
      </trkpt>
      <trkpt lat="34.06375" lon="77.17113">
        <ele>4012.4</ele>
        <time>2015-08-31T06:26:04Z</time>
      </trkpt>
      <trkpt lat="34.06375" lon="77.17114">
        <ele>4011.4</ele>
        <time>2015-08-31T06:26:20Z</time>
      </trkpt>
      <trkpt lat="34.06378" lon="77.17112">
        <ele>4011</ele>
        <time>2015-08-31T06:27:47Z</time>
      </trkpt>
      <trkpt lat="34.06374" lon="77.17116">
        <ele>4011</ele>
        <time>2015-08-31T06:29:14Z</time>
      </trkpt>
      <trkpt lat="34.06371" lon="77.17116">
        <ele>4010.8</ele>
        <time>2015-08-31T06:29:26Z</time>
      </trkpt>
      <trkpt lat="34.06371" lon="77.17115">
        <ele>4010.4</ele>
        <time>2015-08-31T06:29:30Z</time>
      </trkpt>
      <trkpt lat="34.06372" lon="77.17115">
        <ele>4010.4</ele>
        <time>2015-08-31T06:29:55Z</time>
      </trkpt>
      <trkpt lat="34.06376" lon="77.17116">
        <ele>4011.4</ele>
        <time>2015-08-31T06:30:04Z</time>
      </trkpt>
      <trkpt lat="34.06371" lon="77.17115">
        <ele>4011.2</ele>
        <time>2015-08-31T06:30:09Z</time>
      </trkpt>
      <trkpt lat="34.06378" lon="77.17115">
        <ele>4010.6</ele>
        <time>2015-08-31T06:30:24Z</time>
      </trkpt>
      <trkpt lat="34.06377" lon="77.17111">
        <ele>4012.4</ele>
        <time>2015-08-31T06:31:48Z</time>
      </trkpt>
      <trkpt lat="34.06378" lon="77.17113">
        <ele>4012.6</ele>
        <time>2015-08-31T06:33:24Z</time>
      </trkpt>
      <trkpt lat="34.06379" lon="77.17113">
        <ele>4012.2</ele>
        <time>2015-08-31T06:33:54Z</time>
      </trkpt>
      <trkpt lat="34.06377" lon="77.17113">
        <ele>4012.6</ele>
        <time>2015-08-31T06:35:16Z</time>
      </trkpt>
      <trkpt lat="34.06378" lon="77.17109">
        <ele>4011.4</ele>
        <time>2015-08-31T06:35:38Z</time>
      </trkpt>
      <trkpt lat="34.06381" lon="77.17113">
        <ele>4012.4</ele>
        <time>2015-08-31T06:36:08Z</time>
      </trkpt>
      <trkpt lat="34.06381" lon="77.17113">
        <ele>4012</ele>
        <time>2015-08-31T06:37:33Z</time>
      </trkpt>
      <trkpt lat="34.06378" lon="77.17116">
        <ele>4011.4</ele>
        <time>2015-08-31T06:38:18Z</time>
      </trkpt>
      <trkpt lat="34.06384" lon="77.17108">
        <ele>4010.8</ele>
        <time>2015-08-31T06:39:24Z</time>
      </trkpt>
      <trkpt lat="34.06384" lon="77.17106">
        <ele>4010.4</ele>
        <time>2015-08-31T06:39:43Z</time>
      </trkpt>
      <trkpt lat="34.06382" lon="77.17115">
        <ele>4009.6</ele>
        <time>2015-08-31T06:40:47Z</time>
      </trkpt>
      <trkpt lat="34.06379" lon="77.17114">
        <ele>4009.8</ele>
        <time>2015-08-31T06:42:02Z</time>
      </trkpt>
      <trkpt lat="34.06378" lon="77.17115">
        <ele>4009.2</ele>
        <time>2015-08-31T06:42:06Z</time>
      </trkpt>
      <trkpt lat="34.06378" lon="77.17117">
        <ele>4010.4</ele>
        <time>2015-08-31T06:43:07Z</time>
      </trkpt>
      <trkpt lat="34.0638" lon="77.17117">
        <ele>4011.4</ele>
        <time>2015-08-31T06:43:27Z</time>
      </trkpt>
      <trkpt lat="34.0638" lon="77.17113">
        <ele>4010.4</ele>
        <time>2015-08-31T06:44:19Z</time>
      </trkpt>
      <trkpt lat="34.06378" lon="77.1711">
        <ele>4010.4</ele>
        <time>2015-08-31T06:44:29Z</time>
      </trkpt>
      <trkpt lat="34.06379" lon="77.17119">
        <ele>4010</ele>
        <time>2015-08-31T06:45:38Z</time>
      </trkpt>
      <trkpt lat="34.06377" lon="77.17114">
        <ele>4010.6</ele>
        <time>2015-08-31T06:46:22Z</time>
      </trkpt>
      <trkpt lat="34.0638" lon="77.17112">
        <ele>4009.2</ele>
        <time>2015-08-31T06:46:31Z</time>
      </trkpt>
      <trkpt lat="34.0638" lon="77.17112">
        <ele>4009.2</ele>
        <time>2015-08-31T06:46:32Z</time>
      </trkpt>
      <trkpt lat="34.06379" lon="77.17114">
        <ele>4009.2</ele>
        <time>2015-08-31T06:46:45Z</time>
      </trkpt>
      <trkpt lat="34.06381" lon="77.17111">
        <ele>4008.2</ele>
        <time>2015-08-31T06:47:41Z</time>
      </trkpt>
      <trkpt lat="34.06377" lon="77.17115">
        <ele>4008.6</ele>
        <time>2015-08-31T06:48:05Z</time>
      </trkpt>
      <trkpt lat="34.06378" lon="77.17113">
        <ele>4008.8</ele>
        <time>2015-08-31T06:49:08Z</time>
      </trkpt>
      <trkpt lat="34.06377" lon="77.17114">
        <ele>4008.6</ele>
        <time>2015-08-31T06:50:57Z</time>
      </trkpt>
      <trkpt lat="34.06377" lon="77.17115">
        <ele>4007.8</ele>
        <time>2015-08-31T06:52:04Z</time>
      </trkpt>
      <trkpt lat="34.06378" lon="77.17114">
        <ele>4009.2</ele>
        <time>2015-08-31T06:52:58Z</time>
      </trkpt>
      <trkpt lat="34.06377" lon="77.17114">
        <ele>4009.2</ele>
        <time>2015-08-31T06:53:08Z</time>
      </trkpt>
      <trkpt lat="34.06377" lon="77.17114">
        <ele>4009</ele>
        <time>2015-08-31T06:53:47Z</time>
      </trkpt>
      <trkpt lat="34.06377" lon="77.17114">
        <ele>4009.6</ele>
        <time>2015-08-31T06:54:49Z</time>
      </trkpt>
      <trkpt lat="34.06377" lon="77.17115">
        <ele>4010.4</ele>
        <time>2015-08-31T06:56:16Z</time>
      </trkpt>
      <trkpt lat="34.06377" lon="77.17115">
        <ele>4010.4</ele>
        <time>2015-08-31T06:56:20Z</time>
      </trkpt>
      <trkpt lat="34.06377" lon="77.17114">
        <ele>4009.2</ele>
        <time>2015-08-31T06:57:15Z</time>
      </trkpt>
      <trkpt lat="34.06377" lon="77.17114">
        <ele>4009.4</ele>
        <time>2015-08-31T06:58:57Z</time>
      </trkpt>
      <trkpt lat="34.06377" lon="77.17113">
        <ele>4009.6</ele>
        <time>2015-08-31T07:00:30Z</time>
      </trkpt>
      <trkpt lat="34.06377" lon="77.17113">
        <ele>4010.4</ele>
        <time>2015-08-31T07:02:37Z</time>
      </trkpt>
      <trkpt lat="34.06377" lon="77.17113">
        <ele>4009.2</ele>
        <time>2015-08-31T07:04:40Z</time>
      </trkpt>
      <trkpt lat="34.06377" lon="77.17115">
        <ele>4008.2</ele>
        <time>2015-08-31T07:10:12Z</time>
      </trkpt>
      <trkpt lat="34.06376" lon="77.17115">
        <ele>4009.2</ele>
        <time>2015-08-31T07:11:23Z</time>
      </trkpt>
      <trkpt lat="34.06375" lon="77.17115">
        <ele>4010.2</ele>
        <time>2015-08-31T07:12:15Z</time>
      </trkpt>
      <trkpt lat="34.06373" lon="77.17117">
        <ele>4009.2</ele>
        <time>2015-08-31T07:13:10Z</time>
      </trkpt>
      <trkpt lat="34.06373" lon="77.17117">
        <ele>4009</ele>
        <time>2015-08-31T07:13:13Z</time>
      </trkpt>
      <trkpt lat="34.06375" lon="77.17115">
        <ele>4009.4</ele>
        <time>2015-08-31T07:13:42Z</time>
      </trkpt>
      <trkpt lat="34.06375" lon="77.17115">
        <ele>4010.2</ele>
        <time>2015-08-31T07:13:59Z</time>
      </trkpt>
      <trkpt lat="34.06374" lon="77.17116">
        <ele>4009.2</ele>
        <time>2015-08-31T07:14:38Z</time>
      </trkpt>
      <trkpt lat="34.06373" lon="77.17116">
        <ele>4009.4</ele>
        <time>2015-08-31T07:15:05Z</time>
      </trkpt>
      <trkpt lat="34.06374" lon="77.17114">
        <ele>4010.4</ele>
        <time>2015-08-31T07:15:48Z</time>
      </trkpt>
      <trkpt lat="34.06365" lon="77.17105">
        <ele>4011.2</ele>
        <time>2015-08-31T07:16:04Z</time>
      </trkpt>
      <trkpt lat="34.06365" lon="77.17104">
        <ele>4011.4</ele>
        <time>2015-08-31T07:16:05Z</time>
      </trkpt>
      <trkpt lat="34.06365" lon="77.17104">
        <ele>4011.6</ele>
        <time>2015-08-31T07:16:06Z</time>
      </trkpt>
      <trkpt lat="34.06365" lon="77.17102">
        <ele>4012.8</ele>
        <time>2015-08-31T07:16:08Z</time>
      </trkpt>
      <trkpt lat="34.06366" lon="77.17101">
        <ele>4014.4</ele>
        <time>2015-08-31T07:16:10Z</time>
      </trkpt>
      <trkpt lat="34.06367" lon="77.17098">
        <ele>4015.6</ele>
        <time>2015-08-31T07:16:16Z</time>
      </trkpt>
      <trkpt lat="34.06366" lon="77.17097">
        <ele>4017</ele>
        <time>2015-08-31T07:16:20Z</time>
      </trkpt>
      <trkpt lat="34.06366" lon="77.17097">
        <ele>4018.2</ele>
        <time>2015-08-31T07:16:23Z</time>
      </trkpt>
      <trkpt lat="34.06362" lon="77.17094">
        <ele>4016.8</ele>
        <time>2015-08-31T07:16:34Z</time>
      </trkpt>
      <trkpt lat="34.06362" lon="77.17093">
        <ele>4016.4</ele>
        <time>2015-08-31T07:16:37Z</time>
      </trkpt>
      <trkpt lat="34.06362" lon="77.17091">
        <ele>4015.8</ele>
        <time>2015-08-31T07:16:45Z</time>
      </trkpt>
      <trkpt lat="34.06359" lon="77.17085">
        <ele>4016.8</ele>
        <time>2015-08-31T07:17:06Z</time>
      </trkpt>
      <trkpt lat="34.0636" lon="77.17084">
        <ele>4017</ele>
        <time>2015-08-31T07:17:07Z</time>
      </trkpt>
      <trkpt lat="34.0637" lon="77.1709">
        <ele>4017</ele>
        <time>2015-08-31T07:17:10Z</time>
      </trkpt>
      <trkpt lat="34.06371" lon="77.1709">
        <ele>4016.8</ele>
        <time>2015-08-31T07:17:11Z</time>
      </trkpt>
      <trkpt lat="34.06372" lon="77.17091">
        <ele>4016.6</ele>
        <time>2015-08-31T07:17:13Z</time>
      </trkpt>
      <trkpt lat="34.06373" lon="77.17091">
        <ele>4015.8</ele>
        <time>2015-08-31T07:17:15Z</time>
      </trkpt>
      <trkpt lat="34.06367" lon="77.17099">
        <ele>4015.2</ele>
        <time>2015-08-31T07:17:35Z</time>
      </trkpt>
      <trkpt lat="34.06367" lon="77.17102">
        <ele>4014.6</ele>
        <time>2015-08-31T07:17:37Z</time>
      </trkpt>
      <trkpt lat="34.06368" lon="77.17109">
        <ele>4013.6</ele>
        <time>2015-08-31T07:17:41Z</time>
      </trkpt>
      <trkpt lat="34.06371" lon="77.17111">
        <ele>4012.6</ele>
        <time>2015-08-31T07:17:44Z</time>
      </trkpt>
      <trkpt lat="34.06372" lon="77.17111">
        <ele>4012.2</ele>
        <time>2015-08-31T07:17:45Z</time>
      </trkpt>
      <trkpt lat="34.06374" lon="77.17111">
        <ele>4011.8</ele>
        <time>2015-08-31T07:17:46Z</time>
      </trkpt>
      <trkpt lat="34.06377" lon="77.17111">
        <ele>4011</ele>
        <time>2015-08-31T07:17:47Z</time>
      </trkpt>
      <trkpt lat="34.06377" lon="77.17113">
        <ele>4010</ele>
        <time>2015-08-31T07:17:49Z</time>
      </trkpt>
      <trkpt lat="34.06377" lon="77.17112">
        <ele>4009</ele>
        <time>2015-08-31T07:17:56Z</time>
      </trkpt>
      <trkpt lat="34.06378" lon="77.17119">
        <ele>4010.2</ele>
        <time>2015-08-31T07:18:13Z</time>
      </trkpt>
      <trkpt lat="34.06377" lon="77.17124">
        <ele>4008.8</ele>
        <time>2015-08-31T07:18:19Z</time>
      </trkpt>
      <trkpt lat="34.06374" lon="77.17133">
        <ele>4008.6</ele>
        <time>2015-08-31T07:18:31Z</time>
      </trkpt>
      <trkpt lat="34.06374" lon="77.17134">
        <ele>4008.8</ele>
        <time>2015-08-31T07:18:33Z</time>
      </trkpt>
      <trkpt lat="34.06378" lon="77.17138">
        <ele>4008</ele>
        <time>2015-08-31T07:18:37Z</time>
      </trkpt>
      <trkpt lat="34.06379" lon="77.17139">
        <ele>4007.8</ele>
        <time>2015-08-31T07:18:38Z</time>
      </trkpt>
      <trkpt lat="34.0638" lon="77.17143">
        <ele>4006.6</ele>
        <time>2015-08-31T07:18:42Z</time>
      </trkpt>
      <trkpt lat="34.0638" lon="77.17145">
        <ele>4006.2</ele>
        <time>2015-08-31T07:18:43Z</time>
      </trkpt>
      <trkpt lat="34.06378" lon="77.17146">
        <ele>4005.4</ele>
        <time>2015-08-31T07:18:45Z</time>
      </trkpt>
      <trkpt lat="34.06378" lon="77.17146">
        <ele>4004.6</ele>
        <time>2015-08-31T07:18:46Z</time>
      </trkpt>
      <trkpt lat="34.06377" lon="77.17147">
        <ele>4004.2</ele>
        <time>2015-08-31T07:18:47Z</time>
      </trkpt>
      <trkpt lat="34.06377" lon="77.17151">
        <ele>4003.6</ele>
        <time>2015-08-31T07:18:50Z</time>
      </trkpt>
      <trkpt lat="34.06377" lon="77.17154">
        <ele>4003.4</ele>
        <time>2015-08-31T07:18:53Z</time>
      </trkpt>
      <trkpt lat="34.06376" lon="77.17154">
        <ele>4003.2</ele>
        <time>2015-08-31T07:18:54Z</time>
      </trkpt>
      <trkpt lat="34.06375" lon="77.17155">
        <ele>4002.4</ele>
        <time>2015-08-31T07:18:56Z</time>
      </trkpt>
      <trkpt lat="34.06374" lon="77.17156">
        <ele>4002</ele>
        <time>2015-08-31T07:18:57Z</time>
      </trkpt>
      <trkpt lat="34.06371" lon="77.17157">
        <ele>4001</ele>
        <time>2015-08-31T07:19:01Z</time>
      </trkpt>
      <trkpt lat="34.0637" lon="77.17158">
        <ele>3999.8</ele>
        <time>2015-08-31T07:19:03Z</time>
      </trkpt>
      <trkpt lat="34.06369" lon="77.17162">
        <ele>4001</ele>
        <time>2015-08-31T07:19:07Z</time>
      </trkpt>
      <trkpt lat="34.06367" lon="77.17165">
        <ele>4002.4</ele>
        <time>2015-08-31T07:19:09Z</time>
      </trkpt>
      <trkpt lat="34.06362" lon="77.1717">
        <ele>4001.4</ele>
        <time>2015-08-31T07:19:14Z</time>
      </trkpt>
      <trkpt lat="34.0636" lon="77.17171">
        <ele>4000</ele>
        <time>2015-08-31T07:19:16Z</time>
      </trkpt>
      <trkpt lat="34.06357" lon="77.17174">
        <ele>3998.8</ele>
        <time>2015-08-31T07:19:20Z</time>
      </trkpt>
      <trkpt lat="34.06353" lon="77.17175">
        <ele>3997.8</ele>
        <time>2015-08-31T07:19:24Z</time>
      </trkpt>
      <trkpt lat="34.06353" lon="77.17173">
        <ele>3996.6</ele>
        <time>2015-08-31T07:19:26Z</time>
      </trkpt>
      <trkpt lat="34.06347" lon="77.17177">
        <ele>3995.6</ele>
        <time>2015-08-31T07:19:33Z</time>
      </trkpt>
      <trkpt lat="34.06344" lon="77.17181">
        <ele>3995.4</ele>
        <time>2015-08-31T07:19:38Z</time>
      </trkpt>
      <trkpt lat="34.06336" lon="77.17191">
        <ele>3995.4</ele>
        <time>2015-08-31T07:19:47Z</time>
      </trkpt>
      <trkpt lat="34.06332" lon="77.17194">
        <ele>3995</ele>
        <time>2015-08-31T07:19:51Z</time>
      </trkpt>
      <trkpt lat="34.06327" lon="77.17197">
        <ele>3994.6</ele>
        <time>2015-08-31T07:19:57Z</time>
      </trkpt>
      <trkpt lat="34.06324" lon="77.172">
        <ele>3994</ele>
        <time>2015-08-31T07:20:01Z</time>
      </trkpt>
      <trkpt lat="34.06321" lon="77.17202">
        <ele>3993.4</ele>
        <time>2015-08-31T07:20:06Z</time>
      </trkpt>
      <trkpt lat="34.06315" lon="77.17202">
        <ele>3992.2</ele>
        <time>2015-08-31T07:20:18Z</time>
      </trkpt>
      <trkpt lat="34.06302" lon="77.17209">
        <ele>3991.6</ele>
        <time>2015-08-31T07:20:28Z</time>
      </trkpt>
      <trkpt lat="34.06296" lon="77.17208">
        <ele>3991.2</ele>
        <time>2015-08-31T07:20:36Z</time>
      </trkpt>
      <trkpt lat="34.06295" lon="77.17207">
        <ele>3991</ele>
        <time>2015-08-31T07:20:37Z</time>
      </trkpt>
      <trkpt lat="34.06293" lon="77.17207">
        <ele>3990.4</ele>
        <time>2015-08-31T07:20:38Z</time>
      </trkpt>
      <trkpt lat="34.06292" lon="77.17208">
        <ele>3989.8</ele>
        <time>2015-08-31T07:20:39Z</time>
      </trkpt>
      <trkpt lat="34.06288" lon="77.17208">
        <ele>3989.6</ele>
        <time>2015-08-31T07:20:45Z</time>
      </trkpt>
      <trkpt lat="34.06283" lon="77.17217">
        <ele>3989.4</ele>
        <time>2015-08-31T07:21:01Z</time>
      </trkpt>
      <trkpt lat="34.06282" lon="77.17221">
        <ele>3988.8</ele>
        <time>2015-08-31T07:21:04Z</time>
      </trkpt>
      <trkpt lat="34.06281" lon="77.17227">
        <ele>3987.4</ele>
        <time>2015-08-31T07:21:12Z</time>
      </trkpt>
      <trkpt lat="34.06278" lon="77.17229">
        <ele>3986.2</ele>
        <time>2015-08-31T07:21:18Z</time>
      </trkpt>
      <trkpt lat="34.06276" lon="77.17231">
        <ele>3985.6</ele>
        <time>2015-08-31T07:21:21Z</time>
      </trkpt>
      <trkpt lat="34.06273" lon="77.17235">
        <ele>3985.2</ele>
        <time>2015-08-31T07:21:24Z</time>
      </trkpt>
      <trkpt lat="34.06267" lon="77.17244">
        <ele>3984</ele>
        <time>2015-08-31T07:21:31Z</time>
      </trkpt>
      <trkpt lat="34.06265" lon="77.17245">
        <ele>3983.2</ele>
        <time>2015-08-31T07:21:33Z</time>
      </trkpt>
      <trkpt lat="34.06264" lon="77.17246">
        <ele>3982.8</ele>
        <time>2015-08-31T07:21:34Z</time>
      </trkpt>
      <trkpt lat="34.06255" lon="77.17264">
        <ele>3982</ele>
        <time>2015-08-31T07:21:48Z</time>
      </trkpt>
      <trkpt lat="34.06255" lon="77.17264">
        <ele>3981.6</ele>
        <time>2015-08-31T07:21:50Z</time>
      </trkpt>
      <trkpt lat="34.06255" lon="77.17264">
        <ele>3980.6</ele>
        <time>2015-08-31T07:21:52Z</time>
      </trkpt>
      <trkpt lat="34.06251" lon="77.17271">
        <ele>3979.2</ele>
        <time>2015-08-31T07:22:00Z</time>
      </trkpt>
      <trkpt lat="34.0625" lon="77.17273">
        <ele>3978.2</ele>
        <time>2015-08-31T07:22:03Z</time>
      </trkpt>
      <trkpt lat="34.0625" lon="77.17276">
        <ele>3976.8</ele>
        <time>2015-08-31T07:22:06Z</time>
      </trkpt>
      <trkpt lat="34.0625" lon="77.17279">
        <ele>3975.6</ele>
        <time>2015-08-31T07:22:09Z</time>
      </trkpt>
      <trkpt lat="34.06247" lon="77.17286">
        <ele>3974.6</ele>
        <time>2015-08-31T07:22:18Z</time>
      </trkpt>
      <trkpt lat="34.06243" lon="77.17293">
        <ele>3974.8</ele>
        <time>2015-08-31T07:22:25Z</time>
      </trkpt>
      <trkpt lat="34.06242" lon="77.17299">
        <ele>3974.6</ele>
        <time>2015-08-31T07:22:30Z</time>
      </trkpt>
      <trkpt lat="34.06239" lon="77.17303">
        <ele>3973.4</ele>
        <time>2015-08-31T07:22:34Z</time>
      </trkpt>
      <trkpt lat="34.06236" lon="77.17308">
        <ele>3972.4</ele>
        <time>2015-08-31T07:22:40Z</time>
      </trkpt>
      <trkpt lat="34.06236" lon="77.17308">
        <ele>3972.2</ele>
        <time>2015-08-31T07:22:41Z</time>
      </trkpt>
      <trkpt lat="34.06235" lon="77.17309">
        <ele>3971.8</ele>
        <time>2015-08-31T07:22:42Z</time>
      </trkpt>
      <trkpt lat="34.06232" lon="77.17312">
        <ele>3971.2</ele>
        <time>2015-08-31T07:22:46Z</time>
      </trkpt>
      <trkpt lat="34.06231" lon="77.17314">
        <ele>3971.2</ele>
        <time>2015-08-31T07:22:48Z</time>
      </trkpt>
      <trkpt lat="34.0623" lon="77.17319">
        <ele>3970.8</ele>
        <time>2015-08-31T07:22:52Z</time>
      </trkpt>
      <trkpt lat="34.06227" lon="77.17324">
        <ele>3970.2</ele>
        <time>2015-08-31T07:22:57Z</time>
      </trkpt>
      <trkpt lat="34.06229" lon="77.17325">
        <ele>3970</ele>
        <time>2015-08-31T07:22:59Z</time>
      </trkpt>
      <trkpt lat="34.06229" lon="77.17325">
        <ele>3969</ele>
        <time>2015-08-31T07:23:03Z</time>
      </trkpt>
      <trkpt lat="34.06227" lon="77.17327">
        <ele>3969.2</ele>
        <time>2015-08-31T07:23:08Z</time>
      </trkpt>
      <trkpt lat="34.06215" lon="77.17344">
        <ele>3968.2</ele>
        <time>2015-08-31T07:23:24Z</time>
      </trkpt>
      <trkpt lat="34.06215" lon="77.17346">
        <ele>3967.6</ele>
        <time>2015-08-31T07:23:26Z</time>
      </trkpt>
      <trkpt lat="34.06212" lon="77.17352">
        <ele>3966.6</ele>
        <time>2015-08-31T07:23:30Z</time>
      </trkpt>
      <trkpt lat="34.06214" lon="77.17362">
        <ele>3965.6</ele>
        <time>2015-08-31T07:23:37Z</time>
      </trkpt>
      <trkpt lat="34.06216" lon="77.17366">
        <ele>3964.6</ele>
        <time>2015-08-31T07:23:41Z</time>
      </trkpt>
      <trkpt lat="34.06216" lon="77.17367">
        <ele>3964.2</ele>
        <time>2015-08-31T07:23:42Z</time>
      </trkpt>
      <trkpt lat="34.06215" lon="77.17369">
        <ele>3963.8</ele>
        <time>2015-08-31T07:23:44Z</time>
      </trkpt>
      <trkpt lat="34.06215" lon="77.17371">
        <ele>3963.6</ele>
        <time>2015-08-31T07:23:47Z</time>
      </trkpt>
      <trkpt lat="34.06214" lon="77.17373">
        <ele>3963</ele>
        <time>2015-08-31T07:23:49Z</time>
      </trkpt>
      <trkpt lat="34.06213" lon="77.17375">
        <ele>3962.4</ele>
        <time>2015-08-31T07:23:51Z</time>
      </trkpt>
      <trkpt lat="34.06214" lon="77.1738">
        <ele>3961.4</ele>
        <time>2015-08-31T07:23:55Z</time>
      </trkpt>
      <trkpt lat="34.06214" lon="77.17384">
        <ele>3960.4</ele>
        <time>2015-08-31T07:23:59Z</time>
      </trkpt>
      <trkpt lat="34.06213" lon="77.17387">
        <ele>3960.2</ele>
        <time>2015-08-31T07:24:02Z</time>
      </trkpt>
      <trkpt lat="34.06211" lon="77.17398">
        <ele>3959.6</ele>
        <time>2015-08-31T07:24:11Z</time>
      </trkpt>
      <trkpt lat="34.06208" lon="77.17402">
        <ele>3959.2</ele>
        <time>2015-08-31T07:24:16Z</time>
      </trkpt>
      <trkpt lat="34.06207" lon="77.17404">
        <ele>3958.6</ele>
        <time>2015-08-31T07:24:18Z</time>
      </trkpt>
      <trkpt lat="34.06207" lon="77.17404">
        <ele>3958.2</ele>
        <time>2015-08-31T07:24:20Z</time>
      </trkpt>
      <trkpt lat="34.06208" lon="77.17407">
        <ele>3958.2</ele>
        <time>2015-08-31T07:24:30Z</time>
      </trkpt>
      <trkpt lat="34.06208" lon="77.17408">
        <ele>3958</ele>
        <time>2015-08-31T07:24:31Z</time>
      </trkpt>
      <trkpt lat="34.06197" lon="77.17424">
        <ele>3957</ele>
        <time>2015-08-31T07:24:43Z</time>
      </trkpt>
      <trkpt lat="34.0619" lon="77.17431">
        <ele>3956</ele>
        <time>2015-08-31T07:24:48Z</time>
      </trkpt>
      <trkpt lat="34.06179" lon="77.17449">
        <ele>3955.8</ele>
        <time>2015-08-31T07:25:03Z</time>
      </trkpt>
      <trkpt lat="34.06179" lon="77.17451">
        <ele>3955.6</ele>
        <time>2015-08-31T07:25:05Z</time>
      </trkpt>
      <trkpt lat="34.06176" lon="77.17454">
        <ele>3955.4</ele>
        <time>2015-08-31T07:25:08Z</time>
      </trkpt>
      <trkpt lat="34.06173" lon="77.17457">
        <ele>3954.8</ele>
        <time>2015-08-31T07:25:12Z</time>
      </trkpt>
      <trkpt lat="34.06167" lon="77.17468">
        <ele>3954.4</ele>
        <time>2015-08-31T07:25:23Z</time>
      </trkpt>
      <trkpt lat="34.06165" lon="77.17474">
        <ele>3954</ele>
        <time>2015-08-31T07:25:27Z</time>
      </trkpt>
      <trkpt lat="34.06166" lon="77.17477">
        <ele>3953.8</ele>
        <time>2015-08-31T07:25:29Z</time>
      </trkpt>
      <trkpt lat="34.06165" lon="77.17479">
        <ele>3953.8</ele>
        <time>2015-08-31T07:25:31Z</time>
      </trkpt>
      <trkpt lat="34.06161" lon="77.17489">
        <ele>3952.6</ele>
        <time>2015-08-31T07:25:40Z</time>
      </trkpt>
      <trkpt lat="34.06159" lon="77.17492">
        <ele>3952.2</ele>
        <time>2015-08-31T07:25:42Z</time>
      </trkpt>
      <trkpt lat="34.06158" lon="77.175">
        <ele>3951.6</ele>
        <time>2015-08-31T07:25:49Z</time>
      </trkpt>
      <trkpt lat="34.06152" lon="77.17516">
        <ele>3950.8</ele>
        <time>2015-08-31T07:26:04Z</time>
      </trkpt>
      <trkpt lat="34.06152" lon="77.17518">
        <ele>3950.6</ele>
        <time>2015-08-31T07:26:05Z</time>
      </trkpt>
      <trkpt lat="34.0615" lon="77.17519">
        <ele>3950.4</ele>
        <time>2015-08-31T07:26:07Z</time>
      </trkpt>
      <trkpt lat="34.06149" lon="77.17522">
        <ele>3950.4</ele>
        <time>2015-08-31T07:26:10Z</time>
      </trkpt>
      <trkpt lat="34.06148" lon="77.17538">
        <ele>3950.4</ele>
        <time>2015-08-31T07:26:25Z</time>
      </trkpt>
      <trkpt lat="34.06145" lon="77.17548">
        <ele>3949.6</ele>
        <time>2015-08-31T07:26:33Z</time>
      </trkpt>
      <trkpt lat="34.06145" lon="77.17555">
        <ele>3949.8</ele>
        <time>2015-08-31T07:26:37Z</time>
      </trkpt>
      <trkpt lat="34.06145" lon="77.17558">
        <ele>3950</ele>
        <time>2015-08-31T07:26:39Z</time>
      </trkpt>
      <trkpt lat="34.06145" lon="77.17562">
        <ele>3949.8</ele>
        <time>2015-08-31T07:26:41Z</time>
      </trkpt>
      <trkpt lat="34.06145" lon="77.17566">
        <ele>3949.6</ele>
        <time>2015-08-31T07:26:43Z</time>
      </trkpt>
      <trkpt lat="34.0614" lon="77.17587">
        <ele>3948.8</ele>
        <time>2015-08-31T07:27:00Z</time>
      </trkpt>
      <trkpt lat="34.06138" lon="77.1759">
        <ele>3948.4</ele>
        <time>2015-08-31T07:27:03Z</time>
      </trkpt>
      <trkpt lat="34.06135" lon="77.17598">
        <ele>3947.4</ele>
        <time>2015-08-31T07:27:10Z</time>
      </trkpt>
      <trkpt lat="34.06128" lon="77.17618">
        <ele>3946.4</ele>
        <time>2015-08-31T07:27:25Z</time>
      </trkpt>
      <trkpt lat="34.06127" lon="77.17621">
        <ele>3946.2</ele>
        <time>2015-08-31T07:27:27Z</time>
      </trkpt>
      <trkpt lat="34.06126" lon="77.17628">
        <ele>3945.2</ele>
        <time>2015-08-31T07:27:32Z</time>
      </trkpt>
      <trkpt lat="34.06126" lon="77.17631">
        <ele>3945.2</ele>
        <time>2015-08-31T07:27:34Z</time>
      </trkpt>
      <trkpt lat="34.06117" lon="77.17646">
        <ele>3944.2</ele>
        <time>2015-08-31T07:27:45Z</time>
      </trkpt>
      <trkpt lat="34.06115" lon="77.17652">
        <ele>3944</ele>
        <time>2015-08-31T07:27:50Z</time>
      </trkpt>
      <trkpt lat="34.06116" lon="77.17657">
        <ele>3943</ele>
        <time>2015-08-31T07:27:55Z</time>
      </trkpt>
      <trkpt lat="34.06113" lon="77.17661">
        <ele>3942</ele>
        <time>2015-08-31T07:27:59Z</time>
      </trkpt>
      <trkpt lat="34.06111" lon="77.17662">
        <ele>3941.6</ele>
        <time>2015-08-31T07:28:01Z</time>
      </trkpt>
      <trkpt lat="34.06109" lon="77.17672">
        <ele>3941.6</ele>
        <time>2015-08-31T07:28:09Z</time>
      </trkpt>
      <trkpt lat="34.06109" lon="77.17675">
        <ele>3940.8</ele>
        <time>2015-08-31T07:28:11Z</time>
      </trkpt>
      <trkpt lat="34.06107" lon="77.17678">
        <ele>3939.6</ele>
        <time>2015-08-31T07:28:14Z</time>
      </trkpt>
      <trkpt lat="34.06102" lon="77.17688">
        <ele>3940.6</ele>
        <time>2015-08-31T07:28:21Z</time>
      </trkpt>
      <trkpt lat="34.061" lon="77.17691">
        <ele>3940.6</ele>
        <time>2015-08-31T07:28:23Z</time>
      </trkpt>
      <trkpt lat="34.06095" lon="77.17705">
        <ele>3941.6</ele>
        <time>2015-08-31T07:28:35Z</time>
      </trkpt>
      <trkpt lat="34.06095" lon="77.17707">
        <ele>3942</ele>
        <time>2015-08-31T07:28:37Z</time>
      </trkpt>
      <trkpt lat="34.06091" lon="77.17719">
        <ele>3941.6</ele>
        <time>2015-08-31T07:28:49Z</time>
      </trkpt>
      <trkpt lat="34.06089" lon="77.17732">
        <ele>3941</ele>
        <time>2015-08-31T07:29:00Z</time>
      </trkpt>
      <trkpt lat="34.0609" lon="77.17734">
        <ele>3940.6</ele>
        <time>2015-08-31T07:29:02Z</time>
      </trkpt>
      <trkpt lat="34.06089" lon="77.17739">
        <ele>3940.8</ele>
        <time>2015-08-31T07:29:07Z</time>
      </trkpt>
      <trkpt lat="34.06086" lon="77.17744">
        <ele>3940.4</ele>
        <time>2015-08-31T07:29:12Z</time>
      </trkpt>
      <trkpt lat="34.06082" lon="77.17751">
        <ele>3940.2</ele>
        <time>2015-08-31T07:29:19Z</time>
      </trkpt>
      <trkpt lat="34.06081" lon="77.17752">
        <ele>3939.8</ele>
        <time>2015-08-31T07:29:20Z</time>
      </trkpt>
      <trkpt lat="34.06081" lon="77.17755">
        <ele>3939.6</ele>
        <time>2015-08-31T07:29:22Z</time>
      </trkpt>
      <trkpt lat="34.06081" lon="77.17759">
        <ele>3939.6</ele>
        <time>2015-08-31T07:29:25Z</time>
      </trkpt>
      <trkpt lat="34.06082" lon="77.17771">
        <ele>3938.8</ele>
        <time>2015-08-31T07:29:32Z</time>
      </trkpt>
      <trkpt lat="34.06082" lon="77.17775">
        <ele>3938.4</ele>
        <time>2015-08-31T07:29:34Z</time>
      </trkpt>
      <trkpt lat="34.06083" lon="77.17786">
        <ele>3938.4</ele>
        <time>2015-08-31T07:29:42Z</time>
      </trkpt>
      <trkpt lat="34.06081" lon="77.1779">
        <ele>3937.4</ele>
        <time>2015-08-31T07:29:45Z</time>
      </trkpt>
      <trkpt lat="34.0608" lon="77.17791">
        <ele>3937</ele>
        <time>2015-08-31T07:29:46Z</time>
      </trkpt>
      <trkpt lat="34.06078" lon="77.17793">
        <ele>3936.2</ele>
        <time>2015-08-31T07:29:48Z</time>
      </trkpt>
      <trkpt lat="34.06069" lon="77.17805">
        <ele>3935</ele>
        <time>2015-08-31T07:29:58Z</time>
      </trkpt>
      <trkpt lat="34.06064" lon="77.1781">
        <ele>3934</ele>
        <time>2015-08-31T07:30:02Z</time>
      </trkpt>
      <trkpt lat="34.0606" lon="77.17813">
        <ele>3933</ele>
        <time>2015-08-31T07:30:05Z</time>
      </trkpt>
      <trkpt lat="34.06054" lon="77.17819">
        <ele>3931.6</ele>
        <time>2015-08-31T07:30:11Z</time>
      </trkpt>
      <trkpt lat="34.0605" lon="77.17821">
        <ele>3930.4</ele>
        <time>2015-08-31T07:30:15Z</time>
      </trkpt>
      <trkpt lat="34.06045" lon="77.17822">
        <ele>3929.4</ele>
        <time>2015-08-31T07:30:21Z</time>
      </trkpt>
      <trkpt lat="34.06044" lon="77.17822">
        <ele>3929.2</ele>
        <time>2015-08-31T07:30:23Z</time>
      </trkpt>
      <trkpt lat="34.06041" lon="77.17828">
        <ele>3929.6</ele>
        <time>2015-08-31T07:30:31Z</time>
      </trkpt>
      <trkpt lat="34.06034" lon="77.17834">
        <ele>3928.2</ele>
        <time>2015-08-31T07:30:38Z</time>
      </trkpt>
      <trkpt lat="34.0603" lon="77.17837">
        <ele>3926.6</ele>
        <time>2015-08-31T07:30:42Z</time>
      </trkpt>
      <trkpt lat="34.06029" lon="77.17839">
        <ele>3925.4</ele>
        <time>2015-08-31T07:30:45Z</time>
      </trkpt>
      <trkpt lat="34.06027" lon="77.1784">
        <ele>3924.2</ele>
        <time>2015-08-31T07:30:47Z</time>
      </trkpt>
      <trkpt lat="34.06026" lon="77.1784">
        <ele>3923.8</ele>
        <time>2015-08-31T07:30:48Z</time>
      </trkpt>
      <trkpt lat="34.06026" lon="77.17842">
        <ele>3923.2</ele>
        <time>2015-08-31T07:30:50Z</time>
      </trkpt>
      <trkpt lat="34.06019" lon="77.17847">
        <ele>3921.8</ele>
        <time>2015-08-31T07:30:56Z</time>
      </trkpt>
      <trkpt lat="34.06017" lon="77.17848">
        <ele>3921.4</ele>
        <time>2015-08-31T07:30:59Z</time>
      </trkpt>
      <trkpt lat="34.06014" lon="77.17853">
        <ele>3921.4</ele>
        <time>2015-08-31T07:31:03Z</time>
      </trkpt>
      <trkpt lat="34.06013" lon="77.17856">
        <ele>3921.2</ele>
        <time>2015-08-31T07:31:07Z</time>
      </trkpt>
      <trkpt lat="34.06013" lon="77.17858">
        <ele>3920.8</ele>
        <time>2015-08-31T07:31:10Z</time>
      </trkpt>
      <trkpt lat="34.06018" lon="77.17857">
        <ele>3919.6</ele>
        <time>2015-08-31T07:31:35Z</time>
      </trkpt>
      <trkpt lat="34.0602" lon="77.17856">
        <ele>3919.4</ele>
        <time>2015-08-31T07:31:41Z</time>
      </trkpt>
      <trkpt lat="34.0602" lon="77.17856">
        <ele>3918.6</ele>
        <time>2015-08-31T07:32:06Z</time>
      </trkpt>
      <trkpt lat="34.0602" lon="77.17858">
        <ele>3917.4</ele>
        <time>2015-08-31T07:32:12Z</time>
      </trkpt>
      <trkpt lat="34.0602" lon="77.17858">
        <ele>3918.6</ele>
        <time>2015-08-31T07:32:21Z</time>
      </trkpt>
      <trkpt lat="34.06019" lon="77.17857">
        <ele>3919.6</ele>
        <time>2015-08-31T07:32:24Z</time>
      </trkpt>
      <trkpt lat="34.06019" lon="77.17857">
        <ele>3920.6</ele>
        <time>2015-08-31T07:32:30Z</time>
      </trkpt>
      <trkpt lat="34.06014" lon="77.17858">
        <ele>3919.8</ele>
        <time>2015-08-31T07:32:37Z</time>
      </trkpt>
      <trkpt lat="34.06015" lon="77.17858">
        <ele>3919.8</ele>
        <time>2015-08-31T07:32:39Z</time>
      </trkpt>
      <trkpt lat="34.06016" lon="77.17856">
        <ele>3919.4</ele>
        <time>2015-08-31T07:32:41Z</time>
      </trkpt>
      <trkpt lat="34.06016" lon="77.17858">
        <ele>3918.4</ele>
        <time>2015-08-31T07:32:45Z</time>
      </trkpt>
      <trkpt lat="34.06016" lon="77.17861">
        <ele>3917.2</ele>
        <time>2015-08-31T07:32:51Z</time>
      </trkpt>
      <trkpt lat="34.06015" lon="77.17868">
        <ele>3916</ele>
        <time>2015-08-31T07:33:01Z</time>
      </trkpt>
      <trkpt lat="34.06016" lon="77.17869">
        <ele>3915.4</ele>
        <time>2015-08-31T07:33:04Z</time>
      </trkpt>
      <trkpt lat="34.06015" lon="77.1787">
        <ele>3914.8</ele>
        <time>2015-08-31T07:33:07Z</time>
      </trkpt>
      <trkpt lat="34.06013" lon="77.17875">
        <ele>3913.8</ele>
        <time>2015-08-31T07:33:12Z</time>
      </trkpt>
      <trkpt lat="34.06013" lon="77.17879">
        <ele>3912.6</ele>
        <time>2015-08-31T07:33:19Z</time>
      </trkpt>
      <trkpt lat="34.0601" lon="77.17886">
        <ele>3911.4</ele>
        <time>2015-08-31T07:33:24Z</time>
      </trkpt>
      <trkpt lat="34.06009" lon="77.17889">
        <ele>3910.6</ele>
        <time>2015-08-31T07:33:26Z</time>
      </trkpt>
      <trkpt lat="34.0601" lon="77.1789">
        <ele>3910.4</ele>
        <time>2015-08-31T07:33:27Z</time>
      </trkpt>
      <trkpt lat="34.06013" lon="77.17893">
        <ele>3909.4</ele>
        <time>2015-08-31T07:33:31Z</time>
      </trkpt>
      <trkpt lat="34.06013" lon="77.17894">
        <ele>3909.2</ele>
        <time>2015-08-31T07:33:32Z</time>
      </trkpt>
      <trkpt lat="34.06009" lon="77.17903">
        <ele>3908.2</ele>
        <time>2015-08-31T07:33:41Z</time>
      </trkpt>
      <trkpt lat="34.06007" lon="77.17907">
        <ele>3906.8</ele>
        <time>2015-08-31T07:33:46Z</time>
      </trkpt>
      <trkpt lat="34.06007" lon="77.17911">
        <ele>3906</ele>
        <time>2015-08-31T07:33:52Z</time>
      </trkpt>
      <trkpt lat="34.06005" lon="77.17912">
        <ele>3905.8</ele>
        <time>2015-08-31T07:33:54Z</time>
      </trkpt>
      <trkpt lat="34.06003" lon="77.17916">
        <ele>3905.2</ele>
        <time>2015-08-31T07:33:58Z</time>
      </trkpt>
      <trkpt lat="34.06004" lon="77.17918">
        <ele>3904.8</ele>
        <time>2015-08-31T07:34:00Z</time>
      </trkpt>
      <trkpt lat="34.06003" lon="77.17919">
        <ele>3904.2</ele>
        <time>2015-08-31T07:34:03Z</time>
      </trkpt>
      <trkpt lat="34.06002" lon="77.17921">
        <ele>3904</ele>
        <time>2015-08-31T07:34:05Z</time>
      </trkpt>
      <trkpt lat="34.06001" lon="77.17921">
        <ele>3903.6</ele>
        <time>2015-08-31T07:34:06Z</time>
      </trkpt>
      <trkpt lat="34.06001" lon="77.17923">
        <ele>3902.6</ele>
        <time>2015-08-31T07:34:10Z</time>
      </trkpt>
      <trkpt lat="34.06001" lon="77.17927">
        <ele>3901.4</ele>
        <time>2015-08-31T07:34:14Z</time>
      </trkpt>
      <trkpt lat="34.06001" lon="77.17935">
        <ele>3900.4</ele>
        <time>2015-08-31T07:34:22Z</time>
      </trkpt>
      <trkpt lat="34.06001" lon="77.17936">
        <ele>3900.2</ele>
        <time>2015-08-31T07:34:23Z</time>
      </trkpt>
      <trkpt lat="34.06003" lon="77.17941">
        <ele>3899.2</ele>
        <time>2015-08-31T07:34:30Z</time>
      </trkpt>
      <trkpt lat="34.06001" lon="77.17945">
        <ele>3898.2</ele>
        <time>2015-08-31T07:34:33Z</time>
      </trkpt>
      <trkpt lat="34.06" lon="77.17946">
        <ele>3897.4</ele>
        <time>2015-08-31T07:34:36Z</time>
      </trkpt>
      <trkpt lat="34.05999" lon="77.17947">
        <ele>3897</ele>
        <time>2015-08-31T07:34:37Z</time>
      </trkpt>
      <trkpt lat="34.05996" lon="77.17953">
        <ele>3896</ele>
        <time>2015-08-31T07:34:42Z</time>
      </trkpt>
      <trkpt lat="34.05996" lon="77.17957">
        <ele>3894.6</ele>
        <time>2015-08-31T07:34:47Z</time>
      </trkpt>
      <trkpt lat="34.05995" lon="77.17959">
        <ele>3893.6</ele>
        <time>2015-08-31T07:34:50Z</time>
      </trkpt>
      <trkpt lat="34.06" lon="77.17966">
        <ele>3892.4</ele>
        <time>2015-08-31T07:34:57Z</time>
      </trkpt>
      <trkpt lat="34.05996" lon="77.17971">
        <ele>3891.4</ele>
        <time>2015-08-31T07:35:02Z</time>
      </trkpt>
      <trkpt lat="34.05994" lon="77.17974">
        <ele>3890.2</ele>
        <time>2015-08-31T07:35:05Z</time>
      </trkpt>
      <trkpt lat="34.05993" lon="77.17975">
        <ele>3889.8</ele>
        <time>2015-08-31T07:35:06Z</time>
      </trkpt>
      <trkpt lat="34.0599" lon="77.17981">
        <ele>3889.2</ele>
        <time>2015-08-31T07:35:11Z</time>
      </trkpt>
      <trkpt lat="34.0599" lon="77.17984">
        <ele>3888.8</ele>
        <time>2015-08-31T07:35:14Z</time>
      </trkpt>
      <trkpt lat="34.05991" lon="77.17988">
        <ele>3888</ele>
        <time>2015-08-31T07:35:24Z</time>
      </trkpt>
      <trkpt lat="34.05991" lon="77.17992">
        <ele>3887.8</ele>
        <time>2015-08-31T07:36:04Z</time>
      </trkpt>
      <trkpt lat="34.0599" lon="77.17995">
        <ele>3887</ele>
        <time>2015-08-31T07:36:08Z</time>
      </trkpt>
      <trkpt lat="34.05988" lon="77.17999">
        <ele>3886.4</ele>
        <time>2015-08-31T07:36:12Z</time>
      </trkpt>
      <trkpt lat="34.05988" lon="77.18001">
        <ele>3886</ele>
        <time>2015-08-31T07:36:15Z</time>
      </trkpt>
      <trkpt lat="34.05989" lon="77.18003">
        <ele>3885.6</ele>
        <time>2015-08-31T07:36:17Z</time>
      </trkpt>
      <trkpt lat="34.0599" lon="77.18009">
        <ele>3884.8</ele>
        <time>2015-08-31T07:36:22Z</time>
      </trkpt>
      <trkpt lat="34.05989" lon="77.18015">
        <ele>3883.6</ele>
        <time>2015-08-31T07:36:27Z</time>
      </trkpt>
      <trkpt lat="34.05986" lon="77.18021">
        <ele>3882.4</ele>
        <time>2015-08-31T07:36:32Z</time>
      </trkpt>
      <trkpt lat="34.05982" lon="77.18032">
        <ele>3881.4</ele>
        <time>2015-08-31T07:36:43Z</time>
      </trkpt>
      <trkpt lat="34.05981" lon="77.18036">
        <ele>3880.2</ele>
        <time>2015-08-31T07:36:51Z</time>
      </trkpt>
      <trkpt lat="34.05981" lon="77.18039">
        <ele>3879.4</ele>
        <time>2015-08-31T07:36:56Z</time>
      </trkpt>
      <trkpt lat="34.05979" lon="77.1804">
        <ele>3879.2</ele>
        <time>2015-08-31T07:36:57Z</time>
      </trkpt>
      <trkpt lat="34.05976" lon="77.18047">
        <ele>3878</ele>
        <time>2015-08-31T07:37:05Z</time>
      </trkpt>
      <trkpt lat="34.05973" lon="77.18056">
        <ele>3877</ele>
        <time>2015-08-31T07:37:11Z</time>
      </trkpt>
      <trkpt lat="34.05974" lon="77.18058">
        <ele>3876.6</ele>
        <time>2015-08-31T07:37:14Z</time>
      </trkpt>
      <trkpt lat="34.05973" lon="77.18063">
        <ele>3875.8</ele>
        <time>2015-08-31T07:37:22Z</time>
      </trkpt>
      <trkpt lat="34.0597" lon="77.18067">
        <ele>3875.4</ele>
        <time>2015-08-31T07:37:25Z</time>
      </trkpt>
      <trkpt lat="34.05969" lon="77.18067">
        <ele>3875</ele>
        <time>2015-08-31T07:37:27Z</time>
      </trkpt>
      <trkpt lat="34.05968" lon="77.18066">
        <ele>3874.8</ele>
        <time>2015-08-31T07:37:28Z</time>
      </trkpt>
      <trkpt lat="34.05965" lon="77.18064">
        <ele>3873.8</ele>
        <time>2015-08-31T07:37:35Z</time>
      </trkpt>
      <trkpt lat="34.05961" lon="77.18061">
        <ele>3872.6</ele>
        <time>2015-08-31T07:37:41Z</time>
      </trkpt>
      <trkpt lat="34.05958" lon="77.18058">
        <ele>3871.6</ele>
        <time>2015-08-31T07:37:47Z</time>
      </trkpt>
      <trkpt lat="34.05954" lon="77.18053">
        <ele>3870.4</ele>
        <time>2015-08-31T07:37:54Z</time>
      </trkpt>
      <trkpt lat="34.0595" lon="77.18051">
        <ele>3869.4</ele>
        <time>2015-08-31T07:37:59Z</time>
      </trkpt>
      <trkpt lat="34.05947" lon="77.18053">
        <ele>3869</ele>
        <time>2015-08-31T07:38:02Z</time>
      </trkpt>
      <trkpt lat="34.05946" lon="77.18053">
        <ele>3868.6</ele>
        <time>2015-08-31T07:38:04Z</time>
      </trkpt>
      <trkpt lat="34.05946" lon="77.18051">
        <ele>3868.4</ele>
        <time>2015-08-31T07:38:06Z</time>
      </trkpt>
      <trkpt lat="34.05947" lon="77.18051">
        <ele>3868.4</ele>
        <time>2015-08-31T07:38:08Z</time>
      </trkpt>
      <trkpt lat="34.05947" lon="77.18054">
        <ele>3868.2</ele>
        <time>2015-08-31T07:38:21Z</time>
      </trkpt>
      <trkpt lat="34.05946" lon="77.18059">
        <ele>3867.2</ele>
        <time>2015-08-31T07:38:30Z</time>
      </trkpt>
      <trkpt lat="34.05943" lon="77.18061">
        <ele>3866.2</ele>
        <time>2015-08-31T07:38:36Z</time>
      </trkpt>
      <trkpt lat="34.05937" lon="77.18062">
        <ele>3865.2</ele>
        <time>2015-08-31T07:38:48Z</time>
      </trkpt>
      <trkpt lat="34.05931" lon="77.18065">
        <ele>3864</ele>
        <time>2015-08-31T07:38:53Z</time>
      </trkpt>
      <trkpt lat="34.05931" lon="77.18074">
        <ele>3863</ele>
        <time>2015-08-31T07:39:00Z</time>
      </trkpt>
      <trkpt lat="34.05932" lon="77.18076">
        <ele>3862.8</ele>
        <time>2015-08-31T07:39:01Z</time>
      </trkpt>
      <trkpt lat="34.05931" lon="77.18078">
        <ele>3861.8</ele>
        <time>2015-08-31T07:39:05Z</time>
      </trkpt>
      <trkpt lat="34.05927" lon="77.18081">
        <ele>3860.6</ele>
        <time>2015-08-31T07:39:10Z</time>
      </trkpt>
      <trkpt lat="34.05921" lon="77.18087">
        <ele>3859.4</ele>
        <time>2015-08-31T07:39:16Z</time>
      </trkpt>
      <trkpt lat="34.05917" lon="77.18089">
        <ele>3858.2</ele>
        <time>2015-08-31T07:39:20Z</time>
      </trkpt>
      <trkpt lat="34.05912" lon="77.18091">
        <ele>3857.4</ele>
        <time>2015-08-31T07:39:26Z</time>
      </trkpt>
      <trkpt lat="34.0591" lon="77.18092">
        <ele>3857.4</ele>
        <time>2015-08-31T07:39:28Z</time>
      </trkpt>
      <trkpt lat="34.05911" lon="77.18091">
        <ele>3857.8</ele>
        <time>2015-08-31T07:39:30Z</time>
      </trkpt>
      <trkpt lat="34.05897" lon="77.18107">
        <ele>3859.4</ele>
        <time>2015-08-31T07:39:41Z</time>
      </trkpt>
      <trkpt lat="34.05895" lon="77.18109">
        <ele>3859.4</ele>
        <time>2015-08-31T07:39:43Z</time>
      </trkpt>
      <trkpt lat="34.05902" lon="77.18112">
        <ele>3859.4</ele>
        <time>2015-08-31T07:39:50Z</time>
      </trkpt>
      <trkpt lat="34.05901" lon="77.18105">
        <ele>3859.2</ele>
        <time>2015-08-31T07:40:21Z</time>
      </trkpt>
      <trkpt lat="34.05902" lon="77.18104">
        <ele>3859.4</ele>
        <time>2015-08-31T07:41:00Z</time>
      </trkpt>
      <trkpt lat="34.05903" lon="77.1811">
        <ele>3860.4</ele>
        <time>2015-08-31T07:41:26Z</time>
      </trkpt>
      <trkpt lat="34.05901" lon="77.18107">
        <ele>3860.4</ele>
        <time>2015-08-31T07:41:30Z</time>
      </trkpt>
      <trkpt lat="34.05901" lon="77.18107">
        <ele>3860.4</ele>
        <time>2015-08-31T07:41:31Z</time>
      </trkpt>
      <trkpt lat="34.05899" lon="77.18102">
        <ele>3860.2</ele>
        <time>2015-08-31T07:41:34Z</time>
      </trkpt>
      <trkpt lat="34.05897" lon="77.18101">
        <ele>3860.4</ele>
        <time>2015-08-31T07:41:43Z</time>
      </trkpt>
      <trkpt lat="34.05904" lon="77.18102">
        <ele>3860</ele>
        <time>2015-08-31T07:42:09Z</time>
      </trkpt>
      <trkpt lat="34.05899" lon="77.18107">
        <ele>3859.8</ele>
        <time>2015-08-31T07:42:22Z</time>
      </trkpt>
      <trkpt lat="34.05904" lon="77.18106">
        <ele>3860.6</ele>
        <time>2015-08-31T07:42:49Z</time>
      </trkpt>
      <trkpt lat="34.05898" lon="77.18108">
        <ele>3859.6</ele>
        <time>2015-08-31T07:43:20Z</time>
      </trkpt>
      <trkpt lat="34.05899" lon="77.18108">
        <ele>3859.2</ele>
        <time>2015-08-31T07:43:22Z</time>
      </trkpt>
      <trkpt lat="34.05902" lon="77.18107">
        <ele>3859</ele>
        <time>2015-08-31T07:43:26Z</time>
      </trkpt>
      <trkpt lat="34.05903" lon="77.18103">
        <ele>3858</ele>
        <time>2015-08-31T07:43:33Z</time>
      </trkpt>
      <trkpt lat="34.05907" lon="77.18105">
        <ele>3857.2</ele>
        <time>2015-08-31T07:43:38Z</time>
      </trkpt>
      <trkpt lat="34.05908" lon="77.18107">
        <ele>3857</ele>
        <time>2015-08-31T07:43:42Z</time>
      </trkpt>
      <trkpt lat="34.0591" lon="77.18112">
        <ele>3856</ele>
        <time>2015-08-31T07:43:49Z</time>
      </trkpt>
      <trkpt lat="34.05911" lon="77.18114">
        <ele>3855</ele>
        <time>2015-08-31T07:43:52Z</time>
      </trkpt>
      <trkpt lat="34.05911" lon="77.18115">
        <ele>3854.8</ele>
        <time>2015-08-31T07:43:53Z</time>
      </trkpt>
      <trkpt lat="34.05919" lon="77.18122">
        <ele>3853.8</ele>
        <time>2015-08-31T07:43:58Z</time>
      </trkpt>
      <trkpt lat="34.05922" lon="77.18124">
        <ele>3852.8</ele>
        <time>2015-08-31T07:44:03Z</time>
      </trkpt>
      <trkpt lat="34.05923" lon="77.18123">
        <ele>3852.8</ele>
        <time>2015-08-31T07:44:04Z</time>
      </trkpt>
      <trkpt lat="34.05925" lon="77.18118">
        <ele>3851.6</ele>
        <time>2015-08-31T07:44:21Z</time>
      </trkpt>
      <trkpt lat="34.05924" lon="77.18118">
        <ele>3851.4</ele>
        <time>2015-08-31T07:44:22Z</time>
      </trkpt>
      <trkpt lat="34.05921" lon="77.18119">
        <ele>3850.4</ele>
        <time>2015-08-31T07:44:26Z</time>
      </trkpt>
      <trkpt lat="34.05919" lon="77.18125">
        <ele>3849.4</ele>
        <time>2015-08-31T07:44:39Z</time>
      </trkpt>
      <trkpt lat="34.0592" lon="77.18128">
        <ele>3848.4</ele>
        <time>2015-08-31T07:44:44Z</time>
      </trkpt>
      <trkpt lat="34.05922" lon="77.18132">
        <ele>3847.2</ele>
        <time>2015-08-31T07:44:49Z</time>
      </trkpt>
      <trkpt lat="34.05925" lon="77.18133">
        <ele>3846.2</ele>
        <time>2015-08-31T07:44:52Z</time>
      </trkpt>
      <trkpt lat="34.05925" lon="77.18133">
        <ele>3846</ele>
        <time>2015-08-31T07:44:53Z</time>
      </trkpt>
      <trkpt lat="34.05924" lon="77.18133">
        <ele>3845.2</ele>
        <time>2015-08-31T07:44:55Z</time>
      </trkpt>
      <trkpt lat="34.05921" lon="77.18132">
        <ele>3844</ele>
        <time>2015-08-31T07:44:59Z</time>
      </trkpt>
      <trkpt lat="34.05919" lon="77.18129">
        <ele>3842.8</ele>
        <time>2015-08-31T07:45:03Z</time>
      </trkpt>
      <trkpt lat="34.05918" lon="77.1813">
        <ele>3841.8</ele>
        <time>2015-08-31T07:45:08Z</time>
      </trkpt>
      <trkpt lat="34.05915" lon="77.18133">
        <ele>3840.6</ele>
        <time>2015-08-31T07:45:12Z</time>
      </trkpt>
      <trkpt lat="34.05913" lon="77.18137">
        <ele>3839.6</ele>
        <time>2015-08-31T07:45:17Z</time>
      </trkpt>
      <trkpt lat="34.05911" lon="77.18142">
        <ele>3838.6</ele>
        <time>2015-08-31T07:45:26Z</time>
      </trkpt>
      <trkpt lat="34.05914" lon="77.18146">
        <ele>3837.4</ele>
        <time>2015-08-31T07:45:31Z</time>
      </trkpt>
      <trkpt lat="34.05917" lon="77.18146">
        <ele>3837</ele>
        <time>2015-08-31T07:45:33Z</time>
      </trkpt>
      <trkpt lat="34.05917" lon="77.18144">
        <ele>3836.2</ele>
        <time>2015-08-31T07:45:36Z</time>
      </trkpt>
      <trkpt lat="34.05916" lon="77.18141">
        <ele>3835.2</ele>
        <time>2015-08-31T07:45:41Z</time>
      </trkpt>
      <trkpt lat="34.05916" lon="77.18141">
        <ele>3834.2</ele>
        <time>2015-08-31T07:45:52Z</time>
      </trkpt>
      <trkpt lat="34.05914" lon="77.18136">
        <ele>3833.8</ele>
        <time>2015-08-31T07:46:01Z</time>
      </trkpt>
      <trkpt lat="34.05911" lon="77.18138">
        <ele>3833.4</ele>
        <time>2015-08-31T07:46:03Z</time>
      </trkpt>
      <trkpt lat="34.05911" lon="77.18139">
        <ele>3833.2</ele>
        <time>2015-08-31T07:46:05Z</time>
      </trkpt>
      <trkpt lat="34.0591" lon="77.1814">
        <ele>3833</ele>
        <time>2015-08-31T07:46:06Z</time>
      </trkpt>
      <trkpt lat="34.05908" lon="77.1814">
        <ele>3831.8</ele>
        <time>2015-08-31T07:46:11Z</time>
      </trkpt>
      <trkpt lat="34.05906" lon="77.1814">
        <ele>3830.8</ele>
        <time>2015-08-31T07:46:14Z</time>
      </trkpt>
      <trkpt lat="34.05906" lon="77.18135">
        <ele>3829.8</ele>
        <time>2015-08-31T07:46:22Z</time>
      </trkpt>
      <trkpt lat="34.05904" lon="77.18136">
        <ele>3829.6</ele>
        <time>2015-08-31T07:46:24Z</time>
      </trkpt>
      <trkpt lat="34.05903" lon="77.18137">
        <ele>3829.4</ele>
        <time>2015-08-31T07:46:25Z</time>
      </trkpt>
      <trkpt lat="34.059" lon="77.18141">
        <ele>3828.4</ele>
        <time>2015-08-31T07:46:28Z</time>
      </trkpt>
      <trkpt lat="34.05893" lon="77.18149">
        <ele>3827.4</ele>
        <time>2015-08-31T07:46:33Z</time>
      </trkpt>
      <trkpt lat="34.05891" lon="77.18154">
        <ele>3827</ele>
        <time>2015-08-31T07:46:35Z</time>
      </trkpt>
      <trkpt lat="34.0589" lon="77.18162">
        <ele>3826.2</ele>
        <time>2015-08-31T07:46:40Z</time>
      </trkpt>
      <trkpt lat="34.05886" lon="77.18166">
        <ele>3825</ele>
        <time>2015-08-31T07:46:43Z</time>
      </trkpt>
      <trkpt lat="34.05882" lon="77.18169">
        <ele>3824</ele>
        <time>2015-08-31T07:46:46Z</time>
      </trkpt>
      <trkpt lat="34.05879" lon="77.18172">
        <ele>3822.8</ele>
        <time>2015-08-31T07:46:51Z</time>
      </trkpt>
      <trkpt lat="34.05876" lon="77.18173">
        <ele>3821.6</ele>
        <time>2015-08-31T07:46:54Z</time>
      </trkpt>
      <trkpt lat="34.05872" lon="77.18177">
        <ele>3820.4</ele>
        <time>2015-08-31T07:46:58Z</time>
      </trkpt>
      <trkpt lat="34.05866" lon="77.18176">
        <ele>3819.8</ele>
        <time>2015-08-31T07:47:01Z</time>
      </trkpt>
      <trkpt lat="34.05864" lon="77.18175">
        <ele>3819.2</ele>
        <time>2015-08-31T07:47:03Z</time>
      </trkpt>
      <trkpt lat="34.05864" lon="77.18177">
        <ele>3819</ele>
        <time>2015-08-31T07:47:04Z</time>
      </trkpt>
      <trkpt lat="34.05868" lon="77.18179">
        <ele>3818.6</ele>
        <time>2015-08-31T07:47:06Z</time>
      </trkpt>
      <trkpt lat="34.05869" lon="77.18181">
        <ele>3818</ele>
        <time>2015-08-31T07:47:08Z</time>
      </trkpt>
      <trkpt lat="34.05869" lon="77.18182">
        <ele>3817.4</ele>
        <time>2015-08-31T07:47:10Z</time>
      </trkpt>
      <trkpt lat="34.05867" lon="77.18184">
        <ele>3816.8</ele>
        <time>2015-08-31T07:47:13Z</time>
      </trkpt>
      <trkpt lat="34.05863" lon="77.18187">
        <ele>3815.6</ele>
        <time>2015-08-31T07:47:19Z</time>
      </trkpt>
      <trkpt lat="34.0586" lon="77.18188">
        <ele>3814.4</ele>
        <time>2015-08-31T07:47:23Z</time>
      </trkpt>
      <trkpt lat="34.05856" lon="77.18191">
        <ele>3813.4</ele>
        <time>2015-08-31T07:47:28Z</time>
      </trkpt>
      <trkpt lat="34.05851" lon="77.18191">
        <ele>3812.2</ele>
        <time>2015-08-31T07:47:34Z</time>
      </trkpt>
      <trkpt lat="34.05851" lon="77.18186">
        <ele>3811.2</ele>
        <time>2015-08-31T07:47:39Z</time>
      </trkpt>
      <trkpt lat="34.05851" lon="77.18184">
        <ele>3810.8</ele>
        <time>2015-08-31T07:47:41Z</time>
      </trkpt>
      <trkpt lat="34.05851" lon="77.18183">
        <ele>3810.4</ele>
        <time>2015-08-31T07:47:43Z</time>
      </trkpt>
      <trkpt lat="34.0585" lon="77.18183">
        <ele>3810.4</ele>
        <time>2015-08-31T07:47:45Z</time>
      </trkpt>
      <trkpt lat="34.0585" lon="77.18182">
        <ele>3810.2</ele>
        <time>2015-08-31T07:47:46Z</time>
      </trkpt>
      <trkpt lat="34.05844" lon="77.18187">
        <ele>3809</ele>
        <time>2015-08-31T07:47:51Z</time>
      </trkpt>
      <trkpt lat="34.05842" lon="77.18192">
        <ele>3808.4</ele>
        <time>2015-08-31T07:47:53Z</time>
      </trkpt>
      <trkpt lat="34.05841" lon="77.18193">
        <ele>3808</ele>
        <time>2015-08-31T07:47:54Z</time>
      </trkpt>
      <trkpt lat="34.05834" lon="77.18195">
        <ele>3807</ele>
        <time>2015-08-31T07:47:59Z</time>
      </trkpt>
      <trkpt lat="34.05828" lon="77.18197">
        <ele>3805.8</ele>
        <time>2015-08-31T07:48:08Z</time>
      </trkpt>
      <trkpt lat="34.05826" lon="77.18197">
        <ele>3804.8</ele>
        <time>2015-08-31T07:48:13Z</time>
      </trkpt>
      <trkpt lat="34.05822" lon="77.18198">
        <ele>3803.8</ele>
        <time>2015-08-31T07:48:18Z</time>
      </trkpt>
      <trkpt lat="34.05819" lon="77.18199">
        <ele>3802.6</ele>
        <time>2015-08-31T07:48:22Z</time>
      </trkpt>
      <trkpt lat="34.05814" lon="77.18203">
        <ele>3801.4</ele>
        <time>2015-08-31T07:48:28Z</time>
      </trkpt>
      <trkpt lat="34.05812" lon="77.18204">
        <ele>3800.6</ele>
        <time>2015-08-31T07:48:31Z</time>
      </trkpt>
      <trkpt lat="34.05812" lon="77.18204">
        <ele>3800.4</ele>
        <time>2015-08-31T07:48:32Z</time>
      </trkpt>
      <trkpt lat="34.05807" lon="77.1821">
        <ele>3799.4</ele>
        <time>2015-08-31T07:48:47Z</time>
      </trkpt>
      <trkpt lat="34.05806" lon="77.1821">
        <ele>3798.8</ele>
        <time>2015-08-31T07:48:50Z</time>
      </trkpt>
      <trkpt lat="34.05803" lon="77.18211">
        <ele>3798.2</ele>
        <time>2015-08-31T07:48:53Z</time>
      </trkpt>
      <trkpt lat="34.05801" lon="77.18209">
        <ele>3797.4</ele>
        <time>2015-08-31T07:48:56Z</time>
      </trkpt>
      <trkpt lat="34.05796" lon="77.18207">
        <ele>3797.2</ele>
        <time>2015-08-31T07:49:01Z</time>
      </trkpt>
      <trkpt lat="34.05786" lon="77.18225">
        <ele>3797.8</ele>
        <time>2015-08-31T07:49:12Z</time>
      </trkpt>
      <trkpt lat="34.05786" lon="77.18226">
        <ele>3797.6</ele>
        <time>2015-08-31T07:49:14Z</time>
      </trkpt>
      <trkpt lat="34.05786" lon="77.18226">
        <ele>3797.2</ele>
        <time>2015-08-31T07:49:15Z</time>
      </trkpt>
      <trkpt lat="34.05784" lon="77.18225">
        <ele>3795.6</ele>
        <time>2015-08-31T07:49:17Z</time>
      </trkpt>
      <trkpt lat="34.05783" lon="77.18224">
        <ele>3794.6</ele>
        <time>2015-08-31T07:49:18Z</time>
      </trkpt>
      <trkpt lat="34.05782" lon="77.18224">
        <ele>3793.4</ele>
        <time>2015-08-31T07:49:19Z</time>
      </trkpt>
      <trkpt lat="34.05782" lon="77.18222">
        <ele>3792.4</ele>
        <time>2015-08-31T07:49:21Z</time>
      </trkpt>
      <trkpt lat="34.05781" lon="77.18223">
        <ele>3792.2</ele>
        <time>2015-08-31T07:49:22Z</time>
      </trkpt>
      <trkpt lat="34.05775" lon="77.18227">
        <ele>3790.8</ele>
        <time>2015-08-31T07:49:33Z</time>
      </trkpt>
      <trkpt lat="34.05774" lon="77.18231">
        <ele>3790.2</ele>
        <time>2015-08-31T07:49:36Z</time>
      </trkpt>
      <trkpt lat="34.05773" lon="77.1823">
        <ele>3789.8</ele>
        <time>2015-08-31T07:49:37Z</time>
      </trkpt>
      <trkpt lat="34.05773" lon="77.18229">
        <ele>3789</ele>
        <time>2015-08-31T07:49:38Z</time>
      </trkpt>
      <trkpt lat="34.05772" lon="77.18228">
        <ele>3788.2</ele>
        <time>2015-08-31T07:49:39Z</time>
      </trkpt>
      <trkpt lat="34.05771" lon="77.18227">
        <ele>3787</ele>
        <time>2015-08-31T07:49:41Z</time>
      </trkpt>
      <trkpt lat="34.05759" lon="77.18219">
        <ele>3786</ele>
        <time>2015-08-31T07:49:55Z</time>
      </trkpt>
      <trkpt lat="34.05756" lon="77.18215">
        <ele>3784.6</ele>
        <time>2015-08-31T07:49:59Z</time>
      </trkpt>
      <trkpt lat="34.0575" lon="77.1821">
        <ele>3783.2</ele>
        <time>2015-08-31T07:50:05Z</time>
      </trkpt>
      <trkpt lat="34.05749" lon="77.1821">
        <ele>3782.8</ele>
        <time>2015-08-31T07:50:07Z</time>
      </trkpt>
      <trkpt lat="34.05746" lon="77.18217">
        <ele>3782.2</ele>
        <time>2015-08-31T07:50:11Z</time>
      </trkpt>
      <trkpt lat="34.05744" lon="77.18219">
        <ele>3782.2</ele>
        <time>2015-08-31T07:50:12Z</time>
      </trkpt>
      <trkpt lat="34.05734" lon="77.18232">
        <ele>3780.8</ele>
        <time>2015-08-31T07:50:20Z</time>
      </trkpt>
      <trkpt lat="34.05732" lon="77.18236">
        <ele>3779.8</ele>
        <time>2015-08-31T07:50:23Z</time>
      </trkpt>
      <trkpt lat="34.05731" lon="77.18237">
        <ele>3778.8</ele>
        <time>2015-08-31T07:50:25Z</time>
      </trkpt>
      <trkpt lat="34.0573" lon="77.18238">
        <ele>3778.6</ele>
        <time>2015-08-31T07:50:26Z</time>
      </trkpt>
      <trkpt lat="34.05728" lon="77.18239">
        <ele>3778.2</ele>
        <time>2015-08-31T07:50:28Z</time>
      </trkpt>
      <trkpt lat="34.05726" lon="77.18241">
        <ele>3778</ele>
        <time>2015-08-31T07:50:30Z</time>
      </trkpt>
      <trkpt lat="34.05725" lon="77.18244">
        <ele>3777.6</ele>
        <time>2015-08-31T07:50:34Z</time>
      </trkpt>
      <trkpt lat="34.05724" lon="77.1825">
        <ele>3776.4</ele>
        <time>2015-08-31T07:50:38Z</time>
      </trkpt>
      <trkpt lat="34.05722" lon="77.18252">
        <ele>3775.8</ele>
        <time>2015-08-31T07:50:41Z</time>
      </trkpt>
      <trkpt lat="34.05722" lon="77.18252">
        <ele>3775.2</ele>
        <time>2015-08-31T07:50:43Z</time>
      </trkpt>
      <trkpt lat="34.05721" lon="77.18251">
        <ele>3775</ele>
        <time>2015-08-31T07:50:44Z</time>
      </trkpt>
      <trkpt lat="34.05719" lon="77.18251">
        <ele>3774.6</ele>
        <time>2015-08-31T07:50:46Z</time>
      </trkpt>
      <trkpt lat="34.05715" lon="77.18255">
        <ele>3774.2</ele>
        <time>2015-08-31T07:50:53Z</time>
      </trkpt>
      <trkpt lat="34.05715" lon="77.18257">
        <ele>3774</ele>
        <time>2015-08-31T07:50:54Z</time>
      </trkpt>
      <trkpt lat="34.05716" lon="77.1826">
        <ele>3773.4</ele>
        <time>2015-08-31T07:50:57Z</time>
      </trkpt>
      <trkpt lat="34.05716" lon="77.1826">
        <ele>3772.8</ele>
        <time>2015-08-31T07:50:59Z</time>
      </trkpt>
      <trkpt lat="34.05715" lon="77.18263">
        <ele>3771.8</ele>
        <time>2015-08-31T07:51:03Z</time>
      </trkpt>
      <trkpt lat="34.05714" lon="77.18268">
        <ele>3770.4</ele>
        <time>2015-08-31T07:51:07Z</time>
      </trkpt>
      <trkpt lat="34.05713" lon="77.18271">
        <ele>3769.6</ele>
        <time>2015-08-31T07:51:10Z</time>
      </trkpt>
      <trkpt lat="34.05713" lon="77.18271">
        <ele>3769.4</ele>
        <time>2015-08-31T07:51:11Z</time>
      </trkpt>
      <trkpt lat="34.0571" lon="77.18271">
        <ele>3767.8</ele>
        <time>2015-08-31T07:51:19Z</time>
      </trkpt>
      <trkpt lat="34.05702" lon="77.18281">
        <ele>3766.6</ele>
        <time>2015-08-31T07:51:31Z</time>
      </trkpt>
      <trkpt lat="34.05701" lon="77.18285">
        <ele>3766.2</ele>
        <time>2015-08-31T07:51:34Z</time>
      </trkpt>
      <trkpt lat="34.05699" lon="77.18287">
        <ele>3766.2</ele>
        <time>2015-08-31T07:51:37Z</time>
      </trkpt>
      <trkpt lat="34.05696" lon="77.18289">
        <ele>3765.6</ele>
        <time>2015-08-31T07:51:40Z</time>
      </trkpt>
      <trkpt lat="34.05692" lon="77.18293">
        <ele>3764.4</ele>
        <time>2015-08-31T07:51:47Z</time>
      </trkpt>
      <trkpt lat="34.05685" lon="77.18298">
        <ele>3763.4</ele>
        <time>2015-08-31T07:51:55Z</time>
      </trkpt>
      <trkpt lat="34.05677" lon="77.18308">
        <ele>3762.4</ele>
        <time>2015-08-31T07:52:03Z</time>
      </trkpt>
      <trkpt lat="34.05676" lon="77.18308">
        <ele>3762.4</ele>
        <time>2015-08-31T07:52:04Z</time>
      </trkpt>
      <trkpt lat="34.05671" lon="77.18312">
        <ele>3761.8</ele>
        <time>2015-08-31T07:52:09Z</time>
      </trkpt>
      <trkpt lat="34.05671" lon="77.18316">
        <ele>3761.2</ele>
        <time>2015-08-31T07:52:13Z</time>
      </trkpt>
      <trkpt lat="34.05668" lon="77.18318">
        <ele>3761</ele>
        <time>2015-08-31T07:52:15Z</time>
      </trkpt>
      <trkpt lat="34.05664" lon="77.18319">
        <ele>3760.6</ele>
        <time>2015-08-31T07:52:17Z</time>
      </trkpt>
      <trkpt lat="34.05664" lon="77.18321">
        <ele>3760</ele>
        <time>2015-08-31T07:52:19Z</time>
      </trkpt>
      <trkpt lat="34.05664" lon="77.18322">
        <ele>3759.8</ele>
        <time>2015-08-31T07:52:21Z</time>
      </trkpt>
      <trkpt lat="34.05662" lon="77.18328">
        <ele>3759</ele>
        <time>2015-08-31T07:52:28Z</time>
      </trkpt>
      <trkpt lat="34.0566" lon="77.18329">
        <ele>3758.8</ele>
        <time>2015-08-31T07:52:29Z</time>
      </trkpt>
      <trkpt lat="34.05657" lon="77.1833">
        <ele>3758</ele>
        <time>2015-08-31T07:52:32Z</time>
      </trkpt>
      <trkpt lat="34.05656" lon="77.1833">
        <ele>3757.8</ele>
        <time>2015-08-31T07:52:33Z</time>
      </trkpt>
      <trkpt lat="34.05653" lon="77.18331">
        <ele>3757.2</ele>
        <time>2015-08-31T07:52:37Z</time>
      </trkpt>
      <trkpt lat="34.05651" lon="77.18331">
        <ele>3757</ele>
        <time>2015-08-31T07:52:39Z</time>
      </trkpt>
      <trkpt lat="34.05649" lon="77.18335">
        <ele>3756.8</ele>
        <time>2015-08-31T07:52:42Z</time>
      </trkpt>
      <trkpt lat="34.0565" lon="77.18336">
        <ele>3755.6</ele>
        <time>2015-08-31T07:52:48Z</time>
      </trkpt>
      <trkpt lat="34.05648" lon="77.18338">
        <ele>3754.4</ele>
        <time>2015-08-31T07:52:53Z</time>
      </trkpt>
      <trkpt lat="34.05645" lon="77.18342">
        <ele>3753.6</ele>
        <time>2015-08-31T07:52:57Z</time>
      </trkpt>
      <trkpt lat="34.05643" lon="77.18344">
        <ele>3753.2</ele>
        <time>2015-08-31T07:52:59Z</time>
      </trkpt>
      <trkpt lat="34.0564" lon="77.18347">
        <ele>3752.2</ele>
        <time>2015-08-31T07:53:05Z</time>
      </trkpt>
      <trkpt lat="34.05638" lon="77.18348">
        <ele>3751.2</ele>
        <time>2015-08-31T07:53:09Z</time>
      </trkpt>
      <trkpt lat="34.05632" lon="77.18347">
        <ele>3749.8</ele>
        <time>2015-08-31T07:53:14Z</time>
      </trkpt>
      <trkpt lat="34.05631" lon="77.18347">
        <ele>3749.4</ele>
        <time>2015-08-31T07:53:15Z</time>
      </trkpt>
      <trkpt lat="34.05629" lon="77.18347">
        <ele>3748.8</ele>
        <time>2015-08-31T07:53:17Z</time>
      </trkpt>
      <trkpt lat="34.05627" lon="77.1835">
        <ele>3748.8</ele>
        <time>2015-08-31T07:53:18Z</time>
      </trkpt>
      <trkpt lat="34.05623" lon="77.18351">
        <ele>3748.6</ele>
        <time>2015-08-31T07:53:22Z</time>
      </trkpt>
      <trkpt lat="34.05621" lon="77.1835">
        <ele>3747</ele>
        <time>2015-08-31T07:53:29Z</time>
      </trkpt>
      <trkpt lat="34.05619" lon="77.18347">
        <ele>3745.6</ele>
        <time>2015-08-31T07:53:32Z</time>
      </trkpt>
      <trkpt lat="34.05618" lon="77.18346">
        <ele>3745</ele>
        <time>2015-08-31T07:53:33Z</time>
      </trkpt>
      <trkpt lat="34.05611" lon="77.18352">
        <ele>3745.2</ele>
        <time>2015-08-31T07:53:40Z</time>
      </trkpt>
      <trkpt lat="34.05608" lon="77.18357">
        <ele>3745.2</ele>
        <time>2015-08-31T07:53:45Z</time>
      </trkpt>
      <trkpt lat="34.05606" lon="77.18357">
        <ele>3744</ele>
        <time>2015-08-31T07:53:47Z</time>
      </trkpt>
      <trkpt lat="34.05603" lon="77.18357">
        <ele>3742.8</ele>
        <time>2015-08-31T07:53:50Z</time>
      </trkpt>
      <trkpt lat="34.05596" lon="77.18358">
        <ele>3741.8</ele>
        <time>2015-08-31T07:53:56Z</time>
      </trkpt>
      <trkpt lat="34.05594" lon="77.18362">
        <ele>3741.6</ele>
        <time>2015-08-31T07:53:59Z</time>
      </trkpt>
      <trkpt lat="34.05591" lon="77.18373">
        <ele>3740.8</ele>
        <time>2015-08-31T07:54:05Z</time>
      </trkpt>
      <trkpt lat="34.0559" lon="77.18373">
        <ele>3740.4</ele>
        <time>2015-08-31T07:54:06Z</time>
      </trkpt>
      <trkpt lat="34.05589" lon="77.18375">
        <ele>3739.2</ele>
        <time>2015-08-31T07:54:08Z</time>
      </trkpt>
      <trkpt lat="34.05587" lon="77.18376">
        <ele>3738</ele>
        <time>2015-08-31T07:54:11Z</time>
      </trkpt>
      <trkpt lat="34.05584" lon="77.18379">
        <ele>3736.8</ele>
        <time>2015-08-31T07:54:16Z</time>
      </trkpt>
      <trkpt lat="34.05582" lon="77.18385">
        <ele>3735.6</ele>
        <time>2015-08-31T07:54:21Z</time>
      </trkpt>
      <trkpt lat="34.05582" lon="77.18386">
        <ele>3735.4</ele>
        <time>2015-08-31T07:54:23Z</time>
      </trkpt>
      <trkpt lat="34.05574" lon="77.1839">
        <ele>3734.4</ele>
        <time>2015-08-31T07:54:36Z</time>
      </trkpt>
      <trkpt lat="34.0557" lon="77.18392">
        <ele>3733.4</ele>
        <time>2015-08-31T07:54:41Z</time>
      </trkpt>
      <trkpt lat="34.0557" lon="77.18392">
        <ele>3733.4</ele>
        <time>2015-08-31T07:54:42Z</time>
      </trkpt>
      <trkpt lat="34.05567" lon="77.18395">
        <ele>3732.4</ele>
        <time>2015-08-31T07:54:56Z</time>
      </trkpt>
      <trkpt lat="34.05561" lon="77.18395">
        <ele>3732.4</ele>
        <time>2015-08-31T07:55:08Z</time>
      </trkpt>
      <trkpt lat="34.05556" lon="77.18394">
        <ele>3732</ele>
        <time>2015-08-31T07:55:14Z</time>
      </trkpt>
      <trkpt lat="34.0555" lon="77.18399">
        <ele>3731.6</ele>
        <time>2015-08-31T07:55:23Z</time>
      </trkpt>
      <trkpt lat="34.05548" lon="77.18405">
        <ele>3731.2</ele>
        <time>2015-08-31T07:55:26Z</time>
      </trkpt>
      <trkpt lat="34.05546" lon="77.18408">
        <ele>3730.6</ele>
        <time>2015-08-31T07:55:28Z</time>
      </trkpt>
      <trkpt lat="34.05545" lon="77.18411">
        <ele>3730.2</ele>
        <time>2015-08-31T07:55:30Z</time>
      </trkpt>
      <trkpt lat="34.05531" lon="77.18424">
        <ele>3729.6</ele>
        <time>2015-08-31T07:55:43Z</time>
      </trkpt>
      <trkpt lat="34.05529" lon="77.18423">
        <ele>3729.6</ele>
        <time>2015-08-31T07:55:46Z</time>
      </trkpt>
      <trkpt lat="34.05526" lon="77.18425">
        <ele>3729</ele>
        <time>2015-08-31T07:55:49Z</time>
      </trkpt>
      <trkpt lat="34.05525" lon="77.18426">
        <ele>3728.6</ele>
        <time>2015-08-31T07:55:50Z</time>
      </trkpt>
      <trkpt lat="34.05522" lon="77.18428">
        <ele>3727.8</ele>
        <time>2015-08-31T07:55:54Z</time>
      </trkpt>
      <trkpt lat="34.05516" lon="77.1843">
        <ele>3726.8</ele>
        <time>2015-08-31T07:56:02Z</time>
      </trkpt>
      <trkpt lat="34.05514" lon="77.18431">
        <ele>3725.8</ele>
        <time>2015-08-31T07:56:04Z</time>
      </trkpt>
      <trkpt lat="34.05512" lon="77.18433">
        <ele>3724.8</ele>
        <time>2015-08-31T07:56:07Z</time>
      </trkpt>
      <trkpt lat="34.05508" lon="77.18436">
        <ele>3723.8</ele>
        <time>2015-08-31T07:56:13Z</time>
      </trkpt>
      <trkpt lat="34.05507" lon="77.18439">
        <ele>3723.2</ele>
        <time>2015-08-31T07:56:15Z</time>
      </trkpt>
      <trkpt lat="34.05506" lon="77.1844">
        <ele>3722.8</ele>
        <time>2015-08-31T07:56:17Z</time>
      </trkpt>
      <trkpt lat="34.05504" lon="77.18443">
        <ele>3721.6</ele>
        <time>2015-08-31T07:56:22Z</time>
      </trkpt>
      <trkpt lat="34.055" lon="77.18442">
        <ele>3720.2</ele>
        <time>2015-08-31T07:56:26Z</time>
      </trkpt>
      <trkpt lat="34.05499" lon="77.18438">
        <ele>3719</ele>
        <time>2015-08-31T07:56:28Z</time>
      </trkpt>
      <trkpt lat="34.05493" lon="77.18445">
        <ele>3718.8</ele>
        <time>2015-08-31T07:56:36Z</time>
      </trkpt>
      <trkpt lat="34.05489" lon="77.18446">
        <ele>3717.6</ele>
        <time>2015-08-31T07:56:40Z</time>
      </trkpt>
      <trkpt lat="34.05485" lon="77.18448">
        <ele>3716.4</ele>
        <time>2015-08-31T07:56:45Z</time>
      </trkpt>
      <trkpt lat="34.05483" lon="77.18451">
        <ele>3715.2</ele>
        <time>2015-08-31T07:56:49Z</time>
      </trkpt>
      <trkpt lat="34.0548" lon="77.18449">
        <ele>3714</ele>
        <time>2015-08-31T07:56:55Z</time>
      </trkpt>
      <trkpt lat="34.05468" lon="77.18442">
        <ele>3713</ele>
        <time>2015-08-31T07:57:02Z</time>
      </trkpt>
      <trkpt lat="34.0546" lon="77.18442">
        <ele>3711.8</ele>
        <time>2015-08-31T07:57:07Z</time>
      </trkpt>
      <trkpt lat="34.05453" lon="77.18441">
        <ele>3710.8</ele>
        <time>2015-08-31T07:57:15Z</time>
      </trkpt>
      <trkpt lat="34.05449" lon="77.18451">
        <ele>3710</ele>
        <time>2015-08-31T07:57:23Z</time>
      </trkpt>
      <trkpt lat="34.0545" lon="77.18457">
        <ele>3709.8</ele>
        <time>2015-08-31T07:57:25Z</time>
      </trkpt>
      <trkpt lat="34.05447" lon="77.18464">
        <ele>3708.6</ele>
        <time>2015-08-31T07:57:31Z</time>
      </trkpt>
      <trkpt lat="34.05441" lon="77.18463">
        <ele>3707.6</ele>
        <time>2015-08-31T07:57:40Z</time>
      </trkpt>
      <trkpt lat="34.0544" lon="77.18473">
        <ele>3706.6</ele>
        <time>2015-08-31T07:57:49Z</time>
      </trkpt>
      <trkpt lat="34.05436" lon="77.18481">
        <ele>3705.6</ele>
        <time>2015-08-31T07:57:54Z</time>
      </trkpt>
      <trkpt lat="34.05435" lon="77.18482">
        <ele>3705.4</ele>
        <time>2015-08-31T07:57:55Z</time>
      </trkpt>
      <trkpt lat="34.05433" lon="77.18485">
        <ele>3704.8</ele>
        <time>2015-08-31T07:57:58Z</time>
      </trkpt>
      <trkpt lat="34.05432" lon="77.18484">
        <ele>3704.4</ele>
        <time>2015-08-31T07:58:00Z</time>
      </trkpt>
      <trkpt lat="34.0543" lon="77.18484">
        <ele>3703.2</ele>
        <time>2015-08-31T07:58:04Z</time>
      </trkpt>
      <trkpt lat="34.05428" lon="77.18485">
        <ele>3702.2</ele>
        <time>2015-08-31T07:58:08Z</time>
      </trkpt>
      <trkpt lat="34.05426" lon="77.18486">
        <ele>3701</ele>
        <time>2015-08-31T07:58:13Z</time>
      </trkpt>
      <trkpt lat="34.05423" lon="77.18486">
        <ele>3700</ele>
        <time>2015-08-31T07:58:20Z</time>
      </trkpt>
      <trkpt lat="34.0542" lon="77.18485">
        <ele>3699</ele>
        <time>2015-08-31T07:58:28Z</time>
      </trkpt>
      <trkpt lat="34.05417" lon="77.1849">
        <ele>3698.4</ele>
        <time>2015-08-31T07:58:31Z</time>
      </trkpt>
      <trkpt lat="34.05416" lon="77.18489">
        <ele>3697.8</ele>
        <time>2015-08-31T07:58:33Z</time>
      </trkpt>
      <trkpt lat="34.05414" lon="77.1849">
        <ele>3696.2</ele>
        <time>2015-08-31T07:58:35Z</time>
      </trkpt>
      <trkpt lat="34.05413" lon="77.1849">
        <ele>3695.2</ele>
        <time>2015-08-31T07:58:36Z</time>
      </trkpt>
      <trkpt lat="34.05411" lon="77.18487">
        <ele>3693.8</ele>
        <time>2015-08-31T07:58:38Z</time>
      </trkpt>
      <trkpt lat="34.05409" lon="77.18483">
        <ele>3692.8</ele>
        <time>2015-08-31T07:58:42Z</time>
      </trkpt>
      <trkpt lat="34.05411" lon="77.18484">
        <ele>3692.2</ele>
        <time>2015-08-31T07:58:47Z</time>
      </trkpt>
      <trkpt lat="34.05408" lon="77.18492">
        <ele>3692.2</ele>
        <time>2015-08-31T07:58:53Z</time>
      </trkpt>
      <trkpt lat="34.05403" lon="77.18495">
        <ele>3691.4</ele>
        <time>2015-08-31T07:58:57Z</time>
      </trkpt>
      <trkpt lat="34.054" lon="77.18496">
        <ele>3690.6</ele>
        <time>2015-08-31T07:59:00Z</time>
      </trkpt>
      <trkpt lat="34.054" lon="77.18497">
        <ele>3690.2</ele>
        <time>2015-08-31T07:59:01Z</time>
      </trkpt>
      <trkpt lat="34.054" lon="77.18498">
        <ele>3688.6</ele>
        <time>2015-08-31T07:59:03Z</time>
      </trkpt>
      <trkpt lat="34.05402" lon="77.18499">
        <ele>3687</ele>
        <time>2015-08-31T07:59:05Z</time>
      </trkpt>
      <trkpt lat="34.05403" lon="77.18502">
        <ele>3686.4</ele>
        <time>2015-08-31T07:59:07Z</time>
      </trkpt>
      <trkpt lat="34.054" lon="77.18489">
        <ele>3686</ele>
        <time>2015-08-31T07:59:29Z</time>
      </trkpt>
      <trkpt lat="34.05396" lon="77.18488">
        <ele>3685.8</ele>
        <time>2015-08-31T07:59:35Z</time>
      </trkpt>
      <trkpt lat="34.05395" lon="77.18488">
        <ele>3686</ele>
        <time>2015-08-31T07:59:37Z</time>
      </trkpt>
      <trkpt lat="34.05391" lon="77.18485">
        <ele>3684.6</ele>
        <time>2015-08-31T07:59:42Z</time>
      </trkpt>
      <trkpt lat="34.05391" lon="77.18485">
        <ele>3684.4</ele>
        <time>2015-08-31T07:59:43Z</time>
      </trkpt>
      <trkpt lat="34.05395" lon="77.18476">
        <ele>3684.4</ele>
        <time>2015-08-31T08:00:11Z</time>
      </trkpt>
      <trkpt lat="34.05396" lon="77.18476">
        <ele>3684.4</ele>
        <time>2015-08-31T08:00:13Z</time>
      </trkpt>
      <trkpt lat="34.05399" lon="77.18462">
        <ele>3684.6</ele>
        <time>2015-08-31T08:01:10Z</time>
      </trkpt>
      <trkpt lat="34.05397" lon="77.18472">
        <ele>3685</ele>
        <time>2015-08-31T08:01:33Z</time>
      </trkpt>
      <trkpt lat="34.05387" lon="77.1848">
        <ele>3684.2</ele>
        <time>2015-08-31T08:02:13Z</time>
      </trkpt>
      <trkpt lat="34.05386" lon="77.18478">
        <ele>3683.4</ele>
        <time>2015-08-31T08:02:16Z</time>
      </trkpt>
      <trkpt lat="34.05385" lon="77.18472">
        <ele>3682.4</ele>
        <time>2015-08-31T08:02:20Z</time>
      </trkpt>
      <trkpt lat="34.05385" lon="77.1847">
        <ele>3681.4</ele>
        <time>2015-08-31T08:02:24Z</time>
      </trkpt>
      <trkpt lat="34.05385" lon="77.1847">
        <ele>3681.2</ele>
        <time>2015-08-31T08:02:25Z</time>
      </trkpt>
      <trkpt lat="34.05382" lon="77.18476">
        <ele>3680.2</ele>
        <time>2015-08-31T08:02:36Z</time>
      </trkpt>
      <trkpt lat="34.05381" lon="77.18484">
        <ele>3679</ele>
        <time>2015-08-31T08:02:42Z</time>
      </trkpt>
      <trkpt lat="34.05381" lon="77.18486">
        <ele>3678.8</ele>
        <time>2015-08-31T08:02:44Z</time>
      </trkpt>
      <trkpt lat="34.0538" lon="77.18488">
        <ele>3678</ele>
        <time>2015-08-31T08:02:47Z</time>
      </trkpt>
      <trkpt lat="34.05383" lon="77.18478">
        <ele>3677.4</ele>
        <time>2015-08-31T08:03:00Z</time>
      </trkpt>
      <trkpt lat="34.05381" lon="77.1848">
        <ele>3677.4</ele>
        <time>2015-08-31T08:03:03Z</time>
      </trkpt>
      <trkpt lat="34.05379" lon="77.18481">
        <ele>3677.4</ele>
        <time>2015-08-31T08:03:05Z</time>
      </trkpt>
      <trkpt lat="34.05374" lon="77.18482">
        <ele>3677</ele>
        <time>2015-08-31T08:03:13Z</time>
      </trkpt>
      <trkpt lat="34.05369" lon="77.18482">
        <ele>3675.8</ele>
        <time>2015-08-31T08:03:19Z</time>
      </trkpt>
      <trkpt lat="34.05365" lon="77.18479">
        <ele>3675.2</ele>
        <time>2015-08-31T08:03:23Z</time>
      </trkpt>
      <trkpt lat="34.05364" lon="77.18482">
        <ele>3674.6</ele>
        <time>2015-08-31T08:03:26Z</time>
      </trkpt>
      <trkpt lat="34.05363" lon="77.18479">
        <ele>3673.8</ele>
        <time>2015-08-31T08:03:29Z</time>
      </trkpt>
      <trkpt lat="34.05361" lon="77.18477">
        <ele>3673.4</ele>
        <time>2015-08-31T08:03:31Z</time>
      </trkpt>
      <trkpt lat="34.05357" lon="77.18478">
        <ele>3672.2</ele>
        <time>2015-08-31T08:03:35Z</time>
      </trkpt>
      <trkpt lat="34.05352" lon="77.18477">
        <ele>3671</ele>
        <time>2015-08-31T08:03:39Z</time>
      </trkpt>
      <trkpt lat="34.05351" lon="77.18478">
        <ele>3670.6</ele>
        <time>2015-08-31T08:03:41Z</time>
      </trkpt>
      <trkpt lat="34.0535" lon="77.18479">
        <ele>3670</ele>
        <time>2015-08-31T08:03:43Z</time>
      </trkpt>
      <trkpt lat="34.05347" lon="77.1848">
        <ele>3668.8</ele>
        <time>2015-08-31T08:03:47Z</time>
      </trkpt>
      <trkpt lat="34.05343" lon="77.18479">
        <ele>3667.6</ele>
        <time>2015-08-31T08:03:51Z</time>
      </trkpt>
      <trkpt lat="34.0534" lon="77.1848">
        <ele>3666.4</ele>
        <time>2015-08-31T08:03:55Z</time>
      </trkpt>
      <trkpt lat="34.05336" lon="77.18476">
        <ele>3665.4</ele>
        <time>2015-08-31T08:03:59Z</time>
      </trkpt>
      <trkpt lat="34.05333" lon="77.18473">
        <ele>3664.2</ele>
        <time>2015-08-31T08:04:03Z</time>
      </trkpt>
      <trkpt lat="34.05332" lon="77.1847">
        <ele>3663</ele>
        <time>2015-08-31T08:04:07Z</time>
      </trkpt>
      <trkpt lat="34.05332" lon="77.18469">
        <ele>3662.8</ele>
        <time>2015-08-31T08:04:08Z</time>
      </trkpt>
      <trkpt lat="34.0533" lon="77.18469">
        <ele>3662</ele>
        <time>2015-08-31T08:04:11Z</time>
      </trkpt>
      <trkpt lat="34.05326" lon="77.18471">
        <ele>3660.8</ele>
        <time>2015-08-31T08:04:16Z</time>
      </trkpt>
      <trkpt lat="34.05321" lon="77.18476">
        <ele>3659.8</ele>
        <time>2015-08-31T08:04:20Z</time>
      </trkpt>
      <trkpt lat="34.05319" lon="77.18477">
        <ele>3659.4</ele>
        <time>2015-08-31T08:04:22Z</time>
      </trkpt>
      <trkpt lat="34.05316" lon="77.18478">
        <ele>3658.6</ele>
        <time>2015-08-31T08:04:25Z</time>
      </trkpt>
      <trkpt lat="34.05312" lon="77.18474">
        <ele>3657.4</ele>
        <time>2015-08-31T08:04:30Z</time>
      </trkpt>
      <trkpt lat="34.05311" lon="77.18473">
        <ele>3657.2</ele>
        <time>2015-08-31T08:04:31Z</time>
      </trkpt>
      <trkpt lat="34.05308" lon="77.18472">
        <ele>3656.4</ele>
        <time>2015-08-31T08:04:35Z</time>
      </trkpt>
      <trkpt lat="34.05305" lon="77.18473">
        <ele>3655.4</ele>
        <time>2015-08-31T08:04:39Z</time>
      </trkpt>
      <trkpt lat="34.05302" lon="77.18474">
        <ele>3654.4</ele>
        <time>2015-08-31T08:04:42Z</time>
      </trkpt>
      <trkpt lat="34.05299" lon="77.18476">
        <ele>3653.2</ele>
        <time>2015-08-31T08:04:46Z</time>
      </trkpt>
      <trkpt lat="34.05297" lon="77.18473">
        <ele>3652.4</ele>
        <time>2015-08-31T08:04:50Z</time>
      </trkpt>
      <trkpt lat="34.05296" lon="77.18473">
        <ele>3652</ele>
        <time>2015-08-31T08:04:51Z</time>
      </trkpt>
      <trkpt lat="34.05295" lon="77.18472">
        <ele>3651.8</ele>
        <time>2015-08-31T08:04:52Z</time>
      </trkpt>
      <trkpt lat="34.05292" lon="77.18469">
        <ele>3651</ele>
        <time>2015-08-31T08:04:55Z</time>
      </trkpt>
      <trkpt lat="34.05292" lon="77.18468">
        <ele>3649.8</ele>
        <time>2015-08-31T08:04:59Z</time>
      </trkpt>
      <trkpt lat="34.0529" lon="77.18467">
        <ele>3648.6</ele>
        <time>2015-08-31T08:05:04Z</time>
      </trkpt>
      <trkpt lat="34.05286" lon="77.18463">
        <ele>3647.6</ele>
        <time>2015-08-31T08:05:10Z</time>
      </trkpt>
      <trkpt lat="34.05282" lon="77.18459">
        <ele>3646.6</ele>
        <time>2015-08-31T08:05:13Z</time>
      </trkpt>
      <trkpt lat="34.05282" lon="77.18461">
        <ele>3646.2</ele>
        <time>2015-08-31T08:05:14Z</time>
      </trkpt>
      <trkpt lat="34.05278" lon="77.18462">
        <ele>3645</ele>
        <time>2015-08-31T08:05:18Z</time>
      </trkpt>
      <trkpt lat="34.05275" lon="77.18461">
        <ele>3643.8</ele>
        <time>2015-08-31T08:05:22Z</time>
      </trkpt>
      <trkpt lat="34.05272" lon="77.18464">
        <ele>3642.8</ele>
        <time>2015-08-31T08:05:27Z</time>
      </trkpt>
      <trkpt lat="34.05272" lon="77.18466">
        <ele>3642.6</ele>
        <time>2015-08-31T08:05:28Z</time>
      </trkpt>
      <trkpt lat="34.05268" lon="77.18474">
        <ele>3641.8</ele>
        <time>2015-08-31T08:05:32Z</time>
      </trkpt>
      <trkpt lat="34.05268" lon="77.18475">
        <ele>3641.6</ele>
        <time>2015-08-31T08:05:33Z</time>
      </trkpt>
      <trkpt lat="34.05266" lon="77.18479">
        <ele>3641</ele>
        <time>2015-08-31T08:05:36Z</time>
      </trkpt>
      <trkpt lat="34.05262" lon="77.18486">
        <ele>3640.8</ele>
        <time>2015-08-31T08:05:40Z</time>
      </trkpt>
      <trkpt lat="34.05261" lon="77.18488">
        <ele>3640.6</ele>
        <time>2015-08-31T08:05:42Z</time>
      </trkpt>
      <trkpt lat="34.05257" lon="77.18493">
        <ele>3640.2</ele>
        <time>2015-08-31T08:05:47Z</time>
      </trkpt>
      <trkpt lat="34.05248" lon="77.18489">
        <ele>3639.6</ele>
        <time>2015-08-31T08:05:55Z</time>
      </trkpt>
      <trkpt lat="34.05246" lon="77.18489">
        <ele>3638.8</ele>
        <time>2015-08-31T08:05:58Z</time>
      </trkpt>
      <trkpt lat="34.05245" lon="77.18489">
        <ele>3638.6</ele>
        <time>2015-08-31T08:05:59Z</time>
      </trkpt>
      <trkpt lat="34.05244" lon="77.18489">
        <ele>3638.2</ele>
        <time>2015-08-31T08:06:01Z</time>
      </trkpt>
      <trkpt lat="34.05242" lon="77.18489">
        <ele>3637.8</ele>
        <time>2015-08-31T08:06:03Z</time>
      </trkpt>
      <trkpt lat="34.0524" lon="77.18489">
        <ele>3637.4</ele>
        <time>2015-08-31T08:06:05Z</time>
      </trkpt>
      <trkpt lat="34.05239" lon="77.18489">
        <ele>3637.4</ele>
        <time>2015-08-31T08:06:06Z</time>
      </trkpt>
      <trkpt lat="34.05234" lon="77.18488">
        <ele>3636.6</ele>
        <time>2015-08-31T08:06:11Z</time>
      </trkpt>
      <trkpt lat="34.05233" lon="77.18488">
        <ele>3636.4</ele>
        <time>2015-08-31T08:06:12Z</time>
      </trkpt>
      <trkpt lat="34.0523" lon="77.18484">
        <ele>3635.4</ele>
        <time>2015-08-31T08:06:19Z</time>
      </trkpt>
      <trkpt lat="34.05228" lon="77.18485">
        <ele>3634.8</ele>
        <time>2015-08-31T08:06:22Z</time>
      </trkpt>
      <trkpt lat="34.05226" lon="77.18485">
        <ele>3634.2</ele>
        <time>2015-08-31T08:06:25Z</time>
      </trkpt>
      <trkpt lat="34.0522" lon="77.18487">
        <ele>3633.4</ele>
        <time>2015-08-31T08:06:37Z</time>
      </trkpt>
      <trkpt lat="34.05219" lon="77.18487">
        <ele>3633.2</ele>
        <time>2015-08-31T08:06:39Z</time>
      </trkpt>
      <trkpt lat="34.05218" lon="77.18486">
        <ele>3633</ele>
        <time>2015-08-31T08:06:40Z</time>
      </trkpt>
      <trkpt lat="34.05215" lon="77.18481">
        <ele>3632.4</ele>
        <time>2015-08-31T08:06:45Z</time>
      </trkpt>
      <trkpt lat="34.05212" lon="77.18477">
        <ele>3631.8</ele>
        <time>2015-08-31T08:06:48Z</time>
      </trkpt>
      <trkpt lat="34.05211" lon="77.18478">
        <ele>3631.4</ele>
        <time>2015-08-31T08:06:50Z</time>
      </trkpt>
      <trkpt lat="34.05211" lon="77.18479">
        <ele>3630.8</ele>
        <time>2015-08-31T08:06:52Z</time>
      </trkpt>
      <trkpt lat="34.05204" lon="77.18483">
        <ele>3630.4</ele>
        <time>2015-08-31T08:07:03Z</time>
      </trkpt>
      <trkpt lat="34.05204" lon="77.18479">
        <ele>3629.6</ele>
        <time>2015-08-31T08:07:05Z</time>
      </trkpt>
      <trkpt lat="34.05203" lon="77.18477">
        <ele>3628.6</ele>
        <time>2015-08-31T08:07:08Z</time>
      </trkpt>
      <trkpt lat="34.05205" lon="77.1847">
        <ele>3627.4</ele>
        <time>2015-08-31T08:07:18Z</time>
      </trkpt>
      <trkpt lat="34.05209" lon="77.18472">
        <ele>3626.4</ele>
        <time>2015-08-31T08:07:21Z</time>
      </trkpt>
      <trkpt lat="34.05213" lon="77.18473">
        <ele>3625.6</ele>
        <time>2015-08-31T08:07:27Z</time>
      </trkpt>
      <trkpt lat="34.05212" lon="77.18471">
        <ele>3625.2</ele>
        <time>2015-08-31T08:07:33Z</time>
      </trkpt>
      <trkpt lat="34.05217" lon="77.18466">
        <ele>3624.4</ele>
        <time>2015-08-31T08:07:40Z</time>
      </trkpt>
      <trkpt lat="34.05217" lon="77.18465">
        <ele>3624.2</ele>
        <time>2015-08-31T08:07:41Z</time>
      </trkpt>
      <trkpt lat="34.05219" lon="77.18464">
        <ele>3623.8</ele>
        <time>2015-08-31T08:07:43Z</time>
      </trkpt>
      <trkpt lat="34.05222" lon="77.18465">
        <ele>3623</ele>
        <time>2015-08-31T08:07:47Z</time>
      </trkpt>
      <trkpt lat="34.05224" lon="77.18465">
        <ele>3621.8</ele>
        <time>2015-08-31T08:07:52Z</time>
      </trkpt>
      <trkpt lat="34.05234" lon="77.18462">
        <ele>3621</ele>
        <time>2015-08-31T08:08:05Z</time>
      </trkpt>
      <trkpt lat="34.05235" lon="77.18461">
        <ele>3620.8</ele>
        <time>2015-08-31T08:08:06Z</time>
      </trkpt>
      <trkpt lat="34.05239" lon="77.18456">
        <ele>3619.8</ele>
        <time>2015-08-31T08:08:10Z</time>
      </trkpt>
      <trkpt lat="34.05239" lon="77.18455">
        <ele>3619.6</ele>
        <time>2015-08-31T08:08:11Z</time>
      </trkpt>
      <trkpt lat="34.05243" lon="77.1844">
        <ele>3618.6</ele>
        <time>2015-08-31T08:08:20Z</time>
      </trkpt>
      <trkpt lat="34.05241" lon="77.18432">
        <ele>3615.2</ele>
        <time>2015-08-31T08:08:41Z</time>
      </trkpt>
      <trkpt lat="34.05247" lon="77.18427">
        <ele>3614</ele>
        <time>2015-08-31T08:09:03Z</time>
      </trkpt>
      <trkpt lat="34.05244" lon="77.18425">
        <ele>3613</ele>
        <time>2015-08-31T08:09:07Z</time>
      </trkpt>
      <trkpt lat="34.05239" lon="77.18417">
        <ele>3612.6</ele>
        <time>2015-08-31T08:09:09Z</time>
      </trkpt>
      <trkpt lat="34.05232" lon="77.18412">
        <ele>3611.8</ele>
        <time>2015-08-31T08:09:13Z</time>
      </trkpt>
      <trkpt lat="34.05231" lon="77.18412">
        <ele>3611.8</ele>
        <time>2015-08-31T08:09:14Z</time>
      </trkpt>
      <trkpt lat="34.05224" lon="77.18411">
        <ele>3610.6</ele>
        <time>2015-08-31T08:09:19Z</time>
      </trkpt>
      <trkpt lat="34.05219" lon="77.1841">
        <ele>3610.2</ele>
        <time>2015-08-31T08:09:25Z</time>
      </trkpt>
      <trkpt lat="34.05217" lon="77.18413">
        <ele>3609.6</ele>
        <time>2015-08-31T08:09:28Z</time>
      </trkpt>
      <trkpt lat="34.05215" lon="77.18416">
        <ele>3608.8</ele>
        <time>2015-08-31T08:09:31Z</time>
      </trkpt>
      <trkpt lat="34.05214" lon="77.18419">
        <ele>3608.4</ele>
        <time>2015-08-31T08:09:33Z</time>
      </trkpt>
      <trkpt lat="34.05209" lon="77.1841">
        <ele>3607.4</ele>
        <time>2015-08-31T08:09:45Z</time>
      </trkpt>
      <trkpt lat="34.05207" lon="77.18409">
        <ele>3606</ele>
        <time>2015-08-31T08:09:49Z</time>
      </trkpt>
      <trkpt lat="34.05203" lon="77.18411">
        <ele>3604.6</ele>
        <time>2015-08-31T08:09:54Z</time>
      </trkpt>
      <trkpt lat="34.052" lon="77.1842">
        <ele>3603.6</ele>
        <time>2015-08-31T08:09:58Z</time>
      </trkpt>
      <trkpt lat="34.05199" lon="77.18421">
        <ele>3603.4</ele>
        <time>2015-08-31T08:09:59Z</time>
      </trkpt>
      <trkpt lat="34.05196" lon="77.18421">
        <ele>3602.4</ele>
        <time>2015-08-31T08:10:02Z</time>
      </trkpt>
      <trkpt lat="34.05194" lon="77.1842">
        <ele>3601.4</ele>
        <time>2015-08-31T08:10:06Z</time>
      </trkpt>
      <trkpt lat="34.0519" lon="77.18421">
        <ele>3600.2</ele>
        <time>2015-08-31T08:10:10Z</time>
      </trkpt>
      <trkpt lat="34.05186" lon="77.18422">
        <ele>3599</ele>
        <time>2015-08-31T08:10:15Z</time>
      </trkpt>
      <trkpt lat="34.05181" lon="77.1842">
        <ele>3597.8</ele>
        <time>2015-08-31T08:10:20Z</time>
      </trkpt>
      <trkpt lat="34.05181" lon="77.18419">
        <ele>3597.2</ele>
        <time>2015-08-31T08:10:22Z</time>
      </trkpt>
      <trkpt lat="34.05177" lon="77.18424">
        <ele>3596.8</ele>
        <time>2015-08-31T08:10:33Z</time>
      </trkpt>
      <trkpt lat="34.05177" lon="77.18425">
        <ele>3596.6</ele>
        <time>2015-08-31T08:10:34Z</time>
      </trkpt>
      <trkpt lat="34.05174" lon="77.18418">
        <ele>3595.8</ele>
        <time>2015-08-31T08:10:43Z</time>
      </trkpt>
      <trkpt lat="34.05172" lon="77.18417">
        <ele>3595.6</ele>
        <time>2015-08-31T08:10:45Z</time>
      </trkpt>
      <trkpt lat="34.05171" lon="77.18417">
        <ele>3595.2</ele>
        <time>2015-08-31T08:10:46Z</time>
      </trkpt>
      <trkpt lat="34.05169" lon="77.18419">
        <ele>3594.6</ele>
        <time>2015-08-31T08:10:49Z</time>
      </trkpt>
      <trkpt lat="34.05169" lon="77.1842">
        <ele>3594.2</ele>
        <time>2015-08-31T08:10:50Z</time>
      </trkpt>
      <trkpt lat="34.05166" lon="77.18422">
        <ele>3593</ele>
        <time>2015-08-31T08:10:56Z</time>
      </trkpt>
      <trkpt lat="34.05165" lon="77.18422">
        <ele>3591.8</ele>
        <time>2015-08-31T08:11:01Z</time>
      </trkpt>
      <trkpt lat="34.05165" lon="77.18421">
        <ele>3590.6</ele>
        <time>2015-08-31T08:11:06Z</time>
      </trkpt>
      <trkpt lat="34.0516" lon="77.18417">
        <ele>3589.6</ele>
        <time>2015-08-31T08:11:12Z</time>
      </trkpt>
      <trkpt lat="34.05158" lon="77.18417">
        <ele>3588.8</ele>
        <time>2015-08-31T08:11:15Z</time>
      </trkpt>
      <trkpt lat="34.05157" lon="77.18417">
        <ele>3588.6</ele>
        <time>2015-08-31T08:11:16Z</time>
      </trkpt>
      <trkpt lat="34.05156" lon="77.18425">
        <ele>3587.6</ele>
        <time>2015-08-31T08:11:25Z</time>
      </trkpt>
      <trkpt lat="34.05156" lon="77.18426">
        <ele>3587.4</ele>
        <time>2015-08-31T08:11:26Z</time>
      </trkpt>
      <trkpt lat="34.05155" lon="77.18427">
        <ele>3586.2</ele>
        <time>2015-08-31T08:11:30Z</time>
      </trkpt>
      <trkpt lat="34.05154" lon="77.18434">
        <ele>3585.2</ele>
        <time>2015-08-31T08:11:33Z</time>
      </trkpt>
      <trkpt lat="34.05154" lon="77.18435">
        <ele>3585</ele>
        <time>2015-08-31T08:11:34Z</time>
      </trkpt>
      <trkpt lat="34.05154" lon="77.18438">
        <ele>3584</ele>
        <time>2015-08-31T08:11:38Z</time>
      </trkpt>
      <trkpt lat="34.05152" lon="77.18441">
        <ele>3583.2</ele>
        <time>2015-08-31T08:11:41Z</time>
      </trkpt>
      <trkpt lat="34.05151" lon="77.18443">
        <ele>3583</ele>
        <time>2015-08-31T08:11:43Z</time>
      </trkpt>
      <trkpt lat="34.0515" lon="77.18445">
        <ele>3582.4</ele>
        <time>2015-08-31T08:11:45Z</time>
      </trkpt>
      <trkpt lat="34.05149" lon="77.18445">
        <ele>3581.6</ele>
        <time>2015-08-31T08:11:47Z</time>
      </trkpt>
      <trkpt lat="34.05146" lon="77.18444">
        <ele>3580.6</ele>
        <time>2015-08-31T08:11:52Z</time>
      </trkpt>
      <trkpt lat="34.05147" lon="77.18448">
        <ele>3579.6</ele>
        <time>2015-08-31T08:11:57Z</time>
      </trkpt>
      <trkpt lat="34.05145" lon="77.18451">
        <ele>3578.4</ele>
        <time>2015-08-31T08:12:02Z</time>
      </trkpt>
      <trkpt lat="34.05142" lon="77.1845">
        <ele>3577.2</ele>
        <time>2015-08-31T08:12:07Z</time>
      </trkpt>
      <trkpt lat="34.05139" lon="77.18447">
        <ele>3576</ele>
        <time>2015-08-31T08:12:11Z</time>
      </trkpt>
      <trkpt lat="34.05139" lon="77.18452">
        <ele>3575.4</ele>
        <time>2015-08-31T08:12:13Z</time>
      </trkpt>
      <trkpt lat="34.05138" lon="77.18454">
        <ele>3575</ele>
        <time>2015-08-31T08:12:16Z</time>
      </trkpt>
      <trkpt lat="34.05141" lon="77.18445">
        <ele>3574</ele>
        <time>2015-08-31T08:12:26Z</time>
      </trkpt>
      <trkpt lat="34.05145" lon="77.18447">
        <ele>3574.4</ele>
        <time>2015-08-31T08:12:54Z</time>
      </trkpt>
      <trkpt lat="34.05138" lon="77.18454">
        <ele>3574.2</ele>
        <time>2015-08-31T08:12:58Z</time>
      </trkpt>
      <trkpt lat="34.05134" lon="77.18452">
        <ele>3572.6</ele>
        <time>2015-08-31T08:13:02Z</time>
      </trkpt>
      <trkpt lat="34.0513" lon="77.18451">
        <ele>3571.8</ele>
        <time>2015-08-31T08:13:08Z</time>
      </trkpt>
      <trkpt lat="34.05129" lon="77.1845">
        <ele>3571.6</ele>
        <time>2015-08-31T08:13:09Z</time>
      </trkpt>
      <trkpt lat="34.05126" lon="77.18449">
        <ele>3571</ele>
        <time>2015-08-31T08:13:13Z</time>
      </trkpt>
      <trkpt lat="34.05124" lon="77.18454">
        <ele>3570.4</ele>
        <time>2015-08-31T08:13:16Z</time>
      </trkpt>
      <trkpt lat="34.05122" lon="77.18451">
        <ele>3569.8</ele>
        <time>2015-08-31T08:13:19Z</time>
      </trkpt>
      <trkpt lat="34.05125" lon="77.18461">
        <ele>3569.2</ele>
        <time>2015-08-31T08:13:23Z</time>
      </trkpt>
      <trkpt lat="34.05125" lon="77.18465">
        <ele>3568</ele>
        <time>2015-08-31T08:13:26Z</time>
      </trkpt>
      <trkpt lat="34.05114" lon="77.18467">
        <ele>3567</ele>
        <time>2015-08-31T08:13:48Z</time>
      </trkpt>
      <trkpt lat="34.05109" lon="77.18466">
        <ele>3566</ele>
        <time>2015-08-31T08:13:53Z</time>
      </trkpt>
      <trkpt lat="34.05108" lon="77.18468">
        <ele>3565.8</ele>
        <time>2015-08-31T08:13:54Z</time>
      </trkpt>
      <trkpt lat="34.05104" lon="77.18472">
        <ele>3565.2</ele>
        <time>2015-08-31T08:13:59Z</time>
      </trkpt>
      <trkpt lat="34.051" lon="77.18472">
        <ele>3565</ele>
        <time>2015-08-31T08:14:02Z</time>
      </trkpt>
      <trkpt lat="34.05096" lon="77.18475">
        <ele>3563.8</ele>
        <time>2015-08-31T08:14:06Z</time>
      </trkpt>
      <trkpt lat="34.0509" lon="77.18481">
        <ele>3562.6</ele>
        <time>2015-08-31T08:14:11Z</time>
      </trkpt>
      <trkpt lat="34.05084" lon="77.18488">
        <ele>3561.4</ele>
        <time>2015-08-31T08:14:17Z</time>
      </trkpt>
      <trkpt lat="34.05082" lon="77.18492">
        <ele>3560.6</ele>
        <time>2015-08-31T08:14:20Z</time>
      </trkpt>
      <trkpt lat="34.05082" lon="77.18492">
        <ele>3560.4</ele>
        <time>2015-08-31T08:14:21Z</time>
      </trkpt>
      <trkpt lat="34.05079" lon="77.18495">
        <ele>3559.4</ele>
        <time>2015-08-31T08:14:29Z</time>
      </trkpt>
      <trkpt lat="34.05078" lon="77.18497">
        <ele>3559.2</ele>
        <time>2015-08-31T08:14:30Z</time>
      </trkpt>
      <trkpt lat="34.05075" lon="77.18501">
        <ele>3558.8</ele>
        <time>2015-08-31T08:14:33Z</time>
      </trkpt>
      <trkpt lat="34.05071" lon="77.18501">
        <ele>3558.4</ele>
        <time>2015-08-31T08:14:38Z</time>
      </trkpt>
      <trkpt lat="34.05071" lon="77.185">
        <ele>3558.2</ele>
        <time>2015-08-31T08:14:39Z</time>
      </trkpt>
      <trkpt lat="34.05068" lon="77.18507">
        <ele>3557.8</ele>
        <time>2015-08-31T08:14:47Z</time>
      </trkpt>
      <trkpt lat="34.05065" lon="77.18513">
        <ele>3557.2</ele>
        <time>2015-08-31T08:14:53Z</time>
      </trkpt>
      <trkpt lat="34.05059" lon="77.18523">
        <ele>3556.4</ele>
        <time>2015-08-31T08:14:58Z</time>
      </trkpt>
      <trkpt lat="34.05058" lon="77.18525">
        <ele>3556.2</ele>
        <time>2015-08-31T08:15:00Z</time>
      </trkpt>
      <trkpt lat="34.0505" lon="77.18535">
        <ele>3555</ele>
        <time>2015-08-31T08:15:08Z</time>
      </trkpt>
      <trkpt lat="34.05045" lon="77.18537">
        <ele>3554</ele>
        <time>2015-08-31T08:15:14Z</time>
      </trkpt>
      <trkpt lat="34.05042" lon="77.18539">
        <ele>3552.6</ele>
        <time>2015-08-31T08:15:21Z</time>
      </trkpt>
      <trkpt lat="34.05036" lon="77.18539">
        <ele>3551.6</ele>
        <time>2015-08-31T08:15:26Z</time>
      </trkpt>
      <trkpt lat="34.05032" lon="77.18549">
        <ele>3550.6</ele>
        <time>2015-08-31T08:15:32Z</time>
      </trkpt>
      <trkpt lat="34.05032" lon="77.18549">
        <ele>3550.4</ele>
        <time>2015-08-31T08:15:33Z</time>
      </trkpt>
      <trkpt lat="34.05032" lon="77.18547">
        <ele>3550.2</ele>
        <time>2015-08-31T08:15:35Z</time>
      </trkpt>
      <trkpt lat="34.05033" lon="77.18543">
        <ele>3550.2</ele>
        <time>2015-08-31T08:15:39Z</time>
      </trkpt>
      <trkpt lat="34.05032" lon="77.18536">
        <ele>3551.2</ele>
        <time>2015-08-31T08:15:46Z</time>
      </trkpt>
      <trkpt lat="34.05034" lon="77.18541">
        <ele>3550.6</ele>
        <time>2015-08-31T08:15:52Z</time>
      </trkpt>
      <trkpt lat="34.05036" lon="77.18542">
        <ele>3551.2</ele>
        <time>2015-08-31T08:16:01Z</time>
      </trkpt>
      <trkpt lat="34.05033" lon="77.18547">
        <ele>3551.2</ele>
        <time>2015-08-31T08:16:03Z</time>
      </trkpt>
      <trkpt lat="34.05041" lon="77.18539">
        <ele>3550.2</ele>
        <time>2015-08-31T08:16:43Z</time>
      </trkpt>
      <trkpt lat="34.05047" lon="77.18525">
        <ele>3551.4</ele>
        <time>2015-08-31T08:17:18Z</time>
      </trkpt>
      <trkpt lat="34.05048" lon="77.18519">
        <ele>3550.2</ele>
        <time>2015-08-31T08:17:29Z</time>
      </trkpt>
      <trkpt lat="34.05047" lon="77.18521">
        <ele>3549.6</ele>
        <time>2015-08-31T08:17:31Z</time>
      </trkpt>
      <trkpt lat="34.05045" lon="77.18522">
        <ele>3549.4</ele>
        <time>2015-08-31T08:17:32Z</time>
      </trkpt>
      <trkpt lat="34.05041" lon="77.18525">
        <ele>3549.2</ele>
        <time>2015-08-31T08:17:35Z</time>
      </trkpt>
      <trkpt lat="34.05039" lon="77.18529">
        <ele>3549.2</ele>
        <time>2015-08-31T08:17:38Z</time>
      </trkpt>
      <trkpt lat="34.05039" lon="77.18538">
        <ele>3549.8</ele>
        <time>2015-08-31T08:17:55Z</time>
      </trkpt>
      <trkpt lat="34.05042" lon="77.18545">
        <ele>3550.4</ele>
        <time>2015-08-31T08:18:36Z</time>
      </trkpt>
      <trkpt lat="34.05037" lon="77.18548">
        <ele>3550</ele>
        <time>2015-08-31T08:18:41Z</time>
      </trkpt>
      <trkpt lat="34.05034" lon="77.18547">
        <ele>3550</ele>
        <time>2015-08-31T08:18:45Z</time>
      </trkpt>
      <trkpt lat="34.05036" lon="77.18544">
        <ele>3549.4</ele>
        <time>2015-08-31T08:19:01Z</time>
      </trkpt>
      <trkpt lat="34.05037" lon="77.18536">
        <ele>3549.6</ele>
        <time>2015-08-31T08:19:08Z</time>
      </trkpt>
      <trkpt lat="34.05034" lon="77.18535">
        <ele>3549.8</ele>
        <time>2015-08-31T08:19:29Z</time>
      </trkpt>
      <trkpt lat="34.05036" lon="77.18539">
        <ele>3549.6</ele>
        <time>2015-08-31T08:19:41Z</time>
      </trkpt>
      <trkpt lat="34.05035" lon="77.18546">
        <ele>3549.2</ele>
        <time>2015-08-31T08:19:49Z</time>
      </trkpt>
      <trkpt lat="34.05033" lon="77.18545">
        <ele>3549.4</ele>
        <time>2015-08-31T08:19:51Z</time>
      </trkpt>
      <trkpt lat="34.05034" lon="77.18552">
        <ele>3549.4</ele>
        <time>2015-08-31T08:19:56Z</time>
      </trkpt>
      <trkpt lat="34.05032" lon="77.18541">
        <ele>3548.4</ele>
        <time>2015-08-31T08:20:11Z</time>
      </trkpt>
      <trkpt lat="34.05029" lon="77.18536">
        <ele>3548.4</ele>
        <time>2015-08-31T08:20:12Z</time>
      </trkpt>
      <trkpt lat="34.05029" lon="77.18525">
        <ele>3548.2</ele>
        <time>2015-08-31T08:20:32Z</time>
      </trkpt>
      <trkpt lat="34.05044" lon="77.18535">
        <ele>3548.2</ele>
        <time>2015-08-31T08:20:50Z</time>
      </trkpt>
      <trkpt lat="34.05042" lon="77.18533">
        <ele>3547.8</ele>
        <time>2015-08-31T08:20:55Z</time>
      </trkpt>
      <trkpt lat="34.05037" lon="77.18545">
        <ele>3548</ele>
        <time>2015-08-31T08:21:06Z</time>
      </trkpt>
      <trkpt lat="34.05034" lon="77.18547">
        <ele>3547.6</ele>
        <time>2015-08-31T08:21:37Z</time>
      </trkpt>
      <trkpt lat="34.05032" lon="77.18547">
        <ele>3547.2</ele>
        <time>2015-08-31T08:21:59Z</time>
      </trkpt>
      <trkpt lat="34.05027" lon="77.18536">
        <ele>3547.2</ele>
        <time>2015-08-31T08:22:05Z</time>
      </trkpt>
      <trkpt lat="34.05025" lon="77.18529">
        <ele>3547.2</ele>
        <time>2015-08-31T08:22:08Z</time>
      </trkpt>
      <trkpt lat="34.0503" lon="77.18536">
        <ele>3546.2</ele>
        <time>2015-08-31T08:22:24Z</time>
      </trkpt>
      <trkpt lat="34.05029" lon="77.18537">
        <ele>3546.2</ele>
        <time>2015-08-31T08:22:25Z</time>
      </trkpt>
      <trkpt lat="34.05024" lon="77.18556">
        <ele>3546</ele>
        <time>2015-08-31T08:22:37Z</time>
      </trkpt>
      <trkpt lat="34.05022" lon="77.18556">
        <ele>3546</ele>
        <time>2015-08-31T08:22:39Z</time>
      </trkpt>
      <trkpt lat="34.05018" lon="77.18558">
        <ele>3545.2</ele>
        <time>2015-08-31T08:22:43Z</time>
      </trkpt>
      <trkpt lat="34.05017" lon="77.1856">
        <ele>3545</ele>
        <time>2015-08-31T08:22:44Z</time>
      </trkpt>
      <trkpt lat="34.05016" lon="77.18562">
        <ele>3544.6</ele>
        <time>2015-08-31T08:22:47Z</time>
      </trkpt>
      <trkpt lat="34.05014" lon="77.18561">
        <ele>3544</ele>
        <time>2015-08-31T08:22:52Z</time>
      </trkpt>
      <trkpt lat="34.0501" lon="77.18559">
        <ele>3543.6</ele>
        <time>2015-08-31T08:22:54Z</time>
      </trkpt>
      <trkpt lat="34.05007" lon="77.18564">
        <ele>3543</ele>
        <time>2015-08-31T08:22:57Z</time>
      </trkpt>
      <trkpt lat="34.05002" lon="77.18582">
        <ele>3542.6</ele>
        <time>2015-08-31T08:23:06Z</time>
      </trkpt>
      <trkpt lat="34.05001" lon="77.18586">
        <ele>3542</ele>
        <time>2015-08-31T08:23:10Z</time>
      </trkpt>
      <trkpt lat="34.05001" lon="77.18587">
        <ele>3542</ele>
        <time>2015-08-31T08:23:11Z</time>
      </trkpt>
      <trkpt lat="34.04994" lon="77.18595">
        <ele>3540.8</ele>
        <time>2015-08-31T08:23:20Z</time>
      </trkpt>
      <trkpt lat="34.04986" lon="77.18598">
        <ele>3541.4</ele>
        <time>2015-08-31T08:23:28Z</time>
      </trkpt>
      <trkpt lat="34.0497" lon="77.18593">
        <ele>3540.6</ele>
        <time>2015-08-31T08:23:41Z</time>
      </trkpt>
      <trkpt lat="34.04961" lon="77.18596">
        <ele>3539.8</ele>
        <time>2015-08-31T08:23:53Z</time>
      </trkpt>
      <trkpt lat="34.04954" lon="77.18597">
        <ele>3539</ele>
        <time>2015-08-31T08:24:01Z</time>
      </trkpt>
      <trkpt lat="34.04953" lon="77.18597">
        <ele>3538.8</ele>
        <time>2015-08-31T08:24:02Z</time>
      </trkpt>
      <trkpt lat="34.04951" lon="77.18598">
        <ele>3537.8</ele>
        <time>2015-08-31T08:24:04Z</time>
      </trkpt>
      <trkpt lat="34.04946" lon="77.18599">
        <ele>3536.6</ele>
        <time>2015-08-31T08:24:08Z</time>
      </trkpt>
      <trkpt lat="34.04942" lon="77.18601">
        <ele>3536.4</ele>
        <time>2015-08-31T08:24:12Z</time>
      </trkpt>
      <trkpt lat="34.04935" lon="77.18605">
        <ele>3535.6</ele>
        <time>2015-08-31T08:24:18Z</time>
      </trkpt>
      <trkpt lat="34.0493" lon="77.18607">
        <ele>3534.6</ele>
        <time>2015-08-31T08:24:22Z</time>
      </trkpt>
      <trkpt lat="34.04927" lon="77.18608">
        <ele>3534.4</ele>
        <time>2015-08-31T08:24:24Z</time>
      </trkpt>
      <trkpt lat="34.04918" lon="77.18606">
        <ele>3533.4</ele>
        <time>2015-08-31T08:24:31Z</time>
      </trkpt>
      <trkpt lat="34.04918" lon="77.18606">
        <ele>3533.2</ele>
        <time>2015-08-31T08:24:32Z</time>
      </trkpt>
      <trkpt lat="34.04914" lon="77.18606">
        <ele>3531.8</ele>
        <time>2015-08-31T08:24:35Z</time>
      </trkpt>
      <trkpt lat="34.04912" lon="77.18607">
        <ele>3530.6</ele>
        <time>2015-08-31T08:24:37Z</time>
      </trkpt>
      <trkpt lat="34.0491" lon="77.18609">
        <ele>3530</ele>
        <time>2015-08-31T08:24:39Z</time>
      </trkpt>
      <trkpt lat="34.04907" lon="77.18609">
        <ele>3529.6</ele>
        <time>2015-08-31T08:24:42Z</time>
      </trkpt>
      <trkpt lat="34.04899" lon="77.18611">
        <ele>3528.4</ele>
        <time>2015-08-31T08:24:50Z</time>
      </trkpt>
      <trkpt lat="34.04893" lon="77.18612">
        <ele>3527.6</ele>
        <time>2015-08-31T08:24:58Z</time>
      </trkpt>
      <trkpt lat="34.04891" lon="77.18612">
        <ele>3527.4</ele>
        <time>2015-08-31T08:24:59Z</time>
      </trkpt>
      <trkpt lat="34.04878" lon="77.18605">
        <ele>3526.8</ele>
        <time>2015-08-31T08:25:14Z</time>
      </trkpt>
      <trkpt lat="34.04875" lon="77.18605">
        <ele>3526.2</ele>
        <time>2015-08-31T08:25:17Z</time>
      </trkpt>
      <trkpt lat="34.04871" lon="77.18603">
        <ele>3525</ele>
        <time>2015-08-31T08:25:22Z</time>
      </trkpt>
      <trkpt lat="34.04869" lon="77.18601">
        <ele>3524.8</ele>
        <time>2015-08-31T08:25:24Z</time>
      </trkpt>
      <trkpt lat="34.04866" lon="77.18601">
        <ele>3524.6</ele>
        <time>2015-08-31T08:25:26Z</time>
      </trkpt>
      <trkpt lat="34.04858" lon="77.18605">
        <ele>3524.8</ele>
        <time>2015-08-31T08:25:35Z</time>
      </trkpt>
      <trkpt lat="34.04856" lon="77.18609">
        <ele>3524</ele>
        <time>2015-08-31T08:25:39Z</time>
      </trkpt>
      <trkpt lat="34.04856" lon="77.18609">
        <ele>3523.8</ele>
        <time>2015-08-31T08:25:40Z</time>
      </trkpt>
      <trkpt lat="34.04849" lon="77.1861">
        <ele>3522.8</ele>
        <time>2015-08-31T08:25:49Z</time>
      </trkpt>
      <trkpt lat="34.04846" lon="77.18613">
        <ele>3522.6</ele>
        <time>2015-08-31T08:25:54Z</time>
      </trkpt>
      <trkpt lat="34.04843" lon="77.18612">
        <ele>3522.6</ele>
        <time>2015-08-31T08:25:57Z</time>
      </trkpt>
      <trkpt lat="34.04837" lon="77.18612">
        <ele>3522.6</ele>
        <time>2015-08-31T08:26:01Z</time>
      </trkpt>
      <trkpt lat="34.04835" lon="77.18617">
        <ele>3522.6</ele>
        <time>2015-08-31T08:26:05Z</time>
      </trkpt>
      <trkpt lat="34.04835" lon="77.18621">
        <ele>3522.8</ele>
        <time>2015-08-31T08:26:07Z</time>
      </trkpt>
      <trkpt lat="34.04832" lon="77.18624">
        <ele>3522.8</ele>
        <time>2015-08-31T08:26:11Z</time>
      </trkpt>
      <trkpt lat="34.04825" lon="77.18628">
        <ele>3522</ele>
        <time>2015-08-31T08:26:20Z</time>
      </trkpt>
      <trkpt lat="34.04823" lon="77.18628">
        <ele>3521.6</ele>
        <time>2015-08-31T08:26:22Z</time>
      </trkpt>
      <trkpt lat="34.04818" lon="77.18629">
        <ele>3520.4</ele>
        <time>2015-08-31T08:26:27Z</time>
      </trkpt>
      <trkpt lat="34.04816" lon="77.1863">
        <ele>3520</ele>
        <time>2015-08-31T08:26:29Z</time>
      </trkpt>
      <trkpt lat="34.04813" lon="77.18632">
        <ele>3519.8</ele>
        <time>2015-08-31T08:26:32Z</time>
      </trkpt>
      <trkpt lat="34.04811" lon="77.1863">
        <ele>3519.4</ele>
        <time>2015-08-31T08:26:34Z</time>
      </trkpt>
      <trkpt lat="34.04802" lon="77.18633">
        <ele>3518.6</ele>
        <time>2015-08-31T08:26:41Z</time>
      </trkpt>
      <trkpt lat="34.04801" lon="77.18633">
        <ele>3518.2</ele>
        <time>2015-08-31T08:26:42Z</time>
      </trkpt>
      <trkpt lat="34.04798" lon="77.18636">
        <ele>3517.4</ele>
        <time>2015-08-31T08:26:45Z</time>
      </trkpt>
      <trkpt lat="34.04797" lon="77.18636">
        <ele>3517.2</ele>
        <time>2015-08-31T08:26:46Z</time>
      </trkpt>
      <trkpt lat="34.04796" lon="77.18637">
        <ele>3517</ele>
        <time>2015-08-31T08:26:47Z</time>
      </trkpt>
      <trkpt lat="34.0479" lon="77.18647">
        <ele>3516.4</ele>
        <time>2015-08-31T08:26:53Z</time>
      </trkpt>
      <trkpt lat="34.0479" lon="77.18648">
        <ele>3516.2</ele>
        <time>2015-08-31T08:26:54Z</time>
      </trkpt>
      <trkpt lat="34.04789" lon="77.18649">
        <ele>3516</ele>
        <time>2015-08-31T08:26:55Z</time>
      </trkpt>
      <trkpt lat="34.04784" lon="77.18654">
        <ele>3515</ele>
        <time>2015-08-31T08:27:01Z</time>
      </trkpt>
      <trkpt lat="34.04782" lon="77.18657">
        <ele>3514</ele>
        <time>2015-08-31T08:27:06Z</time>
      </trkpt>
      <trkpt lat="34.0478" lon="77.1866">
        <ele>3512.8</ele>
        <time>2015-08-31T08:27:10Z</time>
      </trkpt>
      <trkpt lat="34.04779" lon="77.18661">
        <ele>3512.6</ele>
        <time>2015-08-31T08:27:11Z</time>
      </trkpt>
      <trkpt lat="34.04777" lon="77.18668">
        <ele>3512</ele>
        <time>2015-08-31T08:27:16Z</time>
      </trkpt>
      <trkpt lat="34.04777" lon="77.18672">
        <ele>3511.8</ele>
        <time>2015-08-31T08:27:18Z</time>
      </trkpt>
      <trkpt lat="34.04776" lon="77.18673">
        <ele>3511.2</ele>
        <time>2015-08-31T08:27:20Z</time>
      </trkpt>
      <trkpt lat="34.04773" lon="77.18674">
        <ele>3510.8</ele>
        <time>2015-08-31T08:27:23Z</time>
      </trkpt>
      <trkpt lat="34.04772" lon="77.18674">
        <ele>3510.6</ele>
        <time>2015-08-31T08:27:24Z</time>
      </trkpt>
      <trkpt lat="34.04764" lon="77.18681">
        <ele>3510.2</ele>
        <time>2015-08-31T08:27:30Z</time>
      </trkpt>
      <trkpt lat="34.04762" lon="77.18687">
        <ele>3509.6</ele>
        <time>2015-08-31T08:27:34Z</time>
      </trkpt>
      <trkpt lat="34.04755" lon="77.18697">
        <ele>3508.4</ele>
        <time>2015-08-31T08:27:44Z</time>
      </trkpt>
      <trkpt lat="34.04749" lon="77.18705">
        <ele>3507.2</ele>
        <time>2015-08-31T08:27:51Z</time>
      </trkpt>
      <trkpt lat="34.04746" lon="77.1871">
        <ele>3506.2</ele>
        <time>2015-08-31T08:27:56Z</time>
      </trkpt>
      <trkpt lat="34.04746" lon="77.18711">
        <ele>3506</ele>
        <time>2015-08-31T08:27:57Z</time>
      </trkpt>
      <trkpt lat="34.04742" lon="77.18714">
        <ele>3505.2</ele>
        <time>2015-08-31T08:28:03Z</time>
      </trkpt>
      <trkpt lat="34.04739" lon="77.18726">
        <ele>3504</ele>
        <time>2015-08-31T08:28:13Z</time>
      </trkpt>
      <trkpt lat="34.04733" lon="77.18739">
        <ele>3503</ele>
        <time>2015-08-31T08:28:23Z</time>
      </trkpt>
      <trkpt lat="34.04724" lon="77.18751">
        <ele>3502.6</ele>
        <time>2015-08-31T08:28:36Z</time>
      </trkpt>
      <trkpt lat="34.04721" lon="77.18754">
        <ele>3501.8</ele>
        <time>2015-08-31T08:28:40Z</time>
      </trkpt>
      <trkpt lat="34.0472" lon="77.18758">
        <ele>3500.2</ele>
        <time>2015-08-31T08:28:42Z</time>
      </trkpt>
      <trkpt lat="34.04719" lon="77.18762">
        <ele>3499.6</ele>
        <time>2015-08-31T08:28:44Z</time>
      </trkpt>
      <trkpt lat="34.04715" lon="77.18769">
        <ele>3501.4</ele>
        <time>2015-08-31T08:28:49Z</time>
      </trkpt>
      <trkpt lat="34.04708" lon="77.18772">
        <ele>3501</ele>
        <time>2015-08-31T08:28:57Z</time>
      </trkpt>
      <trkpt lat="34.04705" lon="77.18774">
        <ele>3500.8</ele>
        <time>2015-08-31T08:29:00Z</time>
      </trkpt>
      <trkpt lat="34.04703" lon="77.1878">
        <ele>3500.2</ele>
        <time>2015-08-31T08:29:05Z</time>
      </trkpt>
      <trkpt lat="34.04702" lon="77.18786">
        <ele>3499.2</ele>
        <time>2015-08-31T08:29:10Z</time>
      </trkpt>
      <trkpt lat="34.04702" lon="77.18788">
        <ele>3498.8</ele>
        <time>2015-08-31T08:29:11Z</time>
      </trkpt>
      <trkpt lat="34.04702" lon="77.1879">
        <ele>3498.6</ele>
        <time>2015-08-31T08:29:13Z</time>
      </trkpt>
      <trkpt lat="34.04699" lon="77.18794">
        <ele>3498.4</ele>
        <time>2015-08-31T08:29:18Z</time>
      </trkpt>
      <trkpt lat="34.04698" lon="77.18795">
        <ele>3498.4</ele>
        <time>2015-08-31T08:29:20Z</time>
      </trkpt>
      <trkpt lat="34.04697" lon="77.18796">
        <ele>3498.2</ele>
        <time>2015-08-31T08:29:22Z</time>
      </trkpt>
      <trkpt lat="34.04695" lon="77.18797">
        <ele>3497.6</ele>
        <time>2015-08-31T08:29:24Z</time>
      </trkpt>
      <trkpt lat="34.04693" lon="77.18801">
        <ele>3496.6</ele>
        <time>2015-08-31T08:29:28Z</time>
      </trkpt>
      <trkpt lat="34.04692" lon="77.18803">
        <ele>3495.8</ele>
        <time>2015-08-31T08:29:30Z</time>
      </trkpt>
      <trkpt lat="34.0469" lon="77.18804">
        <ele>3495.4</ele>
        <time>2015-08-31T08:29:32Z</time>
      </trkpt>
      <trkpt lat="34.04685" lon="77.18813">
        <ele>3495</ele>
        <time>2015-08-31T08:29:40Z</time>
      </trkpt>
      <trkpt lat="34.04682" lon="77.18818">
        <ele>3494.8</ele>
        <time>2015-08-31T08:29:44Z</time>
      </trkpt>
      <trkpt lat="34.04678" lon="77.18823">
        <ele>3494.4</ele>
        <time>2015-08-31T08:29:51Z</time>
      </trkpt>
      <trkpt lat="34.04675" lon="77.18825">
        <ele>3493.4</ele>
        <time>2015-08-31T08:29:54Z</time>
      </trkpt>
      <trkpt lat="34.04674" lon="77.18826">
        <ele>3493.2</ele>
        <time>2015-08-31T08:29:55Z</time>
      </trkpt>
      <trkpt lat="34.04673" lon="77.18827">
        <ele>3493.2</ele>
        <time>2015-08-31T08:29:57Z</time>
      </trkpt>
      <trkpt lat="34.04667" lon="77.18831">
        <ele>3493</ele>
        <time>2015-08-31T08:30:04Z</time>
      </trkpt>
      <trkpt lat="34.04666" lon="77.18841">
        <ele>3492.6</ele>
        <time>2015-08-31T08:30:11Z</time>
      </trkpt>
      <trkpt lat="34.04665" lon="77.18843">
        <ele>3492.6</ele>
        <time>2015-08-31T08:30:14Z</time>
      </trkpt>
      <trkpt lat="34.04663" lon="77.18846">
        <ele>3492.8</ele>
        <time>2015-08-31T08:30:17Z</time>
      </trkpt>
      <trkpt lat="34.04661" lon="77.18852">
        <ele>3492.8</ele>
        <time>2015-08-31T08:30:21Z</time>
      </trkpt>
      <trkpt lat="34.04654" lon="77.18863">
        <ele>3492.2</ele>
        <time>2015-08-31T08:30:33Z</time>
      </trkpt>
      <trkpt lat="34.04653" lon="77.18864">
        <ele>3491.8</ele>
        <time>2015-08-31T08:30:35Z</time>
      </trkpt>
      <trkpt lat="34.04652" lon="77.18865">
        <ele>3491.4</ele>
        <time>2015-08-31T08:30:37Z</time>
      </trkpt>
      <trkpt lat="34.04652" lon="77.18866">
        <ele>3491.2</ele>
        <time>2015-08-31T08:30:38Z</time>
      </trkpt>
      <trkpt lat="34.04653" lon="77.18883">
        <ele>3490.4</ele>
        <time>2015-08-31T08:30:50Z</time>
      </trkpt>
      <trkpt lat="34.04653" lon="77.18884">
        <ele>3490</ele>
        <time>2015-08-31T08:30:51Z</time>
      </trkpt>
      <trkpt lat="34.04652" lon="77.18885">
        <ele>3489.6</ele>
        <time>2015-08-31T08:30:52Z</time>
      </trkpt>
      <trkpt lat="34.04651" lon="77.18887">
        <ele>3489</ele>
        <time>2015-08-31T08:30:54Z</time>
      </trkpt>
      <trkpt lat="34.0465" lon="77.18889">
        <ele>3488.8</ele>
        <time>2015-08-31T08:30:55Z</time>
      </trkpt>
      <trkpt lat="34.04648" lon="77.18897">
        <ele>3488</ele>
        <time>2015-08-31T08:31:01Z</time>
      </trkpt>
      <trkpt lat="34.04648" lon="77.18898">
        <ele>3487.8</ele>
        <time>2015-08-31T08:31:02Z</time>
      </trkpt>
      <trkpt lat="34.04647" lon="77.18905">
        <ele>3486.6</ele>
        <time>2015-08-31T08:31:07Z</time>
      </trkpt>
      <trkpt lat="34.04646" lon="77.18907">
        <ele>3486</ele>
        <time>2015-08-31T08:31:09Z</time>
      </trkpt>
      <trkpt lat="34.04646" lon="77.18907">
        <ele>3485.4</ele>
        <time>2015-08-31T08:31:10Z</time>
      </trkpt>
      <trkpt lat="34.04644" lon="77.18909">
        <ele>3484.2</ele>
        <time>2015-08-31T08:31:12Z</time>
      </trkpt>
      <trkpt lat="34.04642" lon="77.1891">
        <ele>3483.6</ele>
        <time>2015-08-31T08:31:14Z</time>
      </trkpt>
      <trkpt lat="34.04641" lon="77.1891">
        <ele>3483.2</ele>
        <time>2015-08-31T08:31:15Z</time>
      </trkpt>
      <trkpt lat="34.04641" lon="77.18911">
        <ele>3482.6</ele>
        <time>2015-08-31T08:31:16Z</time>
      </trkpt>
      <trkpt lat="34.0464" lon="77.1891">
        <ele>3482.2</ele>
        <time>2015-08-31T08:31:17Z</time>
      </trkpt>
      <trkpt lat="34.04638" lon="77.18911">
        <ele>3481.6</ele>
        <time>2015-08-31T08:31:19Z</time>
      </trkpt>
      <trkpt lat="34.04637" lon="77.18926">
        <ele>3481.6</ele>
        <time>2015-08-31T08:31:31Z</time>
      </trkpt>
      <trkpt lat="34.04636" lon="77.18937">
        <ele>3481.4</ele>
        <time>2015-08-31T08:31:40Z</time>
      </trkpt>
      <trkpt lat="34.04636" lon="77.18944">
        <ele>3481</ele>
        <time>2015-08-31T08:31:47Z</time>
      </trkpt>
      <trkpt lat="34.04629" lon="77.18948">
        <ele>3481.4</ele>
        <time>2015-08-31T08:32:00Z</time>
      </trkpt>
      <trkpt lat="34.04626" lon="77.1896">
        <ele>3480.4</ele>
        <time>2015-08-31T08:32:07Z</time>
      </trkpt>
      <trkpt lat="34.04624" lon="77.18963">
        <ele>3480</ele>
        <time>2015-08-31T08:32:10Z</time>
      </trkpt>
      <trkpt lat="34.04623" lon="77.18964">
        <ele>3480</ele>
        <time>2015-08-31T08:32:11Z</time>
      </trkpt>
      <trkpt lat="34.04619" lon="77.18965">
        <ele>3479.4</ele>
        <time>2015-08-31T08:32:14Z</time>
      </trkpt>
      <trkpt lat="34.04617" lon="77.18968">
        <ele>3479</ele>
        <time>2015-08-31T08:32:17Z</time>
      </trkpt>
      <trkpt lat="34.04615" lon="77.18975">
        <ele>3479</ele>
        <time>2015-08-31T08:32:21Z</time>
      </trkpt>
      <trkpt lat="34.04612" lon="77.1898">
        <ele>3478.8</ele>
        <time>2015-08-31T08:32:26Z</time>
      </trkpt>
      <trkpt lat="34.04611" lon="77.18982">
        <ele>3478.6</ele>
        <time>2015-08-31T08:32:28Z</time>
      </trkpt>
      <trkpt lat="34.04606" lon="77.18993">
        <ele>3478</ele>
        <time>2015-08-31T08:32:38Z</time>
      </trkpt>
      <trkpt lat="34.04605" lon="77.18995">
        <ele>3477.8</ele>
        <time>2015-08-31T08:32:39Z</time>
      </trkpt>
      <trkpt lat="34.04599" lon="77.19001">
        <ele>3477.4</ele>
        <time>2015-08-31T08:32:44Z</time>
      </trkpt>
      <trkpt lat="34.04591" lon="77.19019">
        <ele>3477.2</ele>
        <time>2015-08-31T08:32:59Z</time>
      </trkpt>
      <trkpt lat="34.04589" lon="77.19022">
        <ele>3477</ele>
        <time>2015-08-31T08:33:01Z</time>
      </trkpt>
      <trkpt lat="34.04588" lon="77.19023">
        <ele>3476.8</ele>
        <time>2015-08-31T08:33:02Z</time>
      </trkpt>
      <trkpt lat="34.04586" lon="77.19025">
        <ele>3475.6</ele>
        <time>2015-08-31T08:33:04Z</time>
      </trkpt>
      <trkpt lat="34.04585" lon="77.19026">
        <ele>3474.8</ele>
        <time>2015-08-31T08:33:05Z</time>
      </trkpt>
      <trkpt lat="34.04584" lon="77.19026">
        <ele>3474</ele>
        <time>2015-08-31T08:33:06Z</time>
      </trkpt>
      <trkpt lat="34.04581" lon="77.19026">
        <ele>3473</ele>
        <time>2015-08-31T08:33:08Z</time>
      </trkpt>
      <trkpt lat="34.04577" lon="77.19027">
        <ele>3472</ele>
        <time>2015-08-31T08:33:12Z</time>
      </trkpt>
      <trkpt lat="34.04576" lon="77.19028">
        <ele>3471.8</ele>
        <time>2015-08-31T08:33:13Z</time>
      </trkpt>
      <trkpt lat="34.04574" lon="77.1903">
        <ele>3470.4</ele>
        <time>2015-08-31T08:33:16Z</time>
      </trkpt>
      <trkpt lat="34.0457" lon="77.1904">
        <ele>3469.4</ele>
        <time>2015-08-31T08:33:24Z</time>
      </trkpt>
      <trkpt lat="34.04569" lon="77.19042">
        <ele>3469.4</ele>
        <time>2015-08-31T08:33:25Z</time>
      </trkpt>
      <trkpt lat="34.04569" lon="77.19043">
        <ele>3469</ele>
        <time>2015-08-31T08:33:27Z</time>
      </trkpt>
      <trkpt lat="34.04568" lon="77.19046">
        <ele>3468.4</ele>
        <time>2015-08-31T08:33:30Z</time>
      </trkpt>
      <trkpt lat="34.04567" lon="77.19049">
        <ele>3467</ele>
        <time>2015-08-31T08:33:37Z</time>
      </trkpt>
      <trkpt lat="34.04568" lon="77.19054">
        <ele>3465.8</ele>
        <time>2015-08-31T08:34:04Z</time>
      </trkpt>
      <trkpt lat="34.04566" lon="77.19054">
        <ele>3464.4</ele>
        <time>2015-08-31T08:34:06Z</time>
      </trkpt>
      <trkpt lat="34.04563" lon="77.19059">
        <ele>3463.2</ele>
        <time>2015-08-31T08:34:15Z</time>
      </trkpt>
      <trkpt lat="34.04562" lon="77.19068">
        <ele>3462.2</ele>
        <time>2015-08-31T08:34:24Z</time>
      </trkpt>
      <trkpt lat="34.04562" lon="77.19072">
        <ele>3462.2</ele>
        <time>2015-08-31T08:34:27Z</time>
      </trkpt>
      <trkpt lat="34.04561" lon="77.19075">
        <ele>3460.6</ele>
        <time>2015-08-31T08:34:30Z</time>
      </trkpt>
      <trkpt lat="34.0456" lon="77.19077">
        <ele>3459.2</ele>
        <time>2015-08-31T08:34:32Z</time>
      </trkpt>
      <trkpt lat="34.04559" lon="77.19078">
        <ele>3458</ele>
        <time>2015-08-31T08:34:34Z</time>
      </trkpt>
      <trkpt lat="34.04557" lon="77.19083">
        <ele>3456.8</ele>
        <time>2015-08-31T08:34:39Z</time>
      </trkpt>
      <trkpt lat="34.04553" lon="77.19081">
        <ele>3457.4</ele>
        <time>2015-08-31T08:34:46Z</time>
      </trkpt>
      <trkpt lat="34.04549" lon="77.19088">
        <ele>3457</ele>
        <time>2015-08-31T08:34:53Z</time>
      </trkpt>
      <trkpt lat="34.04548" lon="77.19089">
        <ele>3456.6</ele>
        <time>2015-08-31T08:34:55Z</time>
      </trkpt>
      <trkpt lat="34.04547" lon="77.19089">
        <ele>3455.6</ele>
        <time>2015-08-31T08:34:57Z</time>
      </trkpt>
      <trkpt lat="34.04545" lon="77.19089">
        <ele>3454.4</ele>
        <time>2015-08-31T08:35:00Z</time>
      </trkpt>
      <trkpt lat="34.04542" lon="77.19087">
        <ele>3453.6</ele>
        <time>2015-08-31T08:35:04Z</time>
      </trkpt>
      <trkpt lat="34.0454" lon="77.19086">
        <ele>3453</ele>
        <time>2015-08-31T08:35:05Z</time>
      </trkpt>
      <trkpt lat="34.04537" lon="77.19086">
        <ele>3452</ele>
        <time>2015-08-31T08:35:08Z</time>
      </trkpt>
      <trkpt lat="34.04533" lon="77.19088">
        <ele>3451.2</ele>
        <time>2015-08-31T08:35:13Z</time>
      </trkpt>
      <trkpt lat="34.04533" lon="77.19089">
        <ele>3451</ele>
        <time>2015-08-31T08:35:14Z</time>
      </trkpt>
      <trkpt lat="34.04532" lon="77.19092">
        <ele>3450.6</ele>
        <time>2015-08-31T08:35:16Z</time>
      </trkpt>
      <trkpt lat="34.04532" lon="77.19095">
        <ele>3449.8</ele>
        <time>2015-08-31T08:35:19Z</time>
      </trkpt>
      <trkpt lat="34.04532" lon="77.19097">
        <ele>3449.2</ele>
        <time>2015-08-31T08:35:21Z</time>
      </trkpt>
      <trkpt lat="34.04533" lon="77.19097">
        <ele>3448.8</ele>
        <time>2015-08-31T08:35:23Z</time>
      </trkpt>
      <trkpt lat="34.04534" lon="77.19099">
        <ele>3447.6</ele>
        <time>2015-08-31T08:35:28Z</time>
      </trkpt>
      <trkpt lat="34.04534" lon="77.19104">
        <ele>3446.6</ele>
        <time>2015-08-31T08:35:34Z</time>
      </trkpt>
      <trkpt lat="34.04535" lon="77.19108">
        <ele>3445.4</ele>
        <time>2015-08-31T08:35:41Z</time>
      </trkpt>
      <trkpt lat="34.04535" lon="77.19113">
        <ele>3444.8</ele>
        <time>2015-08-31T08:35:50Z</time>
      </trkpt>
      <trkpt lat="34.04533" lon="77.19114">
        <ele>3444.4</ele>
        <time>2015-08-31T08:35:53Z</time>
      </trkpt>
      <trkpt lat="34.04532" lon="77.19118">
        <ele>3443.4</ele>
        <time>2015-08-31T08:36:09Z</time>
      </trkpt>
      <trkpt lat="34.04533" lon="77.19126">
        <ele>3442.4</ele>
        <time>2015-08-31T08:36:17Z</time>
      </trkpt>
      <trkpt lat="34.04532" lon="77.19132">
        <ele>3441.6</ele>
        <time>2015-08-31T08:36:24Z</time>
      </trkpt>
      <trkpt lat="34.04531" lon="77.19134">
        <ele>3441.2</ele>
        <time>2015-08-31T08:36:26Z</time>
      </trkpt>
      <trkpt lat="34.04531" lon="77.19146">
        <ele>3440.2</ele>
        <time>2015-08-31T08:36:43Z</time>
      </trkpt>
      <trkpt lat="34.04532" lon="77.19148">
        <ele>3439</ele>
        <time>2015-08-31T08:36:46Z</time>
      </trkpt>
      <trkpt lat="34.04529" lon="77.19157">
        <ele>3438</ele>
        <time>2015-08-31T08:36:55Z</time>
      </trkpt>
      <trkpt lat="34.04534" lon="77.19163">
        <ele>3437</ele>
        <time>2015-08-31T08:37:04Z</time>
      </trkpt>
      <trkpt lat="34.0454" lon="77.19172">
        <ele>3436.4</ele>
        <time>2015-08-31T08:37:32Z</time>
      </trkpt>
      <trkpt lat="34.0454" lon="77.19173">
        <ele>3436.2</ele>
        <time>2015-08-31T08:37:34Z</time>
      </trkpt>
      <trkpt lat="34.04543" lon="77.19176">
        <ele>3435.8</ele>
        <time>2015-08-31T08:37:39Z</time>
      </trkpt>
      <trkpt lat="34.04543" lon="77.19176">
        <ele>3435.6</ele>
        <time>2015-08-31T08:37:40Z</time>
      </trkpt>
      <trkpt lat="34.04539" lon="77.19181">
        <ele>3434.8</ele>
        <time>2015-08-31T08:38:04Z</time>
      </trkpt>
      <trkpt lat="34.04535" lon="77.19184">
        <ele>3434.8</ele>
        <time>2015-08-31T08:38:13Z</time>
      </trkpt>
      <trkpt lat="34.04535" lon="77.19186">
        <ele>3433.6</ele>
        <time>2015-08-31T08:38:27Z</time>
      </trkpt>
      <trkpt lat="34.04536" lon="77.19185">
        <ele>3432.6</ele>
        <time>2015-08-31T08:38:38Z</time>
      </trkpt>
      <trkpt lat="34.04536" lon="77.19183">
        <ele>3434</ele>
        <time>2015-08-31T08:38:46Z</time>
      </trkpt>
      <trkpt lat="34.04525" lon="77.19183">
        <ele>3434.8</ele>
        <time>2015-08-31T08:39:00Z</time>
      </trkpt>
      <trkpt lat="34.0453" lon="77.19184">
        <ele>3434</ele>
        <time>2015-08-31T08:39:07Z</time>
      </trkpt>
      <trkpt lat="34.0453" lon="77.19184">
        <ele>3433.8</ele>
        <time>2015-08-31T08:39:09Z</time>
      </trkpt>
      <trkpt lat="34.04526" lon="77.19178">
        <ele>3435</ele>
        <time>2015-08-31T08:39:22Z</time>
      </trkpt>
      <trkpt lat="34.04531" lon="77.19181">
        <ele>3434.2</ele>
        <time>2015-08-31T08:39:45Z</time>
      </trkpt>
      <trkpt lat="34.04533" lon="77.19185">
        <ele>3434</ele>
        <time>2015-08-31T08:39:46Z</time>
      </trkpt>
      <trkpt lat="34.04531" lon="77.19183">
        <ele>3433</ele>
        <time>2015-08-31T08:40:07Z</time>
      </trkpt>
      <trkpt lat="34.04532" lon="77.1918">
        <ele>3433.6</ele>
        <time>2015-08-31T08:40:23Z</time>
      </trkpt>
      <trkpt lat="34.04533" lon="77.19183">
        <ele>3433.6</ele>
        <time>2015-08-31T08:40:25Z</time>
      </trkpt>
      <trkpt lat="34.04535" lon="77.19188">
        <ele>3432.2</ele>
        <time>2015-08-31T08:40:28Z</time>
      </trkpt>
      <trkpt lat="34.04535" lon="77.19189">
        <ele>3431.8</ele>
        <time>2015-08-31T08:40:29Z</time>
      </trkpt>
      <trkpt lat="34.04541" lon="77.19191">
        <ele>3432.8</ele>
        <time>2015-08-31T08:40:36Z</time>
      </trkpt>
      <trkpt lat="34.04542" lon="77.1919">
        <ele>3433</ele>
        <time>2015-08-31T08:40:37Z</time>
      </trkpt>
      <trkpt lat="34.04544" lon="77.19189">
        <ele>3432.6</ele>
        <time>2015-08-31T08:40:39Z</time>
      </trkpt>
      <trkpt lat="34.04544" lon="77.1919">
        <ele>3431.4</ele>
        <time>2015-08-31T08:40:41Z</time>
      </trkpt>
      <trkpt lat="34.04543" lon="77.19194">
        <ele>3430.2</ele>
        <time>2015-08-31T08:40:52Z</time>
      </trkpt>
      <trkpt lat="34.04543" lon="77.19197">
        <ele>3428.8</ele>
        <time>2015-08-31T08:40:57Z</time>
      </trkpt>
      <trkpt lat="34.04545" lon="77.19198">
        <ele>3427</ele>
        <time>2015-08-31T08:40:59Z</time>
      </trkpt>
      <trkpt lat="34.0455" lon="77.19199">
        <ele>3426.6</ele>
        <time>2015-08-31T08:41:04Z</time>
      </trkpt>
      <trkpt lat="34.04552" lon="77.19204">
        <ele>3427.2</ele>
        <time>2015-08-31T08:41:08Z</time>
      </trkpt>
      <trkpt lat="34.04551" lon="77.19208">
        <ele>3426</ele>
        <time>2015-08-31T08:41:11Z</time>
      </trkpt>
      <trkpt lat="34.04554" lon="77.19218">
        <ele>3425</ele>
        <time>2015-08-31T08:41:30Z</time>
      </trkpt>
      <trkpt lat="34.04558" lon="77.19233">
        <ele>3424.2</ele>
        <time>2015-08-31T08:41:49Z</time>
      </trkpt>
      <trkpt lat="34.04559" lon="77.19235">
        <ele>3423.8</ele>
        <time>2015-08-31T08:41:52Z</time>
      </trkpt>
      <trkpt lat="34.04559" lon="77.19238">
        <ele>3422.6</ele>
        <time>2015-08-31T08:41:55Z</time>
      </trkpt>
      <trkpt lat="34.04554" lon="77.19239">
        <ele>3421.8</ele>
        <time>2015-08-31T08:42:02Z</time>
      </trkpt>
      <trkpt lat="34.0455" lon="77.19237">
        <ele>3421.8</ele>
        <time>2015-08-31T08:42:05Z</time>
      </trkpt>
      <trkpt lat="34.04548" lon="77.19236">
        <ele>3421.6</ele>
        <time>2015-08-31T08:42:07Z</time>
      </trkpt>
      <trkpt lat="34.0455" lon="77.1924">
        <ele>3421.4</ele>
        <time>2015-08-31T08:42:10Z</time>
      </trkpt>
      <trkpt lat="34.04548" lon="77.19239">
        <ele>3421.4</ele>
        <time>2015-08-31T08:42:14Z</time>
      </trkpt>
      <trkpt lat="34.04547" lon="77.19242">
        <ele>3420.2</ele>
        <time>2015-08-31T08:42:18Z</time>
      </trkpt>
      <trkpt lat="34.04546" lon="77.19254">
        <ele>3419.4</ele>
        <time>2015-08-31T08:42:27Z</time>
      </trkpt>
      <trkpt lat="34.04545" lon="77.19255">
        <ele>3419</ele>
        <time>2015-08-31T08:42:29Z</time>
      </trkpt>
      <trkpt lat="34.04543" lon="77.19256">
        <ele>3417.8</ele>
        <time>2015-08-31T08:42:34Z</time>
      </trkpt>
      <trkpt lat="34.04539" lon="77.19258">
        <ele>3418.8</ele>
        <time>2015-08-31T08:42:42Z</time>
      </trkpt>
      <trkpt lat="34.04538" lon="77.19256">
        <ele>3420</ele>
        <time>2015-08-31T08:42:45Z</time>
      </trkpt>
      <trkpt lat="34.04537" lon="77.19255">
        <ele>3420</ele>
        <time>2015-08-31T08:42:46Z</time>
      </trkpt>
      <trkpt lat="34.04534" lon="77.19254">
        <ele>3419.8</ele>
        <time>2015-08-31T08:42:50Z</time>
      </trkpt>
      <trkpt lat="34.04532" lon="77.19253">
        <ele>3419.8</ele>
        <time>2015-08-31T08:42:53Z</time>
      </trkpt>
      <trkpt lat="34.04527" lon="77.19252">
        <ele>3418.8</ele>
        <time>2015-08-31T08:43:01Z</time>
      </trkpt>
      <trkpt lat="34.04525" lon="77.19252">
        <ele>3418.6</ele>
        <time>2015-08-31T08:43:03Z</time>
      </trkpt>
      <trkpt lat="34.04524" lon="77.19253">
        <ele>3418.6</ele>
        <time>2015-08-31T08:43:05Z</time>
      </trkpt>
      <trkpt lat="34.04522" lon="77.19255">
        <ele>3419.2</ele>
        <time>2015-08-31T08:43:08Z</time>
      </trkpt>
      <trkpt lat="34.04521" lon="77.19257">
        <ele>3419.8</ele>
        <time>2015-08-31T08:43:10Z</time>
      </trkpt>
      <trkpt lat="34.04521" lon="77.19257">
        <ele>3421</ele>
        <time>2015-08-31T08:43:16Z</time>
      </trkpt>
      <trkpt lat="34.04518" lon="77.19257">
        <ele>3419.8</ele>
        <time>2015-08-31T08:43:28Z</time>
      </trkpt>
      <trkpt lat="34.04517" lon="77.19265">
        <ele>3419.2</ele>
        <time>2015-08-31T08:43:35Z</time>
      </trkpt>
      <trkpt lat="34.04514" lon="77.19268">
        <ele>3418.4</ele>
        <time>2015-08-31T08:43:42Z</time>
      </trkpt>
      <trkpt lat="34.04512" lon="77.1927">
        <ele>3417.4</ele>
        <time>2015-08-31T08:43:46Z</time>
      </trkpt>
      <trkpt lat="34.04508" lon="77.19272">
        <ele>3416.8</ele>
        <time>2015-08-31T08:43:51Z</time>
      </trkpt>
      <trkpt lat="34.04505" lon="77.19274">
        <ele>3416.4</ele>
        <time>2015-08-31T08:43:54Z</time>
      </trkpt>
      <trkpt lat="34.04505" lon="77.19274">
        <ele>3416.4</ele>
        <time>2015-08-31T08:43:55Z</time>
      </trkpt>
      <trkpt lat="34.04504" lon="77.19274">
        <ele>3416.2</ele>
        <time>2015-08-31T08:43:56Z</time>
      </trkpt>
      <trkpt lat="34.04499" lon="77.19271">
        <ele>3415.2</ele>
        <time>2015-08-31T08:44:04Z</time>
      </trkpt>
      <trkpt lat="34.04497" lon="77.19272">
        <ele>3415.2</ele>
        <time>2015-08-31T08:44:06Z</time>
      </trkpt>
      <trkpt lat="34.04495" lon="77.19273">
        <ele>3415.4</ele>
        <time>2015-08-31T08:44:08Z</time>
      </trkpt>
      <trkpt lat="34.04481" lon="77.19277">
        <ele>3414.2</ele>
        <time>2015-08-31T08:44:25Z</time>
      </trkpt>
      <trkpt lat="34.04475" lon="77.19273">
        <ele>3413.6</ele>
        <time>2015-08-31T08:44:30Z</time>
      </trkpt>
      <trkpt lat="34.04471" lon="77.19275">
        <ele>3413.2</ele>
        <time>2015-08-31T08:44:35Z</time>
      </trkpt>
      <trkpt lat="34.0447" lon="77.19275">
        <ele>3413.2</ele>
        <time>2015-08-31T08:44:36Z</time>
      </trkpt>
      <trkpt lat="34.04466" lon="77.19274">
        <ele>3412</ele>
        <time>2015-08-31T08:44:42Z</time>
      </trkpt>
      <trkpt lat="34.04456" lon="77.19276">
        <ele>3410.8</ele>
        <time>2015-08-31T08:44:49Z</time>
      </trkpt>
      <trkpt lat="34.04452" lon="77.19282">
        <ele>3409.6</ele>
        <time>2015-08-31T08:44:55Z</time>
      </trkpt>
      <trkpt lat="34.04448" lon="77.19285">
        <ele>3408.4</ele>
        <time>2015-08-31T08:44:59Z</time>
      </trkpt>
      <trkpt lat="34.04448" lon="77.19286">
        <ele>3407.2</ele>
        <time>2015-08-31T08:45:02Z</time>
      </trkpt>
      <trkpt lat="34.04447" lon="77.19289">
        <ele>3406</ele>
        <time>2015-08-31T08:45:06Z</time>
      </trkpt>
      <trkpt lat="34.04445" lon="77.19297">
        <ele>3405.4</ele>
        <time>2015-08-31T08:45:11Z</time>
      </trkpt>
      <trkpt lat="34.04445" lon="77.193">
        <ele>3405</ele>
        <time>2015-08-31T08:45:17Z</time>
      </trkpt>
      <trkpt lat="34.0444" lon="77.19314">
        <ele>3404</ele>
        <time>2015-08-31T08:45:29Z</time>
      </trkpt>
      <trkpt lat="34.04436" lon="77.19322">
        <ele>3403</ele>
        <time>2015-08-31T08:45:36Z</time>
      </trkpt>
      <trkpt lat="34.04437" lon="77.19327">
        <ele>3402.6</ele>
        <time>2015-08-31T08:45:38Z</time>
      </trkpt>
      <trkpt lat="34.04437" lon="77.19334">
        <ele>3401.8</ele>
        <time>2015-08-31T08:45:43Z</time>
      </trkpt>
      <trkpt lat="34.04442" lon="77.19341">
        <ele>3401.6</ele>
        <time>2015-08-31T08:45:47Z</time>
      </trkpt>
      <trkpt lat="34.04443" lon="77.19345">
        <ele>3401.6</ele>
        <time>2015-08-31T08:45:51Z</time>
      </trkpt>
      <trkpt lat="34.04439" lon="77.19353">
        <ele>3400.8</ele>
        <time>2015-08-31T08:46:02Z</time>
      </trkpt>
      <trkpt lat="34.04437" lon="77.19356">
        <ele>3399.6</ele>
        <time>2015-08-31T08:46:06Z</time>
      </trkpt>
      <trkpt lat="34.04437" lon="77.1936">
        <ele>3398.6</ele>
        <time>2015-08-31T08:46:11Z</time>
      </trkpt>
      <trkpt lat="34.04438" lon="77.19362">
        <ele>3397.4</ele>
        <time>2015-08-31T08:46:14Z</time>
      </trkpt>
      <trkpt lat="34.04441" lon="77.19366">
        <ele>3396.2</ele>
        <time>2015-08-31T08:46:18Z</time>
      </trkpt>
      <trkpt lat="34.04445" lon="77.19379">
        <ele>3395.2</ele>
        <time>2015-08-31T08:46:30Z</time>
      </trkpt>
      <trkpt lat="34.04447" lon="77.19383">
        <ele>3394</ele>
        <time>2015-08-31T08:46:36Z</time>
      </trkpt>
      <trkpt lat="34.04446" lon="77.19388">
        <ele>3392.6</ele>
        <time>2015-08-31T08:46:41Z</time>
      </trkpt>
      <trkpt lat="34.04456" lon="77.1939">
        <ele>3392</ele>
        <time>2015-08-31T08:46:45Z</time>
      </trkpt>
      <trkpt lat="34.04464" lon="77.19393">
        <ele>3391.4</ele>
        <time>2015-08-31T08:46:47Z</time>
      </trkpt>
      <trkpt lat="34.04462" lon="77.19395">
        <ele>3390.6</ele>
        <time>2015-08-31T08:46:49Z</time>
      </trkpt>
      <trkpt lat="34.04461" lon="77.19396">
        <ele>3390.4</ele>
        <time>2015-08-31T08:46:50Z</time>
      </trkpt>
      <trkpt lat="34.04458" lon="77.19399">
        <ele>3390.2</ele>
        <time>2015-08-31T08:46:53Z</time>
      </trkpt>
      <trkpt lat="34.04457" lon="77.19405">
        <ele>3389.2</ele>
        <time>2015-08-31T08:47:00Z</time>
      </trkpt>
      <trkpt lat="34.04456" lon="77.19408">
        <ele>3388.8</ele>
        <time>2015-08-31T08:47:02Z</time>
      </trkpt>
      <trkpt lat="34.04457" lon="77.19413">
        <ele>3388.2</ele>
        <time>2015-08-31T08:47:04Z</time>
      </trkpt>
      <trkpt lat="34.04457" lon="77.19414">
        <ele>3388</ele>
        <time>2015-08-31T08:47:05Z</time>
      </trkpt>
      <trkpt lat="34.04458" lon="77.19412">
        <ele>3386.6</ele>
        <time>2015-08-31T08:47:09Z</time>
      </trkpt>
      <trkpt lat="34.04454" lon="77.19419">
        <ele>3385.6</ele>
        <time>2015-08-31T08:47:19Z</time>
      </trkpt>
      <trkpt lat="34.04455" lon="77.1942">
        <ele>3385.4</ele>
        <time>2015-08-31T08:47:20Z</time>
      </trkpt>
      <trkpt lat="34.04458" lon="77.19422">
        <ele>3384.8</ele>
        <time>2015-08-31T08:47:23Z</time>
      </trkpt>
      <trkpt lat="34.04458" lon="77.19424">
        <ele>3384.6</ele>
        <time>2015-08-31T08:47:26Z</time>
      </trkpt>
      <trkpt lat="34.0446" lon="77.19437">
        <ele>3383.6</ele>
        <time>2015-08-31T08:47:43Z</time>
      </trkpt>
      <trkpt lat="34.04465" lon="77.19441">
        <ele>3382.4</ele>
        <time>2015-08-31T08:47:54Z</time>
      </trkpt>
      <trkpt lat="34.04466" lon="77.19446">
        <ele>3381.4</ele>
        <time>2015-08-31T08:47:59Z</time>
      </trkpt>
      <trkpt lat="34.04466" lon="77.19448">
        <ele>3381.2</ele>
        <time>2015-08-31T08:48:01Z</time>
      </trkpt>
      <trkpt lat="34.04465" lon="77.19454">
        <ele>3380</ele>
        <time>2015-08-31T08:48:13Z</time>
      </trkpt>
      <trkpt lat="34.04461" lon="77.19456">
        <ele>3379.6</ele>
        <time>2015-08-31T08:48:17Z</time>
      </trkpt>
      <trkpt lat="34.04459" lon="77.19459">
        <ele>3379.2</ele>
        <time>2015-08-31T08:48:20Z</time>
      </trkpt>
      <trkpt lat="34.04458" lon="77.19458">
        <ele>3378.8</ele>
        <time>2015-08-31T08:48:21Z</time>
      </trkpt>
      <trkpt lat="34.04456" lon="77.19458">
        <ele>3378.2</ele>
        <time>2015-08-31T08:48:22Z</time>
      </trkpt>
      <trkpt lat="34.04455" lon="77.19459">
        <ele>3377.8</ele>
        <time>2015-08-31T08:48:23Z</time>
      </trkpt>
      <trkpt lat="34.04449" lon="77.19461">
        <ele>3377</ele>
        <time>2015-08-31T08:48:30Z</time>
      </trkpt>
      <trkpt lat="34.04445" lon="77.19462">
        <ele>3377.2</ele>
        <time>2015-08-31T08:48:34Z</time>
      </trkpt>
      <trkpt lat="34.04443" lon="77.19463">
        <ele>3377.4</ele>
        <time>2015-08-31T08:48:36Z</time>
      </trkpt>
      <trkpt lat="34.0444" lon="77.19467">
        <ele>3378</ele>
        <time>2015-08-31T08:48:40Z</time>
      </trkpt>
      <trkpt lat="34.04441" lon="77.19475">
        <ele>3377.8</ele>
        <time>2015-08-31T08:48:50Z</time>
      </trkpt>
      <trkpt lat="34.04442" lon="77.19478">
        <ele>3377.4</ele>
        <time>2015-08-31T08:48:53Z</time>
      </trkpt>
      <trkpt lat="34.04442" lon="77.19481">
        <ele>3377.4</ele>
        <time>2015-08-31T08:48:57Z</time>
      </trkpt>
      <trkpt lat="34.04442" lon="77.19483">
        <ele>3376.4</ele>
        <time>2015-08-31T08:49:00Z</time>
      </trkpt>
      <trkpt lat="34.04441" lon="77.19488">
        <ele>3375.4</ele>
        <time>2015-08-31T08:49:06Z</time>
      </trkpt>
      <trkpt lat="34.04437" lon="77.19494">
        <ele>3375.4</ele>
        <time>2015-08-31T08:49:13Z</time>
      </trkpt>
      <trkpt lat="34.04436" lon="77.19495">
        <ele>3375.4</ele>
        <time>2015-08-31T08:49:15Z</time>
      </trkpt>
      <trkpt lat="34.04434" lon="77.19498">
        <ele>3374.4</ele>
        <time>2015-08-31T08:49:23Z</time>
      </trkpt>
      <trkpt lat="34.04431" lon="77.19506">
        <ele>3373.4</ele>
        <time>2015-08-31T08:49:36Z</time>
      </trkpt>
      <trkpt lat="34.0442" lon="77.19519">
        <ele>3372.8</ele>
        <time>2015-08-31T08:49:52Z</time>
      </trkpt>
      <trkpt lat="34.04412" lon="77.19524">
        <ele>3372.2</ele>
        <time>2015-08-31T08:49:56Z</time>
      </trkpt>
      <trkpt lat="34.04423" lon="77.19537">
        <ele>3371.6</ele>
        <time>2015-08-31T08:50:15Z</time>
      </trkpt>
      <trkpt lat="34.04422" lon="77.19538">
        <ele>3371.2</ele>
        <time>2015-08-31T08:50:16Z</time>
      </trkpt>
      <trkpt lat="34.04416" lon="77.1954">
        <ele>3370.4</ele>
        <time>2015-08-31T08:50:19Z</time>
      </trkpt>
      <trkpt lat="34.04415" lon="77.1954">
        <ele>3370</ele>
        <time>2015-08-31T08:50:20Z</time>
      </trkpt>
      <trkpt lat="34.0441" lon="77.19542">
        <ele>3369.4</ele>
        <time>2015-08-31T08:50:24Z</time>
      </trkpt>
      <trkpt lat="34.04403" lon="77.19552">
        <ele>3369</ele>
        <time>2015-08-31T08:50:35Z</time>
      </trkpt>
      <trkpt lat="34.04395" lon="77.19558">
        <ele>3368</ele>
        <time>2015-08-31T08:50:44Z</time>
      </trkpt>
      <trkpt lat="34.04394" lon="77.19562">
        <ele>3368</ele>
        <time>2015-08-31T08:50:45Z</time>
      </trkpt>
      <trkpt lat="34.04392" lon="77.19565">
        <ele>3367.6</ele>
        <time>2015-08-31T08:50:48Z</time>
      </trkpt>
      <trkpt lat="34.04388" lon="77.1957">
        <ele>3366.8</ele>
        <time>2015-08-31T08:50:53Z</time>
      </trkpt>
      <trkpt lat="34.04387" lon="77.1957">
        <ele>3366.6</ele>
        <time>2015-08-31T08:50:54Z</time>
      </trkpt>
      <trkpt lat="34.04382" lon="77.19573">
        <ele>3365.8</ele>
        <time>2015-08-31T08:50:59Z</time>
      </trkpt>
      <trkpt lat="34.0438" lon="77.19574">
        <ele>3365.4</ele>
        <time>2015-08-31T08:51:02Z</time>
      </trkpt>
      <trkpt lat="34.04363" lon="77.19578">
        <ele>3365.2</ele>
        <time>2015-08-31T08:51:16Z</time>
      </trkpt>
      <trkpt lat="34.04359" lon="77.19576">
        <ele>3364.8</ele>
        <time>2015-08-31T08:51:23Z</time>
      </trkpt>
      <trkpt lat="34.04357" lon="77.19586">
        <ele>3363.8</ele>
        <time>2015-08-31T08:51:31Z</time>
      </trkpt>
      <trkpt lat="34.04355" lon="77.19589">
        <ele>3363.8</ele>
        <time>2015-08-31T08:51:34Z</time>
      </trkpt>
      <trkpt lat="34.04354" lon="77.1959">
        <ele>3363.6</ele>
        <time>2015-08-31T08:51:35Z</time>
      </trkpt>
      <trkpt lat="34.04353" lon="77.1959">
        <ele>3363.6</ele>
        <time>2015-08-31T08:51:36Z</time>
      </trkpt>
      <trkpt lat="34.0435" lon="77.19592">
        <ele>3363.4</ele>
        <time>2015-08-31T08:51:40Z</time>
      </trkpt>
      <trkpt lat="34.04348" lon="77.19595">
        <ele>3362.6</ele>
        <time>2015-08-31T08:51:44Z</time>
      </trkpt>
      <trkpt lat="34.04347" lon="77.19596">
        <ele>3362</ele>
        <time>2015-08-31T08:51:46Z</time>
      </trkpt>
      <trkpt lat="34.04345" lon="77.19596">
        <ele>3361.6</ele>
        <time>2015-08-31T08:51:48Z</time>
      </trkpt>
      <trkpt lat="34.04344" lon="77.19597">
        <ele>3361.2</ele>
        <time>2015-08-31T08:51:50Z</time>
      </trkpt>
      <trkpt lat="34.0434" lon="77.19597">
        <ele>3360.4</ele>
        <time>2015-08-31T08:51:55Z</time>
      </trkpt>
      <trkpt lat="34.04327" lon="77.19609">
        <ele>3359.8</ele>
        <time>2015-08-31T08:52:08Z</time>
      </trkpt>
      <trkpt lat="34.04324" lon="77.1961">
        <ele>3359.6</ele>
        <time>2015-08-31T08:52:11Z</time>
      </trkpt>
      <trkpt lat="34.04323" lon="77.1961">
        <ele>3359.4</ele>
        <time>2015-08-31T08:52:12Z</time>
      </trkpt>
      <trkpt lat="34.04321" lon="77.19611">
        <ele>3359</ele>
        <time>2015-08-31T08:52:15Z</time>
      </trkpt>
      <trkpt lat="34.0432" lon="77.19614">
        <ele>3359.2</ele>
        <time>2015-08-31T08:52:17Z</time>
      </trkpt>
      <trkpt lat="34.04318" lon="77.19616">
        <ele>3359.2</ele>
        <time>2015-08-31T08:52:19Z</time>
      </trkpt>
      <trkpt lat="34.04309" lon="77.19622">
        <ele>3359.2</ele>
        <time>2015-08-31T08:52:25Z</time>
      </trkpt>
      <trkpt lat="34.04302" lon="77.19626">
        <ele>3359.4</ele>
        <time>2015-08-31T08:52:30Z</time>
      </trkpt>
      <trkpt lat="34.04302" lon="77.19629">
        <ele>3359</ele>
        <time>2015-08-31T08:52:33Z</time>
      </trkpt>
      <trkpt lat="34.04299" lon="77.19632">
        <ele>3359</ele>
        <time>2015-08-31T08:52:37Z</time>
      </trkpt>
      <trkpt lat="34.04298" lon="77.19632">
        <ele>3358.8</ele>
        <time>2015-08-31T08:52:38Z</time>
      </trkpt>
      <trkpt lat="34.04296" lon="77.19633">
        <ele>3358.4</ele>
        <time>2015-08-31T08:52:41Z</time>
      </trkpt>
      <trkpt lat="34.04294" lon="77.19637">
        <ele>3357.8</ele>
        <time>2015-08-31T08:52:44Z</time>
      </trkpt>
      <trkpt lat="34.04292" lon="77.19637">
        <ele>3357.6</ele>
        <time>2015-08-31T08:52:46Z</time>
      </trkpt>
      <trkpt lat="34.04291" lon="77.19636">
        <ele>3357.4</ele>
        <time>2015-08-31T08:52:47Z</time>
      </trkpt>
      <trkpt lat="34.0429" lon="77.19636">
        <ele>3357</ele>
        <time>2015-08-31T08:52:49Z</time>
      </trkpt>
      <trkpt lat="34.04287" lon="77.19635">
        <ele>3356.4</ele>
        <time>2015-08-31T08:52:52Z</time>
      </trkpt>
      <trkpt lat="34.04286" lon="77.19635">
        <ele>3356.2</ele>
        <time>2015-08-31T08:52:53Z</time>
      </trkpt>
      <trkpt lat="34.04284" lon="77.19636">
        <ele>3356</ele>
        <time>2015-08-31T08:52:55Z</time>
      </trkpt>
      <trkpt lat="34.04282" lon="77.19635">
        <ele>3355.2</ele>
        <time>2015-08-31T08:52:59Z</time>
      </trkpt>
      <trkpt lat="34.04282" lon="77.19634">
        <ele>3354.6</ele>
        <time>2015-08-31T08:53:01Z</time>
      </trkpt>
      <trkpt lat="34.04282" lon="77.19629">
        <ele>3354</ele>
        <time>2015-08-31T08:53:04Z</time>
      </trkpt>
      <trkpt lat="34.0428" lon="77.19626">
        <ele>3353.4</ele>
        <time>2015-08-31T08:53:07Z</time>
      </trkpt>
      <trkpt lat="34.04279" lon="77.19625">
        <ele>3353.2</ele>
        <time>2015-08-31T08:53:09Z</time>
      </trkpt>
      <trkpt lat="34.04274" lon="77.19627">
        <ele>3353</ele>
        <time>2015-08-31T08:53:14Z</time>
      </trkpt>
      <trkpt lat="34.04273" lon="77.1962">
        <ele>3353</ele>
        <time>2015-08-31T08:53:20Z</time>
      </trkpt>
      <trkpt lat="34.04274" lon="77.19618">
        <ele>3353.2</ele>
        <time>2015-08-31T08:53:24Z</time>
      </trkpt>
      <trkpt lat="34.04274" lon="77.19617">
        <ele>3354</ele>
        <time>2015-08-31T08:53:28Z</time>
      </trkpt>
      <trkpt lat="34.04273" lon="77.19616">
        <ele>3355</ele>
        <time>2015-08-31T08:53:34Z</time>
      </trkpt>
      <trkpt lat="34.04279" lon="77.19616">
        <ele>3355.2</ele>
        <time>2015-08-31T08:53:44Z</time>
      </trkpt>
      <trkpt lat="34.04277" lon="77.19623">
        <ele>3355.2</ele>
        <time>2015-08-31T08:53:48Z</time>
      </trkpt>
      <trkpt lat="34.04276" lon="77.19625">
        <ele>3355</ele>
        <time>2015-08-31T08:53:52Z</time>
      </trkpt>
      <trkpt lat="34.04276" lon="77.1963">
        <ele>3354</ele>
        <time>2015-08-31T08:53:59Z</time>
      </trkpt>
      <trkpt lat="34.04275" lon="77.19634">
        <ele>3355</ele>
        <time>2015-08-31T08:54:16Z</time>
      </trkpt>
      <trkpt lat="34.04286" lon="77.19637">
        <ele>3355.6</ele>
        <time>2015-08-31T08:55:05Z</time>
      </trkpt>
      <trkpt lat="34.04289" lon="77.19641">
        <ele>3354.8</ele>
        <time>2015-08-31T08:55:21Z</time>
      </trkpt>
      <trkpt lat="34.04285" lon="77.19637">
        <ele>3354.6</ele>
        <time>2015-08-31T08:55:29Z</time>
      </trkpt>
      <trkpt lat="34.04278" lon="77.19639">
        <ele>3355</ele>
        <time>2015-08-31T08:55:38Z</time>
      </trkpt>
      <trkpt lat="34.04271" lon="77.19644">
        <ele>3354.2</ele>
        <time>2015-08-31T08:55:47Z</time>
      </trkpt>
      <trkpt lat="34.04269" lon="77.19646">
        <ele>3354</ele>
        <time>2015-08-31T08:55:49Z</time>
      </trkpt>
      <trkpt lat="34.04265" lon="77.1964">
        <ele>3353</ele>
        <time>2015-08-31T08:56:01Z</time>
      </trkpt>
      <trkpt lat="34.04264" lon="77.19641">
        <ele>3352.8</ele>
        <time>2015-08-31T08:56:02Z</time>
      </trkpt>
      <trkpt lat="34.04262" lon="77.1964">
        <ele>3352.4</ele>
        <time>2015-08-31T08:56:04Z</time>
      </trkpt>
      <trkpt lat="34.04261" lon="77.19635">
        <ele>3351.8</ele>
        <time>2015-08-31T08:56:08Z</time>
      </trkpt>
      <trkpt lat="34.0426" lon="77.19633">
        <ele>3351.6</ele>
        <time>2015-08-31T08:56:09Z</time>
      </trkpt>
      <trkpt lat="34.04258" lon="77.19624">
        <ele>3350.6</ele>
        <time>2015-08-31T08:56:18Z</time>
      </trkpt>
      <trkpt lat="34.04252" lon="77.19617">
        <ele>3349.4</ele>
        <time>2015-08-31T08:56:34Z</time>
      </trkpt>
      <trkpt lat="34.04252" lon="77.19616">
        <ele>3349</ele>
        <time>2015-08-31T08:56:36Z</time>
      </trkpt>
      <trkpt lat="34.04252" lon="77.19612">
        <ele>3348.4</ele>
        <time>2015-08-31T08:56:40Z</time>
      </trkpt>
      <trkpt lat="34.04252" lon="77.1961">
        <ele>3348.2</ele>
        <time>2015-08-31T08:56:42Z</time>
      </trkpt>
      <trkpt lat="34.04254" lon="77.19594">
        <ele>3348.2</ele>
        <time>2015-08-31T08:57:03Z</time>
      </trkpt>
      <trkpt lat="34.04251" lon="77.19591">
        <ele>3347.8</ele>
        <time>2015-08-31T08:57:05Z</time>
      </trkpt>
      <trkpt lat="34.0425" lon="77.19589">
        <ele>3347.6</ele>
        <time>2015-08-31T08:57:07Z</time>
      </trkpt>
      <trkpt lat="34.04249" lon="77.19589">
        <ele>3347.4</ele>
        <time>2015-08-31T08:57:08Z</time>
      </trkpt>
      <trkpt lat="34.04246" lon="77.19587">
        <ele>3346.6</ele>
        <time>2015-08-31T08:57:12Z</time>
      </trkpt>
      <trkpt lat="34.04244" lon="77.19586">
        <ele>3346.2</ele>
        <time>2015-08-31T08:57:14Z</time>
      </trkpt>
      <trkpt lat="34.04244" lon="77.19585">
        <ele>3346.2</ele>
        <time>2015-08-31T08:57:15Z</time>
      </trkpt>
      <trkpt lat="34.04239" lon="77.19584">
        <ele>3345.4</ele>
        <time>2015-08-31T08:57:20Z</time>
      </trkpt>
      <trkpt lat="34.04243" lon="77.1958">
        <ele>3345.2</ele>
        <time>2015-08-31T08:57:21Z</time>
      </trkpt>
      <trkpt lat="34.04239" lon="77.19578">
        <ele>3344.2</ele>
        <time>2015-08-31T08:57:29Z</time>
      </trkpt>
      <trkpt lat="34.04238" lon="77.19576">
        <ele>3343.6</ele>
        <time>2015-08-31T08:57:32Z</time>
      </trkpt>
      <trkpt lat="34.04234" lon="77.19575">
        <ele>3343</ele>
        <time>2015-08-31T08:57:36Z</time>
      </trkpt>
      <trkpt lat="34.04229" lon="77.1957">
        <ele>3342</ele>
        <time>2015-08-31T08:57:43Z</time>
      </trkpt>
      <trkpt lat="34.04224" lon="77.19565">
        <ele>3340.8</ele>
        <time>2015-08-31T08:57:53Z</time>
      </trkpt>
      <trkpt lat="34.04224" lon="77.19565">
        <ele>3340.8</ele>
        <time>2015-08-31T08:57:54Z</time>
      </trkpt>
      <trkpt lat="34.04217" lon="77.19566">
        <ele>3340.4</ele>
        <time>2015-08-31T08:58:00Z</time>
      </trkpt>
      <trkpt lat="34.04213" lon="77.19568">
        <ele>3340</ele>
        <time>2015-08-31T08:58:03Z</time>
      </trkpt>
      <trkpt lat="34.04212" lon="77.19569">
        <ele>3339.8</ele>
        <time>2015-08-31T08:58:04Z</time>
      </trkpt>
      <trkpt lat="34.04205" lon="77.19569">
        <ele>3338.6</ele>
        <time>2015-08-31T08:58:12Z</time>
      </trkpt>
      <trkpt lat="34.04198" lon="77.19567">
        <ele>3337.6</ele>
        <time>2015-08-31T08:58:26Z</time>
      </trkpt>
      <trkpt lat="34.04193" lon="77.19564">
        <ele>3336.6</ele>
        <time>2015-08-31T08:58:39Z</time>
      </trkpt>
      <trkpt lat="34.04186" lon="77.19562">
        <ele>3335.6</ele>
        <time>2015-08-31T08:58:49Z</time>
      </trkpt>
      <trkpt lat="34.04182" lon="77.19564">
        <ele>3335</ele>
        <time>2015-08-31T08:58:52Z</time>
      </trkpt>
      <trkpt lat="34.04177" lon="77.19562">
        <ele>3334.4</ele>
        <time>2015-08-31T08:58:57Z</time>
      </trkpt>
      <trkpt lat="34.04174" lon="77.19556">
        <ele>3334</ele>
        <time>2015-08-31T08:59:09Z</time>
      </trkpt>
      <trkpt lat="34.04179" lon="77.19551">
        <ele>3333.4</ele>
        <time>2015-08-31T08:59:13Z</time>
      </trkpt>
      <trkpt lat="34.04179" lon="77.1955">
        <ele>3333.4</ele>
        <time>2015-08-31T08:59:14Z</time>
      </trkpt>
      <trkpt lat="34.04177" lon="77.1955">
        <ele>3333.2</ele>
        <time>2015-08-31T08:59:17Z</time>
      </trkpt>
      <trkpt lat="34.04174" lon="77.19552">
        <ele>3333</ele>
        <time>2015-08-31T08:59:19Z</time>
      </trkpt>
      <trkpt lat="34.04172" lon="77.19554">
        <ele>3333</ele>
        <time>2015-08-31T08:59:21Z</time>
      </trkpt>
      <trkpt lat="34.0417" lon="77.19554">
        <ele>3333</ele>
        <time>2015-08-31T08:59:23Z</time>
      </trkpt>
      <trkpt lat="34.04168" lon="77.19555">
        <ele>3333.2</ele>
        <time>2015-08-31T08:59:26Z</time>
      </trkpt>
      <trkpt lat="34.04158" lon="77.19554">
        <ele>3333.8</ele>
        <time>2015-08-31T08:59:37Z</time>
      </trkpt>
      <trkpt lat="34.04143" lon="77.1955">
        <ele>3333.2</ele>
        <time>2015-08-31T09:00:09Z</time>
      </trkpt>
      <trkpt lat="34.04137" lon="77.19551">
        <ele>3332.4</ele>
        <time>2015-08-31T09:00:20Z</time>
      </trkpt>
      <trkpt lat="34.04131" lon="77.19557">
        <ele>3332</ele>
        <time>2015-08-31T09:00:31Z</time>
      </trkpt>
      <trkpt lat="34.04128" lon="77.19558">
        <ele>3331.8</ele>
        <time>2015-08-31T09:00:34Z</time>
      </trkpt>
      <trkpt lat="34.04127" lon="77.19562">
        <ele>3331.4</ele>
        <time>2015-08-31T09:00:36Z</time>
      </trkpt>
      <trkpt lat="34.04125" lon="77.19568">
        <ele>3330.2</ele>
        <time>2015-08-31T09:00:41Z</time>
      </trkpt>
      <trkpt lat="34.04124" lon="77.19572">
        <ele>3329</ele>
        <time>2015-08-31T09:00:46Z</time>
      </trkpt>
      <trkpt lat="34.04125" lon="77.19578">
        <ele>3327.8</ele>
        <time>2015-08-31T09:00:53Z</time>
      </trkpt>
      <trkpt lat="34.04125" lon="77.1958">
        <ele>3327.4</ele>
        <time>2015-08-31T09:00:56Z</time>
      </trkpt>
      <trkpt lat="34.04126" lon="77.19582">
        <ele>3327</ele>
        <time>2015-08-31T09:00:58Z</time>
      </trkpt>
      <trkpt lat="34.04126" lon="77.19583">
        <ele>3326.8</ele>
        <time>2015-08-31T09:00:59Z</time>
      </trkpt>
      <trkpt lat="34.04123" lon="77.19588">
        <ele>3325.8</ele>
        <time>2015-08-31T09:01:06Z</time>
      </trkpt>
      <trkpt lat="34.04122" lon="77.19588">
        <ele>3325.6</ele>
        <time>2015-08-31T09:01:07Z</time>
      </trkpt>
      <trkpt lat="34.04122" lon="77.19597">
        <ele>3324.8</ele>
        <time>2015-08-31T09:01:15Z</time>
      </trkpt>
      <trkpt lat="34.04121" lon="77.19598">
        <ele>3324.6</ele>
        <time>2015-08-31T09:01:17Z</time>
      </trkpt>
      <trkpt lat="34.04121" lon="77.19598">
        <ele>3324.6</ele>
        <time>2015-08-31T09:01:18Z</time>
      </trkpt>
      <trkpt lat="34.04117" lon="77.19603">
        <ele>3324</ele>
        <time>2015-08-31T09:01:26Z</time>
      </trkpt>
      <trkpt lat="34.04115" lon="77.19604">
        <ele>3323.6</ele>
        <time>2015-08-31T09:01:29Z</time>
      </trkpt>
      <trkpt lat="34.04112" lon="77.19607">
        <ele>3323.2</ele>
        <time>2015-08-31T09:01:33Z</time>
      </trkpt>
      <trkpt lat="34.04107" lon="77.19608">
        <ele>3322.6</ele>
        <time>2015-08-31T09:01:44Z</time>
      </trkpt>
      <trkpt lat="34.04103" lon="77.1961">
        <ele>3322</ele>
        <time>2015-08-31T09:01:47Z</time>
      </trkpt>
      <trkpt lat="34.04099" lon="77.19613">
        <ele>3321.6</ele>
        <time>2015-08-31T09:01:50Z</time>
      </trkpt>
      <trkpt lat="34.04099" lon="77.19614">
        <ele>3321.2</ele>
        <time>2015-08-31T09:01:52Z</time>
      </trkpt>
      <trkpt lat="34.04094" lon="77.19626">
        <ele>3320.6</ele>
        <time>2015-08-31T09:02:07Z</time>
      </trkpt>
      <trkpt lat="34.04094" lon="77.1963">
        <ele>3320.8</ele>
        <time>2015-08-31T09:02:10Z</time>
      </trkpt>
      <trkpt lat="34.04093" lon="77.19632">
        <ele>3321</ele>
        <time>2015-08-31T09:02:12Z</time>
      </trkpt>
      <trkpt lat="34.04088" lon="77.19635">
        <ele>3320.4</ele>
        <time>2015-08-31T09:02:17Z</time>
      </trkpt>
      <trkpt lat="34.04087" lon="77.1964">
        <ele>3319.4</ele>
        <time>2015-08-31T09:02:22Z</time>
      </trkpt>
      <trkpt lat="34.04087" lon="77.19641">
        <ele>3319.4</ele>
        <time>2015-08-31T09:02:23Z</time>
      </trkpt>
      <trkpt lat="34.04088" lon="77.19664">
        <ele>3318.2</ele>
        <time>2015-08-31T09:02:35Z</time>
      </trkpt>
      <trkpt lat="34.04088" lon="77.19668">
        <ele>3317.8</ele>
        <time>2015-08-31T09:02:39Z</time>
      </trkpt>
      <trkpt lat="34.04088" lon="77.19673">
        <ele>3317</ele>
        <time>2015-08-31T09:02:44Z</time>
      </trkpt>
      <trkpt lat="34.0409" lon="77.1968">
        <ele>3316</ele>
        <time>2015-08-31T09:02:53Z</time>
      </trkpt>
      <trkpt lat="34.0409" lon="77.19692">
        <ele>3315</ele>
        <time>2015-08-31T09:03:05Z</time>
      </trkpt>
      <trkpt lat="34.04089" lon="77.19693">
        <ele>3314.8</ele>
        <time>2015-08-31T09:03:06Z</time>
      </trkpt>
      <trkpt lat="34.0409" lon="77.19694">
        <ele>3314.6</ele>
        <time>2015-08-31T09:03:08Z</time>
      </trkpt>
      <trkpt lat="34.04093" lon="77.19697">
        <ele>3314</ele>
        <time>2015-08-31T09:03:12Z</time>
      </trkpt>
      <trkpt lat="34.04094" lon="77.19699">
        <ele>3313.8</ele>
        <time>2015-08-31T09:03:14Z</time>
      </trkpt>
      <trkpt lat="34.04094" lon="77.19699">
        <ele>3313.6</ele>
        <time>2015-08-31T09:03:15Z</time>
      </trkpt>
      <trkpt lat="34.04094" lon="77.19699">
        <ele>3313.4</ele>
        <time>2015-08-31T09:03:18Z</time>
      </trkpt>
      <trkpt lat="34.04096" lon="77.197">
        <ele>3313.2</ele>
        <time>2015-08-31T09:03:20Z</time>
      </trkpt>
      <trkpt lat="34.041" lon="77.19705">
        <ele>3312.8</ele>
        <time>2015-08-31T09:03:26Z</time>
      </trkpt>
      <trkpt lat="34.04101" lon="77.19706">
        <ele>3312.6</ele>
        <time>2015-08-31T09:03:28Z</time>
      </trkpt>
      <trkpt lat="34.04101" lon="77.19707">
        <ele>3312.6</ele>
        <time>2015-08-31T09:03:29Z</time>
      </trkpt>
      <trkpt lat="34.041" lon="77.19714">
        <ele>3312.4</ele>
        <time>2015-08-31T09:03:34Z</time>
      </trkpt>
      <trkpt lat="34.04103" lon="77.19724">
        <ele>3311.6</ele>
        <time>2015-08-31T09:03:44Z</time>
      </trkpt>
      <trkpt lat="34.04106" lon="77.19727">
        <ele>3311.2</ele>
        <time>2015-08-31T09:03:48Z</time>
      </trkpt>
      <trkpt lat="34.04106" lon="77.19731">
        <ele>3311.4</ele>
        <time>2015-08-31T09:03:52Z</time>
      </trkpt>
      <trkpt lat="34.04106" lon="77.19734">
        <ele>3311.4</ele>
        <time>2015-08-31T09:03:55Z</time>
      </trkpt>
      <trkpt lat="34.04109" lon="77.19739">
        <ele>3310.6</ele>
        <time>2015-08-31T09:04:01Z</time>
      </trkpt>
      <trkpt lat="34.0411" lon="77.1974">
        <ele>3310.4</ele>
        <time>2015-08-31T09:04:02Z</time>
      </trkpt>
      <trkpt lat="34.04114" lon="77.19749">
        <ele>3309.2</ele>
        <time>2015-08-31T09:04:10Z</time>
      </trkpt>
      <trkpt lat="34.04123" lon="77.19757">
        <ele>3308.2</ele>
        <time>2015-08-31T09:04:21Z</time>
      </trkpt>
      <trkpt lat="34.04127" lon="77.19757">
        <ele>3307.8</ele>
        <time>2015-08-31T09:04:24Z</time>
      </trkpt>
      <trkpt lat="34.0413" lon="77.19762">
        <ele>3307.4</ele>
        <time>2015-08-31T09:04:28Z</time>
      </trkpt>
      <trkpt lat="34.04133" lon="77.19764">
        <ele>3307.2</ele>
        <time>2015-08-31T09:04:30Z</time>
      </trkpt>
      <trkpt lat="34.04139" lon="77.19771">
        <ele>3306</ele>
        <time>2015-08-31T09:04:37Z</time>
      </trkpt>
      <trkpt lat="34.04145" lon="77.19777">
        <ele>3305.6</ele>
        <time>2015-08-31T09:04:43Z</time>
      </trkpt>
      <trkpt lat="34.04151" lon="77.1978">
        <ele>3305.6</ele>
        <time>2015-08-31T09:04:47Z</time>
      </trkpt>
      <trkpt lat="34.04152" lon="77.19782">
        <ele>3305.6</ele>
        <time>2015-08-31T09:04:49Z</time>
      </trkpt>
      <trkpt lat="34.04153" lon="77.19784">
        <ele>3305.6</ele>
        <time>2015-08-31T09:04:51Z</time>
      </trkpt>
      <trkpt lat="34.04154" lon="77.19788">
        <ele>3305</ele>
        <time>2015-08-31T09:04:55Z</time>
      </trkpt>
      <trkpt lat="34.04156" lon="77.1979">
        <ele>3303.8</ele>
        <time>2015-08-31T09:05:00Z</time>
      </trkpt>
      <trkpt lat="34.04162" lon="77.19796">
        <ele>3302.8</ele>
        <time>2015-08-31T09:05:08Z</time>
      </trkpt>
      <trkpt lat="34.04168" lon="77.198">
        <ele>3301.8</ele>
        <time>2015-08-31T09:05:15Z</time>
      </trkpt>
      <trkpt lat="34.04174" lon="77.19806">
        <ele>3301</ele>
        <time>2015-08-31T09:05:21Z</time>
      </trkpt>
      <trkpt lat="34.04178" lon="77.19812">
        <ele>3300.8</ele>
        <time>2015-08-31T09:05:27Z</time>
      </trkpt>
      <trkpt lat="34.04177" lon="77.19814">
        <ele>3300.8</ele>
        <time>2015-08-31T09:05:29Z</time>
      </trkpt>
      <trkpt lat="34.04177" lon="77.19815">
        <ele>3300.6</ele>
        <time>2015-08-31T09:05:30Z</time>
      </trkpt>
      <trkpt lat="34.04176" lon="77.1982">
        <ele>3300.6</ele>
        <time>2015-08-31T09:05:34Z</time>
      </trkpt>
      <trkpt lat="34.04179" lon="77.1983">
        <ele>3301.8</ele>
        <time>2015-08-31T09:05:42Z</time>
      </trkpt>
      <trkpt lat="34.0418" lon="77.19832">
        <ele>3301.8</ele>
        <time>2015-08-31T09:05:43Z</time>
      </trkpt>
      <trkpt lat="34.04179" lon="77.19835">
        <ele>3301.2</ele>
        <time>2015-08-31T09:06:09Z</time>
      </trkpt>
      <trkpt lat="34.04178" lon="77.19837">
        <ele>3301.2</ele>
        <time>2015-08-31T09:06:10Z</time>
      </trkpt>
      <trkpt lat="34.0418" lon="77.1984">
        <ele>3300.8</ele>
        <time>2015-08-31T09:06:13Z</time>
      </trkpt>
      <trkpt lat="34.04182" lon="77.19841">
        <ele>3300.6</ele>
        <time>2015-08-31T09:06:15Z</time>
      </trkpt>
      <trkpt lat="34.04188" lon="77.19843">
        <ele>3300.2</ele>
        <time>2015-08-31T09:06:17Z</time>
      </trkpt>
      <trkpt lat="34.0419" lon="77.19846">
        <ele>3299.4</ele>
        <time>2015-08-31T09:06:19Z</time>
      </trkpt>
      <trkpt lat="34.04192" lon="77.19851">
        <ele>3298.4</ele>
        <time>2015-08-31T09:06:23Z</time>
      </trkpt>
      <trkpt lat="34.04195" lon="77.19866">
        <ele>3297.4</ele>
        <time>2015-08-31T09:06:32Z</time>
      </trkpt>
      <trkpt lat="34.04196" lon="77.19872">
        <ele>3296.8</ele>
        <time>2015-08-31T09:06:37Z</time>
      </trkpt>
      <trkpt lat="34.042" lon="77.19876">
        <ele>3296.8</ele>
        <time>2015-08-31T09:06:42Z</time>
      </trkpt>
      <trkpt lat="34.04199" lon="77.19876">
        <ele>3296.4</ele>
        <time>2015-08-31T09:06:44Z</time>
      </trkpt>
      <trkpt lat="34.04198" lon="77.19876">
        <ele>3296.2</ele>
        <time>2015-08-31T09:06:45Z</time>
      </trkpt>
      <trkpt lat="34.04194" lon="77.19876">
        <ele>3296</ele>
        <time>2015-08-31T09:06:51Z</time>
      </trkpt>
      <trkpt lat="34.04192" lon="77.1988">
        <ele>3295.8</ele>
        <time>2015-08-31T09:06:58Z</time>
      </trkpt>
      <trkpt lat="34.04196" lon="77.19879">
        <ele>3296.4</ele>
        <time>2015-08-31T09:07:01Z</time>
      </trkpt>
      <trkpt lat="34.04197" lon="77.19883">
        <ele>3294.8</ele>
        <time>2015-08-31T09:07:08Z</time>
      </trkpt>
      <trkpt lat="34.04193" lon="77.19884">
        <ele>3293.6</ele>
        <time>2015-08-31T09:07:13Z</time>
      </trkpt>
      <trkpt lat="34.04191" lon="77.1989">
        <ele>3292.8</ele>
        <time>2015-08-31T09:07:15Z</time>
      </trkpt>
      <trkpt lat="34.04191" lon="77.19895">
        <ele>3292.2</ele>
        <time>2015-08-31T09:07:17Z</time>
      </trkpt>
      <trkpt lat="34.04192" lon="77.199">
        <ele>3291.2</ele>
        <time>2015-08-31T09:07:25Z</time>
      </trkpt>
      <trkpt lat="34.04191" lon="77.19903">
        <ele>3291.2</ele>
        <time>2015-08-31T09:07:27Z</time>
      </trkpt>
      <trkpt lat="34.04188" lon="77.19908">
        <ele>3290.8</ele>
        <time>2015-08-31T09:07:43Z</time>
      </trkpt>
      <trkpt lat="34.04175" lon="77.19908">
        <ele>3290.6</ele>
        <time>2015-08-31T09:07:53Z</time>
      </trkpt>
      <trkpt lat="34.04173" lon="77.19908">
        <ele>3290.2</ele>
        <time>2015-08-31T09:07:55Z</time>
      </trkpt>
      <trkpt lat="34.04171" lon="77.19905">
        <ele>3289.6</ele>
        <time>2015-08-31T09:07:59Z</time>
      </trkpt>
      <trkpt lat="34.0417" lon="77.19905">
        <ele>3289.2</ele>
        <time>2015-08-31T09:08:01Z</time>
      </trkpt>
      <trkpt lat="34.04169" lon="77.19905">
        <ele>3289.2</ele>
        <time>2015-08-31T09:08:02Z</time>
      </trkpt>
      <trkpt lat="34.04164" lon="77.19913">
        <ele>3288.2</ele>
        <time>2015-08-31T09:08:20Z</time>
      </trkpt>
      <trkpt lat="34.0416" lon="77.1992">
        <ele>3287.4</ele>
        <time>2015-08-31T09:08:27Z</time>
      </trkpt>
      <trkpt lat="34.04158" lon="77.19926">
        <ele>3287.4</ele>
        <time>2015-08-31T09:08:30Z</time>
      </trkpt>
      <trkpt lat="34.04151" lon="77.19932">
        <ele>3287</ele>
        <time>2015-08-31T09:08:36Z</time>
      </trkpt>
      <trkpt lat="34.04146" lon="77.1994">
        <ele>3285.8</ele>
        <time>2015-08-31T09:08:42Z</time>
      </trkpt>
      <trkpt lat="34.04145" lon="77.19941">
        <ele>3284.6</ele>
        <time>2015-08-31T09:08:48Z</time>
      </trkpt>
      <trkpt lat="34.04144" lon="77.19946">
        <ele>3284</ele>
        <time>2015-08-31T09:08:52Z</time>
      </trkpt>
      <trkpt lat="34.04145" lon="77.19948">
        <ele>3283.6</ele>
        <time>2015-08-31T09:08:54Z</time>
      </trkpt>
      <trkpt lat="34.04145" lon="77.19949">
        <ele>3283</ele>
        <time>2015-08-31T09:08:56Z</time>
      </trkpt>
      <trkpt lat="34.04146" lon="77.19949">
        <ele>3282.6</ele>
        <time>2015-08-31T09:08:57Z</time>
      </trkpt>
      <trkpt lat="34.04143" lon="77.19953">
        <ele>3281.4</ele>
        <time>2015-08-31T09:09:02Z</time>
      </trkpt>
      <trkpt lat="34.04141" lon="77.19954">
        <ele>3280.8</ele>
        <time>2015-08-31T09:09:04Z</time>
      </trkpt>
      <trkpt lat="34.04139" lon="77.19955">
        <ele>3280.2</ele>
        <time>2015-08-31T09:09:06Z</time>
      </trkpt>
      <trkpt lat="34.04139" lon="77.19956">
        <ele>3278.8</ele>
        <time>2015-08-31T09:09:10Z</time>
      </trkpt>
      <trkpt lat="34.04139" lon="77.19957">
        <ele>3277.8</ele>
        <time>2015-08-31T09:09:13Z</time>
      </trkpt>
      <trkpt lat="34.04135" lon="77.19963">
        <ele>3276.8</ele>
        <time>2015-08-31T09:09:19Z</time>
      </trkpt>
      <trkpt lat="34.04135" lon="77.19965">
        <ele>3276.6</ele>
        <time>2015-08-31T09:09:21Z</time>
      </trkpt>
      <trkpt lat="34.04134" lon="77.19971">
        <ele>3276</ele>
        <time>2015-08-31T09:09:26Z</time>
      </trkpt>
      <trkpt lat="34.04131" lon="77.19975">
        <ele>3275.8</ele>
        <time>2015-08-31T09:09:29Z</time>
      </trkpt>
      <trkpt lat="34.04128" lon="77.19983">
        <ele>3274.6</ele>
        <time>2015-08-31T09:09:35Z</time>
      </trkpt>
      <trkpt lat="34.04127" lon="77.19983">
        <ele>3274</ele>
        <time>2015-08-31T09:09:37Z</time>
      </trkpt>
      <trkpt lat="34.04126" lon="77.19983">
        <ele>3273.4</ele>
        <time>2015-08-31T09:09:40Z</time>
      </trkpt>
      <trkpt lat="34.04122" lon="77.19988">
        <ele>3272.8</ele>
        <time>2015-08-31T09:09:46Z</time>
      </trkpt>
      <trkpt lat="34.04119" lon="77.19993">
        <ele>3272.4</ele>
        <time>2015-08-31T09:09:49Z</time>
      </trkpt>
      <trkpt lat="34.04115" lon="77.19995">
        <ele>3271.4</ele>
        <time>2015-08-31T09:09:56Z</time>
      </trkpt>
      <trkpt lat="34.0411" lon="77.19997">
        <ele>3271</ele>
        <time>2015-08-31T09:10:00Z</time>
      </trkpt>
      <trkpt lat="34.04105" lon="77.20005">
        <ele>3270.4</ele>
        <time>2015-08-31T09:10:08Z</time>
      </trkpt>
      <trkpt lat="34.04104" lon="77.20005">
        <ele>3270.2</ele>
        <time>2015-08-31T09:10:11Z</time>
      </trkpt>
      <trkpt lat="34.04086" lon="77.20013">
        <ele>3269.4</ele>
        <time>2015-08-31T09:10:31Z</time>
      </trkpt>
      <trkpt lat="34.04074" lon="77.20023">
        <ele>3270.8</ele>
        <time>2015-08-31T09:10:45Z</time>
      </trkpt>
      <trkpt lat="34.0407" lon="77.2003">
        <ele>3271.4</ele>
        <time>2015-08-31T09:10:50Z</time>
      </trkpt>
      <trkpt lat="34.04063" lon="77.20038">
        <ele>3272</ele>
        <time>2015-08-31T09:10:57Z</time>
      </trkpt>
      <trkpt lat="34.04061" lon="77.2004">
        <ele>3272.4</ele>
        <time>2015-08-31T09:10:59Z</time>
      </trkpt>
      <trkpt lat="34.04067" lon="77.20038">
        <ele>3272.4</ele>
        <time>2015-08-31T09:11:00Z</time>
      </trkpt>
      <trkpt lat="34.04067" lon="77.20038">
        <ele>3272.6</ele>
        <time>2015-08-31T09:11:01Z</time>
      </trkpt>
      <trkpt lat="34.04067" lon="77.20038">
        <ele>3273.4</ele>
        <time>2015-08-31T09:11:08Z</time>
      </trkpt>
      <trkpt lat="34.04062" lon="77.20045">
        <ele>3274.6</ele>
        <time>2015-08-31T09:11:20Z</time>
      </trkpt>
      <trkpt lat="34.04063" lon="77.20048">
        <ele>3275.6</ele>
        <time>2015-08-31T09:11:26Z</time>
      </trkpt>
      <trkpt lat="34.04058" lon="77.20053">
        <ele>3275.4</ele>
        <time>2015-08-31T09:11:38Z</time>
      </trkpt>
      <trkpt lat="34.04056" lon="77.20056">
        <ele>3274.8</ele>
        <time>2015-08-31T09:11:45Z</time>
      </trkpt>
      <trkpt lat="34.04055" lon="77.20064">
        <ele>3274.6</ele>
        <time>2015-08-31T09:11:54Z</time>
      </trkpt>
      <trkpt lat="34.04052" lon="77.20064">
        <ele>3273.4</ele>
        <time>2015-08-31T09:11:59Z</time>
      </trkpt>
      <trkpt lat="34.04049" lon="77.20065">
        <ele>3273</ele>
        <time>2015-08-31T09:12:02Z</time>
      </trkpt>
      <trkpt lat="34.04049" lon="77.20066">
        <ele>3272.4</ele>
        <time>2015-08-31T09:12:04Z</time>
      </trkpt>
      <trkpt lat="34.0405" lon="77.20067">
        <ele>3271.8</ele>
        <time>2015-08-31T09:12:06Z</time>
      </trkpt>
      <trkpt lat="34.04049" lon="77.20068">
        <ele>3271</ele>
        <time>2015-08-31T09:12:08Z</time>
      </trkpt>
      <trkpt lat="34.04043" lon="77.20073">
        <ele>3271</ele>
        <time>2015-08-31T09:12:18Z</time>
      </trkpt>
      <trkpt lat="34.04037" lon="77.20078">
        <ele>3271.6</ele>
        <time>2015-08-31T09:12:23Z</time>
      </trkpt>
      <trkpt lat="34.04028" lon="77.20088">
        <ele>3271.8</ele>
        <time>2015-08-31T09:12:29Z</time>
      </trkpt>
      <trkpt lat="34.04015" lon="77.20104">
        <ele>3271.8</ele>
        <time>2015-08-31T09:12:42Z</time>
      </trkpt>
      <trkpt lat="34.04001" lon="77.20119">
        <ele>3271.6</ele>
        <time>2015-08-31T09:12:56Z</time>
      </trkpt>
      <trkpt lat="34.03997" lon="77.20125">
        <ele>3271.2</ele>
        <time>2015-08-31T09:13:00Z</time>
      </trkpt>
      <trkpt lat="34.03996" lon="77.20129">
        <ele>3271</ele>
        <time>2015-08-31T09:13:03Z</time>
      </trkpt>
      <trkpt lat="34.03979" lon="77.20138">
        <ele>3271.4</ele>
        <time>2015-08-31T09:13:19Z</time>
      </trkpt>
      <trkpt lat="34.03974" lon="77.20139">
        <ele>3271.8</ele>
        <time>2015-08-31T09:13:24Z</time>
      </trkpt>
      <trkpt lat="34.03972" lon="77.20141">
        <ele>3272.2</ele>
        <time>2015-08-31T09:13:26Z</time>
      </trkpt>
      <trkpt lat="34.0397" lon="77.20141">
        <ele>3272.4</ele>
        <time>2015-08-31T09:13:28Z</time>
      </trkpt>
      <trkpt lat="34.03957" lon="77.20134">
        <ele>3271.2</ele>
        <time>2015-08-31T09:13:54Z</time>
      </trkpt>
      <trkpt lat="34.03957" lon="77.20133">
        <ele>3271</ele>
        <time>2015-08-31T09:13:55Z</time>
      </trkpt>
      <trkpt lat="34.03955" lon="77.20132">
        <ele>3270.2</ele>
        <time>2015-08-31T09:13:58Z</time>
      </trkpt>
      <trkpt lat="34.03954" lon="77.20131">
        <ele>3270</ele>
        <time>2015-08-31T09:13:59Z</time>
      </trkpt>
      <trkpt lat="34.03952" lon="77.2013">
        <ele>3269.4</ele>
        <time>2015-08-31T09:14:01Z</time>
      </trkpt>
      <trkpt lat="34.0395" lon="77.2013">
        <ele>3269.2</ele>
        <time>2015-08-31T09:14:02Z</time>
      </trkpt>
      <trkpt lat="34.03947" lon="77.20129">
        <ele>3267.8</ele>
        <time>2015-08-31T09:14:06Z</time>
      </trkpt>
      <trkpt lat="34.03944" lon="77.20129">
        <ele>3266.8</ele>
        <time>2015-08-31T09:14:10Z</time>
      </trkpt>
      <trkpt lat="34.03943" lon="77.20125">
        <ele>3265.8</ele>
        <time>2015-08-31T09:14:14Z</time>
      </trkpt>
      <trkpt lat="34.03943" lon="77.20125">
        <ele>3265.4</ele>
        <time>2015-08-31T09:14:15Z</time>
      </trkpt>
      <trkpt lat="34.03939" lon="77.20123">
        <ele>3264.4</ele>
        <time>2015-08-31T09:14:20Z</time>
      </trkpt>
      <trkpt lat="34.03939" lon="77.2012">
        <ele>3263.4</ele>
        <time>2015-08-31T09:14:23Z</time>
      </trkpt>
      <trkpt lat="34.03938" lon="77.20119">
        <ele>3263.2</ele>
        <time>2015-08-31T09:14:24Z</time>
      </trkpt>
      <trkpt lat="34.0393" lon="77.20124">
        <ele>3262</ele>
        <time>2015-08-31T09:14:29Z</time>
      </trkpt>
      <trkpt lat="34.03923" lon="77.20137">
        <ele>3261</ele>
        <time>2015-08-31T09:14:33Z</time>
      </trkpt>
      <trkpt lat="34.03925" lon="77.2014">
        <ele>3259.8</ele>
        <time>2015-08-31T09:14:38Z</time>
      </trkpt>
      <trkpt lat="34.03931" lon="77.2014">
        <ele>3258.6</ele>
        <time>2015-08-31T09:14:45Z</time>
      </trkpt>
      <trkpt lat="34.03933" lon="77.2013">
        <ele>3257.4</ele>
        <time>2015-08-31T09:14:51Z</time>
      </trkpt>
      <trkpt lat="34.03932" lon="77.20127">
        <ele>3256.4</ele>
        <time>2015-08-31T09:14:55Z</time>
      </trkpt>
      <trkpt lat="34.03932" lon="77.20126">
        <ele>3256.2</ele>
        <time>2015-08-31T09:14:56Z</time>
      </trkpt>
      <trkpt lat="34.03933" lon="77.2012">
        <ele>3255</ele>
        <time>2015-08-31T09:15:00Z</time>
      </trkpt>
      <trkpt lat="34.03934" lon="77.20117">
        <ele>3254</ele>
        <time>2015-08-31T09:15:04Z</time>
      </trkpt>
      <trkpt lat="34.03935" lon="77.20116">
        <ele>3253.8</ele>
        <time>2015-08-31T09:15:05Z</time>
      </trkpt>
      <trkpt lat="34.03936" lon="77.20115">
        <ele>3253.6</ele>
        <time>2015-08-31T09:15:07Z</time>
      </trkpt>
      <trkpt lat="34.03937" lon="77.20113">
        <ele>3253.2</ele>
        <time>2015-08-31T09:15:09Z</time>
      </trkpt>
      <trkpt lat="34.03938" lon="77.20112">
        <ele>3253</ele>
        <time>2015-08-31T09:15:10Z</time>
      </trkpt>
      <trkpt lat="34.03938" lon="77.20112">
        <ele>3252.6</ele>
        <time>2015-08-31T09:15:12Z</time>
      </trkpt>
      <trkpt lat="34.03938" lon="77.20111">
        <ele>3251.8</ele>
        <time>2015-08-31T09:15:16Z</time>
      </trkpt>
      <trkpt lat="34.03939" lon="77.20109">
        <ele>3251.8</ele>
        <time>2015-08-31T09:15:22Z</time>
      </trkpt>
      <trkpt lat="34.03939" lon="77.20107">
        <ele>3250.8</ele>
        <time>2015-08-31T09:15:28Z</time>
      </trkpt>
      <trkpt lat="34.03938" lon="77.201">
        <ele>3250</ele>
        <time>2015-08-31T09:15:36Z</time>
      </trkpt>
      <trkpt lat="34.03937" lon="77.20099">
        <ele>3249.6</ele>
        <time>2015-08-31T09:15:38Z</time>
      </trkpt>
      <trkpt lat="34.03933" lon="77.20098">
        <ele>3248.6</ele>
        <time>2015-08-31T09:15:42Z</time>
      </trkpt>
      <trkpt lat="34.03926" lon="77.20094">
        <ele>3247.4</ele>
        <time>2015-08-31T09:15:49Z</time>
      </trkpt>
      <trkpt lat="34.0392" lon="77.20091">
        <ele>3246.8</ele>
        <time>2015-08-31T09:15:54Z</time>
      </trkpt>
      <trkpt lat="34.03914" lon="77.2009">
        <ele>3246.4</ele>
        <time>2015-08-31T09:16:01Z</time>
      </trkpt>
      <trkpt lat="34.03911" lon="77.20089">
        <ele>3246.2</ele>
        <time>2015-08-31T09:16:03Z</time>
      </trkpt>
      <trkpt lat="34.03905" lon="77.20083">
        <ele>3245.2</ele>
        <time>2015-08-31T09:16:14Z</time>
      </trkpt>
      <trkpt lat="34.03898" lon="77.20078">
        <ele>3244.4</ele>
        <time>2015-08-31T09:16:22Z</time>
      </trkpt>
      <trkpt lat="34.03897" lon="77.20077">
        <ele>3244.2</ele>
        <time>2015-08-31T09:16:23Z</time>
      </trkpt>
      <trkpt lat="34.03891" lon="77.20074">
        <ele>3243</ele>
        <time>2015-08-31T09:16:30Z</time>
      </trkpt>
      <trkpt lat="34.0389" lon="77.20072">
        <ele>3242.8</ele>
        <time>2015-08-31T09:16:32Z</time>
      </trkpt>
      <trkpt lat="34.0389" lon="77.20063">
        <ele>3242</ele>
        <time>2015-08-31T09:16:48Z</time>
      </trkpt>
      <trkpt lat="34.03881" lon="77.20064">
        <ele>3241.4</ele>
        <time>2015-08-31T09:16:56Z</time>
      </trkpt>
      <trkpt lat="34.03878" lon="77.20063">
        <ele>3241</ele>
        <time>2015-08-31T09:16:59Z</time>
      </trkpt>
      <trkpt lat="34.03877" lon="77.20061">
        <ele>3240.8</ele>
        <time>2015-08-31T09:17:01Z</time>
      </trkpt>
      <trkpt lat="34.03875" lon="77.20059">
        <ele>3240.4</ele>
        <time>2015-08-31T09:17:04Z</time>
      </trkpt>
      <trkpt lat="34.03873" lon="77.20057">
        <ele>3240</ele>
        <time>2015-08-31T09:17:07Z</time>
      </trkpt>
      <trkpt lat="34.03871" lon="77.20057">
        <ele>3239.8</ele>
        <time>2015-08-31T09:17:08Z</time>
      </trkpt>
      <trkpt lat="34.03868" lon="77.20056">
        <ele>3239.6</ele>
        <time>2015-08-31T09:17:11Z</time>
      </trkpt>
      <trkpt lat="34.03865" lon="77.20055">
        <ele>3238.8</ele>
        <time>2015-08-31T09:17:18Z</time>
      </trkpt>
      <trkpt lat="34.03863" lon="77.20065">
        <ele>3292.2</ele>
        <time>2015-08-31T09:17:46Z</time>
      </trkpt>
    </trkseg>
  </trk>
</gpx>